ECMWFFLT1_sfc_thetae_000.txt.gz
Theta_e
289 288 288 287 286 286 286 287 288 288 288 287 287 287 287 286 286 285 285 285 285 285 284 284 283 283 283 282 282 282 281 280 280 280 279 279 279 279 279 278 278 278 278 278 277 278 278 278 277 278 277 277 277 277 277 278 278 278 277 278 278 279
289 289 288 287 287 286 286 286 287 287 287 286 286 286 285 285 285 285 284 284 284 284 283 283 283 283 282 282 281 281 280 280 279 279 279 279 279 278 278 278 277 277 277 277 277 277 277 277 277 277 276 276 276 276 276 276 276 276 276 277 277 278
288 287 287 286 285 285 285 286 287 287 287 286 286 286 285 285 285 284 284 284 283 283 283 282 282 282 281 281 281 280 280 279 280 279 279 279 278 278 278 277 277 277 277 277 277 276 276 276 276 276 276 275 275 275 275 275 275 275 275 275 275 276
286 285 284 284 284 285 285 286 286 286 286 286 286 286 285 285 284 284 284 283 283 282 282 282 281 281 281 280 280 279 279 279 279 279 279 278 278 278 277 277 277 277 276 276 276 276 275 275 275 275 275 275 274 274 275 274 274 273 273 273 273 273
288 288 288 287 286 286 285 284 285 286 286 285 286 285 285 285 284 284 283 283 282 282 282 281 280 280 280 279 279 279 279 279 279 279 278 278 278 277 277 277 277 276 276 275 275 275 275 275 275 275 274 274 274 273 273 273 272 272 271 271 271 271
287 286 286 286 286 285 285 285 286 285 285 285 285 285 284 284 284 284 283 282 282 281 281 280 280 279 279 279 279 278 278 279 279 279 278 278 277 277 277 276 276 276 275 275 275 275 274 274 274 274 273 273 272 272 272 271 271 271 271 270 270 271
286 287 287 287 286 286 285 285 285 285 285 285 285 285 284 284 283 283 283 282 281 281 280 280 279 279 279 279 278 278 278 278 278 278 277 277 277 277 276 276 276 275 275 275 274 274 274 273 273 273 272 272 271 271 271 270 270 270 270 270 270 271
288 287 286 286 286 286 286 285 285 285 285 285 285 284 283 283 283 283 282 282 281 280 280 279 279 279 278 278 278 278 278 278 278 277 277 277 276 276 276 276 275 275 274 274 273 273 272 272 272 271 271 270 270 270 270 270 270 269 269 270 270 270
286 287 286 287 286 285 285 285 285 285 285 284 284 284 284 283 283 282 282 281 281 280 280 279 279 279 278 278 278 278 278 277 277 277 276 276 276 275 274 274 274 273 273 272 272 271 271 271 270 270 270 270 270 270 270 269 269 269 269 270 270 270
287 286 286 286 285 285 284 284 285 285 284 284 284 284 284 283 282 282 281 281 280 280 280 279 279 278 278 278 278 278 277 277 276 276 275 275 274 273 273 272 272 271 271 271 270 270 270 270 270 269 269 270 270 270 269 269 269 269 269 270 270 271
287 287 287 286 285 284 285 284 284 284 284 284 284 284 283 283 282 281 281 280 280 280 280 279 279 278 278 278 277 277 276 276 275 274 274 273 272 272 271 271 271 270 271 271 270 270 271 270 270 270 270 269 269 269 268 269 269 269 270 270 270 271
288 288 287 286 286 285 285 285 284 284 284 283 283 283 283 282 281 281 280 280 280 280 279 279 278 278 278 277 276 275 275 274 273 272 271 271 270 270 271 270 270 270 270 270 270 270 270 270 270 271 273 273 269 269 270 270 270 270 270 270 270 271
290 289 288 287 286 286 286 285 284 284 283 283 283 283 282 281 281 280 280 280 279 279 278 278 277 277 276 276 275 274 273 272 271 270 269 269 269 269 269 269 269 269 270 270 269 270 270 270 270 273 275 275 276 273 272 271 271 271 271 271 271 271
290 290 289 289 288 287 286 285 284 283 283 283 282 282 281 281 280 280 279 279 278 278 277 277 276 275 275 274 273 272 271 270 269 269 268 268 268 268 268 268 269 269 269 269 269 270 270 270 272 274 275 275 276 276 273 273 272 272 272 272 271 271
292 292 290 290 289 287 286 286 284 283 283 283 282 281 280 280 280 279 279 278 277 277 276 276 275 274 273 272 271 270 270 269 269 268 267 267 268 268 268 268 268 268 269 269 269 269 270 270 272 274 275 275 276 276 275 273 273 272 272 272 272 272
292 292 291 291 290 288 287 286 285 284 284 283 281 280 280 279 279 278 278 277 277 276 275 274 274 273 272 270 269 269 268 268 267 267 268 268 268 268 268 268 268 269 269 269 269 269 269 269 271 274 275 275 275 276 276 274 273 273 273 272 272 271
293 292 289 288 289 287 285 284 283 282 282 282 280 280 280 279 279 278 277 276 275 275 274 273 272 271 270 269 268 267 267 267 267 267 267 267 268 267 267 267 268 268 269 269 269 269 269 269 272 273 274 275 275 276 276 274 273 272 272 271 272 272
293 291 290 287 285 284 285 284 283 282 281 281 280 279 279 278 277 277 276 275 274 274 273 272 270 269 268 267 267 267 267 266 267 267 267 267 267 268 268 268 268 268 268 268 268 267 267 268 271 273 274 274 275 276 274 273 272 271 271 271 272 272
290 291 286 284 285 284 284 283 282 282 279 278 278 278 278 277 277 276 275 275 274 273 273 271 269 268 267 267 267 266 266 266 266 267 267 267 267 267 267 267 268 268 267 267 267 267 267 267 269 272 273 273 275 275 273 272 272 272 271 271 272 272
287 285 286 284 284 284 283 282 282 280 279 278 277 277 277 276 276 276 275 274 274 273 271 270 269 268 267 266 266 266 266 266 267 267 267 267 267 266 267 267 267 267 267 267 266 267 266 266 268 271 272 274 274 274 273 272 271 271 271 272 272 273
286 285 284 283 283 282 282 281 280 279 278 277 276 277 276 276 276 275 274 273 273 272 271 269 269 268 267 266 266 267 266 266 266 267 267 267 267 267 267 267 266 266 267 267 267 268 267 266 268 271 272 273 274 274 273 272 271 271 271 272 272 273
285 283 284 284 283 282 281 281 280 278 277 276 276 276 276 276 276 275 274 273 272 272 271 270 269 268 267 267 266 266 266 266 266 266 266 266 266 266 266 266 266 265 265 266 266 266 267 267 267 269 272 273 274 274 273 272 271 270 271 272 272 272
287 286 285 284 282 281 280 280 279 278 276 276 275 275 276 276 275 274 272 272 271 270 270 269 269 268 267 267 266 266 266 266 266 265 265 265 265 265 265 265 265 265 264 265 266 266 267 268 267 268 272 273 273 274 274 272 272 272 272 272 272 272
283 282 281 281 280 280 279 279 278 277 276 275 275 276 276 275 274 272 271 270 270 269 268 268 268 267 266 265 265 265 265 265 265 265 264 265 265 265 264 264 264 264 264 265 267 267 267 269 270 269 271 272 273 273 275 273 273 274 273 272 271 271
282 282 280 279 279 279 279 279 278 276 275 275 275 275 274 274 272 271 270 269 268 267 267 266 266 265 264 264 265 265 264 264 264 264 264 264 264 263 263 263 263 264 265 266 266 267 268 269 269 270 269 271 272 273 274 275 275 276 274 272 270 270
282 281 278 277 277 278 278 278 278 276 275 276 275 274 273 272 271 269 268 267 267 266 265 265 264 264 263 264 264 264 263 263 263 263 263 264 263 262 262 263 264 264 264 264 266 267 268 268 268 269 270 270 272 273 275 275 275 275 273 272 270 270
281 279 276 276 276 277 277 278 278 277 275 276 274 273 271 270 269 268 267 266 265 264 264 263 263 263 263 264 264 263 262 262 262 262 263 263 263 263 263 264 265 264 264 265 266 266 267 268 268 268 269 271 272 273 274 274 274 274 274 271 270 270
278 277 277 274 274 275 276 277 278 277 277 274 273 272 271 270 269 267 266 265 264 263 262 262 262 263 263 264 264 264 263 262 263 263 263 263 264 264 264 265 264 264 265 265 266 266 266 267 267 268 269 270 271 272 273 273 273 273 273 272 271 272
278 278 278 277 274 275 275 275 276 276 274 273 273 272 270 269 268 267 265 264 263 262 262 262 261 261 262 263 264 264 263 264 264 264 263 263 264 264 264 265 265 265 265 265 265 266 266 266 267 267 268 269 270 271 272 272 271 272 272 270 269 271
279 279 278 278 277 275 275 275 275 274 272 272 272 270 269 268 267 266 264 263 262 262 262 262 263 262 262 263 263 263 263 264 265 264 263 264 264 264 264 264 265 265 265 265 265 265 265 266 266 267 268 269 271 271 271 271 271 270 269 269 270 268
279 279 278 279 277 274 274 274 274 272 271 271 270 269 268 267 266 265 264 263 262 262 262 262 262 262 262 262 263 263 264 264 264 265 265 266 266 266 265 265 266 266 266 266 266 265 265 265 266 267 272 272 272 272 271 270 270 270 269 271 272 266
279 279 278 279 276 274 274 273 273 271 271 270 269 269 268 267 265 264 263 263 262 262 262 261 261 262 262 262 262 262 263 267 268 267 265 265 269 270 271 270 267 267 267 266 267 267 265 266 267 272 272 272 272 273 273 272 272 272 271 271 270 266
279 278 278 279 276 274 274 273 273 270 269 269 269 268 268 266 265 264 263 263 262 262 262 262 261 262 262 263 262 262 262 264 267 270 269 269 270 271 272 272 272 272 271 268 266 269 272 271 272 272 272 272 272 272 272 271 271 271 271 270 265 259
277 278 278 279 277 275 273 273 272 269 269 268 268 268 268 266 265 264 263 263 263 263 262 262 262 262 262 262 262 262 262 263 263 266 270 271 272 272 273 273 273 273 272 272 270 268 268 271 272 272 271 271 271 271 271 270 270 270 270 269 266 257
281 280 279 279 276 274 272 272 271 269 268 268 268 268 267 266 266 265 264 263 263 262 263 262 262 262 262 261 262 262 263 263 264 264 265 269 272 273 273 272 272 273 272 272 272 272 271 271 271 271 271 271 270 270 270 269 269 269 269 266 259 255
283 282 280 278 275 273 272 271 271 268 268 268 268 268 267 267 266 265 264 263 263 262 262 262 262 262 262 262 263 263 263 263 264 265 265 264 265 268 270 272 272 272 272 272 272 272 271 271 271 271 270 270 270 269 268 267 264 267 267 264 256 256
283 281 280 278 274 272 271 272 271 269 268 267 267 267 267 267 266 265 265 266 265 263 263 263 263 263 262 263 263 263 263 263 264 264 264 263 264 264 263 262 263 268 270 268 269 271 271 271 270 270 269 269 268 267 266 263 257 256 256 257 256 256
281 281 279 276 274 272 271 271 270 267 266 266 267 267 267 266 266 265 264 264 264 264 263 263 262 263 263 263 263 264 263 263 263 263 262 262 263 263 260 259 259 259 267 269 269 270 270 270 270 269 268 267 267 265 263 254 253 253 254 254 254 255

ECMWFFLT1_sfc_thetae_003.txt.gz
Theta_e
287 287 287 287 287 287 287 287 288 288 287 287 287 287 287 287 287 286 286 286 286 286 285 285 285 285 285 284 284 283 283 282 282 281 281 280 280 280 280 279 279 278 278 278 278 278 278 278 278 278 278 278 277 277 277 277 277 277 277 277 277 278
288 288 287 287 287 286 286 286 287 287 287 287 287 287 286 285 285 286 286 286 286 285 285 284 285 284 284 283 283 282 282 282 281 281 280 280 280 280 279 279 278 278 277 277 277 277 277 277 277 277 277 277 277 276 277 276 276 276 276 276 277 278
288 287 287 287 285 284 284 285 286 287 287 286 286 286 286 285 286 286 286 285 285 284 284 284 284 283 283 282 282 282 282 281 281 281 280 280 280 279 279 278 278 278 277 277 277 277 277 277 277 277 277 276 276 276 275 275 275 275 275 275 275 275
288 286 284 283 284 285 285 286 286 286 286 287 287 286 286 286 286 285 286 285 285 284 284 283 283 282 282 282 281 282 281 281 281 280 279 279 279 279 278 278 278 277 277 277 277 277 277 277 276 276 276 276 275 275 275 275 274 274 273 273 273 273
288 288 288 287 286 286 285 285 286 286 287 287 286 286 286 286 286 286 285 284 284 283 283 282 282 281 281 281 281 281 280 280 280 280 279 279 278 278 278 278 277 277 277 277 276 276 276 276 276 275 275 275 274 274 273 274 273 272 272 272 272 272
285 285 285 286 286 285 285 285 286 286 286 287 286 286 286 286 285 285 284 283 283 282 282 281 281 280 280 280 280 280 279 279 279 279 279 278 278 278 277 278 277 277 277 276 276 276 275 275 275 275 274 274 274 273 273 273 272 272 272 271 271 271
285 286 287 287 287 287 286 286 286 286 286 286 286 286 286 286 285 284 283 283 282 281 281 281 281 280 280 280 280 279 279 278 278 278 278 278 277 277 277 277 277 277 276 276 275 275 275 275 274 274 273 273 273 273 273 272 272 272 272 271 271 272
289 287 287 288 288 287 287 286 286 286 286 286 287 286 285 285 284 284 283 283 282 281 281 281 280 280 280 280 279 279 278 278 278 278 278 278 277 277 277 276 276 276 276 275 275 275 274 274 273 273 273 272 272 272 272 272 272 271 271 271 271 270
289 289 289 289 289 288 288 287 286 286 286 286 286 286 286 285 284 283 283 282 282 282 281 281 281 280 280 280 279 279 278 278 278 278 277 277 277 276 276 276 275 275 275 274 274 274 273 273 273 272 272 272 272 272 271 271 271 271 270 270 270 270
291 290 290 289 288 288 287 287 287 287 286 286 286 286 285 285 284 283 283 282 282 282 281 281 281 280 280 279 278 278 278 278 278 277 277 277 276 276 275 275 274 274 274 273 273 273 272 272 271 271 271 271 271 271 271 271 270 270 270 270 270 270
292 291 290 289 287 286 286 286 286 286 286 286 286 285 285 285 284 283 283 282 282 282 281 281 280 280 279 278 278 278 278 277 277 277 276 276 275 275 275 274 273 273 272 272 272 271 271 271 271 271 271 270 270 271 270 270 270 270 270 270 270 270
293 292 290 289 287 287 286 286 285 285 285 286 285 285 285 284 283 283 282 282 282 281 280 280 279 279 278 278 277 277 277 277 276 275 275 275 274 273 273 272 272 272 271 271 270 270 271 271 271 273 275 274 271 270 270 270 270 270 270 270 270 270
293 292 290 288 288 287 287 287 286 286 286 286 285 285 284 284 283 283 282 282 282 281 280 279 279 278 278 278 277 277 276 276 275 274 274 272 271 271 272 272 271 271 271 271 270 270 270 270 271 275 276 277 276 271 270 270 270 270 270 270 270 270
293 292 291 289 289 288 287 287 286 285 285 285 285 285 284 283 283 282 282 282 281 280 280 279 278 277 277 277 277 276 275 274 273 273 272 271 271 271 271 271 271 271 271 271 271 270 270 270 273 276 277 278 278 275 271 271 270 271 271 271 271 272
293 293 293 292 291 289 288 288 286 285 285 285 285 284 282 283 283 282 281 281 280 279 279 278 277 277 276 276 276 275 273 273 273 272 271 271 272 271 271 271 270 270 270 270 270 270 270 270 275 277 278 278 278 279 275 272 272 272 272 272 272 272
294 293 293 293 293 292 291 288 287 287 286 285 283 282 282 282 282 281 280 280 279 279 278 277 277 277 276 275 274 273 272 272 272 271 271 271 270 270 270 270 270 270 270 270 270 270 270 270 275 277 278 278 278 279 278 275 274 273 273 273 273 273
292 292 292 292 292 291 289 287 287 286 283 283 282 282 281 281 281 280 280 279 279 278 278 277 276 276 275 274 273 272 272 272 271 270 270 269 269 269 269 269 269 269 270 270 270 270 270 270 275 277 278 278 278 278 278 275 274 274 274 273 272 272
292 292 293 293 290 289 288 288 286 284 284 283 283 282 281 281 280 280 279 279 278 278 277 277 276 275 274 273 272 271 272 271 270 269 269 269 269 269 269 269 269 269 269 270 270 270 269 270 275 276 277 277 278 278 276 275 274 272 272 271 272 272
293 293 292 290 290 288 286 285 284 284 282 281 281 281 280 280 279 279 279 278 278 277 277 277 275 274 272 272 271 271 271 270 269 269 269 268 269 268 268 268 268 269 269 269 269 269 268 269 274 276 276 276 277 277 274 273 272 272 271 272 272 272
291 290 290 290 288 287 285 283 283 282 281 281 280 280 279 279 279 279 278 278 278 277 276 276 275 273 272 271 271 270 270 270 269 269 269 268 267 267 267 267 267 268 269 269 268 269 268 268 272 275 275 276 276 276 273 272 272 271 271 271 272 273
286 286 285 285 285 281 281 281 282 281 281 280 279 279 279 279 279 278 278 278 277 276 276 275 274 273 271 271 271 270 269 269 268 268 268 268 267 267 267 267 267 267 268 268 268 270 268 267 270 274 274 275 276 275 273 272 271 271 271 271 271 272
284 284 282 282 280 278 279 279 280 280 280 279 278 278 278 278 279 279 278 277 276 275 275 274 273 272 271 271 270 270 269 269 267 267 267 267 267 267 266 266 266 266 266 267 267 269 268 267 267 270 274 275 276 276 273 272 271 270 270 271 271 271
283 283 283 281 279 278 277 278 279 278 277 277 277 278 279 279 277 277 276 275 274 274 274 273 273 271 271 271 270 269 268 268 267 267 266 266 266 266 266 265 265 265 266 267 267 267 268 268 268 269 273 274 275 276 275 272 271 271 271 271 271 272
287 282 279 278 278 278 277 278 278 276 276 275 277 278 276 276 275 275 274 274 274 273 272 272 272 271 270 270 269 268 267 267 267 266 266 266 266 265 265 265 265 265 265 266 266 266 267 269 270 268 272 274 275 275 276 272 272 273 272 272 272 272
286 284 279 277 276 277 278 278 278 276 276 276 278 275 275 274 274 274 273 272 272 271 271 270 270 270 269 268 268 267 266 266 265 265 265 265 265 265 264 264 265 265 265 265 266 267 267 268 270 271 270 273 274 275 275 275 274 276 274 272 271 271
283 282 278 275 276 276 278 278 279 277 276 278 275 274 273 274 273 273 272 271 271 270 270 269 269 268 268 267 267 266 265 265 264 264 264 265 264 264 264 264 264 265 265 265 265 266 267 268 269 272 272 271 273 274 275 275 276 276 274 273 272 272
285 284 279 275 275 276 277 278 279 278 277 277 274 275 274 273 272 272 271 270 270 269 269 268 268 267 266 266 266 265 265 264 264 264 264 265 265 264 264 264 265 265 265 265 265 266 267 268 268 268 271 272 273 274 275 275 275 275 275 272 271 271
279 278 280 277 273 275 276 277 278 279 280 277 275 275 274 273 272 271 270 270 269 269 268 267 266 266 266 266 266 266 265 264 264 264 264 265 264 264 264 264 265 265 265 265 266 266 267 267 267 267 268 271 272 273 274 274 274 273 273 273 272 272
283 280 278 279 276 274 275 275 277 279 277 274 275 274 272 271 271 270 270 269 269 268 267 267 266 265 265 265 265 265 265 265 265 265 264 264 264 265 265 265 265 265 265 265 266 266 266 266 267 267 268 268 269 270 271 272 272 272 272 271 270 270
283 282 281 280 281 277 276 276 277 277 275 273 273 272 271 271 271 271 270 269 268 266 267 266 265 265 265 265 265 264 264 264 265 265 265 265 265 265 265 265 265 265 266 265 266 266 265 266 266 267 267 268 269 269 271 271 271 271 269 268 269 267
285 284 283 283 284 281 277 277 277 276 276 274 272 271 271 271 271 270 269 268 267 266 266 266 265 265 265 265 264 265 265 264 264 265 266 268 268 268 267 266 266 267 267 267 266 265 265 265 265 266 270 269 271 271 271 271 270 269 269 270 271 264
284 284 284 285 285 282 280 279 278 276 276 274 273 272 271 270 270 269 268 267 266 266 265 265 265 265 265 264 264 263 264 267 270 268 266 266 270 271 272 271 268 268 267 267 267 267 265 265 266 272 274 274 274 274 274 273 272 272 271 271 270 264
284 283 283 283 283 281 280 279 278 276 274 273 273 272 272 270 269 269 268 267 266 265 265 265 265 265 265 264 264 264 264 265 268 271 271 271 272 273 273 273 273 273 272 268 266 269 271 272 273 274 275 274 274 274 273 273 272 272 271 270 264 257
283 283 283 283 283 281 280 279 277 275 274 273 272 272 271 270 270 268 268 267 266 265 265 265 264 264 264 264 264 264 265 265 265 267 272 273 274 275 275 275 274 274 273 272 271 270 270 273 274 275 274 274 273 273 273 272 272 271 270 268 266 255
279 280 281 282 282 281 279 278 278 276 273 272 271 271 271 270 270 269 268 266 266 265 265 264 264 264 264 264 264 264 265 265 265 265 267 271 275 276 275 275 275 274 274 274 273 273 272 273 274 274 274 273 273 272 272 272 271 270 269 267 257 253
274 274 275 276 278 280 279 278 278 276 273 272 271 271 271 271 270 270 268 266 266 265 264 264 264 264 264 265 265 265 266 266 267 267 268 268 269 271 273 275 275 275 274 274 274 274 274 274 274 274 273 273 272 271 271 270 268 269 268 263 255 254
272 272 273 274 275 276 278 278 278 276 273 273 272 272 272 272 271 270 268 266 266 265 265 265 265 265 265 265 265 266 266 266 267 268 268 268 268 268 267 269 271 274 275 272 273 274 274 274 274 273 272 272 271 270 269 267 259 257 255 255 254 255
270 272 273 274 275 276 277 278 279 275 273 272 272 272 272 272 271 270 269 267 266 266 265 265 265 265 265 265 265 266 267 267 267 267 268 268 268 268 267 268 269 271 274 274 274 275 275 274 273 272 272 270 270 269 267 257 254 253 253 253 252 252

ECMWFFLT1_sfc_thetae_006.txt.gz
Theta_e
287 286 287 286 286 287 287 287 287 287 287 287 287 287 288 287 287 286 286 286 287 287 287 287 286 286 286 285 285 284 284 283 283 283 283 282 282 282 281 281 281 280 280 280 279 279 279 279 279 279 278 278 278 277 277 277 277 277 277 277 277 277
287 287 286 286 286 286 285 285 285 286 287 286 286 287 286 285 285 286 286 286 286 287 286 286 286 286 285 285 284 283 283 283 283 282 281 281 281 281 281 281 280 280 279 279 279 278 278 278 278 278 278 278 278 277 277 277 277 277 276 276 277 278
287 287 286 285 284 284 284 285 286 286 285 286 286 286 286 286 286 286 286 286 286 286 285 285 285 285 285 284 283 283 283 283 283 282 282 281 281 281 280 280 280 280 279 279 278 278 278 278 278 278 278 278 277 277 277 276 276 276 276 276 275 276
287 287 284 283 284 284 284 285 285 285 286 287 287 286 286 285 285 286 286 286 286 285 286 285 284 284 284 283 282 283 282 282 282 282 280 280 280 280 280 280 280 279 279 278 278 278 278 278 278 278 278 277 277 276 276 276 275 275 274 274 273 274
288 287 286 286 286 286 284 284 285 286 286 286 286 286 286 286 287 286 286 286 285 285 285 285 283 283 283 283 282 282 282 282 281 281 280 280 280 280 280 280 279 279 278 278 278 278 278 278 278 278 277 277 276 275 275 275 275 274 273 273 272 272
286 286 287 287 287 286 286 285 285 286 286 286 286 286 286 286 286 286 285 285 285 285 284 284 283 282 282 282 283 282 282 281 281 281 280 280 280 279 279 279 279 278 278 278 277 277 277 277 277 276 276 276 276 275 275 274 274 273 273 273 272 272
286 288 288 288 288 288 287 286 286 286 286 286 286 287 287 287 286 285 285 285 284 284 283 283 283 282 282 282 282 282 281 281 280 280 280 280 279 279 279 278 278 278 278 277 277 276 276 276 276 276 275 275 275 274 274 273 273 273 272 272 272 273
289 288 288 289 289 289 289 287 287 286 286 286 287 287 287 286 286 285 285 284 284 283 283 283 282 282 282 282 282 282 281 280 280 280 280 279 279 278 278 278 277 278 277 277 276 276 276 276 275 275 275 274 274 274 273 273 272 272 272 272 272 272
290 291 291 290 290 290 289 288 287 286 286 286 286 287 287 286 286 285 284 284 284 283 283 283 283 283 282 282 282 282 281 280 280 280 279 279 279 278 277 277 277 277 277 276 276 276 275 275 275 274 274 274 273 273 273 273 272 272 272 271 271 271
291 291 291 291 291 290 289 288 288 287 286 286 286 286 286 286 285 285 284 284 283 283 283 283 283 283 283 282 282 281 280 280 280 280 279 279 278 278 277 277 277 276 276 276 276 275 275 275 274 274 273 273 273 273 273 272 271 271 270 270 270 270
293 293 292 291 291 290 289 288 287 287 287 286 286 285 286 286 285 285 284 284 283 284 284 284 283 282 282 281 281 280 280 280 279 279 279 278 278 278 278 277 277 276 275 275 275 274 274 274 274 274 274 273 273 272 272 271 271 270 270 269 269 269
293 294 294 294 292 291 290 289 288 288 287 287 286 285 286 285 285 285 284 284 284 284 284 283 282 282 281 281 280 280 280 279 279 279 278 278 278 277 277 276 276 275 275 274 274 274 274 274 274 276 278 277 273 271 271 270 270 270 270 269 269 269
293 293 294 294 294 293 291 290 289 288 287 287 286 286 286 285 285 285 284 284 284 284 283 282 281 281 280 281 280 280 279 279 278 278 277 277 276 276 276 276 275 274 274 274 273 273 273 273 274 278 280 279 278 273 271 270 269 269 270 270 269 269
294 293 293 294 295 295 294 293 292 289 287 287 286 286 286 285 285 284 284 285 284 283 282 282 281 280 280 280 280 279 278 278 277 277 276 276 275 275 275 274 274 274 274 273 273 273 273 273 276 280 281 280 279 276 271 270 270 270 270 270 270 271
292 293 294 294 296 297 296 295 292 289 288 287 287 286 284 284 285 284 284 284 283 282 282 281 280 280 279 279 279 278 277 277 276 276 275 275 275 274 273 274 274 273 273 273 272 272 272 272 278 281 282 281 280 278 273 270 270 270 270 271 271 271
291 291 292 294 295 296 296 295 292 291 290 287 284 284 284 284 284 284 284 283 283 282 281 280 280 280 279 279 278 277 277 276 276 276 276 275 274 274 274 273 273 273 273 272 272 272 272 271 277 281 282 281 281 279 275 270 270 271 271 271 272 272
289 289 290 291 292 293 294 294 290 289 288 285 284 284 284 283 283 283 283 282 282 282 281 280 280 279 279 278 278 277 276 276 276 276 275 275 274 274 274 273 273 272 272 272 271 271 271 270 278 281 282 282 282 280 275 271 271 272 272 273 273 273
288 288 288 289 289 290 291 290 289 286 286 282 283 282 283 283 282 282 282 282 282 281 281 280 279 279 278 278 277 276 276 276 276 275 275 274 274 274 274 273 273 272 271 271 271 270 269 270 278 281 282 282 282 282 274 273 273 273 273 273 274 274
288 287 287 287 287 286 286 286 286 286 284 281 280 280 279 280 281 281 281 281 281 281 281 280 279 279 278 277 277 276 276 276 275 275 274 274 274 273 273 272 272 271 271 270 270 269 269 269 277 282 282 282 282 281 275 274 274 273 273 273 273 273
289 288 288 286 287 284 281 282 283 283 282 281 279 278 278 279 280 280 280 281 281 280 280 280 279 279 278 277 276 276 276 276 275 275 274 273 273 272 272 271 270 270 270 270 269 270 269 269 276 281 282 282 282 280 275 274 273 272 272 272 272 272
288 288 288 288 287 283 279 280 282 282 281 279 278 277 277 279 279 280 280 281 280 280 279 279 279 279 277 276 276 275 275 275 274 274 273 273 272 272 271 270 269 268 268 269 269 272 270 269 275 281 281 281 282 279 274 274 272 271 271 271 272 272
288 288 288 288 287 282 278 279 280 280 279 279 278 278 279 279 280 279 278 278 278 277 277 279 279 278 277 276 276 275 275 274 272 271 271 270 270 269 269 268 268 267 268 268 268 270 269 269 272 277 281 281 281 280 274 273 272 271 271 271 271 270
288 287 287 288 286 283 281 280 282 281 278 278 278 279 280 279 278 277 277 277 276 276 276 277 278 277 275 275 274 274 272 272 271 270 270 269 268 269 268 268 267 267 267 268 268 269 268 268 270 275 280 280 281 280 276 273 272 271 271 270 270 270
287 287 287 288 287 284 281 280 281 281 277 275 278 281 279 277 276 276 275 275 275 274 275 275 276 275 274 273 273 272 271 271 270 270 269 269 268 268 267 267 267 266 266 266 267 267 267 269 273 272 278 280 280 280 278 273 272 272 270 270 270 271
286 286 287 287 287 285 282 279 279 280 277 276 280 278 275 275 275 275 275 274 274 274 274 274 274 274 273 273 273 272 271 270 269 268 268 268 267 267 267 266 266 265 265 265 266 266 267 268 270 274 275 279 280 280 279 276 274 276 272 270 270 272
285 285 286 286 286 285 283 280 280 281 280 280 281 275 274 274 274 275 275 274 274 274 274 273 273 273 273 272 272 272 270 269 268 268 268 267 267 267 266 266 266 265 265 265 265 266 266 268 269 273 276 276 279 279 280 278 277 277 273 273 272 272
284 284 285 286 286 285 283 281 280 281 281 283 280 278 275 275 274 274 274 274 274 274 273 273 273 272 272 271 271 270 269 268 267 267 267 267 267 267 266 266 266 266 266 265 265 265 266 268 269 270 274 277 278 279 279 279 278 278 277 273 273 273
283 283 283 284 285 285 284 282 280 280 282 284 279 278 276 275 275 274 274 274 273 273 272 272 272 271 271 271 271 271 270 268 267 267 267 267 267 267 267 266 266 266 266 265 265 265 266 267 268 270 272 274 276 277 278 278 278 278 278 274 272 273
278 278 278 278 281 283 285 284 282 281 282 282 280 278 276 275 275 275 275 274 273 272 272 272 271 270 270 270 270 270 269 269 268 268 267 267 267 267 267 267 266 266 266 265 266 266 266 266 267 269 270 271 273 274 275 276 275 277 276 273 272 272
275 275 275 276 277 279 282 284 285 284 282 282 280 277 276 275 275 275 275 274 273 271 271 271 269 269 269 269 270 269 269 268 269 269 268 267 267 267 267 267 266 266 266 266 266 266 266 266 266 267 269 270 271 271 273 273 272 272 271 269 268 267
273 273 273 273 274 276 278 282 284 285 284 283 279 276 275 275 275 274 274 273 272 271 270 271 270 270 270 269 269 270 270 269 268 269 269 270 270 270 269 268 268 268 268 268 267 266 266 266 266 267 271 270 273 271 271 271 270 270 268 270 270 264
271 271 271 272 273 275 277 278 278 279 282 281 278 275 275 275 274 273 273 272 271 271 270 270 269 269 269 269 268 268 268 270 272 271 269 269 272 274 274 273 269 269 269 269 269 269 267 266 267 272 274 274 275 275 275 274 274 273 270 272 273 266
269 269 269 270 273 274 274 273 274 275 276 279 278 276 275 275 274 273 273 272 271 270 270 269 269 268 268 268 268 268 267 267 269 273 273 272 272 273 274 275 274 274 274 270 268 270 272 272 273 274 275 275 276 276 276 275 275 275 274 273 266 260
267 267 269 270 271 270 270 270 271 272 274 276 277 277 275 275 275 274 273 272 271 270 269 269 269 268 268 267 267 267 266 266 266 268 273 274 273 274 275 275 275 275 275 274 272 270 270 273 275 276 276 277 277 276 276 276 276 275 275 273 270 258
266 267 267 267 267 267 268 268 269 271 273 274 276 276 275 275 274 274 274 273 271 270 268 268 268 267 267 267 266 266 266 266 266 265 267 270 274 275 275 276 276 276 276 275 274 274 273 274 276 277 277 277 277 277 277 276 276 275 274 271 261 258
264 264 264 264 265 266 267 267 268 270 272 274 275 276 276 276 275 275 275 274 271 269 268 268 267 267 267 267 267 266 266 266 266 266 267 267 268 271 274 276 277 277 276 276 275 275 276 277 277 278 278 278 277 277 276 275 272 273 272 266 257 257
262 262 262 263 263 264 265 266 267 269 271 273 275 276 276 276 276 275 273 271 270 270 269 268 268 267 267 267 266 266 266 266 267 267 268 267 268 269 269 270 273 276 276 274 275 277 278 278 278 278 278 277 277 276 276 274 266 262 259 258 256 256
260 260 261 262 262 263 264 265 267 270 272 273 275 276 276 276 276 275 275 274 271 270 270 268 267 267 266 266 266 266 267 267 267 267 268 269 269 270 270 270 271 272 275 277 277 278 278 278 278 277 277 276 276 276 273 262 260 258 256 256 255 254

ECMWFFLT1_sfc_thetae_009.txt.gz
Theta_e
285 284 284 284 283 284 283 284 285 284 284 285 286 287 287 287 287 287 288 288 288 288 288 287 287 287 287 287 287 285 285 284 285 284 284 284 283 283 283 282 282 282 282 281 280 280 280 280 279 279 279 279 279 278 278 278 278 278 277 277 277 277
284 284 283 283 284 284 284 284 283 284 284 284 285 285 285 285 286 286 286 287 287 287 287 287 287 287 287 286 286 285 285 285 284 284 283 283 283 283 283 282 282 282 281 281 280 280 279 279 279 279 279 278 278 278 277 277 278 277 277 277 277 278
285 285 284 283 283 283 284 285 285 285 284 285 285 285 285 285 286 285 286 286 286 286 286 286 286 286 287 286 285 285 284 284 284 284 284 283 282 282 282 282 282 281 281 280 280 280 279 279 279 279 278 278 278 277 277 277 277 277 277 277 277 277
285 286 286 284 283 284 284 285 283 284 285 286 285 285 285 286 286 286 286 286 286 286 286 286 286 286 285 285 284 284 284 284 284 284 283 282 282 282 282 282 282 281 281 280 280 279 279 279 279 278 278 278 277 277 277 277 277 276 276 276 276 276
285 285 286 286 286 286 285 284 285 285 285 285 285 285 286 286 287 287 286 286 286 285 286 286 286 285 285 285 284 284 284 284 283 283 282 282 282 282 282 282 281 281 281 280 280 279 279 279 278 278 278 278 277 277 276 277 276 276 275 275 275 275
285 285 286 287 286 286 286 286 286 285 285 285 285 285 286 286 286 286 286 286 285 285 285 285 285 284 284 284 285 284 284 284 283 283 282 282 281 281 281 281 281 281 280 280 279 279 279 278 278 278 278 278 277 277 277 276 276 276 276 275 275 274
288 290 289 289 289 289 288 288 286 285 285 285 285 286 286 286 286 285 285 285 285 285 285 284 284 284 284 284 284 284 284 283 283 282 282 282 281 281 281 281 281 280 280 280 279 279 278 278 278 277 277 277 277 277 277 276 276 276 275 275 274 275
291 291 290 290 290 290 290 289 288 286 286 285 286 286 286 286 286 285 285 285 285 285 284 284 284 284 284 284 284 284 284 283 282 281 282 281 281 280 280 280 280 280 280 280 279 279 278 278 278 277 277 277 277 277 276 276 276 275 275 274 273 274
291 291 292 292 291 290 289 289 289 287 286 285 285 285 286 286 285 285 285 285 285 285 284 284 284 284 284 284 284 284 283 282 282 281 281 281 281 280 280 280 280 280 280 279 279 279 278 278 277 277 277 276 276 276 275 275 275 274 274 273 273 273
289 290 290 290 291 291 291 290 288 287 287 287 286 285 285 286 285 285 285 285 285 285 285 285 285 285 285 284 284 283 283 282 281 281 281 280 280 280 280 279 279 279 279 279 279 278 278 277 277 277 276 276 276 275 275 274 274 273 273 272 272 272
289 289 289 289 290 290 290 291 292 291 290 288 287 286 285 285 284 284 285 285 285 285 285 285 285 285 284 283 283 282 282 282 281 281 280 280 280 280 280 279 279 278 278 278 278 278 277 277 277 277 276 276 275 275 274 274 273 273 272 271 271 271
288 289 289 289 289 289 289 290 290 291 291 293 293 290 287 283 284 285 285 284 285 285 285 285 285 284 283 282 282 282 282 281 281 280 280 280 279 279 279 279 279 278 278 277 277 277 277 277 277 278 280 279 276 275 274 273 272 272 272 271 270 270
288 288 288 289 289 289 289 289 290 290 290 291 291 291 289 283 284 285 285 285 285 285 285 284 284 283 283 283 283 282 281 281 280 280 279 279 278 278 278 279 278 278 278 278 277 276 276 277 277 280 282 282 280 276 273 273 272 271 271 270 270 269
286 287 288 288 288 288 288 288 288 288 288 289 289 290 289 284 284 284 284 285 285 285 284 284 283 283 283 282 282 282 281 281 279 279 279 278 278 278 278 278 278 278 278 278 277 277 276 276 279 282 283 283 282 279 274 273 271 271 271 270 270 269
286 286 287 288 288 288 288 288 287 287 287 287 288 288 288 286 284 284 285 285 285 284 284 283 283 282 282 282 282 281 281 280 279 279 278 278 278 278 278 278 278 278 278 277 277 276 276 276 280 283 283 283 283 281 276 272 272 271 270 270 270 270
286 287 287 287 287 287 288 288 287 286 286 286 287 287 287 286 285 285 285 284 284 284 283 282 282 282 282 281 281 280 280 280 279 279 279 278 278 278 278 277 277 278 277 277 277 276 276 276 280 283 284 284 283 282 277 271 271 271 271 270 270 270
285 286 286 287 287 287 287 287 287 285 285 285 286 286 285 285 285 285 285 284 283 282 282 282 282 281 281 280 280 280 280 279 279 279 278 278 278 277 277 277 277 277 277 276 276 276 276 275 281 283 284 284 284 282 277 271 271 271 270 271 271 271
285 285 286 287 286 286 286 286 286 285 284 285 285 284 283 283 283 283 283 283 282 281 280 280 280 280 279 279 279 279 279 279 279 278 278 278 278 277 277 277 277 276 276 276 276 275 275 275 281 283 284 284 284 283 274 271 270 270 270 270 271 271
286 286 286 286 286 286 286 286 286 285 284 284 284 283 282 282 282 283 283 282 282 281 281 281 280 280 279 279 279 279 279 279 278 278 278 277 277 277 276 276 277 276 276 275 275 275 274 274 279 283 284 284 284 281 271 271 270 270 270 270 271 272
285 285 285 285 285 286 286 286 286 285 284 284 284 282 281 281 281 281 281 281 282 281 281 281 280 280 279 279 279 279 279 279 279 278 278 277 276 276 276 276 276 276 275 275 274 275 274 273 278 283 284 284 285 278 271 271 270 270 270 271 271 272
284 284 284 284 283 284 285 286 286 285 284 284 284 283 282 281 281 280 280 280 280 279 280 280 280 281 280 279 279 279 279 278 278 278 277 277 277 276 276 275 275 274 274 274 274 276 274 273 276 283 284 284 284 277 272 271 271 271 271 272 271 272
282 282 281 282 282 284 284 285 285 284 284 284 284 283 284 282 280 280 279 279 279 278 278 279 280 281 280 279 279 278 279 278 277 276 276 276 276 275 275 274 274 273 273 273 273 274 274 272 273 280 284 284 284 279 274 273 272 271 271 272 271 270
281 280 280 281 281 282 283 284 283 282 283 283 283 283 284 283 280 279 278 278 277 277 278 279 280 280 279 279 278 278 277 276 276 275 275 274 274 274 273 273 272 272 272 272 272 272 272 272 273 277 283 284 285 281 278 273 273 272 272 271 271 271
279 278 279 279 279 280 281 281 279 279 281 281 282 284 285 284 281 279 277 277 277 277 276 276 277 278 278 276 276 276 275 275 275 274 274 273 272 272 271 271 271 270 270 270 270 271 271 273 275 275 282 284 285 283 280 275 274 274 272 271 271 271
276 276 276 277 277 278 278 278 277 278 279 280 281 284 284 284 283 281 278 277 276 276 275 275 275 276 275 276 276 276 274 273 272 272 272 271 271 271 270 270 269 269 268 268 268 269 270 271 274 278 280 284 284 284 281 279 276 278 273 271 270 270
275 275 275 275 276 276 277 276 276 276 276 277 279 281 283 284 284 282 280 279 277 275 275 275 275 274 274 275 275 275 274 272 272 271 271 271 271 270 269 269 269 269 268 267 268 268 269 270 272 277 280 282 284 284 282 280 279 279 273 272 271 271
273 273 273 274 274 275 275 276 275 274 274 275 277 278 281 283 283 282 281 280 279 276 275 275 274 274 273 274 275 274 273 272 271 270 270 270 271 270 270 269 269 269 269 268 268 268 268 269 271 273 278 281 283 284 282 281 280 280 278 272 272 273
272 272 271 272 272 273 274 274 274 272 273 274 275 278 281 280 279 279 279 280 280 278 276 274 274 274 274 274 274 274 274 272 271 271 271 270 271 270 270 269 268 269 269 268 267 267 267 268 269 271 274 279 281 282 282 281 280 279 278 275 273 275
270 269 269 270 271 272 272 272 272 272 272 273 275 277 276 275 275 276 277 278 280 279 276 274 274 273 273 273 273 274 273 272 271 271 270 270 270 270 270 269 268 268 269 268 267 267 267 268 269 270 272 275 278 279 280 279 278 279 278 274 273 275
268 268 268 268 269 270 270 270 270 270 271 273 275 274 273 272 272 273 274 276 278 278 277 275 272 273 273 272 273 273 272 272 272 271 271 270 270 270 270 270 269 269 269 269 268 267 267 267 268 269 271 274 276 277 278 278 276 276 275 273 273 273
266 266 267 267 268 268 268 268 269 270 271 272 272 271 270 269 270 271 272 275 277 277 276 274 274 273 273 272 272 272 273 272 271 271 272 273 272 272 271 271 270 270 271 270 269 267 266 267 268 269 274 274 277 276 276 275 275 275 273 274 274 268
265 265 265 265 266 266 266 267 268 269 269 268 268 268 267 268 269 270 271 273 275 276 276 274 273 272 272 272 271 271 271 273 275 273 272 272 274 275 276 275 272 272 271 271 271 270 268 267 269 273 276 277 279 279 280 278 278 277 273 275 274 269
264 264 263 263 264 264 265 265 265 266 266 266 266 267 267 268 268 269 271 273 274 275 275 274 273 272 271 271 271 271 270 270 272 276 276 275 275 275 276 277 276 276 275 272 270 272 274 273 274 276 277 278 279 280 280 279 278 277 277 276 270 266
262 262 262 262 262 262 262 262 263 263 264 265 266 266 267 268 268 269 270 272 274 275 275 275 274 273 271 271 271 270 270 270 269 270 275 277 276 276 276 277 277 277 276 276 274 272 272 274 275 277 277 278 279 279 279 279 278 278 278 276 273 264
261 261 261 261 260 260 260 260 261 261 262 264 265 265 265 266 267 268 270 272 273 274 274 274 273 272 272 271 270 269 270 269 269 268 269 272 277 277 277 277 278 278 277 277 277 276 274 274 276 277 278 278 279 279 279 279 279 278 278 276 267 263
260 260 260 259 259 259 259 259 260 260 261 262 263 264 264 265 267 268 269 271 272 274 275 275 274 273 272 271 271 270 270 270 270 269 269 269 270 272 274 277 278 278 278 278 278 277 276 276 277 278 278 279 279 279 279 278 276 278 278 271 264 263
259 258 259 259 259 259 258 258 259 260 261 262 263 264 265 267 268 268 269 271 271 273 274 275 275 273 272 271 270 270 269 269 269 269 269 269 268 269 269 270 273 277 278 276 276 277 277 277 278 279 279 279 279 279 279 278 274 273 270 266 263 262
257 257 258 258 257 257 257 258 259 260 261 262 264 265 264 263 263 264 266 268 269 271 273 275 275 274 272 271 271 270 270 269 269 269 269 269 270 269 269 270 272 273 276 278 277 277 277 278 279 279 279 279 279 279 279 272 270 266 264 262 261 260

ECMWFFLT1_sfc_thetae_012.txt.gz
Theta_e
287 287 285 284 283 283 282 283 283 284 283 283 284 285 285 285 286 286 287 287 288 288 287 287 288 288 288 287 287 286 285 285 285 285 285 285 284 284 284 284 283 283 283 283 282 281 281 281 281 281 280 280 280 279 279 278 278 278 278 277 278 278
287 287 286 285 284 283 283 283 283 283 283 283 283 284 283 283 284 284 285 286 286 287 286 286 287 287 287 287 286 286 286 285 285 285 284 285 284 284 284 284 283 283 283 282 282 281 281 280 280 280 280 280 280 279 279 278 278 278 277 277 278 278
288 288 287 286 285 284 283 283 283 283 283 283 283 283 283 284 284 284 285 285 285 285 286 286 286 286 286 285 285 285 285 285 285 285 285 283 284 284 283 283 283 283 283 282 282 281 280 280 280 280 280 279 279 279 279 278 278 278 277 277 277 277
289 289 290 290 289 289 287 286 284 284 284 283 283 283 283 284 284 284 284 284 285 285 286 286 285 285 285 285 285 285 285 285 285 284 283 283 283 283 283 283 283 283 283 282 281 281 280 280 280 280 280 279 279 278 278 278 277 277 276 277 276 276
288 288 288 288 288 289 289 289 288 287 286 285 284 283 284 283 284 283 284 284 284 284 284 284 285 284 284 284 285 285 285 285 284 284 284 283 283 283 283 283 283 283 282 282 281 281 280 280 280 280 279 279 279 278 278 278 277 277 277 276 276 276
287 288 288 288 288 288 288 288 288 288 288 287 285 284 284 283 284 284 284 284 284 284 284 284 285 284 284 284 285 285 285 286 285 284 284 283 283 282 283 283 282 282 282 281 281 281 280 280 280 279 279 279 279 278 278 277 277 277 277 277 277 276
286 287 287 287 287 287 287 288 288 288 288 287 287 286 285 284 284 283 283 283 284 284 284 284 284 284 284 285 285 285 286 286 285 285 284 283 282 282 282 282 282 282 281 281 281 281 280 280 280 279 279 279 279 278 278 277 277 277 277 277 277 278
286 286 286 287 287 287 287 287 287 287 287 287 287 286 286 286 285 284 283 283 283 284 284 284 284 284 284 285 285 286 286 285 285 284 283 283 283 282 282 282 282 282 281 281 281 281 281 280 280 279 279 279 278 278 278 277 277 277 277 277 277 277
284 285 286 286 286 286 287 286 286 286 286 286 286 287 287 286 285 285 284 284 284 284 284 284 284 284 284 285 285 286 285 285 284 283 283 283 283 282 282 282 282 282 282 282 282 281 281 280 280 279 279 279 278 278 277 277 277 277 277 277 276 276
284 284 285 285 286 286 286 286 286 286 286 285 285 286 286 287 287 286 284 284 284 284 284 284 285 285 285 285 285 285 284 284 284 284 283 283 283 282 282 282 282 282 282 282 282 281 281 280 280 279 279 278 278 278 277 277 277 277 276 276 276 276
283 284 284 285 285 285 285 286 286 286 286 286 285 285 285 286 286 286 286 285 284 285 285 285 285 285 285 285 285 284 284 284 284 284 283 283 283 283 282 282 282 282 282 282 282 281 281 280 280 279 279 278 278 278 277 277 277 276 276 275 275 275
282 283 284 284 284 285 285 285 285 285 285 285 285 285 286 286 286 286 286 286 286 286 285 285 285 285 284 284 284 284 284 284 284 283 282 282 282 282 282 281 281 282 281 281 281 281 280 280 280 281 283 282 278 278 277 277 277 276 276 275 274 274
282 283 283 283 284 284 284 284 284 285 285 285 285 285 286 286 286 285 285 285 286 286 286 285 285 285 284 284 284 284 284 284 284 283 282 282 281 281 281 281 281 281 281 281 281 280 280 280 280 283 284 284 284 279 277 277 276 276 276 275 274 273
282 283 283 283 284 284 284 284 284 284 284 284 284 285 286 286 285 285 285 285 286 286 285 285 284 284 284 283 283 283 283 283 282 282 282 281 280 280 280 280 281 281 281 281 281 280 280 280 282 284 285 285 285 282 278 277 277 276 276 275 275 274
282 283 283 284 284 284 284 284 284 284 284 283 284 285 285 285 284 284 284 285 285 285 285 284 284 283 283 283 283 282 281 281 281 281 280 280 280 280 280 280 281 280 281 281 280 280 280 280 283 284 285 286 286 284 281 277 277 276 275 275 274 274
283 284 283 283 284 284 284 284 284 284 284 284 285 285 284 284 283 283 284 284 284 284 284 283 283 282 283 282 281 281 280 280 281 281 281 281 280 280 280 280 280 280 280 280 280 280 279 279 282 285 285 286 286 285 282 277 276 276 275 274 274 272
283 282 282 283 283 283 283 283 283 283 283 284 284 284 284 283 283 283 283 283 283 283 283 283 282 281 281 281 280 279 280 280 281 281 281 280 280 280 280 280 279 280 280 280 280 279 279 279 283 285 286 286 286 286 283 277 276 275 274 273 273 272
282 281 281 283 282 281 282 281 282 281 282 283 283 283 283 283 283 283 283 282 282 282 282 282 281 281 280 280 278 277 279 279 279 280 280 279 279 280 280 280 280 280 279 279 279 279 278 279 283 284 285 286 286 286 280 276 275 274 274 273 272 272
282 281 282 281 281 280 280 280 280 280 281 280 281 281 281 282 282 282 283 282 282 282 281 281 280 280 280 279 278 278 278 279 278 279 278 278 279 279 279 279 279 280 279 279 278 278 278 277 281 284 285 286 286 285 277 275 274 273 273 272 272 272
281 281 281 279 279 279 279 279 279 279 278 278 279 279 279 280 281 282 282 282 282 281 281 280 279 279 279 279 278 278 279 278 278 278 278 279 279 279 279 279 279 279 279 279 278 278 277 276 280 284 285 286 286 284 275 274 273 272 272 272 272 272
280 280 279 278 278 278 278 277 277 277 276 277 277 278 278 279 279 280 280 281 282 282 281 280 279 279 279 278 279 278 278 279 279 279 279 279 279 279 279 278 278 278 278 278 278 279 278 276 279 284 285 286 286 282 275 274 273 272 271 271 271 272
278 278 277 277 277 277 276 276 276 276 275 275 276 276 277 277 278 278 278 279 281 282 282 281 280 279 278 278 278 278 278 277 277 277 278 278 278 278 277 277 277 277 277 277 277 277 278 276 277 281 285 286 286 283 275 274 273 271 271 271 271 271
277 277 276 276 276 275 275 275 274 273 274 274 275 275 276 276 276 276 276 278 282 282 282 281 280 279 279 278 278 278 277 276 276 275 274 275 276 275 275 276 276 276 275 275 275 275 277 276 276 279 284 285 286 284 278 273 273 272 272 271 271 271
276 275 275 275 275 274 274 273 272 272 272 273 273 274 275 275 274 274 275 278 280 279 279 280 280 280 279 278 277 277 277 274 273 275 274 274 274 274 275 275 274 274 274 273 273 274 275 276 278 277 283 285 286 284 280 274 274 274 272 272 271 272
273 273 273 273 273 273 273 271 270 271 271 271 272 274 273 273 272 273 274 276 276 276 276 277 278 279 279 278 278 277 277 275 273 273 274 274 274 274 274 273 273 272 272 271 272 272 273 274 276 279 280 284 286 285 281 279 277 278 274 273 271 272
272 271 271 272 272 271 272 271 270 270 270 270 272 272 271 271 271 272 273 274 274 274 274 274 276 278 278 277 277 277 277 276 274 274 274 274 274 273 273 272 271 271 271 270 270 270 272 273 274 277 280 282 285 285 282 281 279 279 274 274 273 273
269 270 269 270 270 270 269 269 268 268 268 269 270 269 269 269 270 271 272 271 271 271 271 272 273 274 277 277 277 276 276 276 274 273 273 273 273 273 272 272 271 271 271 270 270 270 271 272 273 274 278 281 283 285 283 282 281 281 279 274 273 274
268 268 268 268 269 269 269 268 268 267 268 269 268 268 268 268 269 269 268 268 268 269 270 270 271 273 275 277 276 276 276 276 275 274 274 273 273 273 273 272 271 271 271 271 270 270 270 271 272 273 275 278 281 283 284 282 281 281 279 276 274 276
267 267 267 267 268 268 268 267 267 267 267 267 267 267 267 267 266 266 266 265 266 267 268 268 270 272 274 276 276 275 275 276 275 274 273 273 273 273 273 273 272 271 271 271 271 270 269 269 271 272 273 275 278 280 283 281 280 281 279 275 274 276
266 266 266 266 267 267 267 266 266 266 265 265 266 265 265 264 264 263 263 263 264 265 267 268 270 271 273 275 276 275 275 275 275 274 273 273 273 273 272 272 272 271 271 271 272 270 268 268 269 271 272 274 276 279 281 280 279 278 275 273 274 274
265 265 265 265 266 266 265 264 264 264 264 264 264 263 262 262 262 262 261 262 263 264 267 268 270 271 272 274 275 275 275 275 274 274 274 275 275 275 274 273 273 273 273 273 272 269 268 268 269 270 275 275 278 279 280 279 278 277 274 275 276 274
265 264 264 265 265 264 264 263 263 263 263 263 262 262 261 261 261 260 261 262 263 264 266 268 269 271 273 274 274 274 274 276 278 277 275 274 277 278 279 278 275 274 274 273 273 272 269 269 270 274 277 277 279 281 283 281 280 279 275 277 279 275
264 264 263 263 263 262 262 262 262 261 261 261 261 261 260 260 259 260 260 261 262 264 265 267 268 270 271 272 273 274 273 273 275 279 280 279 278 278 279 280 280 279 278 274 272 274 276 275 275 276 277 278 279 281 282 282 281 280 279 279 275 271
262 262 261 262 261 260 260 260 260 260 260 260 259 260 259 259 259 258 259 260 261 262 264 265 266 269 271 272 273 273 273 273 272 273 277 280 280 279 279 279 280 280 279 279 276 273 272 275 277 277 278 278 280 281 282 282 282 280 280 279 277 270
261 261 260 260 259 259 259 259 259 259 259 259 259 259 258 258 258 258 258 259 260 262 263 265 266 268 269 270 272 272 273 272 272 271 271 274 279 280 279 279 280 280 280 279 279 278 275 275 276 277 278 279 279 281 282 282 282 280 280 279 272 268
259 259 258 258 257 257 257 257 258 258 258 258 258 258 258 258 258 258 259 259 261 262 263 265 266 266 267 269 271 272 273 273 272 272 272 271 271 273 277 279 280 280 280 280 280 279 278 277 277 278 278 279 280 281 282 282 280 281 281 277 270 268
257 257 257 257 257 257 257 257 257 258 258 258 258 258 258 258 258 259 261 263 264 264 263 263 264 264 264 265 266 268 271 272 272 272 272 271 271 270 271 272 275 278 280 278 278 279 279 278 278 278 279 279 280 281 282 282 278 277 276 273 269 268
256 256 256 256 256 256 256 256 257 258 258 258 258 258 258 259 259 260 260 261 261 261 261 262 262 263 264 265 267 269 272 273 272 272 271 271 271 271 271 272 273 274 277 280 279 279 280 279 279 279 279 279 280 281 282 277 275 274 273 269 268 267

ECMWFFLT1_sfc_thetae_015.txt.gz
Theta_e
287 287 287 288 288 288 288 288 289 288 288 288 287 286 286 286 286 286 286 286 287 288 288 288 288 289 289 289 289 289 288 288 288 288 289 289 288 288 288 287 287 287 287 287 286 286 286 286 286 286 285 285 284 284 284 284 284 284 283 283 283 282
287 287 287 287 287 287 288 288 288 288 288 287 287 288 288 287 287 286 286 286 286 287 287 287 288 288 288 288 288 288 287 287 287 288 287 288 287 288 288 287 287 286 286 286 286 285 285 285 285 285 284 284 284 284 283 283 283 283 282 282 282 282
286 286 287 287 287 287 287 288 287 287 287 287 287 287 287 287 288 288 287 286 286 285 285 286 287 287 287 288 288 288 287 287 287 287 288 287 287 287 287 287 287 286 286 286 286 285 284 284 284 284 284 283 283 283 283 282 282 282 282 281 281 281
285 286 286 286 286 286 286 287 287 287 287 287 286 286 286 286 287 287 287 287 286 285 285 285 286 286 286 286 287 287 287 287 287 287 287 287 287 287 287 287 286 286 286 285 285 285 284 284 284 284 283 283 283 282 282 282 281 282 281 281 280 280
284 285 285 285 285 286 286 286 286 286 286 286 286 285 286 286 287 287 287 287 287 286 286 285 285 285 285 285 286 286 287 287 287 287 286 287 287 286 287 287 286 286 286 285 285 285 284 284 284 283 283 283 283 282 282 282 281 281 281 280 280 280
284 285 285 285 285 285 286 286 286 286 286 286 285 285 285 286 286 287 287 287 287 287 286 286 285 285 285 285 286 286 286 287 287 287 286 287 287 286 286 286 286 286 285 285 285 284 284 283 283 283 283 283 283 282 282 281 281 282 281 281 280 280
283 284 285 285 285 285 285 286 285 285 285 286 285 285 285 286 286 286 286 286 286 286 286 286 286 285 285 285 285 286 286 286 287 287 286 286 286 286 285 285 286 285 285 285 285 284 284 283 283 283 283 283 283 283 282 281 281 281 281 281 281 281
283 283 284 284 284 284 285 285 285 285 285 285 285 285 285 285 286 286 286 286 286 286 286 286 286 286 286 285 285 285 286 286 286 286 286 286 286 286 285 285 285 285 285 285 285 285 284 284 284 283 283 282 283 283 282 282 281 281 281 281 281 281
282 283 284 284 284 284 284 284 284 284 285 285 285 285 285 286 286 285 285 285 285 286 286 286 286 286 286 286 286 286 286 286 286 286 286 286 285 286 285 285 285 285 285 285 285 285 285 284 284 283 283 283 282 282 282 282 281 281 281 281 281 281
282 283 283 284 284 284 284 284 284 284 284 284 284 284 285 286 285 285 285 285 285 285 285 285 286 286 286 286 286 286 286 286 286 286 286 286 285 285 285 285 284 285 285 285 285 285 285 284 284 283 283 283 282 282 282 282 281 281 281 281 281 280
282 283 283 284 283 283 284 283 283 283 284 284 283 284 284 285 285 284 284 284 284 285 285 285 285 286 286 286 286 286 286 285 285 286 286 286 286 285 285 285 285 284 284 284 284 284 284 284 284 284 283 282 282 282 282 282 281 281 280 280 280 280
282 283 283 283 283 283 283 283 282 282 282 282 282 283 284 285 284 284 283 283 284 285 285 285 285 285 285 285 285 285 285 285 285 285 285 285 285 285 285 285 284 284 284 284 284 284 284 284 284 284 285 285 283 282 282 282 281 281 281 280 279 279
282 282 282 282 282 282 282 282 282 282 282 282 281 282 283 284 283 283 283 283 284 284 284 284 284 284 284 284 285 285 285 285 285 284 284 284 284 284 284 284 284 284 284 284 283 283 283 284 284 285 287 287 286 283 282 281 281 281 280 280 280 279
281 281 281 281 281 281 282 281 281 281 281 281 281 281 282 282 282 282 282 283 284 284 283 283 283 283 283 283 284 284 284 284 284 284 284 284 283 284 284 283 283 284 283 283 283 283 283 283 285 286 287 287 287 286 282 282 281 280 280 280 279 279
280 281 281 281 281 281 281 281 280 280 280 280 280 281 281 281 281 281 281 282 283 283 283 282 282 282 282 283 283 283 283 283 283 283 283 283 284 284 283 283 283 283 283 283 283 283 283 283 286 286 287 287 287 287 284 282 281 280 280 279 279 279
280 281 281 281 280 281 281 281 280 280 280 279 280 280 280 280 280 280 280 281 282 282 282 281 281 281 282 282 282 282 282 282 282 283 283 283 283 283 283 283 283 283 283 283 283 283 283 283 285 286 287 287 287 288 286 282 281 280 280 279 279 278
280 280 280 280 280 280 280 279 279 279 278 278 278 279 279 279 279 279 280 280 280 280 279 279 280 281 282 282 281 281 281 282 282 282 282 282 282 282 282 282 282 282 282 283 283 283 283 283 285 286 287 287 288 288 287 282 281 280 280 279 279 278
280 280 280 280 280 279 278 278 278 277 276 277 277 277 277 277 277 278 279 279 279 278 278 277 278 280 282 282 281 280 280 281 281 281 282 282 282 282 282 282 282 282 282 282 282 282 282 283 285 286 286 287 288 288 286 283 281 280 279 279 278 278
280 280 280 279 279 278 277 277 276 276 275 275 275 275 276 276 276 277 277 277 277 276 276 276 277 280 281 281 280 279 280 280 280 281 281 280 280 280 280 280 281 281 281 281 281 281 281 282 284 285 286 287 288 287 285 283 281 280 279 278 278 277
279 279 279 278 278 278 277 276 275 274 274 274 274 274 274 274 274 276 276 275 275 275 274 275 277 280 280 279 278 279 279 280 280 281 281 280 280 280 280 280 280 280 280 280 280 281 280 281 283 285 286 286 287 287 284 283 281 279 278 277 277 276
278 278 278 277 276 277 275 274 273 273 272 273 273 273 272 272 273 274 274 273 273 273 273 274 277 279 278 277 277 277 277 278 279 280 280 279 279 279 280 280 279 279 280 280 280 281 281 280 281 284 285 286 287 287 285 283 280 278 277 276 274 275
277 276 276 275 276 275 273 272 272 272 272 272 272 271 271 272 273 273 273 272 272 271 271 273 275 276 276 275 275 275 276 278 278 279 279 279 280 280 280 279 279 278 279 280 279 279 280 280 280 281 284 285 286 287 285 282 280 277 276 275 273 273
275 275 275 275 275 274 273 271 271 271 271 271 271 271 272 272 273 272 271 271 270 270 270 272 274 274 274 273 273 273 274 275 277 278 278 278 279 279 278 278 277 277 278 279 279 279 279 279 279 280 283 284 286 287 286 281 279 278 276 274 273 273
274 273 273 273 273 273 271 270 270 270 270 270 270 270 272 272 271 270 269 269 268 269 269 271 272 272 271 271 271 271 272 273 274 276 277 278 278 277 277 277 276 276 277 277 277 277 277 279 280 279 281 283 285 287 287 281 279 279 276 274 273 273
272 273 272 273 272 272 271 268 268 269 269 269 270 271 270 270 269 268 268 267 267 268 269 269 269 268 268 268 269 269 269 271 273 274 276 276 276 276 276 276 276 276 275 276 275 275 276 277 278 281 279 282 284 286 287 284 280 281 277 275 273 273
271 271 272 272 271 271 270 268 268 268 268 269 270 270 269 268 267 267 266 266 267 267 267 267 267 267 267 267 267 268 268 270 271 274 276 276 276 276 276 276 276 275 274 274 275 274 274 275 276 279 280 280 283 285 286 286 283 282 277 276 275 274
270 270 270 270 270 270 270 268 267 267 267 269 269 268 267 266 266 265 265 265 265 265 265 265 265 265 265 265 266 267 268 269 271 272 274 275 275 275 275 276 276 275 275 274 274 274 274 274 275 276 278 281 281 284 285 286 284 283 281 276 275 276
268 268 268 269 269 269 269 268 267 266 267 268 268 267 266 265 264 264 263 263 263 263 263 263 263 263 264 264 266 267 268 269 270 272 273 275 275 275 275 275 275 275 274 274 274 274 274 274 274 274 276 279 280 281 284 285 284 283 281 278 276 277
267 267 267 267 268 268 268 267 267 267 267 267 266 266 264 263 263 262 262 262 262 262 262 261 262 262 263 264 265 267 268 270 271 272 273 274 274 274 275 275 275 275 274 274 274 274 274 273 273 273 274 275 278 279 281 283 283 282 281 278 276 277
266 266 266 266 267 267 267 267 266 266 266 265 264 263 262 262 262 261 261 261 261 261 261 261 262 262 262 263 264 265 266 268 270 271 272 273 274 274 274 274 274 274 275 274 275 274 274 273 272 273 273 274 275 277 279 281 281 280 279 277 276 276
265 265 265 265 266 265 265 265 265 265 264 263 262 261 260 260 260 260 259 260 260 259 260 261 261 261 262 262 263 265 266 267 269 271 272 274 276 276 275 275 275 276 276 276 275 274 274 273 272 272 276 275 277 277 278 279 280 279 279 277 278 275
264 263 263 264 264 263 263 262 263 263 262 261 261 260 259 259 259 258 258 259 258 259 259 259 260 260 261 261 262 264 265 269 273 273 272 273 277 279 280 280 276 277 277 277 276 277 275 274 274 277 278 278 279 280 281 281 282 282 279 279 280 276
262 261 261 261 261 261 260 260 260 260 260 260 260 259 258 258 257 257 258 258 258 258 259 259 259 259 260 260 261 262 263 264 267 272 275 276 277 278 279 280 281 281 281 279 276 277 280 280 279 278 279 279 280 280 281 282 283 283 281 281 277 274
259 259 259 259 259 258 258 258 258 258 258 258 258 258 258 257 257 256 257 257 257 258 258 258 259 259 259 260 261 262 263 264 265 268 273 276 276 277 278 279 280 281 282 282 281 278 276 279 280 279 279 279 280 280 281 282 283 283 281 281 280 273
258 258 257 257 257 257 257 256 257 257 258 258 258 258 257 257 257 256 256 257 257 258 258 258 258 259 259 260 260 262 264 265 266 265 265 269 274 277 278 279 280 281 281 282 282 282 280 278 279 280 279 280 280 280 281 281 283 283 282 281 276 272
257 256 256 256 256 256 256 256 256 257 257 258 258 257 257 257 256 256 256 257 257 258 258 258 259 259 260 261 262 263 262 263 263 263 263 264 264 267 272 276 278 279 280 281 282 282 282 281 280 280 280 280 280 280 281 281 281 283 282 280 274 273
256 255 256 256 256 256 256 256 256 257 257 257 257 257 257 257 257 257 258 259 259 258 258 259 259 259 259 260 259 259 260 260 261 262 262 262 263 265 267 271 274 277 279 279 280 281 282 282 280 280 280 280 280 280 281 282 279 279 278 278 274 273
255 255 255 256 256 256 256 256 257 258 258 258 258 257 257 257 257 257 257 258 258 258 258 259 259 259 259 258 259 259 259 260 261 261 262 264 266 268 270 271 273 274 277 279 280 281 281 282 281 280 280 280 280 281 281 277 277 277 277 276 273 272

ECMWFFLT1_sfc_thetae_018.txt.gz
Theta_e
288 289 289 289 290 290 290 290 291 290 290 290 290 289 290 290 291 291 292 292 292 292 292 292 292 292 293 293 294 294 294 294 295 295 295 296 296 295 295 295 294 294 294 293 293 293 293 293 293 292 292 291 291 291 290 291 291 290 290 291 290 291
288 288 288 289 289 289 290 290 290 289 289 289 289 289 289 289 290 290 290 291 291 291 291 292 292 292 292 292 292 292 293 293 294 294 294 294 294 294 294 294 293 293 293 293 292 292 292 292 292 292 291 291 290 290 289 290 291 290 289 290 290 290
288 288 289 289 289 290 290 290 289 289 289 288 288 288 288 288 289 290 290 290 290 290 290 291 291 291 291 291 291 291 292 292 293 293 294 294 294 294 293 293 293 293 293 292 292 292 291 291 291 291 291 290 290 290 289 289 289 288 288 289 289 289
287 288 288 289 289 288 288 289 289 288 288 288 288 288 288 288 289 289 289 290 290 289 289 290 290 291 291 290 291 291 290 291 291 292 293 293 293 293 293 293 293 293 292 292 291 291 291 291 291 290 290 289 289 289 289 288 288 288 287 288 287 287
287 288 288 288 287 288 288 288 288 288 288 288 288 287 288 288 289 289 289 289 288 288 288 289 289 289 289 289 290 290 290 291 291 291 291 291 292 293 293 292 292 292 292 291 291 291 290 290 289 289 289 288 288 288 288 288 287 287 286 286 286 286
288 288 288 288 288 288 288 288 288 287 288 287 287 286 287 288 288 288 288 288 287 288 287 287 287 288 288 288 289 289 290 290 290 291 291 291 291 291 292 292 291 291 291 290 290 290 290 289 289 288 288 287 287 287 287 287 287 286 286 286 286 286
287 287 288 288 287 287 288 287 287 287 287 287 286 286 287 288 288 288 287 287 287 287 287 286 286 285 286 287 288 288 289 289 289 290 290 290 290 290 290 290 290 290 290 290 290 289 289 288 288 287 287 287 287 287 287 287 287 286 286 286 286 286
286 287 287 287 287 286 287 286 286 286 286 286 286 285 286 287 287 287 287 286 286 287 286 286 286 285 284 285 286 287 288 289 289 288 288 289 288 288 288 288 289 289 289 289 289 289 289 289 288 287 286 285 285 286 286 286 286 286 285 286 286 286
285 286 287 287 286 286 286 286 286 286 285 285 285 285 285 286 286 286 286 286 286 286 286 286 286 286 285 285 285 286 287 287 288 288 288 288 288 288 288 288 288 288 288 288 288 288 289 289 288 287 287 286 286 285 285 285 285 285 285 285 285 285
285 285 286 286 286 286 286 286 286 285 285 285 285 285 285 285 285 285 285 285 285 286 286 286 286 286 286 286 286 285 285 286 287 287 288 288 288 288 288 288 288 288 287 288 288 288 288 288 288 287 287 287 286 286 286 286 285 285 284 284 284 284
285 285 285 286 286 285 285 285 285 285 285 285 285 284 284 285 284 284 284 284 284 285 286 286 286 286 285 285 286 286 286 285 285 286 286 287 288 288 288 288 288 288 288 287 287 287 287 287 287 288 287 286 286 286 285 285 285 285 284 284 284 284
285 285 285 285 286 285 285 285 285 285 284 284 285 284 284 284 283 283 283 283 283 284 285 285 285 284 284 284 285 285 286 286 285 285 285 285 286 287 288 288 288 288 287 287 288 287 287 286 287 287 288 288 286 285 285 285 285 285 285 284 284 283
285 285 285 285 285 285 285 284 285 284 284 284 284 283 283 283 282 283 282 282 283 284 284 284 283 283 282 282 283 284 285 285 285 284 284 284 285 286 286 286 286 287 287 287 287 287 287 287 286 287 289 289 289 287 286 285 285 285 285 284 284 283
284 285 285 285 285 285 285 284 284 283 283 283 283 282 282 282 282 281 282 282 282 283 283 283 282 281 281 281 282 284 284 285 284 284 284 284 284 284 285 285 285 286 286 286 287 286 287 287 287 288 289 289 289 289 286 285 285 285 285 284 284 284
284 285 285 285 285 285 285 285 284 283 283 283 282 282 281 281 281 281 281 281 281 282 282 282 280 279 279 279 280 282 284 284 283 283 283 283 284 284 283 284 285 285 285 286 285 286 286 287 288 288 289 289 289 290 288 285 285 285 285 284 284 283
285 285 286 285 286 285 286 285 284 283 283 283 282 281 280 280 280 280 280 280 281 281 281 281 279 278 278 278 279 281 283 283 282 282 282 283 283 283 283 283 284 284 284 285 285 285 286 286 287 288 289 289 289 289 289 286 285 285 285 284 283 283
285 285 285 286 286 285 285 284 284 284 282 282 281 280 280 280 279 279 279 279 280 280 280 279 278 277 277 277 278 280 282 281 281 281 281 281 282 282 282 283 283 283 284 284 285 285 285 285 287 287 288 288 289 289 289 286 285 285 284 284 283 282
284 284 285 286 286 285 284 284 284 283 281 282 280 280 279 279 278 278 279 278 279 279 279 278 277 276 276 276 276 278 279 280 279 279 279 279 280 282 283 283 283 283 283 284 284 284 284 285 286 287 287 288 288 289 287 286 286 285 285 284 284 283
285 285 285 285 284 283 283 283 283 281 281 280 279 279 278 278 277 277 278 278 278 278 278 277 276 275 274 274 274 275 277 278 278 277 278 277 278 279 280 281 281 282 283 283 283 283 284 284 286 286 286 287 288 287 287 286 286 285 285 285 285 284
285 285 284 283 283 283 283 282 281 280 279 279 279 278 277 277 277 277 277 277 277 278 277 276 275 273 273 273 273 274 275 277 277 276 276 276 276 277 279 280 281 281 282 282 282 283 283 283 285 285 286 286 287 287 286 286 286 285 285 285 285 284
284 283 282 282 281 282 282 281 279 278 277 277 277 277 276 276 276 277 276 277 277 277 276 275 274 273 272 272 272 273 274 275 274 274 274 274 275 275 277 278 280 281 282 282 282 282 283 283 283 285 285 286 286 286 285 285 285 285 285 285 284 284
282 281 281 280 280 281 280 279 278 277 276 276 276 275 275 275 276 277 277 277 276 276 275 274 273 272 271 271 271 272 273 274 273 272 272 272 273 273 274 276 278 279 280 281 281 281 282 283 283 284 285 285 285 286 285 285 284 284 284 285 284 282
280 279 279 279 279 279 279 278 276 275 275 275 275 274 275 276 276 276 275 275 275 274 273 273 272 271 271 271 271 272 272 271 271 270 270 270 271 272 272 274 275 277 278 279 280 281 281 282 282 282 284 285 285 285 285 284 284 284 284 284 283 282
279 278 278 279 279 278 278 277 275 274 274 274 273 274 275 275 275 274 273 273 273 272 271 271 271 270 270 270 270 269 269 269 269 269 269 269 269 270 271 272 274 275 277 279 280 280 280 281 282 282 283 284 284 285 285 284 284 285 284 284 283 281
277 277 277 277 277 277 276 275 273 272 272 272 273 274 274 273 273 272 272 271 270 270 270 270 269 269 269 268 269 268 267 268 267 267 267 267 268 268 270 271 273 275 276 278 279 280 281 281 282 282 282 283 284 284 285 285 285 286 285 284 282 280
276 275 275 275 275 275 274 273 271 271 270 270 272 272 272 271 271 270 270 269 269 268 268 268 268 268 268 267 267 267 266 266 266 266 266 267 267 268 269 271 273 275 276 277 278 279 280 281 281 282 282 282 283 284 284 285 286 286 285 284 283 281
273 272 272 273 272 273 272 271 270 269 268 269 271 270 269 269 268 267 267 266 266 266 266 266 266 266 266 266 266 265 265 265 265 265 265 266 267 268 269 271 273 274 275 276 277 278 279 281 281 281 281 282 282 283 284 284 285 285 286 284 284 282
271 270 269 270 270 270 270 269 269 266 267 268 268 267 267 266 265 264 264 264 264 264 264 264 264 264 264 264 265 264 264 264 264 264 265 266 267 268 269 270 272 273 274 275 277 277 278 279 280 279 279 280 280 281 282 283 284 284 284 285 284 283
268 267 267 267 268 268 267 266 266 265 265 265 265 264 263 262 262 261 262 262 262 262 262 262 262 263 263 263 263 264 264 264 264 264 265 266 266 267 268 269 270 272 273 274 276 277 278 278 279 279 279 279 279 279 280 280 281 283 283 284 284 283
266 265 265 264 265 265 264 263 263 263 262 262 262 262 261 260 260 260 260 260 260 260 261 261 261 261 261 262 262 262 262 263 264 263 264 264 265 265 266 267 268 270 272 274 275 276 277 277 278 279 278 278 278 278 278 279 280 280 281 282 283 282
264 263 262 262 262 262 261 261 261 261 261 261 261 260 259 259 259 259 259 259 259 259 260 260 260 260 260 260 261 261 262 261 262 262 263 264 265 266 266 266 268 269 271 273 275 275 275 276 277 278 281 279 279 278 277 277 278 280 280 282 283 280
262 261 260 260 261 260 260 260 260 260 260 260 260 260 259 258 258 258 258 259 259 259 259 260 260 260 260 260 260 260 260 264 267 265 263 263 267 270 271 272 268 270 271 272 274 276 275 276 277 280 281 281 281 281 280 280 280 281 281 282 284 280
260 259 259 259 260 259 259 259 259 259 260 260 260 259 259 258 258 258 258 258 258 259 259 259 259 259 259 259 260 259 259 260 261 267 268 269 269 270 272 273 274 275 276 274 273 275 279 280 281 281 281 281 281 281 281 281 281 282 282 283 281 277
258 258 258 259 258 258 258 258 258 259 259 260 259 259 259 258 258 257 257 258 258 258 259 259 259 259 259 259 259 259 259 259 259 260 265 268 269 271 272 273 274 275 276 277 277 276 275 278 280 281 281 282 282 282 282 282 282 282 282 283 283 276
258 258 258 258 258 258 258 258 258 259 259 259 259 259 258 258 258 257 257 257 258 258 258 258 258 258 259 258 259 259 259 259 259 258 260 263 268 269 270 271 272 273 274 274 275 275 276 278 280 280 281 282 282 282 282 282 282 283 283 283 280 276
258 258 257 257 257 257 257 257 258 258 259 259 259 258 258 257 257 257 257 258 258 258 258 258 258 258 259 259 259 259 259 259 259 259 259 259 260 261 264 268 269 270 271 272 274 275 276 277 278 281 281 282 282 282 282 282 281 282 283 282 278 277
257 257 257 257 257 257 257 257 258 258 258 258 258 258 257 257 257 257 258 258 258 258 258 258 259 259 258 259 259 259 259 259 259 259 259 259 258 259 259 261 263 267 270 270 272 274 276 277 278 279 280 282 282 282 282 282 279 278 279 280 279 277
257 257 257 257 257 257 257 257 258 258 258 258 258 257 257 257 257 257 257 258 258 258 258 258 258 258 258 258 258 259 259 259 259 259 259 259 260 260 260 261 262 264 268 272 273 275 277 278 279 279 280 281 282 282 282 278 277 277 277 278 278 277

ECMWFFLT1_sfc_thetae_021.txt.gz
Theta_e
289 290 290 290 290 291 291 291 291 290 290 290 290 289 290 290 290 290 291 290 291 291 291 291 292 292 292 293 293 293 293 293 293 293 293 294 295 295 295 295 295 295 296 296 295 295 295 295 295 295 295 294 294 293 293 293 293 292 292 292 292 292
289 289 289 289 290 290 290 290 290 289 289 289 289 289 289 289 289 290 289 290 289 289 289 289 290 290 290 291 291 291 292 292 292 292 292 292 293 294 294 294 294 294 294 294 294 294 294 294 294 294 294 294 293 293 292 292 292 291 291 291 291 291
289 289 290 290 290 290 290 290 289 289 289 288 288 287 288 288 288 289 289 289 289 288 287 287 288 288 289 289 290 289 290 290 291 292 292 292 292 292 292 293 293 293 294 294 293 293 293 293 293 293 293 293 292 292 292 291 291 290 290 290 290 291
289 290 290 290 290 290 289 289 289 289 288 287 287 287 287 287 288 288 288 289 289 288 287 287 287 287 287 287 288 288 289 289 290 291 290 291 291 292 291 291 292 293 293 293 293 293 293 293 293 293 292 291 291 291 291 291 290 290 289 290 289 290
289 289 289 289 289 289 289 289 288 288 288 287 287 286 286 287 287 288 288 288 288 288 288 288 287 286 286 286 287 286 288 288 289 289 289 289 290 291 291 291 291 291 291 291 291 292 292 292 292 292 291 291 290 290 290 290 290 289 289 288 289 289
289 289 289 289 288 288 288 288 288 288 287 287 286 286 286 287 287 287 287 287 286 287 286 286 287 286 286 285 286 286 287 287 288 289 288 289 289 289 290 290 290 290 290 290 290 290 290 291 291 291 291 290 290 289 289 289 289 289 289 288 288 289
287 287 288 288 288 287 288 287 287 287 287 286 286 285 286 287 287 287 287 286 286 286 286 286 285 285 286 286 286 286 286 287 287 287 287 287 287 288 288 289 289 289 289 289 289 289 289 290 290 290 290 290 290 289 289 289 289 288 288 288 288 288
286 286 287 287 287 287 287 287 287 287 287 286 286 285 286 286 286 286 286 286 285 286 285 286 286 285 284 284 285 286 287 287 287 286 286 286 286 287 288 287 288 288 288 288 288 288 289 289 289 289 289 289 289 289 289 289 288 288 288 288 288 288
285 285 286 286 286 287 286 286 287 286 286 286 286 286 285 285 285 285 285 285 284 285 285 285 285 285 285 285 284 285 286 286 287 287 286 286 286 286 286 287 287 287 287 287 287 288 288 288 288 289 289 289 289 288 288 287 288 288 288 287 287 287
285 285 285 286 286 286 286 286 286 286 286 285 286 286 285 286 284 284 284 284 284 284 284 285 285 285 285 284 284 284 285 285 286 286 286 286 285 285 285 285 286 287 287 286 287 287 287 287 287 288 288 288 288 288 287 287 287 286 286 287 287 287
285 285 285 285 286 286 286 286 286 286 286 286 285 286 285 285 284 283 283 283 283 283 284 284 285 285 285 284 283 283 283 284 285 286 286 285 285 286 285 285 285 286 286 286 286 286 287 287 287 287 287 287 287 287 287 286 286 286 286 286 286 286
285 285 285 285 285 285 286 286 286 286 285 285 285 285 285 284 283 283 283 282 283 283 283 283 284 284 283 283 282 282 282 282 283 285 285 285 285 284 285 285 285 285 285 285 285 286 286 286 287 287 288 289 287 287 287 286 286 286 286 285 285 285
285 285 285 285 285 285 286 286 286 286 285 285 285 284 285 284 282 282 282 282 282 283 283 283 283 283 282 282 281 281 281 281 282 283 284 284 284 283 283 284 284 284 284 284 284 284 285 286 287 288 290 290 290 288 287 286 286 286 286 285 285 285
284 284 284 285 285 286 286 285 285 285 285 285 284 284 284 283 282 282 282 282 282 282 282 282 282 282 282 281 280 280 280 280 281 282 284 283 283 283 283 283 283 283 283 284 284 284 285 285 287 288 289 290 290 289 287 286 286 286 286 286 285 285
284 285 285 285 286 286 286 286 285 285 285 285 285 285 283 282 282 282 281 281 281 281 281 282 281 281 281 281 280 279 279 279 279 280 281 282 282 282 281 282 282 282 283 283 283 283 284 284 286 287 288 289 289 289 289 287 286 286 286 286 286 285
285 285 286 286 286 287 287 287 286 285 286 285 284 283 283 282 282 281 281 281 281 281 281 281 281 280 280 280 279 279 278 278 277 278 279 281 281 280 280 280 280 281 282 283 283 283 283 283 285 287 287 288 288 288 288 287 286 286 286 285 285 285
285 285 285 286 286 286 286 286 286 285 284 284 283 283 282 282 281 281 280 280 280 280 280 280 280 280 280 279 279 278 277 277 277 277 278 279 279 279 279 279 278 279 281 281 281 281 281 282 285 286 287 287 288 288 288 286 286 286 286 286 286 285
285 285 285 286 286 285 285 284 285 283 283 283 282 281 281 281 280 280 280 280 280 280 280 279 279 279 279 279 278 277 276 276 276 275 276 277 278 279 278 278 278 278 279 279 280 280 280 281 284 285 286 287 287 288 286 286 286 285 285 285 286 285
286 286 286 285 285 284 284 284 283 282 281 280 280 280 280 280 279 279 279 279 279 279 279 279 278 278 278 277 276 275 275 274 274 274 275 275 276 276 276 276 276 276 277 277 278 278 279 280 283 285 286 286 287 286 285 285 285 285 285 285 286 286
286 286 285 283 283 283 283 282 281 280 279 279 279 278 278 278 278 278 278 278 278 278 278 278 278 277 277 276 275 274 274 274 274 273 274 273 274 274 274 274 274 275 275 276 276 277 278 279 281 283 284 285 286 286 284 284 284 284 284 285 285 286
284 283 283 283 282 282 282 281 280 279 278 277 277 277 276 276 276 277 276 276 277 277 277 277 276 276 275 274 274 273 272 272 272 273 273 273 274 273 273 273 273 273 273 274 274 276 276 277 280 283 284 284 285 285 284 284 283 283 283 284 284 285
283 282 281 280 280 281 280 279 278 277 276 275 275 274 274 275 275 275 275 275 275 275 275 274 274 274 274 273 273 272 272 272 272 271 271 272 272 272 271 271 271 270 271 272 272 273 273 274 276 279 281 283 284 285 284 283 283 282 282 283 284 284
281 280 280 280 279 279 278 277 276 274 274 273 273 272 273 274 274 273 273 273 273 273 273 272 272 271 271 272 271 271 271 271 270 270 270 270 270 270 269 269 269 269 269 270 270 271 272 273 274 277 281 282 283 284 284 283 282 282 282 282 283 283
279 279 278 278 277 276 276 275 273 272 272 271 270 271 272 272 272 271 271 270 270 270 269 269 269 269 269 269 269 269 269 269 270 269 269 269 268 268 267 267 268 267 267 268 269 270 271 273 276 275 279 281 283 284 285 283 282 283 282 282 282 282
277 276 276 276 275 274 273 272 270 270 270 269 269 270 270 269 269 268 267 267 267 266 265 265 266 266 266 266 267 267 266 267 267 267 267 267 266 266 266 266 266 266 266 267 268 270 272 273 275 278 278 281 283 284 284 285 284 285 284 282 281 281
274 273 273 273 273 272 271 270 268 268 267 267 268 268 267 266 265 265 264 263 263 263 263 263 263 264 264 264 264 264 264 264 264 265 265 265 265 265 264 265 265 265 266 266 267 268 271 273 274 277 279 280 282 283 284 285 285 285 283 282 282 282
271 271 270 271 271 270 269 269 267 266 264 265 266 265 264 264 263 262 262 261 261 261 261 261 261 262 262 262 263 262 262 262 263 263 264 264 264 264 264 264 265 265 265 266 266 268 270 272 274 275 278 281 282 284 284 284 285 285 286 283 283 283
269 268 268 268 269 268 268 266 265 263 264 265 264 263 263 262 261 260 260 260 260 260 261 260 260 261 261 261 262 261 262 261 262 262 262 263 263 263 263 263 264 264 265 265 267 268 270 272 273 275 276 279 280 281 283 284 284 284 284 284 283 284
267 266 266 265 266 266 265 264 264 263 263 263 263 262 262 261 260 260 260 259 260 260 260 259 260 260 260 261 261 261 261 262 261 261 261 262 262 262 262 263 263 264 264 265 266 267 269 270 272 273 275 276 277 278 279 281 281 283 283 283 282 283
265 264 264 263 264 263 263 263 262 262 262 262 262 261 261 260 260 259 259 259 259 259 259 259 260 260 260 260 260 260 260 261 261 260 260 260 261 260 261 261 262 262 263 263 265 265 266 267 269 270 271 274 276 278 279 279 279 279 279 279 280 281
263 263 262 262 262 262 262 261 261 262 261 261 261 261 259 259 259 259 259 259 259 259 260 259 259 259 260 260 260 260 261 260 260 260 260 261 262 261 260 260 261 262 263 263 263 263 264 265 267 269 274 275 278 278 278 278 278 279 279 280 282 280
262 261 260 260 261 261 261 260 261 261 261 261 261 260 259 259 259 258 258 259 258 259 259 259 259 259 259 259 259 259 260 263 266 264 262 261 266 268 269 269 264 264 264 264 264 265 264 264 267 272 275 276 278 279 281 281 282 282 280 281 282 281
261 260 259 260 260 260 260 260 260 260 260 261 260 260 259 259 258 258 258 258 258 258 258 258 258 259 259 259 259 259 259 259 261 266 268 268 268 268 269 270 270 271 271 268 266 268 272 273 274 275 275 276 277 277 278 279 280 281 282 283 280 279
259 259 259 259 259 259 259 259 259 260 260 260 260 260 259 258 258 257 257 257 258 258 258 258 258 258 258 259 259 259 259 258 258 259 264 267 268 268 269 269 270 270 271 271 270 269 268 271 273 274 275 276 277 277 278 279 279 280 281 282 282 278
259 259 259 259 259 259 259 258 259 259 260 260 260 259 258 258 258 257 257 257 257 258 258 258 258 258 258 258 258 258 259 258 258 257 258 261 266 267 268 268 269 269 270 270 271 271 271 271 272 273 274 274 275 276 276 277 279 280 281 281 279 278
259 259 258 258 258 258 258 258 258 259 259 260 259 259 258 258 258 257 257 257 257 257 257 257 258 258 258 259 259 259 259 259 259 258 258 258 258 260 263 266 267 268 268 269 269 270 270 271 272 273 273 274 275 276 277 277 276 279 281 280 278 278
258 258 258 258 258 258 258 258 259 259 260 259 259 259 258 258 258 257 258 258 258 258 258 258 258 258 258 259 259 259 259 258 259 259 258 258 257 257 258 258 260 264 267 265 266 268 270 271 272 273 273 274 275 276 277 277 274 274 276 278 278 278
257 257 257 258 258 258 258 258 259 259 259 259 259 259 258 258 258 258 258 258 258 258 258 258 258 259 259 259 259 259 259 259 259 258 258 259 259 258 258 259 260 261 265 268 269 270 271 271 272 273 273 274 275 276 277 272 272 273 275 277 278 278

ECMWFFLT1_sfc_thetae_024.txt.gz
Theta_e
285 285 285 286 287 288 287 288 288 286 285 284 285 285 285 283 284 283 284 284 285 285 284 283 284 285 285 285 286 286 286 286 287 287 287 288 289 289 288 288 287 287 288 287 288 288 288 287 287 287 286 286 287 287 288 287 286 287 287 287 287 287
285 285 285 285 286 286 287 287 287 286 286 284 283 282 282 283 283 283 282 282 282 282 281 281 282 283 283 284 285 284 285 285 286 286 285 286 286 286 286 286 286 287 287 287 287 287 287 287 286 286 286 286 287 287 287 287 286 286 286 287 286 287
285 286 286 286 286 286 286 286 286 286 285 284 283 283 282 282 282 282 282 282 282 282 281 281 280 281 281 281 282 282 283 284 284 284 285 284 284 284 285 285 285 286 286 286 286 287 287 287 287 287 285 285 286 286 286 286 285 286 286 286 286 286
286 285 286 286 285 285 284 285 284 283 282 283 283 283 282 281 281 280 281 281 282 280 282 281 281 281 280 279 280 280 281 282 283 284 284 284 284 284 284 284 284 284 284 284 285 285 286 286 286 286 286 286 286 286 287 287 285 285 285 285 285 285
285 285 285 284 284 284 285 285 284 284 283 282 282 280 280 281 281 281 280 280 279 280 279 279 280 280 279 279 279 279 280 280 281 283 283 284 284 284 284 284 284 284 283 283 283 283 284 284 285 285 286 286 286 286 286 286 285 285 285 285 285 285
285 285 284 284 284 283 284 284 284 284 283 282 282 280 280 281 281 281 281 280 279 279 279 279 279 278 278 278 279 279 280 280 280 280 281 281 282 282 283 284 284 284 284 283 283 283 283 283 283 284 284 285 285 285 285 285 285 285 285 285 285 285
284 283 283 283 282 283 283 283 283 282 282 281 281 281 281 281 281 281 281 280 279 279 279 278 279 279 278 278 278 278 278 279 280 280 280 280 280 280 281 282 281 282 282 283 283 282 282 283 283 283 284 285 284 285 285 284 284 285 285 285 285 286
282 281 282 282 282 282 282 282 282 282 282 281 282 281 282 282 282 280 280 280 279 280 279 279 279 280 279 279 278 278 278 279 278 279 280 280 280 279 279 280 280 281 281 281 281 281 282 282 282 283 284 284 285 285 285 284 284 284 284 285 285 285
281 281 282 281 281 281 282 281 281 281 281 281 281 281 281 280 280 279 278 279 278 278 278 278 278 279 279 279 279 278 278 278 278 279 279 280 280 280 280 280 280 280 280 281 281 281 281 282 282 283 283 283 284 284 285 285 284 284 285 285 285 285
281 281 281 281 281 281 281 283 283 282 281 280 280 280 280 280 278 277 277 277 278 277 278 278 278 279 279 279 278 278 277 277 277 277 278 279 280 280 280 279 279 280 280 280 280 281 281 281 281 282 282 283 283 284 284 284 284 285 285 284 285 285
280 280 280 280 281 282 282 282 281 280 280 279 279 279 279 279 278 277 277 277 277 277 277 278 278 279 279 279 279 279 278 278 277 277 277 278 279 280 280 280 279 279 279 279 279 280 280 281 281 282 282 282 282 283 283 284 284 284 284 284 284 285
280 280 279 280 281 281 280 280 280 280 280 280 280 279 279 280 278 278 277 278 278 278 278 278 278 278 278 278 279 278 278 278 277 277 277 277 278 279 279 279 279 279 279 279 279 279 280 281 281 284 286 288 285 283 284 284 284 284 284 284 284 284
279 279 279 279 280 280 280 281 280 280 280 279 279 279 279 279 278 277 276 277 278 278 278 278 278 278 278 278 278 278 277 277 277 276 276 276 277 277 278 278 278 278 278 278 279 279 279 280 281 285 287 288 288 286 284 284 283 283 284 284 284 284
279 279 279 279 280 280 280 280 280 280 279 279 279 279 279 279 278 277 277 277 277 277 277 277 277 277 277 277 277 277 277 277 276 276 276 276 275 276 276 276 277 277 277 278 278 278 279 279 283 285 286 287 287 287 285 283 283 283 283 283 283 284
279 280 280 280 281 280 280 280 280 279 279 280 280 279 279 278 277 277 277 277 277 277 277 277 277 277 277 277 277 277 277 276 276 275 275 275 275 275 275 275 276 276 276 277 276 277 278 278 283 284 285 286 286 287 286 284 283 282 283 283 283 283
281 282 282 281 280 280 281 282 281 280 280 280 279 278 277 277 277 277 277 277 277 277 277 277 276 276 277 277 277 277 276 276 275 275 275 274 274 274 274 274 274 275 275 276 276 276 277 277 281 283 284 284 285 286 285 283 283 282 282 282 283 283
282 281 280 281 282 282 282 281 281 280 279 278 277 276 276 276 276 277 277 277 277 277 276 276 276 276 276 276 276 276 276 276 275 275 274 274 274 273 273 273 273 274 274 275 275 275 275 276 280 282 283 283 284 285 285 283 282 282 282 282 283 283
282 282 282 283 282 281 280 279 279 277 277 276 276 275 275 275 275 276 276 276 276 276 276 275 275 275 275 275 275 274 274 274 274 274 274 274 273 273 273 273 273 273 273 273 274 274 274 275 280 281 281 282 283 284 282 281 281 281 282 282 282 282
281 280 279 279 278 278 278 277 276 275 275 275 274 273 274 274 274 274 274 274 275 275 275 274 274 273 273 273 273 272 272 272 273 273 273 272 272 272 272 272 272 272 272 272 273 273 273 274 277 279 280 281 282 282 280 280 281 281 281 281 281 282
279 280 280 277 277 277 276 276 275 275 274 273 273 272 272 272 272 273 273 273 273 273 272 272 272 272 271 271 270 270 271 271 271 271 272 271 271 270 271 271 271 271 271 271 271 272 272 272 275 278 279 280 281 280 278 278 279 279 279 279 280 281
278 278 277 276 275 275 275 274 273 273 272 272 271 271 270 270 271 271 270 270 271 270 270 270 270 270 269 269 269 268 268 268 268 269 270 269 269 269 270 270 270 270 270 271 271 274 273 272 274 277 278 278 279 278 276 276 276 277 278 279 279 280
277 276 275 274 273 273 273 272 272 270 270 270 270 269 269 269 269 269 269 268 268 268 268 268 267 267 266 266 265 265 265 266 266 267 267 267 267 267 268 268 269 268 269 270 270 270 270 270 270 272 276 277 277 278 275 274 274 273 275 277 278 278
276 274 273 273 272 272 272 270 269 268 268 268 268 267 268 268 268 267 267 266 266 265 265 265 264 264 264 264 263 264 264 264 264 264 264 264 265 265 265 265 265 266 266 267 267 268 268 269 269 270 275 276 277 277 277 273 273 274 275 275 277 277
273 273 272 272 271 271 269 268 267 267 267 266 266 266 267 266 266 265 264 264 263 263 262 262 262 263 262 262 262 262 262 262 262 262 262 263 262 262 262 262 263 263 264 265 266 266 266 268 271 268 272 274 275 276 277 273 272 273 273 274 275 276
271 271 270 270 269 269 268 265 265 265 265 264 265 265 265 265 264 263 262 262 261 261 261 261 261 261 261 261 261 261 260 261 261 261 261 261 260 260 260 261 261 262 262 263 264 264 265 266 267 271 269 272 274 275 276 276 275 278 276 275 275 276
269 268 268 268 268 266 266 264 263 263 263 263 264 264 264 263 262 261 261 260 260 260 260 260 260 260 260 260 260 260 259 259 259 260 260 260 260 260 260 260 261 261 261 261 262 263 265 266 266 269 271 270 273 274 275 276 277 278 275 275 276 277
267 267 266 267 265 265 264 262 262 262 261 262 263 262 262 261 261 260 259 259 259 259 259 259 259 259 259 259 259 259 259 259 259 259 259 259 259 259 259 259 260 260 260 261 261 262 263 265 266 266 268 271 272 274 275 276 277 278 279 277 277 278
264 263 263 264 264 263 262 261 260 259 261 262 262 261 261 260 259 259 258 258 259 259 259 258 259 259 259 259 259 259 259 259 259 259 259 259 259 259 259 259 259 259 260 260 260 261 262 263 265 265 266 267 268 269 271 272 273 274 277 278 278 281
263 263 262 262 262 261 261 259 260 261 261 261 261 261 260 258 258 258 258 258 258 258 258 258 258 258 259 259 259 259 259 259 259 259 259 259 258 258 258 259 259 259 259 259 259 260 261 261 262 263 263 264 265 265 266 267 269 272 274 273 273 277
261 261 261 261 261 261 260 259 259 260 260 260 260 259 259 258 258 258 258 258 258 258 258 258 259 259 258 258 258 258 258 259 259 258 258 258 258 258 258 258 258 259 259 258 259 259 259 260 261 261 262 263 263 264 266 267 268 270 271 273 274 275
260 260 259 260 260 259 259 258 259 259 259 260 259 259 258 258 258 258 257 258 258 257 258 258 258 258 258 258 258 258 258 258 258 258 259 260 260 260 259 259 260 260 261 260 260 260 260 261 261 262 267 266 269 267 267 267 268 269 270 273 275 274
259 259 258 259 259 258 258 258 258 259 259 259 258 258 257 258 258 257 257 258 257 257 257 257 257 257 257 257 257 257 258 261 265 264 262 261 266 269 270 269 264 264 264 264 265 265 263 263 265 270 272 273 273 274 274 274 275 275 274 275 277 276
259 258 257 258 258 257 257 258 258 258 258 259 259 258 258 257 257 257 257 257 257 257 257 257 257 257 257 257 257 257 257 257 259 265 267 268 268 268 270 270 271 271 271 268 265 267 271 272 273 273 273 273 273 273 274 274 274 275 275 276 273 272
257 257 257 257 257 257 257 257 257 257 258 258 258 258 258 257 257 256 257 257 257 257 257 257 257 257 257 257 257 257 257 257 256 258 263 267 267 268 269 269 270 270 271 271 270 268 266 269 271 272 272 272 273 273 273 274 274 275 275 276 276 271
257 257 256 256 256 256 257 256 257 258 258 258 258 258 258 257 257 257 256 257 257 257 257 257 257 257 257 256 256 257 257 257 256 256 257 260 265 267 268 268 269 269 270 270 270 271 270 270 271 272 272 272 272 273 273 274 275 275 276 276 272 270
257 256 256 256 256 256 256 256 257 257 258 258 258 258 258 257 257 257 257 257 257 257 257 257 257 257 257 257 257 257 257 257 257 257 257 257 257 259 262 266 267 268 269 269 270 270 270 270 271 271 272 273 273 273 274 274 272 275 276 274 270 270
256 255 256 257 257 256 256 256 257 258 258 258 258 257 257 257 257 257 258 258 258 257 257 257 257 257 257 257 257 257 257 258 258 258 258 257 257 257 257 258 259 264 267 265 267 269 270 271 272 272 272 273 273 274 274 274 270 269 270 271 271 271
255 255 255 256 255 255 256 257 258 258 258 258 257 257 257 257 257 257 257 257 257 257 257 257 257 257 257 257 258 258 258 259 259 259 258 259 259 258 258 258 259 260 265 268 269 270 270 271 271 272 272 273 273 274 274 269 269 269 270 270 270 270

ECMWFFLT1_sfc_thetae_027.txt.gz
Theta_e
283 283 283 284 284 284 283 284 283 282 281 281 282 282 282 281 282 281 281 281 282 282 281 280 281 281 282 283 284 283 283 282 283 282 282 282 282 282 282 281 282 282 283 283 284 285 286 286 286 286 286 286 286 287 287 287 286 286 286 286 286 286
284 284 284 283 284 283 284 283 282 282 282 282 281 280 280 280 281 281 281 281 282 282 280 280 279 279 279 280 281 282 283 283 283 283 282 282 282 281 281 281 281 281 281 282 282 283 284 285 286 286 286 286 286 286 286 287 286 286 285 286 286 286
282 283 283 283 283 283 283 282 282 281 280 280 280 280 280 280 280 281 281 282 282 280 279 280 279 279 279 279 278 279 279 281 282 282 282 282 282 281 281 281 281 281 282 282 282 281 281 282 283 285 285 285 286 286 286 286 285 285 285 285 285 285
282 283 283 283 283 283 282 282 280 280 279 279 279 279 279 279 280 279 280 281 281 279 277 278 278 278 277 278 277 278 278 278 280 280 280 280 281 281 280 281 281 281 281 281 281 281 282 281 281 282 283 284 284 285 286 286 286 286 285 285 284 285
283 282 282 282 281 281 280 280 280 280 279 279 278 278 279 279 280 279 279 278 278 277 278 278 278 277 277 277 277 278 277 278 278 279 279 279 280 280 280 280 280 280 280 280 280 280 281 281 281 282 282 282 283 283 284 285 285 285 285 286 286 285
282 281 280 281 280 280 280 280 279 279 279 279 278 278 279 279 279 279 278 278 277 277 277 277 277 277 277 277 277 276 277 277 278 278 279 279 279 279 280 279 280 279 279 279 279 279 280 280 280 281 281 281 282 282 283 283 284 284 284 284 285 285
280 281 280 280 279 279 279 280 280 279 280 279 279 279 279 279 278 278 278 277 277 277 277 276 276 276 276 277 277 278 277 277 277 277 278 278 279 279 279 280 279 279 279 279 279 279 279 280 280 280 280 280 281 281 282 282 283 283 283 283 283 285
279 279 279 279 279 279 279 279 279 279 279 279 278 279 279 279 278 277 277 277 277 277 276 276 276 276 276 276 277 277 278 278 277 277 277 277 278 278 278 279 279 279 279 279 279 279 279 279 280 279 280 280 280 280 281 281 282 283 283 283 283 283
278 278 278 278 278 278 278 278 279 278 279 279 279 278 278 279 277 277 276 276 276 277 277 277 277 277 277 276 277 277 277 277 277 277 277 277 277 277 277 278 278 279 279 279 279 279 279 279 279 279 280 280 280 280 280 280 280 281 282 283 283 283
277 278 278 278 278 278 278 278 278 279 278 278 279 278 278 279 277 277 277 276 276 276 277 277 277 277 278 278 278 278 277 277 277 277 277 276 276 277 277 277 277 278 279 279 279 279 279 278 279 279 279 279 279 280 280 280 280 280 280 281 281 282
278 278 278 278 278 278 278 278 278 278 278 280 279 278 278 278 278 278 277 276 276 277 276 277 277 277 277 277 277 278 278 278 277 277 277 276 276 277 277 277 277 277 277 278 278 278 278 278 278 279 279 279 279 279 279 280 280 280 280 280 281 281
278 278 278 278 278 278 278 278 278 279 279 279 278 279 278 278 278 278 277 276 276 276 276 277 277 277 277 277 278 278 278 278 277 277 277 277 276 276 276 276 276 276 276 276 276 276 277 277 278 280 282 283 281 281 281 281 281 281 281 280 280 281
278 278 278 278 278 278 278 279 279 278 278 278 278 278 278 278 278 277 276 276 276 276 276 277 277 277 277 278 277 277 277 277 277 277 277 277 277 277 276 276 275 275 275 275 275 275 276 276 277 280 282 283 284 282 281 281 281 281 281 280 280 280
278 278 278 278 278 278 278 278 279 278 279 278 278 278 277 277 276 276 275 275 276 276 276 277 277 277 277 277 276 276 276 276 276 276 276 276 276 276 276 276 275 275 275 275 275 274 275 275 278 281 281 282 283 283 281 281 281 281 281 280 280 280
277 278 278 277 278 279 278 278 279 279 278 278 278 276 276 276 275 275 275 275 275 276 276 276 276 276 276 276 275 275 275 275 275 275 275 275 275 275 274 275 275 275 275 275 274 274 274 274 278 280 280 281 282 282 282 280 280 280 280 280 280 280
277 278 278 278 278 279 278 279 279 279 278 277 276 276 275 275 275 274 275 275 275 275 275 275 274 274 274 274 273 273 273 273 273 274 274 274 274 274 273 273 273 273 273 273 273 273 273 273 277 279 280 280 281 282 282 279 279 279 279 279 280 280
280 279 280 280 280 278 278 277 276 276 276 275 275 274 274 274 274 274 274 274 274 274 273 273 272 272 272 272 271 271 271 271 272 272 272 272 272 271 271 271 271 272 272 272 272 272 272 273 277 278 279 280 281 281 281 277 278 278 278 278 279 279
278 279 279 279 279 277 276 275 275 275 274 274 274 273 273 272 272 272 272 272 272 272 272 271 270 270 269 270 269 269 269 269 269 269 270 270 270 270 270 270 270 270 270 270 270 270 270 271 276 277 278 278 279 280 276 276 276 276 276 276 277 278
278 278 277 276 275 274 274 273 273 273 272 272 272 271 271 270 270 271 271 271 270 270 269 269 268 267 267 267 267 266 266 267 267 267 267 266 266 266 266 267 267 268 268 268 268 268 268 269 272 275 276 277 278 277 274 274 274 274 274 275 275 276
277 276 276 274 273 273 273 272 272 271 270 270 270 269 269 269 269 269 268 268 267 268 267 267 266 265 265 264 264 264 264 265 264 264 265 264 264 264 265 265 265 266 266 266 266 266 266 267 270 274 274 275 275 275 272 272 272 272 272 272 273 274
276 274 273 273 272 272 271 270 269 269 268 268 268 268 267 267 268 267 266 266 266 266 265 264 264 263 263 262 262 262 262 262 262 263 263 263 263 263 263 263 263 263 264 264 265 267 266 264 266 270 271 272 273 272 270 270 270 270 271 272 272 273
274 272 271 271 271 270 269 268 268 266 267 267 267 266 266 266 266 266 265 265 264 264 263 263 262 262 261 261 261 262 261 262 262 262 262 262 262 261 262 262 262 261 262 262 263 263 263 263 263 265 271 272 272 273 270 270 269 269 270 271 271 271
272 271 270 270 270 269 268 267 265 265 265 265 265 264 265 265 264 264 263 263 262 261 261 261 261 260 261 261 261 261 261 261 261 261 260 260 260 260 260 260 260 260 260 261 262 262 262 263 263 264 270 271 272 272 272 268 268 269 269 269 269 269
270 269 269 269 268 267 266 264 263 263 264 263 263 263 264 263 263 263 261 261 260 260 260 259 260 260 260 260 260 259 260 260 260 260 260 260 259 259 259 259 259 259 260 260 261 261 262 263 265 264 268 270 271 272 273 269 268 269 269 268 269 269
268 268 267 268 266 266 266 262 261 261 261 261 262 263 263 262 262 261 260 260 259 259 259 259 259 259 259 259 259 259 259 259 259 259 259 259 258 258 258 258 259 259 259 259 260 261 261 262 263 267 265 269 271 272 272 272 271 273 270 269 268 269
267 267 266 266 265 264 263 261 260 260 260 261 262 263 261 260 260 259 259 258 258 258 258 258 258 258 258 258 258 258 258 258 258 258 258 258 258 258 258 258 258 258 258 258 259 260 261 262 262 265 268 267 270 271 272 273 273 273 269 268 268 268
265 264 264 264 263 263 261 260 259 259 259 261 260 260 259 259 258 258 257 257 257 257 258 258 258 258 258 258 258 257 258 258 258 257 258 258 258 258 257 257 258 257 257 258 258 259 260 261 261 262 264 269 270 271 272 272 272 272 273 268 267 268
261 261 262 263 262 262 261 260 259 257 259 260 259 259 259 258 257 257 257 257 257 257 258 257 257 258 258 258 258 257 258 258 258 257 257 257 257 257 257 257 257 257 257 257 258 258 259 260 261 261 262 264 266 267 269 270 271 271 272 271 269 272
261 260 260 259 261 260 260 258 258 259 259 258 259 259 257 256 256 257 257 257 257 257 257 257 257 258 258 258 258 258 258 258 258 257 257 257 257 257 257 257 257 257 258 258 258 259 260 260 261 262 262 263 263 263 264 265 265 269 270 267 266 268
261 259 259 259 260 259 258 257 257 257 257 257 258 256 255 256 256 256 256 256 257 257 257 257 258 258 257 257 257 257 257 257 257 257 257 257 257 257 257 257 258 258 259 259 260 261 262 262 263 263 263 264 264 264 264 265 265 264 265 265 265 266
259 259 258 258 258 257 256 255 256 256 257 258 257 256 255 256 257 257 256 256 257 257 257 257 257 257 257 257 257 257 257 257 257 257 258 259 260 260 259 260 261 263 263 264 263 263 263 263 264 265 269 268 271 269 268 268 268 267 266 268 270 269
258 257 257 258 258 256 255 255 256 256 258 256 255 255 255 256 256 256 256 256 256 256 257 257 257 257 257 257 256 256 257 261 265 264 261 261 265 268 270 269 265 265 266 265 266 266 264 264 266 271 273 273 273 273 273 273 273 274 272 273 275 273
258 257 256 256 256 255 255 256 256 256 256 256 257 256 255 255 256 256 256 256 256 257 257 257 257 257 257 257 257 257 257 257 258 264 267 267 267 268 269 270 271 271 271 268 266 267 272 272 273 273 272 273 273 273 273 274 274 275 275 275 272 270
256 256 256 255 255 254 254 255 256 255 255 255 255 255 254 255 255 255 256 256 256 257 257 257 257 257 257 257 257 257 256 256 256 257 263 267 267 268 269 269 270 270 271 271 270 268 267 270 272 272 272 272 273 274 274 275 275 275 275 276 276 270
256 256 255 254 254 254 254 255 255 255 255 255 255 254 254 255 255 256 256 256 256 257 257 257 256 257 257 256 256 256 257 256 256 256 256 259 266 267 268 269 269 270 270 271 271 272 271 271 271 272 272 273 273 273 274 275 275 275 275 275 272 269
256 255 255 253 253 254 254 254 255 255 255 255 254 255 255 255 255 255 256 256 256 256 256 256 256 256 256 257 257 257 257 257 257 257 257 257 258 259 263 266 268 268 269 270 270 271 271 272 272 272 272 273 273 274 274 274 272 275 276 274 270 269
254 253 255 255 255 254 254 255 255 255 255 254 254 254 254 255 256 256 257 257 257 256 256 256 257 257 256 257 257 257 257 257 258 258 258 257 257 257 257 258 260 264 268 266 267 270 271 272 272 273 273 273 273 274 274 274 270 268 269 269 269 269
254 253 254 254 253 253 254 255 255 255 255 253 253 253 254 255 256 255 256 256 257 256 256 256 256 257 256 256 257 258 258 258 258 258 258 258 258 258 258 259 260 260 265 269 269 270 270 271 272 272 273 273 274 274 274 268 267 267 268 268 269 269

ECMWFFLT1_sfc_thetae_030.txt.gz
Theta_e
283 283 283 282 282 283 283 283 282 282 281 281 280 279 279 279 280 280 280 280 281 281 280 279 280 279 279 279 279 280 280 280 280 280 281 281 280 280 280 280 279 279 279 279 280 280 280 281 281 282 282 282 282 282 282 282 283 283 283 284 284 285
284 284 285 284 284 284 284 283 282 281 281 279 279 279 278 279 279 280 279 279 279 279 279 278 278 278 278 278 278 279 278 278 280 280 280 280 280 280 280 280 280 280 280 280 279 279 279 279 279 280 280 281 281 281 281 281 282 282 282 283 284 285
284 284 284 284 283 283 283 282 281 280 280 280 280 279 278 278 278 278 279 278 277 278 277 278 278 278 277 278 277 277 277 278 279 278 278 279 279 279 279 279 279 280 280 280 280 280 280 279 279 278 278 279 280 280 281 281 282 281 281 281 282 283
284 284 284 284 283 283 283 282 280 279 279 279 279 278 278 278 278 278 278 277 277 276 277 277 277 277 276 277 277 277 277 278 278 277 278 278 278 278 278 278 278 279 279 279 279 279 279 280 280 279 279 278 278 278 280 281 280 280 280 281 281 281
284 284 284 283 283 282 282 280 279 278 278 278 278 278 279 278 278 278 277 277 276 277 277 276 277 276 276 276 276 276 276 277 277 277 277 278 278 278 277 278 278 278 278 278 278 278 279 279 279 279 279 279 279 278 278 279 278 278 279 279 280 281
283 282 282 282 280 280 280 280 279 279 278 278 277 277 278 278 277 277 277 277 276 276 276 276 276 276 276 276 276 276 276 276 277 276 277 277 277 277 278 277 277 277 277 277 277 278 278 278 278 278 279 278 278 278 278 279 279 279 278 278 279 279
281 281 281 281 280 279 279 279 279 279 279 278 278 278 278 278 277 277 277 276 277 276 276 276 275 276 275 275 275 276 276 276 276 276 276 276 276 276 276 277 276 277 276 277 277 277 277 277 278 278 278 278 278 278 278 278 279 279 279 279 279 280
280 280 280 280 280 280 279 279 279 278 278 278 277 277 278 277 277 276 276 276 276 276 275 275 275 275 275 275 275 275 276 276 276 276 276 276 276 276 276 276 276 276 276 276 276 277 277 277 277 277 277 277 278 278 278 278 278 278 279 279 279 279
279 280 280 280 279 278 279 279 278 278 278 278 278 278 278 278 277 276 275 275 275 275 276 275 276 276 276 276 275 275 275 275 275 275 275 275 275 275 275 275 275 276 276 276 276 276 276 277 277 277 277 277 277 277 277 277 277 278 278 278 279 279
278 279 279 278 278 278 278 278 279 279 278 279 279 278 278 279 276 276 275 275 276 276 276 276 275 276 276 276 276 276 276 276 275 275 275 275 275 275 275 275 276 276 276 276 276 276 276 276 276 276 276 276 276 276 276 277 277 277 277 278 278 279
278 278 278 278 278 278 278 278 278 277 277 278 278 277 278 277 276 276 276 276 276 275 275 275 276 276 275 276 276 276 276 276 276 276 276 276 276 276 276 276 275 275 275 275 275 275 276 275 275 276 276 275 276 276 276 277 277 277 277 278 278 279
278 278 277 277 278 278 278 278 278 278 279 279 278 278 278 276 277 277 275 275 275 275 275 275 275 276 276 276 276 276 275 275 275 275 275 275 275 275 275 275 275 275 275 275 275 275 275 275 275 277 279 280 278 277 277 277 277 277 277 277 278 278
277 277 277 278 278 278 279 279 279 279 278 278 278 278 277 277 275 275 275 275 275 274 275 275 275 275 275 275 275 274 274 274 273 273 273 273 273 273 273 274 273 274 274 274 274 273 274 274 275 278 280 281 281 279 277 277 276 277 277 277 277 277
277 277 278 278 278 277 277 277 277 278 277 277 277 276 275 275 274 274 274 274 274 274 274 274 274 273 273 273 272 272 271 271 271 271 271 271 271 272 272 272 272 272 272 272 272 272 272 273 276 278 279 280 280 280 277 277 276 276 276 276 276 276
277 277 277 277 277 277 277 277 277 277 276 276 275 274 274 274 273 273 273 273 273 273 273 273 272 271 270 270 270 269 269 269 269 269 269 269 270 270 270 270 270 270 271 271 270 270 271 271 274 276 277 278 279 279 278 276 276 275 275 275 275 275
276 276 276 276 276 277 277 277 276 275 275 274 274 273 273 272 272 272 272 271 271 272 271 270 269 269 268 268 268 268 268 267 267 268 268 268 268 268 268 268 268 268 268 268 268 268 268 269 272 275 276 276 277 277 277 274 274 274 274 274 274 274
277 276 276 277 277 276 275 275 274 274 273 273 272 272 271 271 270 270 271 270 270 269 268 268 267 266 267 266 266 266 266 266 266 266 266 266 266 266 265 265 265 265 266 266 266 266 266 267 272 273 274 274 275 276 275 272 272 272 272 273 273 274
278 278 278 277 275 274 274 273 273 272 272 271 271 269 270 269 268 269 269 268 268 267 267 266 265 265 264 265 264 264 264 264 264 264 264 264 264 264 264 264 264 264 264 264 264 264 264 265 270 271 272 273 274 275 270 269 269 268 268 269 269 270
277 277 276 274 273 273 272 272 271 271 269 269 268 267 267 267 267 268 267 267 266 265 265 265 264 263 263 263 262 262 262 262 262 262 263 262 262 262 262 262 263 263 263 263 263 262 262 263 266 270 271 272 273 271 268 268 268 268 268 268 269 269
276 275 273 272 272 271 271 270 269 269 268 267 267 265 266 266 266 266 265 265 263 264 264 263 262 262 262 261 260 261 261 261 262 261 262 261 261 261 261 262 262 262 262 262 261 262 261 262 265 269 270 271 272 271 268 267 267 267 267 267 268 269
274 273 272 271 270 270 269 267 267 267 266 266 266 265 264 265 265 264 263 263 263 263 262 261 261 261 260 260 260 260 260 260 260 261 261 261 261 261 261 261 260 260 261 261 261 264 263 262 264 268 269 270 271 269 268 267 267 266 266 267 267 268
272 271 271 270 270 268 267 266 266 265 265 265 265 264 263 264 263 263 263 263 262 262 260 260 260 260 259 259 259 259 260 260 260 260 260 260 260 260 260 260 260 259 259 260 260 261 261 261 261 263 269 270 271 272 268 268 267 266 266 266 267 267
272 271 270 270 268 267 266 265 264 264 264 264 264 263 264 263 263 262 262 262 260 259 259 259 258 259 259 259 259 259 259 259 260 260 259 259 259 259 259 258 258 258 259 259 260 260 260 261 261 262 268 270 271 272 271 267 267 267 267 266 267 267
269 268 268 267 267 266 264 263 263 262 263 262 261 262 263 262 262 261 259 259 258 258 258 257 258 258 258 258 258 258 258 259 259 259 258 259 258 258 258 258 258 258 258 259 260 260 260 262 264 262 266 269 270 271 272 268 267 268 267 267 267 267
268 267 267 266 265 265 264 260 260 261 261 260 261 262 262 262 261 261 259 258 258 257 257 257 257 257 257 257 258 257 257 258 258 258 258 257 257 257 257 257 257 257 257 258 259 259 260 260 261 266 264 268 270 271 272 272 271 273 270 268 267 267
267 267 266 265 264 263 263 259 259 259 259 260 262 262 260 259 259 258 256 256 256 256 256 256 256 257 257 256 257 257 257 257 257 257 257 257 257 257 257 257 257 257 257 257 257 258 259 260 261 264 267 267 270 271 272 273 273 274 270 270 269 268
266 265 264 264 262 262 260 259 258 258 257 260 261 259 258 257 256 255 255 255 255 255 255 255 255 256 256 256 256 256 257 257 257 256 257 257 257 257 256 256 256 256 256 257 257 258 259 260 261 261 264 269 270 271 272 273 273 274 274 270 269 269
264 263 263 263 262 262 260 259 258 256 258 260 259 258 257 256 254 254 254 254 255 255 255 255 255 256 256 256 256 256 257 257 257 256 257 257 256 256 256 256 256 256 256 257 258 259 260 262 262 263 263 265 267 268 270 271 272 272 273 272 271 273
262 261 261 260 260 259 258 257 257 258 258 257 259 258 256 253 253 254 254 254 255 255 255 255 255 256 256 256 256 256 257 257 257 256 256 256 256 256 256 257 257 257 258 258 259 261 262 263 264 264 265 265 265 265 266 267 267 270 271 269 268 270
262 260 260 260 261 259 258 256 256 256 256 256 257 254 253 253 253 254 254 254 254 255 254 255 257 257 256 256 256 256 256 257 257 256 256 256 257 257 257 258 258 259 259 260 262 263 263 264 265 265 265 266 266 267 268 268 267 266 265 265 266 266
260 259 259 259 259 257 256 255 255 254 256 257 255 254 252 253 254 254 253 254 254 254 255 255 255 255 255 256 256 256 257 256 256 257 257 259 260 260 259 260 261 262 264 264 264 264 264 265 265 266 270 270 272 270 270 269 269 270 269 270 272 269
258 258 257 258 257 256 255 254 255 255 257 255 254 253 252 253 253 251 253 254 253 254 254 255 255 255 255 255 255 256 256 260 265 264 262 261 266 269 270 270 266 266 267 267 267 267 266 265 267 272 274 274 274 275 275 275 275 276 274 275 276 275
257 256 255 256 256 255 254 254 255 254 254 255 255 254 253 252 253 253 254 254 254 255 256 255 255 255 255 255 256 256 256 256 258 264 267 267 267 268 269 270 271 272 272 269 267 268 272 272 273 273 274 274 273 274 275 275 275 276 276 277 274 271
257 256 256 255 255 254 253 254 254 254 254 253 253 253 252 252 252 253 254 254 254 255 256 255 255 256 255 255 256 256 255 255 255 256 263 267 267 268 269 269 270 271 271 271 270 268 267 270 272 273 274 274 274 274 274 275 275 275 276 277 276 270
257 256 255 254 253 253 253 254 254 254 253 254 252 252 252 252 252 253 253 254 254 255 256 256 255 255 255 255 255 255 255 255 255 255 256 259 265 267 268 268 269 269 269 270 271 271 271 271 272 273 273 273 274 274 274 275 276 276 276 275 271 267
256 255 255 253 253 253 252 253 254 254 254 252 252 252 252 252 252 253 253 254 254 255 255 255 255 255 255 256 256 255 256 256 256 256 256 256 257 258 262 266 267 268 268 268 270 270 271 271 271 272 272 273 274 274 274 274 271 273 274 272 267 267
255 254 254 254 254 253 253 254 254 253 253 252 251 251 250 251 253 252 255 256 256 254 255 255 256 255 255 255 255 255 256 256 257 257 257 256 256 256 256 257 259 264 268 265 267 269 270 270 271 271 272 273 273 272 272 271 266 265 265 266 267 267
254 253 253 254 253 252 253 254 254 254 254 251 250 250 251 253 253 253 254 254 255 255 255 255 255 255 255 255 256 257 257 257 257 257 257 257 257 257 257 257 258 259 264 267 268 268 269 269 270 271 271 271 270 270 269 263 262 262 262 263 263 264

ECMWFFLT1_sfc_thetae_033.txt.gz
Theta_e
281 280 280 280 280 280 280 281 281 281 281 280 279 279 279 279 279 278 278 279 280 279 278 278 278 278 278 277 277 277 278 278 278 278 278 278 278 279 278 278 278 278 277 277 277 277 277 277 278 278 278 278 278 278 278 278 279 279 279 279 280 281
281 281 282 282 282 281 282 281 281 281 281 280 280 280 280 280 280 280 280 280 280 280 279 278 277 277 278 277 278 278 278 278 278 278 278 278 278 278 278 278 278 278 278 278 278 278 278 277 277 277 277 277 277 277 277 278 278 278 278 278 279 280
282 283 283 283 283 283 282 281 281 281 281 280 280 280 279 279 279 278 279 278 278 278 277 278 277 277 277 277 277 278 277 277 278 278 277 277 278 277 277 277 277 277 277 277 277 277 277 277 277 277 277 277 276 277 276 277 277 277 277 277 278 278
283 284 283 282 281 281 280 280 280 279 279 278 278 279 278 278 279 278 278 277 277 277 278 278 277 277 277 276 276 277 276 276 277 276 277 277 277 277 277 277 277 277 277 277 277 277 277 277 277 277 277 276 276 276 278 277 276 276 276 276 276 277
284 284 283 283 283 283 281 281 280 279 279 279 278 278 278 277 278 277 277 276 276 277 276 276 277 275 276 276 275 276 276 276 276 276 276 277 276 276 277 276 276 276 276 276 276 276 276 277 276 277 276 276 276 276 276 277 276 276 276 275 276 276
282 282 282 282 281 281 280 280 279 278 278 278 278 277 277 277 277 277 276 276 276 276 275 276 275 275 275 276 275 275 275 275 276 276 276 276 276 276 276 275 276 276 275 275 275 275 275 276 276 276 276 276 276 276 276 276 276 276 276 275 276 276
281 281 281 281 281 280 280 279 278 277 278 277 277 278 277 277 277 276 276 276 276 276 276 276 274 275 274 274 274 274 274 275 275 275 275 275 275 275 275 275 274 275 275 275 275 275 275 275 275 275 275 276 276 276 276 276 275 275 276 276 276 277
281 281 281 281 281 281 280 279 279 278 278 278 278 278 277 278 277 276 276 275 275 276 276 275 274 274 274 274 274 274 274 275 274 274 275 274 275 274 274 274 274 274 274 274 274 274 274 275 274 274 275 275 275 275 275 275 275 275 275 275 276 276
280 281 281 281 281 279 279 279 279 278 278 278 277 277 278 278 277 276 275 275 275 275 275 275 275 275 275 275 275 274 274 274 274 274 274 274 274 274 274 274 274 274 274 274 274 274 274 274 274 274 274 274 274 274 274 274 275 275 275 276 276 276
280 281 281 280 280 279 279 279 279 279 278 278 278 278 277 278 277 275 275 275 275 275 275 275 275 275 275 275 274 274 274 274 274 274 274 273 273 273 273 273 273 273 273 273 273 274 274 274 273 273 274 274 274 274 274 275 275 275 275 276 276 276
280 280 279 279 279 278 278 278 278 278 278 278 278 278 277 277 276 275 275 274 275 275 275 275 275 275 274 274 274 273 273 273 272 272 272 272 271 272 272 272 272 272 272 272 272 272 272 272 273 273 273 274 274 275 275 275 275 275 275 275 275 276
279 279 279 278 278 278 278 278 278 278 278 278 277 277 277 275 275 275 274 274 274 274 274 274 274 273 273 272 272 272 271 271 271 270 270 270 270 270 270 270 270 270 270 270 270 271 271 271 271 273 276 277 275 274 274 274 274 274 274 274 274 274
278 277 277 278 278 278 278 278 278 277 277 277 277 276 276 275 275 274 274 274 273 273 273 273 272 272 271 271 270 269 269 269 268 268 268 268 268 268 268 269 268 269 269 269 269 268 269 269 270 273 275 276 277 275 273 273 273 273 273 273 273 273
277 277 277 278 278 278 278 277 277 277 277 276 276 275 274 274 274 273 272 273 272 272 272 271 270 269 268 268 268 267 267 267 266 266 266 266 266 267 267 267 267 267 267 267 267 267 267 267 270 273 274 275 276 276 273 272 272 272 272 272 272 272
277 278 278 277 278 278 278 278 277 277 277 275 275 274 273 272 272 271 271 271 270 270 270 268 267 266 266 266 266 265 265 265 265 265 264 264 265 265 265 266 265 265 265 265 265 265 265 265 269 271 273 274 275 275 274 272 271 271 271 271 271 271
277 278 278 278 278 278 278 277 278 276 275 274 273 272 271 271 270 270 269 269 269 268 268 267 265 265 264 264 264 264 264 263 263 263 263 264 264 264 264 263 264 264 264 264 264 264 264 264 267 271 273 273 274 274 274 271 271 270 270 269 269 269
277 277 276 276 276 276 275 275 274 274 273 272 271 270 269 269 269 268 269 268 267 266 265 265 264 264 264 263 263 262 262 262 262 262 263 262 263 262 262 262 262 262 262 262 263 263 263 263 269 271 272 273 273 274 274 271 270 269 268 268 268 268
277 278 277 276 275 275 274 274 273 272 271 269 270 268 268 267 267 267 267 266 265 264 266 264 263 262 262 263 261 261 261 261 261 261 262 262 262 262 262 262 261 261 261 262 262 261 261 262 268 270 271 272 273 274 270 269 268 267 267 267 268 268
278 278 276 275 274 274 273 273 271 270 269 268 267 266 266 266 265 266 266 264 264 264 264 264 262 261 261 261 260 260 260 261 260 260 261 260 260 261 260 260 260 261 261 261 261 261 261 261 265 269 270 271 272 271 268 267 267 267 267 267 267 268
276 275 275 273 272 272 271 270 269 268 267 266 266 264 265 264 265 265 263 263 263 263 263 262 260 260 260 259 259 259 260 260 260 259 260 259 259 259 259 260 260 260 260 260 260 260 260 260 264 269 270 271 271 271 268 267 266 266 266 266 267 268
275 274 273 272 271 271 269 267 267 267 266 265 265 264 263 264 264 263 262 263 263 263 261 261 260 259 258 258 259 258 258 258 259 259 259 259 259 259 259 259 259 259 259 259 260 262 262 260 262 267 268 270 271 269 268 267 267 266 266 266 266 267
272 272 272 272 271 268 267 266 266 265 266 265 264 263 262 264 263 263 263 263 262 261 260 259 259 258 257 258 258 258 258 259 258 258 258 258 258 258 258 258 258 258 258 259 259 259 260 260 260 262 268 270 271 272 268 268 266 266 266 266 266 266
274 274 273 272 269 267 266 265 266 265 264 264 264 262 263 263 263 262 262 262 260 259 259 258 258 257 257 257 257 258 258 258 258 258 257 257 257 257 257 257 257 257 258 258 259 259 259 260 260 261 268 270 271 272 271 267 267 267 267 266 267 267
272 270 269 268 267 266 265 264 265 264 264 262 261 261 263 262 262 261 259 259 259 258 256 255 256 256 257 256 256 256 257 257 257 257 257 257 257 256 256 257 257 257 257 258 259 259 259 261 263 261 266 269 270 271 272 269 268 269 268 268 268 268
270 270 269 267 265 265 264 263 262 262 261 261 261 262 262 261 260 260 259 258 257 256 255 255 255 256 255 255 256 256 256 256 256 256 256 256 256 256 256 256 257 257 257 257 258 259 259 259 260 265 264 269 271 272 272 273 271 273 271 269 268 269
271 269 267 266 264 264 264 263 262 261 260 262 262 262 260 258 259 258 257 256 255 255 254 254 254 255 255 255 255 255 255 255 255 255 255 256 256 256 256 256 256 256 256 256 257 258 259 260 260 264 268 268 271 272 273 274 274 274 271 271 270 270
270 268 265 264 263 262 261 260 261 260 259 260 262 260 258 257 256 255 254 254 253 252 253 253 253 253 254 254 254 254 255 255 254 255 254 255 255 255 255 256 256 256 256 256 257 258 259 261 262 263 266 270 271 272 273 274 274 274 275 271 270 271
266 266 265 263 262 262 260 259 260 259 259 260 259 258 257 255 253 253 253 252 252 253 253 253 254 254 254 254 255 255 255 255 255 255 255 255 255 255 255 255 255 256 256 257 258 260 261 263 264 264 265 267 269 270 272 273 274 274 274 274 272 275
266 265 264 263 261 261 260 258 258 258 258 258 259 258 255 252 253 254 253 253 253 253 252 253 253 254 255 253 255 255 255 255 255 255 255 255 255 255 255 256 257 257 258 259 260 262 263 264 264 265 266 267 267 268 268 269 269 272 273 270 270 271
267 265 264 264 262 261 259 258 257 257 256 256 257 254 252 253 253 253 253 252 251 253 252 253 256 256 255 255 254 254 255 255 255 255 255 255 256 256 257 258 259 259 259 260 261 263 264 264 265 266 267 267 268 268 269 270 270 270 270 269 270 269
266 265 263 263 261 260 258 257 256 255 256 258 254 253 253 253 254 253 251 251 252 252 254 254 254 254 254 254 254 254 255 255 255 255 256 258 259 259 258 258 259 261 263 264 265 265 264 265 266 267 271 271 274 272 271 270 270 271 271 273 275 274
265 263 262 261 260 259 258 256 255 254 257 255 254 253 252 253 252 250 251 252 250 252 252 253 253 252 254 254 254 254 254 259 264 263 261 261 265 268 270 270 266 267 267 267 267 268 266 266 267 272 274 274 274 275 275 275 275 276 274 276 277 274
261 260 259 259 258 258 257 256 255 254 254 255 255 254 253 252 252 252 252 251 252 254 254 253 253 254 254 254 254 254 254 255 257 263 265 266 267 268 269 270 271 271 271 269 267 268 271 272 272 273 273 274 274 274 274 275 275 275 275 275 272 270
260 260 260 258 257 257 256 255 254 254 254 254 254 254 253 252 252 252 252 252 252 254 255 254 254 254 254 254 254 254 254 254 254 255 261 265 266 267 268 269 270 270 270 270 269 268 267 270 272 273 273 273 273 274 274 274 274 274 273 273 272 266
262 260 258 257 256 255 255 255 255 254 253 253 252 252 252 251 251 252 252 252 253 253 255 255 254 254 254 253 253 253 254 253 254 254 254 258 264 266 267 267 268 268 269 269 270 271 270 270 271 272 272 273 273 273 272 272 272 271 271 270 264 262
259 258 256 255 255 255 254 254 254 254 254 252 252 252 252 252 252 252 251 252 252 253 253 254 254 254 254 254 254 254 254 254 254 254 255 255 255 257 261 264 265 266 267 268 269 269 270 270 271 272 272 272 271 270 270 269 265 267 268 265 261 260
257 256 256 256 255 254 253 255 255 253 253 252 252 251 250 250 252 251 253 255 256 253 254 254 255 254 254 254 254 254 254 254 256 256 255 255 255 254 255 255 258 262 266 265 266 268 269 270 271 272 271 270 269 269 269 265 259 258 258 259 259 259
256 255 255 255 254 254 255 255 255 254 253 251 250 250 250 252 252 252 253 253 254 254 254 254 253 254 254 253 254 254 255 255 255 255 255 255 255 255 255 255 256 258 262 266 267 267 268 269 270 271 270 268 268 268 266 257 256 256 257 257 257 257

ECMWFFLT1_sfc_thetae_036.txt.gz
Theta_e
280 279 279 279 278 279 278 279 279 279 278 278 278 278 278 278 278 278 279 279 280 279 278 278 278 278 278 278 277 277 278 278 278 277 277 277 277 277 277 277 277 277 276 276 276 276 276 276 276 276 276 276 276 276 276 276 276 276 276 276 276 277
280 279 279 279 279 279 279 279 278 278 278 278 278 278 278 278 278 278 278 278 278 278 277 277 278 278 278 278 278 278 278 277 277 277 277 277 277 277 277 277 276 277 276 276 276 276 276 276 275 275 275 275 275 275 275 275 275 275 275 275 276 276
280 279 279 280 279 279 279 279 279 279 278 278 279 279 279 279 279 279 278 278 278 278 278 278 278 278 278 277 277 277 276 276 277 276 276 276 276 276 276 276 276 276 276 276 276 275 275 275 275 276 275 275 275 275 275 275 275 274 275 275 275 275
280 280 281 281 281 280 279 279 279 279 278 278 278 278 278 277 277 277 277 277 277 277 276 276 275 275 275 275 276 277 276 276 276 276 276 276 276 276 276 275 276 275 275 275 275 275 274 274 274 274 274 274 274 274 276 275 274 274 274 274 274 274
281 281 281 281 281 281 280 279 279 279 279 279 278 278 277 277 277 276 277 277 276 276 275 275 275 275 275 275 275 275 275 275 275 275 275 275 275 275 275 274 274 275 274 274 274 274 274 274 274 274 274 274 274 274 274 275 274 274 274 274 274 274
281 281 282 282 282 281 280 279 278 277 277 277 277 277 277 277 277 276 276 276 276 274 274 275 274 274 274 275 274 274 274 274 275 275 275 275 275 274 274 274 274 274 273 273 273 273 273 273 273 273 273 274 274 274 274 274 274 274 274 274 274 274
281 282 282 282 281 280 279 279 278 277 278 277 277 277 276 277 276 276 276 275 276 275 275 274 274 274 274 274 274 274 274 274 274 274 274 274 274 274 273 273 273 273 273 273 272 272 272 273 273 273 273 273 273 273 273 273 273 273 273 274 274 275
282 281 281 281 281 281 280 279 278 277 277 277 277 277 276 276 276 275 275 275 275 275 275 274 274 274 274 274 274 274 274 274 274 273 273 274 273 273 273 272 272 272 272 272 272 272 272 272 272 272 272 272 272 273 273 273 273 273 274 274 274 274
281 281 281 281 281 281 281 280 279 278 277 277 277 276 276 276 276 275 275 275 274 274 274 274 275 274 274 274 274 274 274 273 273 273 272 273 272 272 271 271 271 271 271 271 271 271 271 271 271 271 271 272 272 272 273 273 273 273 274 274 274 274
281 280 281 281 281 281 280 280 280 279 278 278 277 276 276 277 276 275 275 275 274 274 275 274 274 274 274 274 274 273 272 272 271 271 271 270 270 270 270 270 270 270 270 270 270 270 270 270 270 270 270 271 272 272 272 272 272 272 272 273 273 273
281 281 281 281 281 281 280 279 279 278 278 277 277 277 276 276 276 275 274 274 274 274 274 274 274 274 273 273 272 271 271 270 270 269 269 269 269 269 269 269 269 268 268 269 269 269 269 269 269 269 270 271 272 272 272 272 272 272 271 271 272 272
281 281 281 281 281 281 280 279 279 279 278 278 277 277 276 276 275 275 274 274 274 274 273 273 273 272 272 271 270 269 268 268 268 268 267 267 267 267 267 267 267 267 267 266 267 267 267 267 268 269 273 275 273 272 272 272 272 272 271 271 271 271
280 280 281 281 280 280 280 279 279 279 278 278 277 277 276 276 275 274 274 274 273 273 272 271 271 270 269 269 268 266 266 267 265 264 264 264 264 265 265 266 266 265 265 265 265 265 266 266 267 271 273 275 276 274 273 272 272 272 271 271 270 270
279 279 279 280 279 279 279 279 278 277 278 277 277 276 275 275 275 274 273 273 272 271 271 270 269 267 267 266 265 265 263 263 263 262 263 262 263 263 263 264 264 264 264 264 264 264 264 265 268 271 273 274 275 276 273 272 271 271 271 271 270 270
279 279 279 278 279 279 279 279 278 277 278 277 276 274 274 274 274 273 272 271 270 269 268 267 265 265 264 264 263 263 262 261 262 262 262 262 262 262 262 263 263 263 263 263 263 263 263 263 267 270 273 274 275 275 274 272 271 270 270 270 270 269
278 278 278 278 279 279 279 278 278 277 276 276 273 273 273 273 271 271 270 269 268 267 266 265 264 264 263 263 262 262 261 261 261 261 260 261 262 262 261 261 262 262 262 262 262 262 262 263 266 270 273 274 274 275 274 271 271 270 269 269 269 268
277 277 276 277 277 277 277 276 276 275 274 273 273 271 271 270 270 268 268 267 267 265 264 265 263 262 262 262 261 260 260 260 259 261 261 260 261 261 260 260 260 260 260 261 261 261 261 262 268 271 272 273 274 274 274 270 269 269 268 268 268 268
278 278 278 278 277 276 277 276 275 274 272 271 271 269 269 268 268 268 267 265 264 264 265 263 262 261 261 262 260 259 260 260 259 259 260 259 260 258 259 260 258 260 259 260 260 260 260 261 267 269 271 272 273 274 270 268 268 267 267 267 268 268
279 278 277 276 276 275 275 274 273 272 270 269 268 268 267 267 266 266 266 264 264 263 263 263 261 261 260 260 259 258 259 260 259 259 258 258 259 259 259 258 259 259 259 259 259 259 259 260 264 269 270 271 273 271 268 268 267 267 267 267 267 268
276 275 276 274 274 273 272 271 271 270 269 268 266 267 266 265 266 265 264 264 262 263 262 262 260 260 259 258 257 257 259 258 258 257 257 258 258 258 258 258 258 258 258 259 258 259 259 260 263 268 270 271 271 271 268 267 267 267 267 267 268 268
275 274 274 273 272 271 270 270 269 270 269 267 266 266 266 266 265 264 264 264 263 262 260 260 259 259 258 257 258 257 257 257 257 257 256 257 256 257 257 258 257 257 258 258 258 261 261 260 261 266 268 270 271 270 268 268 267 267 267 267 267 268
273 272 272 273 273 270 268 268 269 269 268 267 266 265 266 266 265 264 263 263 262 261 259 259 258 258 257 258 257 256 256 256 256 256 256 256 256 257 257 257 257 257 257 258 258 258 259 259 259 261 268 270 271 272 269 268 267 267 267 267 267 267
276 275 274 274 271 268 267 268 269 268 267 266 265 266 266 264 263 262 262 262 260 258 258 257 257 257 256 256 256 257 256 255 257 257 255 256 256 256 256 256 256 256 257 257 258 258 258 259 259 261 268 270 271 272 271 268 268 268 268 267 267 267
273 272 271 270 269 268 267 268 269 268 266 265 266 266 264 263 262 261 260 259 259 257 256 255 255 256 255 255 255 254 255 255 254 255 255 255 255 255 255 255 256 256 256 257 258 258 258 260 262 261 266 269 271 272 273 270 270 271 270 269 269 269
272 272 272 269 268 267 267 268 268 266 265 266 266 263 262 262 261 261 259 258 257 256 255 254 254 254 254 253 254 254 254 254 253 253 253 254 254 254 254 255 255 256 256 257 257 258 258 259 260 265 264 269 271 272 273 274 273 275 272 270 269 269
273 272 269 268 267 266 267 268 268 266 265 266 263 262 261 260 260 259 257 256 255 254 254 254 253 253 253 253 253 252 252 253 252 252 252 254 254 254 254 255 255 255 255 255 257 257 259 259 260 264 268 268 271 273 274 274 275 275 272 272 271 271
273 271 268 266 265 265 265 265 268 264 264 264 262 262 260 259 257 256 255 254 253 252 251 251 251 251 251 251 252 252 253 253 252 254 252 253 254 254 254 255 254 254 255 255 256 258 260 262 263 264 266 270 272 273 273 274 275 275 276 272 271 272
268 268 268 265 264 264 263 263 265 265 264 261 261 260 259 257 255 254 254 251 251 251 252 252 252 252 252 252 252 252 252 253 253 254 254 254 254 254 254 254 254 254 255 256 258 260 262 264 265 265 266 268 270 271 272 273 274 274 275 275 273 275
269 268 267 266 264 263 262 261 261 262 260 260 260 259 257 254 255 255 254 253 252 251 251 251 251 252 252 251 252 252 252 253 253 253 254 254 254 253 254 254 255 256 257 258 260 262 263 264 264 266 267 268 268 268 269 270 271 273 274 272 272 273
270 269 267 268 265 263 262 261 260 258 259 259 259 256 255 255 255 255 254 251 250 251 251 251 255 255 253 253 251 252 253 253 253 253 254 254 254 254 255 255 256 258 259 260 261 262 262 264 266 267 267 268 268 270 271 272 272 271 271 271 272 272
270 270 268 268 266 263 262 261 260 258 259 259 256 256 256 255 255 253 251 251 250 251 253 253 253 252 252 253 251 252 254 253 254 254 255 256 257 257 257 257 258 259 261 262 262 263 265 266 266 267 271 271 274 272 271 271 271 272 272 273 274 272
270 269 268 268 265 263 262 261 260 258 259 257 256 255 255 255 254 251 252 252 251 250 252 252 251 250 252 252 252 252 252 257 262 261 259 260 264 267 269 268 265 266 267 267 268 268 266 266 267 272 274 274 274 275 275 275 275 274 272 272 273 270
268 268 267 267 263 263 262 261 258 256 257 256 256 256 255 254 254 253 253 252 252 253 253 251 252 252 252 252 252 252 253 253 255 262 265 266 266 267 269 270 271 271 271 269 268 269 271 272 272 273 273 274 274 274 274 273 273 272 271 271 267 264
266 266 267 266 262 262 260 259 257 256 256 256 256 255 255 254 255 255 254 253 253 254 255 254 253 253 253 253 253 253 251 252 252 254 260 264 265 266 267 268 269 270 270 270 270 268 267 269 271 272 273 273 273 272 272 272 271 270 269 269 267 259
268 267 265 262 260 260 259 258 257 256 256 255 255 255 254 253 254 254 253 253 253 254 254 254 253 253 253 252 252 252 251 252 252 252 253 257 262 264 265 266 268 269 268 269 269 270 270 270 271 272 272 273 272 271 271 270 269 268 268 266 259 256
264 263 261 259 259 259 258 258 256 255 255 254 254 254 255 254 254 254 253 253 253 253 253 253 253 253 253 253 253 252 253 252 252 252 253 253 254 256 260 262 263 265 266 266 268 269 269 269 270 271 272 272 270 270 270 268 263 265 265 263 257 256
261 260 259 258 258 257 257 258 256 254 254 254 253 254 253 253 254 252 254 255 255 253 253 254 255 254 253 253 253 252 252 253 254 254 254 253 253 253 253 254 256 260 263 263 265 266 268 269 270 270 271 270 269 269 268 264 257 256 256 256 254 255
259 258 257 257 256 256 257 256 254 254 253 253 252 253 253 253 253 253 253 254 255 254 254 254 253 254 253 253 252 253 253 253 254 254 253 253 254 253 253 253 254 255 260 264 265 266 267 268 269 270 270 268 268 267 265 255 254 254 255 255 255 255

ECMWFFLT1_sfc_thetae_039.txt.gz
Theta_e
281 281 281 281 281 281 281 281 281 281 281 281 281 281 281 281 281 281 281 281 281 281 281 281 281 281 281 281 281 281 280 280 280 280 280 280 280 280 279 279 279 279 278 278 278 278 278 278 278 278 278 278 278 278 278 278 278 278 278 278 278 278
281 281 281 280 281 281 281 281 281 281 281 281 281 281 281 281 281 281 280 281 281 280 280 280 281 281 280 280 280 280 280 280 280 280 280 279 279 279 279 279 278 278 278 278 278 278 278 278 278 278 278 278 277 277 277 277 277 277 277 277 278 278
281 281 281 281 281 281 281 281 281 281 280 280 281 280 280 280 280 280 280 280 280 280 279 279 279 279 280 280 280 279 279 279 279 279 279 279 279 279 279 278 278 278 278 277 277 277 277 277 277 277 277 277 276 277 277 277 277 276 276 277 276 277
281 281 281 281 281 281 280 281 280 280 280 281 280 280 280 280 280 280 280 280 280 279 279 279 279 278 278 278 278 279 279 279 279 279 279 279 279 278 278 278 278 278 277 277 276 276 276 276 276 276 276 276 276 276 276 276 276 276 275 276 275 276
281 281 281 281 281 281 281 280 280 280 280 280 280 280 280 280 280 280 280 279 279 279 278 278 278 278 278 278 278 278 278 278 278 278 278 278 278 278 277 277 277 276 276 275 275 275 275 275 275 275 275 275 275 275 275 275 275 275 275 275 275 275
282 281 281 281 281 281 280 280 280 280 280 280 280 279 280 279 279 279 279 279 278 278 278 278 278 278 278 278 278 277 277 277 277 277 277 277 277 276 276 276 275 275 275 274 274 274 274 274 274 274 274 274 274 274 274 274 274 274 274 274 275 275
281 281 281 281 281 281 280 280 280 280 280 280 279 280 279 279 279 279 279 278 278 278 278 278 278 278 277 277 277 277 277 277 276 276 276 275 275 275 274 274 274 273 273 273 273 273 273 273 273 273 273 273 274 273 273 273 274 274 274 274 275 275
282 281 281 281 281 281 280 280 280 279 280 279 279 279 279 279 279 279 278 278 278 277 277 277 277 277 277 277 276 276 276 276 275 274 274 274 273 273 273 272 272 272 272 272 272 272 272 272 272 272 272 272 272 272 273 273 274 274 274 274 274 274
282 282 281 282 282 281 281 280 279 279 279 279 279 279 279 278 278 278 278 278 278 277 277 277 277 277 277 276 276 276 275 274 273 273 272 273 272 271 271 271 271 271 271 271 271 271 271 271 271 271 271 271 271 272 273 273 273 273 274 274 274 274
282 282 282 281 281 281 281 280 280 279 279 279 279 279 279 278 278 278 277 277 277 277 277 277 277 276 276 276 275 274 273 272 272 271 271 271 270 270 270 270 269 270 270 270 269 270 270 269 270 270 270 270 271 273 273 273 273 273 273 273 273 273
282 282 282 282 281 281 281 280 280 280 279 280 280 279 279 278 278 277 277 277 277 277 277 276 276 275 275 274 273 272 271 271 270 270 270 269 269 269 269 269 269 268 268 268 268 268 268 268 268 269 269 271 273 274 273 273 273 273 273 273 273 273
282 282 282 281 281 281 281 281 281 280 280 280 280 279 279 278 278 277 276 277 276 276 276 275 275 274 273 272 271 270 269 269 269 268 268 268 267 267 267 267 268 267 267 267 267 267 267 267 268 269 272 275 274 274 274 273 273 273 273 272 272 272
281 281 281 281 282 282 282 282 282 282 281 281 280 279 279 278 277 277 276 276 275 275 274 274 273 272 271 270 269 268 268 268 267 267 266 266 266 266 266 266 266 266 266 266 266 265 266 266 267 270 273 274 275 274 274 273 273 273 272 272 271 271
280 281 281 282 282 282 282 282 282 281 281 281 280 279 278 277 277 277 276 276 274 274 274 272 271 270 269 268 267 267 266 266 265 265 265 264 264 265 265 265 265 265 265 265 265 265 265 265 267 271 272 274 275 275 274 274 273 272 272 271 271 271
281 281 281 282 282 282 282 282 281 281 282 281 280 278 276 277 277 276 275 274 274 273 272 270 269 268 267 266 265 265 264 264 264 263 263 263 264 264 264 264 264 264 264 264 263 263 264 264 267 270 272 273 275 275 275 273 273 272 271 271 270 270
280 281 281 282 282 283 283 282 282 282 281 280 278 277 276 276 275 275 274 273 272 271 269 268 267 266 266 265 264 264 263 263 263 263 263 263 263 263 263 263 263 263 263 263 263 263 263 263 266 270 272 273 274 275 275 273 272 271 270 269 269 269
280 280 279 280 281 281 280 280 280 278 277 277 276 276 275 275 274 273 273 271 270 269 267 267 266 265 264 264 263 263 263 262 262 262 262 262 262 262 262 262 261 261 261 261 262 262 262 262 267 270 271 272 273 275 275 272 270 269 269 269 269 269
279 279 280 280 279 279 279 279 278 277 276 275 276 274 274 273 273 272 271 270 268 267 267 266 265 264 263 263 262 261 263 262 262 261 262 261 261 261 262 261 261 261 260 261 261 260 261 262 267 269 270 272 273 274 272 270 269 268 268 268 269 269
279 279 279 278 278 278 278 277 276 275 273 273 272 272 272 272 271 271 270 269 267 266 266 266 264 263 262 262 261 260 261 262 261 260 261 260 261 261 260 260 260 260 260 260 260 260 260 261 264 268 270 271 273 272 270 270 269 268 268 268 269 269
278 278 278 277 277 277 276 275 274 273 273 271 270 270 270 271 271 270 269 268 266 266 265 265 263 262 262 260 260 260 262 261 260 260 260 260 259 259 259 259 259 259 259 259 259 259 259 260 263 267 269 271 272 272 270 269 268 268 268 268 269 269
277 277 276 276 276 274 273 273 273 273 272 271 270 270 270 270 271 269 268 267 265 265 263 263 262 262 260 260 261 259 259 259 259 259 259 258 258 258 258 258 258 258 258 258 259 261 261 260 262 266 268 270 271 271 270 270 269 268 268 268 268 269
274 274 274 275 276 272 271 272 273 272 272 270 269 269 270 271 271 269 267 266 264 263 262 262 261 260 259 260 259 258 259 259 257 257 258 257 257 257 258 257 257 257 257 258 258 259 260 259 260 262 268 269 271 272 270 270 269 268 268 269 269 268
277 277 276 276 273 271 270 271 272 271 271 269 269 269 272 270 268 266 265 264 263 262 261 260 260 259 258 259 258 259 258 258 259 258 256 256 256 256 256 256 256 256 257 257 258 258 259 259 260 261 267 269 271 272 272 270 270 269 269 269 269 270
275 274 273 272 271 270 270 271 272 272 269 268 269 271 270 266 266 265 264 263 262 260 259 258 258 258 257 256 256 256 256 257 256 256 256 256 256 255 255 256 256 257 257 258 258 258 259 260 262 262 266 269 271 272 273 271 271 272 271 271 270 270
274 274 275 273 270 270 270 270 271 270 269 269 271 269 266 265 264 264 263 262 260 259 257 257 256 256 255 254 256 255 255 255 255 254 254 254 254 254 254 255 256 256 257 257 258 259 259 260 260 265 265 269 271 273 274 274 273 275 273 271 270 271
275 275 273 271 270 269 270 270 272 270 269 271 269 265 264 263 263 262 261 260 259 257 256 256 255 255 255 255 255 254 254 254 254 253 253 254 254 255 255 256 256 256 256 256 258 258 260 261 262 264 268 269 272 273 274 274 275 275 273 273 272 272
275 274 272 270 268 268 268 270 272 270 269 270 265 265 263 262 261 260 260 258 257 256 255 254 254 253 253 252 254 254 255 254 252 254 252 254 254 255 254 255 255 255 255 256 257 259 261 263 265 266 268 271 271 273 274 274 275 276 276 273 273 273
271 270 271 269 267 267 267 268 271 270 272 267 264 264 262 261 260 259 259 256 256 255 254 254 253 252 253 253 254 254 255 255 255 255 254 254 255 254 254 255 255 255 255 256 258 260 262 264 265 266 267 269 270 271 272 274 275 275 275 275 274 275
272 271 271 270 268 266 266 266 268 271 266 263 264 263 261 260 260 260 258 257 256 254 253 255 255 254 253 252 253 254 254 255 254 254 255 255 254 254 254 255 255 255 256 257 259 262 263 264 265 266 267 268 269 269 270 272 272 274 275 272 271 272
272 272 271 271 271 267 266 266 266 266 263 263 262 261 260 260 260 260 258 257 256 255 254 255 256 256 254 254 253 254 253 254 254 254 255 255 255 254 255 255 256 256 257 259 261 262 263 263 265 267 267 268 269 270 272 272 272 272 271 270 270 270
271 272 272 272 272 267 265 265 265 263 262 263 261 260 260 260 259 258 257 255 254 255 254 254 255 255 255 254 252 253 255 255 254 255 255 255 256 256 257 257 258 259 259 260 262 262 262 264 266 267 271 271 273 272 271 272 271 271 270 270 272 268
272 272 272 272 270 267 265 264 264 261 262 261 260 260 261 260 258 257 256 255 254 254 254 254 253 252 254 253 253 251 252 257 262 259 257 257 261 265 267 265 261 261 261 261 263 264 265 267 268 272 273 273 273 274 275 274 274 273 271 271 271 265
270 270 271 271 269 266 265 265 263 261 260 260 259 260 261 259 259 258 257 255 255 255 255 254 253 253 252 252 253 252 254 254 256 263 266 267 267 268 269 270 271 272 272 270 269 270 272 272 272 272 272 273 273 274 274 273 273 272 271 270 265 260
269 269 270 271 268 267 265 264 263 261 260 259 259 259 259 259 260 259 258 256 255 256 256 255 255 254 253 253 254 253 253 253 253 255 262 264 265 267 268 269 270 271 271 271 271 270 268 269 271 271 272 272 273 273 272 272 271 270 269 269 266 258
271 271 270 269 267 266 264 264 262 260 259 258 258 258 258 257 258 259 257 256 255 255 256 255 254 254 254 253 253 252 252 253 252 253 255 258 263 264 266 268 269 269 270 270 270 270 270 270 270 271 271 272 272 272 271 271 269 268 267 266 259 256
270 269 268 266 265 265 263 263 261 259 258 257 257 257 257 257 257 257 256 255 255 255 255 255 255 254 254 254 254 253 254 254 254 253 253 253 254 257 260 264 265 266 267 267 267 268 269 269 270 270 271 272 271 270 270 268 263 265 265 263 258 256
267 265 264 264 262 261 261 261 259 257 256 256 256 256 256 255 256 254 255 256 255 255 255 255 256 255 254 253 253 253 254 254 254 254 254 253 253 253 254 255 257 260 263 263 264 266 268 268 269 269 270 271 269 268 268 265 257 256 256 257 256 256
263 261 259 259 259 259 260 259 255 256 255 255 255 256 255 255 255 255 255 255 256 255 255 255 254 255 254 254 253 253 253 253 254 254 254 254 254 254 253 254 255 256 259 263 264 266 266 267 268 268 269 269 267 267 264 256 255 255 255 255 256 255

ECMWFFLT1_sfc_thetae_042.txt.gz
Theta_e
287 287 286 287 286 286 286 286 287 287 287 287 287 286 287 286 287 287 287 287 287 287 286 286 286 286 286 286 286 286 286 285 285 285 284 285 285 284 284 284 284 283 283 283 283 283 283 283 283 282 283 283 283 282 283 283 282 282 282 283 282 282
288 287 286 286 286 286 286 286 286 286 287 287 287 287 286 286 286 286 286 287 286 286 286 286 286 286 286 286 286 285 285 285 285 285 284 284 284 284 284 284 283 283 283 282 282 282 282 282 282 282 282 282 282 281 281 281 281 280 280 281 282 282
287 287 287 286 286 286 286 286 286 286 286 286 286 286 285 286 286 286 286 286 286 285 285 285 285 285 285 285 286 285 285 285 285 284 284 284 283 283 283 282 282 282 282 281 281 281 281 281 280 281 281 280 280 280 280 280 279 279 279 280 280 281
288 287 287 287 286 286 285 286 286 286 286 286 286 286 286 286 286 286 286 286 285 285 285 284 285 285 285 285 285 284 284 284 284 284 283 282 282 282 281 281 281 281 280 280 280 280 280 279 280 279 279 279 278 279 279 279 278 278 278 279 278 279
287 286 286 286 285 286 285 286 286 286 286 286 286 286 286 286 286 286 286 285 285 284 284 284 284 284 284 284 284 283 283 283 282 282 281 281 281 281 280 280 280 279 279 279 279 279 278 278 278 278 278 278 277 277 278 278 278 277 277 277 278 278
287 286 285 285 285 285 285 286 286 286 286 286 286 286 286 286 286 286 285 285 284 284 284 284 284 284 284 283 283 282 282 282 281 281 280 280 280 279 279 279 278 278 278 278 278 278 277 277 277 277 277 277 277 277 276 277 277 277 277 277 277 278
286 286 286 286 286 286 286 286 285 286 286 286 285 286 286 286 286 285 285 284 284 284 283 283 284 284 283 283 283 282 281 280 280 280 279 279 279 278 278 278 278 277 277 276 277 277 277 276 276 276 276 276 276 276 276 276 277 277 277 277 277 277
287 286 286 286 286 286 286 286 286 285 286 286 286 286 285 285 285 285 284 284 283 283 283 284 284 283 283 282 282 281 280 280 279 278 278 278 278 277 277 276 277 276 276 276 276 276 276 276 275 275 275 275 275 275 276 276 277 277 277 277 277 277
287 287 286 286 286 286 286 286 285 285 285 285 285 286 285 285 284 284 284 284 284 283 284 284 283 282 282 281 281 280 279 278 277 277 277 277 276 276 276 276 275 276 275 275 275 274 274 274 274 274 275 274 275 275 276 276 277 277 277 277 277 277
288 287 286 286 286 286 286 286 286 285 285 285 285 285 285 285 284 284 284 284 283 284 283 283 282 282 281 281 280 279 278 277 276 276 276 275 275 275 275 274 274 275 274 274 274 274 274 273 274 274 274 274 275 276 276 276 276 276 276 276 277 277
288 288 286 286 286 285 285 285 285 286 286 286 286 285 284 285 284 284 283 283 283 283 283 282 281 281 280 279 278 277 277 276 275 275 275 274 274 274 274 273 273 273 273 273 273 272 273 272 273 273 273 274 276 276 276 276 276 275 275 276 276 276
288 288 287 286 286 285 285 285 285 285 285 285 285 284 284 284 284 283 283 283 283 282 281 281 280 280 279 278 277 276 276 275 274 274 273 273 273 273 272 272 272 272 272 272 272 272 272 272 272 271 272 275 276 276 276 275 275 275 275 275 275 275
289 288 287 287 286 286 286 286 285 285 285 285 285 284 284 284 283 283 283 283 283 282 281 281 280 279 278 278 276 275 274 274 273 273 272 271 271 271 271 271 271 271 271 271 271 271 271 271 271 271 274 275 276 275 275 275 275 275 275 275 274 274
288 288 288 288 287 286 286 286 285 285 284 285 284 285 284 284 283 283 283 283 282 281 280 280 279 279 277 276 274 273 273 272 272 271 271 270 270 270 270 270 270 270 270 270 270 270 270 271 271 272 273 274 275 276 275 275 274 274 274 274 274 274
288 288 288 288 288 287 287 287 286 285 285 284 285 285 284 283 283 283 283 282 281 281 281 280 279 277 275 275 273 272 271 270 270 270 269 269 270 269 269 270 269 269 269 269 269 269 269 270 270 271 273 274 275 275 275 275 275 274 274 274 273 273
289 289 289 288 288 288 288 288 287 286 286 285 285 284 283 283 283 283 283 282 281 281 281 279 278 276 275 273 272 271 270 270 270 270 270 269 268 269 269 269 268 268 268 268 268 268 268 269 269 271 272 273 274 275 275 274 274 274 273 272 272 272
288 288 288 288 288 289 288 288 287 287 287 286 285 284 283 283 283 283 283 281 281 280 279 278 277 275 273 271 270 270 270 270 269 268 268 268 268 268 268 268 267 267 266 266 266 267 267 268 269 271 272 273 274 275 275 274 273 272 272 272 271 271
287 287 287 288 288 288 288 287 288 287 286 286 285 284 284 283 283 282 282 281 280 279 278 276 275 274 272 271 270 269 270 269 268 268 269 267 268 268 267 267 267 265 265 265 265 265 265 267 269 270 271 272 273 274 273 272 271 271 271 271 271 271
287 287 287 286 287 286 286 287 286 286 284 283 284 283 283 282 282 282 281 280 279 277 277 276 275 273 271 270 269 269 269 269 268 267 267 266 267 267 267 266 265 265 265 264 264 264 264 266 267 269 271 272 273 273 271 271 271 271 270 271 271 271
285 286 286 285 285 285 286 286 285 285 282 282 282 281 281 281 281 281 280 279 278 277 276 275 274 272 271 270 269 268 269 269 269 267 266 266 266 266 266 265 265 264 264 263 263 263 263 264 266 269 270 271 272 272 271 271 270 270 270 270 271 272
284 284 284 284 283 284 284 283 283 282 282 281 280 280 279 280 281 280 279 279 278 276 275 274 273 272 270 269 269 268 268 267 267 267 266 265 265 265 265 264 264 263 263 263 262 263 264 264 265 267 269 270 271 272 271 271 270 269 270 270 270 272
282 282 282 283 284 283 281 282 282 281 281 280 279 279 279 280 280 281 280 279 276 274 273 272 271 270 269 268 268 267 267 267 265 264 264 264 265 265 265 264 263 262 262 263 262 262 263 263 264 265 268 270 271 272 271 271 270 269 270 270 270 270
283 284 283 284 283 280 280 280 281 280 280 279 278 278 280 281 281 280 278 276 273 272 271 270 269 268 268 268 266 266 265 265 265 264 263 263 264 263 263 262 261 261 261 262 262 262 262 263 263 264 268 270 271 272 272 271 271 271 271 271 271 272
283 283 282 282 280 279 279 280 280 280 280 278 277 279 281 280 279 277 275 273 272 270 269 268 267 267 265 265 265 265 264 264 264 264 262 263 263 261 261 261 262 262 263 263 263 262 262 263 265 264 267 269 271 272 273 272 272 273 272 272 272 272
281 282 283 281 278 278 278 279 279 279 278 277 278 280 280 278 276 274 273 271 270 268 266 266 264 264 263 262 263 263 263 263 261 261 261 261 261 260 260 261 261 262 263 263 264 264 264 264 264 267 267 269 271 272 273 274 274 275 274 272 271 272
282 282 282 280 277 277 277 278 278 278 277 277 280 279 276 274 273 272 271 269 268 266 265 264 263 263 262 262 262 262 262 262 261 260 261 261 262 263 263 264 263 263 263 263 264 264 265 265 266 267 269 269 271 272 273 274 275 275 274 274 273 273
282 282 282 280 276 276 276 277 279 277 275 279 278 275 273 271 270 269 268 267 266 265 264 263 262 261 261 261 261 261 262 261 260 261 262 261 262 263 264 264 264 263 263 263 263 264 265 266 267 268 270 271 271 272 273 274 274 275 276 273 274 274
281 281 281 280 277 275 275 275 278 277 277 280 276 274 271 269 268 268 268 267 265 264 263 261 261 261 260 260 261 262 263 263 261 263 264 263 263 263 263 263 263 262 262 262 263 264 265 266 267 267 269 270 270 271 272 274 274 274 275 275 274 274
278 278 279 279 278 275 274 274 275 278 280 277 275 272 270 268 268 268 268 266 265 264 262 262 262 261 259 259 261 261 262 263 263 263 263 263 263 263 263 263 262 262 263 263 263 264 265 266 267 268 269 269 270 271 271 272 272 274 274 273 272 272
278 279 278 279 280 276 274 274 273 275 276 273 272 270 268 267 268 269 268 266 265 264 262 262 261 261 262 260 260 261 261 262 262 262 263 263 264 263 263 263 262 263 263 263 264 265 265 266 267 268 268 270 270 271 272 272 273 273 272 271 271 270
277 278 279 279 281 278 274 273 273 274 273 271 269 268 267 268 267 269 268 266 264 264 262 263 263 263 263 262 260 262 263 262 261 262 262 262 263 264 264 264 264 263 263 264 264 264 265 266 267 268 271 271 273 272 272 272 272 273 272 272 272 267
278 277 278 279 280 278 275 274 273 272 272 270 268 267 268 268 268 267 267 266 264 264 262 262 262 262 263 262 262 260 260 260 264 263 262 262 263 265 267 266 264 264 265 264 265 266 265 266 268 271 273 274 274 274 274 274 275 274 273 272 271 267
276 276 276 277 278 277 275 274 273 271 269 269 267 266 268 268 268 268 267 264 264 263 262 262 262 261 262 262 262 261 261 262 262 266 268 267 266 267 268 270 270 271 270 267 265 267 272 272 273 274 273 273 273 273 274 274 274 273 272 271 268 265
275 275 275 277 276 275 275 273 272 271 269 267 266 266 267 267 268 268 268 266 264 262 262 262 262 261 261 261 261 261 261 262 263 263 266 268 269 270 270 271 271 272 272 273 272 271 270 272 272 272 272 272 273 273 273 273 273 271 270 270 267 263
276 276 276 276 275 275 274 272 272 269 267 266 265 264 265 266 266 268 267 265 263 262 261 261 261 261 261 260 260 260 260 261 262 264 265 266 267 268 269 269 270 270 271 271 272 272 272 272 272 272 272 272 272 273 273 272 270 269 269 267 264 262
277 276 276 274 273 273 272 271 270 267 266 264 263 263 264 265 265 266 266 264 263 262 262 261 262 261 262 262 261 261 261 261 262 262 263 263 263 263 265 267 268 268 268 269 269 270 270 270 270 271 271 271 272 272 271 269 266 267 266 264 262 261
274 274 272 271 271 270 269 269 266 264 263 262 262 262 263 263 263 264 262 260 261 263 262 262 262 262 261 261 261 260 259 260 260 260 259 259 261 262 263 263 263 265 265 265 265 266 268 269 269 270 270 270 271 270 269 267 264 262 262 261 260 260
271 271 270 268 268 267 267 265 260 260 260 260 261 261 261 262 262 262 263 261 260 261 262 262 261 261 261 260 260 260 259 259 259 259 259 259 258 258 258 259 261 261 262 264 265 267 267 268 269 269 269 270 270 268 266 263 262 261 261 260 260 260

ECMWFFLT1_sfc_thetae_045.txt.gz
Theta_e
291 290 289 289 289 289 289 290 290 290 290 290 290 289 289 289 290 290 290 290 290 290 289 289 289 289 289 289 288 288 288 287 287 286 286 286 286 286 286 285 285 285 285 285 284 284 284 284 283 283 283 284 283 283 283 283 282 282 282 283 283 283
290 290 289 289 288 288 289 289 289 289 289 289 289 289 289 289 289 288 288 289 289 289 288 288 289 288 288 288 288 288 287 287 287 286 286 286 286 285 285 285 284 284 283 283 283 283 283 283 282 282 282 282 282 282 282 281 281 280 280 281 282 282
290 290 289 289 288 289 288 288 288 289 289 289 289 288 287 288 288 288 288 288 288 287 287 287 287 287 287 288 288 287 287 286 286 286 286 285 285 285 284 283 283 283 283 282 282 282 281 281 281 281 281 281 280 280 280 280 280 279 279 280 280 281
290 290 289 288 287 287 287 288 288 288 288 288 288 288 287 287 287 288 287 287 287 287 287 287 287 287 287 287 286 286 286 286 285 285 285 284 284 284 283 282 282 282 281 281 281 281 281 280 280 280 280 279 279 279 280 280 279 278 278 278 278 279
290 289 288 287 287 287 287 287 287 287 287 288 288 287 287 288 288 288 288 287 287 286 286 286 286 286 286 286 286 285 285 284 284 284 283 283 282 282 282 281 281 281 280 280 280 280 280 279 279 279 279 278 278 278 278 279 278 277 277 277 278 278
290 288 287 287 286 286 286 286 287 287 287 288 287 287 287 287 288 287 287 287 286 286 286 285 285 285 285 285 285 284 284 283 283 283 282 282 282 281 281 281 280 280 279 279 279 279 278 278 278 278 278 278 277 277 277 277 277 277 277 277 277 277
288 287 287 287 286 286 286 286 287 287 287 287 287 287 288 287 288 287 287 286 285 285 285 284 285 284 284 284 284 283 283 282 282 281 281 281 280 280 280 280 279 278 279 279 278 278 278 277 277 277 277 277 277 276 276 276 277 277 277 277 277 278
289 288 287 287 286 286 286 286 287 287 287 287 288 287 287 287 287 287 286 285 285 284 284 284 284 284 284 284 283 282 282 281 281 280 280 280 280 279 279 278 278 278 277 278 277 277 277 277 276 276 276 276 276 276 276 276 277 277 277 277 277 277
288 288 287 287 287 287 287 286 286 286 287 287 287 287 287 287 286 286 285 285 284 284 284 284 284 284 284 283 283 282 281 280 280 279 279 279 278 278 278 278 277 278 277 277 277 276 276 276 276 276 276 276 275 275 276 277 277 277 277 277 277 277
288 288 287 287 287 287 287 287 287 286 286 286 287 287 287 287 286 285 285 284 284 284 284 284 285 285 284 283 282 281 280 279 279 278 278 278 277 277 277 277 276 277 276 276 276 276 275 275 275 275 275 275 275 276 277 277 277 277 277 277 277 277
288 288 288 288 287 287 286 286 286 287 287 287 287 287 286 286 285 285 284 284 284 284 285 285 285 284 283 282 281 280 279 278 278 278 277 277 277 277 276 276 276 275 275 275 275 274 275 274 274 275 274 274 275 276 276 276 276 276 276 276 276 277
290 289 289 288 287 287 286 286 286 286 286 286 286 286 286 286 285 285 284 284 284 285 285 285 284 282 281 280 279 279 278 278 277 277 276 276 276 276 275 275 275 275 275 274 274 274 274 274 274 274 274 274 275 276 276 276 276 276 275 275 275 276
291 291 289 288 287 287 286 286 286 286 286 286 286 286 286 286 285 285 284 284 285 285 285 283 282 281 280 280 279 279 278 277 277 276 276 275 275 274 274 274 274 274 274 274 273 273 274 274 274 274 275 276 277 276 275 275 275 275 275 275 275 274
291 290 289 288 288 287 287 286 286 286 286 286 286 286 286 285 285 284 284 285 285 285 284 283 282 281 280 279 279 278 278 277 276 275 274 274 273 273 273 273 273 274 273 273 273 273 273 273 274 275 275 276 276 277 276 275 275 275 275 275 275 275
291 291 290 289 288 288 287 287 287 286 286 286 286 286 285 285 285 285 284 285 285 284 283 283 282 281 280 279 278 277 276 275 275 274 273 273 273 273 272 273 273 272 273 272 272 272 272 273 274 275 275 275 276 276 276 275 275 274 274 274 274 274
291 291 291 291 290 289 289 289 287 287 287 287 287 286 285 285 284 284 284 284 284 284 283 283 281 281 280 278 277 276 275 274 274 274 273 273 272 272 272 272 272 272 272 271 271 271 272 272 273 274 275 275 275 276 276 275 274 274 274 274 274 274
292 292 291 291 291 291 290 289 288 288 287 286 286 286 285 285 284 284 284 284 284 284 283 282 281 280 279 277 276 275 274 274 274 273 273 272 272 272 271 271 270 271 270 270 270 270 270 271 273 274 274 275 275 275 276 274 274 274 274 274 273 273
292 292 291 292 292 291 290 289 289 287 286 286 285 285 285 284 284 284 284 284 284 283 283 282 281 280 278 276 275 274 274 273 273 272 272 272 272 272 272 272 271 270 269 269 268 268 268 269 273 273 274 274 274 275 274 273 273 272 272 272 272 272
293 292 292 291 290 290 289 289 288 287 286 285 285 285 285 284 284 284 284 284 284 283 283 282 281 280 278 276 274 273 274 273 272 272 272 271 272 271 270 270 269 269 268 267 267 267 267 268 270 272 273 273 274 274 272 272 271 271 271 272 272 272
291 291 290 289 289 289 289 289 288 287 286 286 285 285 284 284 283 284 284 284 284 284 283 282 281 279 277 276 274 273 274 274 273 272 271 270 270 271 270 269 268 268 268 267 266 266 266 266 269 271 272 273 273 273 272 271 271 271 271 271 272 272
289 288 288 288 287 288 288 288 287 286 286 285 285 285 284 284 284 284 284 284 284 283 282 281 281 280 278 276 275 274 273 273 272 271 270 270 270 270 269 268 268 267 266 266 265 266 266 265 267 270 271 272 272 272 271 271 270 270 270 271 271 272
286 286 286 286 286 287 287 287 286 286 285 285 285 284 284 284 284 285 285 285 284 283 282 281 279 279 277 276 275 274 273 272 271 269 269 268 269 269 268 267 267 265 265 266 265 264 265 265 265 267 270 271 272 273 272 271 270 270 270 271 271 271
286 285 285 286 286 286 285 286 285 285 285 284 283 283 284 285 285 285 284 284 283 282 281 280 279 277 277 276 274 273 272 271 270 269 267 267 268 268 267 266 265 264 264 264 265 264 264 264 264 265 269 271 272 273 273 271 271 270 270 270 271 271
285 285 285 286 285 284 284 285 284 284 284 283 283 283 285 285 285 285 284 283 282 281 279 277 277 276 275 274 272 270 269 269 269 268 266 267 267 265 264 264 264 264 264 265 265 264 264 265 266 265 268 271 272 273 274 272 271 272 271 271 271 272
284 285 285 284 283 283 283 283 283 283 283 282 283 284 284 284 284 284 283 282 280 278 276 275 274 273 272 271 270 269 268 267 266 266 265 266 265 264 263 263 263 264 264 265 266 266 265 265 266 269 267 270 272 273 273 274 273 275 274 272 272 272
285 285 285 283 282 282 282 282 282 282 282 282 285 284 283 283 282 281 280 278 277 276 274 273 272 271 270 269 269 268 268 266 265 264 265 264 264 264 263 265 264 264 265 265 266 267 267 267 266 268 270 270 272 273 274 274 275 275 274 273 272 273
285 285 284 282 281 281 281 282 281 281 280 283 284 283 282 281 279 278 277 276 275 274 273 271 270 269 268 267 267 267 267 265 264 264 265 264 264 266 266 267 267 266 266 267 267 267 267 267 267 267 270 271 272 273 274 274 275 275 276 273 274 274
283 283 283 282 280 280 279 280 281 280 281 283 283 282 280 278 276 275 275 275 274 273 271 269 268 266 266 266 266 267 268 266 264 266 266 265 265 265 266 267 268 267 266 266 267 267 267 268 268 268 268 270 271 272 273 274 274 274 275 275 274 275
281 281 281 282 281 279 279 278 280 281 282 281 282 279 277 275 275 274 274 274 273 271 269 268 267 266 265 264 266 266 267 267 266 266 267 266 266 266 266 267 267 266 266 266 266 267 267 267 267 268 268 269 269 270 271 272 272 274 274 274 274 274
280 280 281 281 283 280 278 278 278 279 280 279 278 276 274 273 273 274 274 273 272 270 267 267 266 265 265 264 264 265 266 267 266 266 267 267 267 267 267 266 266 266 267 267 267 266 266 267 267 268 268 269 269 270 271 271 272 272 272 273 273 272
280 281 281 282 283 282 279 278 277 277 277 277 274 273 273 273 272 273 273 271 270 269 267 267 267 266 266 264 263 265 266 266 266 266 267 268 269 269 268 268 268 267 268 268 267 267 266 267 267 268 271 270 272 271 271 271 272 272 272 273 274 269
280 280 280 281 282 281 280 279 278 277 277 276 273 272 272 272 272 271 272 271 270 269 267 267 267 266 267 265 264 264 264 266 269 268 267 266 269 271 272 271 268 268 267 267 267 268 267 267 268 271 273 273 274 275 275 275 275 275 274 275 274 269
279 279 279 280 279 280 280 279 278 276 275 274 273 271 272 271 272 272 272 271 270 269 268 267 267 266 266 266 265 264 264 264 266 270 271 270 269 270 271 272 272 272 271 268 266 268 271 271 272 273 274 274 274 275 275 275 275 275 275 274 269 267
277 277 278 278 278 277 278 277 276 275 273 273 271 271 271 271 272 273 272 272 270 269 268 267 266 266 266 266 266 265 264 265 265 265 270 272 271 271 271 272 272 273 273 273 271 269 268 272 273 274 275 275 275 275 274 274 274 275 273 272 271 265
279 278 278 277 277 276 276 276 275 273 271 271 270 269 269 270 270 272 272 271 270 269 267 267 266 266 265 265 265 264 265 265 266 266 266 269 272 273 273 273 273 273 274 274 274 275 274 273 273 273 274 274 274 274 274 274 274 273 272 271 267 264
278 278 277 276 275 275 274 274 273 271 269 268 268 268 268 269 269 270 271 271 270 268 267 266 266 265 265 265 265 264 264 265 266 266 268 267 266 267 270 272 273 273 273 273 273 273 274 274 274 274 274 274 273 273 273 273 272 271 271 269 264 263
276 275 275 274 273 272 271 271 267 265 265 266 266 266 266 267 267 267 267 266 266 267 266 266 266 265 265 264 264 264 264 264 264 265 264 265 266 265 265 264 266 269 271 270 270 271 272 272 272 272 272 272 272 273 273 273 268 266 266 265 262 262
274 273 272 271 270 269 269 267 261 262 262 263 264 264 265 265 266 266 267 266 265 266 267 266 266 266 265 264 264 264 264 263 263 263 263 263 262 263 263 263 265 265 267 269 269 270 270 270 271 271 271 271 272 272 272 267 265 265 264 263 262 261

ECMWFFLT1_sfc_thetae_048.txt.gz
Theta_e
288 288 287 286 286 287 286 287 288 287 287 286 287 286 286 286 286 285 286 286 286 286 285 285 285 285 285 284 284 284 283 283 282 282 282 282 282 282 281 280 279 279 279 278 278 279 278 278 278 278 277 277 277 277 277 277 276 276 276 276 277 278
288 287 286 286 286 286 287 287 287 287 287 286 286 285 285 285 285 285 285 285 286 285 284 284 285 284 284 284 284 283 283 282 282 282 281 282 282 280 279 279 278 278 278 277 278 277 277 277 277 277 276 276 276 276 277 276 275 275 275 275 276 278
288 287 286 285 285 286 286 286 286 286 286 286 286 285 284 284 284 284 284 284 283 283 283 283 283 283 283 283 283 282 282 282 282 281 281 281 280 279 279 278 278 278 277 277 277 276 276 276 276 276 275 275 275 275 275 275 275 274 274 274 274 275
287 286 285 284 285 284 285 286 285 285 284 285 284 284 283 283 283 283 283 283 283 282 282 282 282 283 282 282 282 282 281 281 281 280 280 279 279 279 278 278 278 277 277 276 276 276 276 276 276 275 274 274 274 274 277 276 274 273 273 273 273 273
287 285 285 284 284 284 284 284 284 284 283 283 283 283 282 283 283 283 283 282 282 282 282 282 282 282 281 281 281 281 281 280 280 280 279 279 278 278 277 277 276 276 276 275 276 275 275 275 275 275 274 274 274 274 273 274 273 273 273 272 273 273
286 285 284 284 283 283 283 283 283 283 283 283 283 282 282 282 283 283 282 282 282 282 281 281 282 281 281 280 280 280 279 279 279 279 279 278 277 277 277 276 276 276 275 275 274 274 274 275 274 274 274 274 273 273 273 273 273 272 273 273 273 273
285 285 285 284 283 283 283 283 283 283 283 283 283 282 282 283 283 282 282 282 281 281 281 281 281 281 280 280 279 279 278 278 278 278 278 277 277 276 276 276 274 274 275 276 274 274 274 273 273 274 274 273 273 273 273 272 272 273 273 273 273 277
286 285 284 284 284 283 283 283 283 283 283 283 283 282 282 283 282 282 282 281 281 281 280 280 280 280 279 279 278 278 278 278 278 278 277 277 276 275 275 275 274 274 273 273 273 273 273 273 273 273 272 273 273 273 272 272 272 273 273 273 274 273
285 285 284 284 283 283 283 283 283 283 283 282 282 283 283 282 282 282 282 281 281 280 280 280 280 280 279 279 278 278 277 277 276 276 276 277 276 275 274 274 274 274 273 273 273 273 273 273 273 272 272 272 272 272 272 272 273 273 273 274 274 273
286 285 284 284 284 283 283 283 283 283 283 283 283 282 283 283 282 282 281 280 280 280 280 280 280 279 279 279 279 278 277 277 276 276 276 276 276 275 274 274 273 273 273 273 272 272 272 272 272 272 271 271 271 273 273 274 274 273 273 273 273 273
286 285 284 284 284 283 283 283 282 283 283 283 283 283 283 282 282 281 281 280 280 280 280 281 281 281 280 279 279 278 277 277 277 277 276 276 275 275 274 273 273 273 272 272 272 272 272 272 272 272 271 271 272 273 273 273 273 273 272 272 273 273
287 286 285 284 283 283 282 282 282 283 283 283 283 283 282 282 282 281 281 280 280 280 281 281 282 280 279 279 279 278 277 277 276 276 276 276 275 275 274 273 273 272 272 272 271 271 272 272 272 274 277 276 272 272 273 273 272 272 272 272 272 272
287 286 285 284 283 283 283 283 283 283 283 283 283 283 283 282 281 281 281 280 280 281 281 281 280 280 279 279 278 277 276 276 276 276 275 274 274 273 273 272 272 272 272 271 271 271 271 272 272 276 277 277 278 275 274 273 272 273 272 271 271 271
287 286 285 284 284 284 283 283 283 283 283 283 283 283 283 282 281 281 281 280 281 281 281 281 280 280 279 278 277 276 276 275 275 274 274 273 273 272 272 271 271 271 271 271 270 270 270 270 276 277 278 278 278 277 275 274 274 274 273 273 272 271
288 287 286 285 285 284 284 284 283 283 283 283 283 283 282 282 281 281 281 280 281 281 280 279 279 279 278 277 276 275 274 274 273 273 273 273 273 272 271 271 271 270 270 270 270 269 269 270 275 277 278 278 278 278 277 275 274 273 273 273 273 273
287 287 287 286 286 285 284 284 284 284 284 283 283 282 282 282 281 281 281 281 281 281 280 279 279 278 277 276 275 274 274 273 273 273 273 273 272 271 270 268 269 269 269 269 269 268 268 269 274 277 278 277 277 277 277 275 274 273 273 273 273 273
287 287 286 286 286 285 284 284 284 284 283 283 283 282 282 282 281 281 281 281 281 280 280 279 279 278 277 276 275 274 273 273 272 273 273 272 272 270 269 269 269 269 268 267 267 267 268 269 274 276 277 277 277 277 277 275 274 273 273 273 273 273
287 287 287 286 285 285 285 285 284 284 283 283 283 283 282 282 281 281 281 281 280 280 280 279 278 278 276 275 274 273 274 273 273 273 272 270 269 267 268 267 267 268 268 267 265 266 266 267 274 275 276 277 277 277 275 273 273 272 272 272 272 271
287 287 287 286 286 285 285 285 284 284 283 283 283 283 282 281 280 280 281 280 280 280 280 280 279 278 276 275 274 274 274 273 272 271 270 269 270 269 269 268 268 267 267 266 265 265 265 265 271 275 276 276 277 276 273 272 271 270 269 270 271 271
287 286 288 286 286 286 286 285 285 284 283 283 282 281 280 280 280 281 280 280 280 280 280 280 279 278 277 275 274 274 274 272 271 270 270 270 269 269 268 267 266 266 266 265 265 265 264 264 268 273 275 275 276 275 272 271 270 270 270 270 271 271
287 287 286 286 286 285 285 284 284 283 282 281 281 281 280 280 281 280 280 280 281 281 280 280 279 279 277 276 275 274 273 272 272 271 269 269 269 268 267 267 266 264 264 264 264 268 266 264 266 272 274 275 275 275 272 271 270 269 269 269 269 271
285 284 284 285 284 284 284 284 283 283 282 281 280 280 280 281 281 281 281 281 281 280 280 280 279 279 278 277 275 274 273 272 270 269 269 268 268 267 266 266 265 264 264 264 263 264 265 264 263 266 273 274 275 276 272 270 269 268 269 269 270 269
284 284 283 283 283 283 283 284 283 282 282 281 280 280 281 282 282 281 281 280 279 279 279 279 279 279 278 277 276 274 272 271 271 269 268 267 266 266 265 264 264 263 263 263 263 262 262 263 263 264 272 274 275 276 275 271 270 270 269 269 269 269
281 281 281 281 282 282 283 283 283 281 280 280 281 282 283 281 280 280 279 279 279 279 278 278 278 278 278 275 274 272 271 270 270 269 267 266 266 265 265 263 263 262 262 262 262 262 262 264 266 262 269 273 275 276 276 273 271 271 270 269 269 270
281 281 281 280 281 281 282 281 281 280 280 280 282 283 280 279 279 279 279 278 278 278 277 277 276 276 275 274 273 272 271 269 268 266 266 266 265 264 264 263 262 262 262 262 262 263 263 262 264 270 266 271 274 276 276 276 274 275 272 270 269 270
280 280 279 279 279 279 280 281 280 280 280 281 283 278 277 278 278 278 278 278 277 277 275 275 274 274 273 273 272 271 270 267 267 265 265 265 265 264 263 263 262 262 262 262 263 263 263 263 263 266 271 270 273 275 276 277 277 277 273 273 272 272
280 279 277 276 276 276 278 279 280 279 279 281 278 278 278 278 277 277 277 277 276 276 274 272 272 272 271 270 271 270 269 267 265 265 264 264 264 264 264 263 263 262 263 263 263 264 264 264 264 263 268 273 273 275 276 277 277 277 277 274 274 274
277 277 276 274 274 276 276 276 278 279 280 278 276 276 276 275 276 276 276 276 275 274 271 271 268 268 268 268 269 271 270 268 266 266 264 264 264 264 264 264 264 263 263 263 264 264 264 264 264 264 265 269 272 273 275 276 276 276 276 276 275 276
277 276 275 275 274 275 274 274 276 279 276 275 276 275 274 274 275 275 273 273 272 270 270 271 270 268 266 266 266 267 267 267 266 266 265 264 264 264 264 265 265 265 264 264 264 264 264 264 264 265 265 266 267 268 270 272 273 275 275 274 273 274
276 275 274 277 276 275 274 274 276 277 275 273 273 272 273 273 273 274 273 272 271 270 269 270 268 268 266 265 266 266 266 266 266 266 266 265 265 265 265 265 265 266 266 265 265 264 263 264 264 265 265 266 266 266 267 268 269 269 270 271 272 272
276 276 276 278 276 275 273 274 274 273 273 273 267 269 271 272 270 270 269 268 268 270 268 268 267 267 266 265 264 265 267 267 266 267 268 267 265 267 267 266 267 267 267 267 266 265 264 264 264 265 270 268 270 268 267 267 268 269 270 272 274 272
275 275 276 277 274 273 273 272 272 271 270 270 267 267 269 269 268 267 267 267 267 266 265 265 265 265 265 265 264 263 263 267 271 269 265 265 270 273 274 273 268 268 267 267 267 267 266 266 266 271 273 273 274 274 274 273 273 274 272 274 275 273
273 273 273 274 274 273 272 272 271 270 269 271 270 270 269 269 270 268 268 269 268 268 267 265 265 265 264 264 263 262 263 262 265 272 274 273 271 272 274 275 275 275 273 269 266 268 273 273 273 274 274 275 275 275 276 276 276 276 276 276 274 270
272 273 273 273 272 272 272 272 271 269 268 268 269 269 269 269 270 271 270 269 268 268 267 265 265 264 264 264 263 263 262 263 263 264 270 273 273 273 273 274 275 275 275 274 272 267 267 272 274 274 274 275 275 276 276 276 277 277 277 276 276 268
272 272 271 272 271 271 270 270 270 268 266 267 267 267 268 267 268 270 268 267 268 267 267 266 265 264 264 264 263 263 263 263 263 263 263 268 273 274 274 274 275 275 275 276 275 274 271 271 273 274 275 275 276 276 276 277 277 277 277 276 273 268
271 271 271 270 270 269 269 268 264 264 264 264 264 265 266 266 267 267 266 266 265 266 265 265 265 264 264 264 263 263 263 263 264 263 264 264 266 269 273 275 275 275 275 275 276 276 276 275 274 275 275 276 276 276 276 276 275 276 276 275 269 267
271 270 270 270 268 267 265 263 259 260 260 263 262 263 263 263 264 263 265 266 266 264 264 264 264 263 263 262 263 262 262 263 262 264 263 264 265 265 266 267 268 271 275 273 274 275 276 276 276 276 276 276 276 276 276 276 272 271 270 271 268 266
268 266 265 264 264 263 263 259 258 258 258 259 260 261 262 263 263 263 264 263 264 263 263 261 262 261 262 261 261 261 261 261 261 261 261 262 262 262 262 263 264 265 269 271 273 273 273 274 274 274 275 275 275 275 275 270 269 268 268 267 265 264

ECMWFFLT1_sfc_thetae_051.txt.gz
Theta_e
288 287 288 288 288 288 287 287 287 286 286 286 286 286 286 285 286 286 285 285 285 285 284 284 284 283 283 283 283 283 282 281 281 281 281 281 281 281 280 280 280 280 279 279 278 278 278 277 277 277 277 276 276 276 276 275 275 275 274 275 276 277
288 287 287 287 287 287 287 286 286 286 286 286 285 285 284 284 284 284 284 284 284 284 283 283 283 283 283 283 283 282 281 281 281 281 280 280 281 280 280 280 279 279 278 278 278 277 277 277 276 276 276 276 275 276 276 274 274 273 273 274 274 277
287 287 286 286 286 286 286 286 286 286 286 285 285 285 284 284 284 283 283 283 283 283 283 282 282 282 282 282 282 281 281 281 281 281 281 281 280 280 279 279 278 278 278 277 277 277 276 276 276 275 275 275 274 274 274 273 273 273 273 273 273 274
286 286 285 285 285 285 285 286 286 285 285 285 285 284 284 283 283 283 283 283 283 282 282 282 282 282 282 281 281 281 281 280 280 280 280 280 279 279 279 278 278 277 277 277 276 276 276 275 275 274 274 274 273 273 276 274 272 272 272 272 272 272
286 285 285 285 285 285 285 285 285 285 285 284 284 284 283 283 283 283 283 282 282 282 282 282 282 282 281 281 281 280 280 280 280 280 280 279 278 278 278 278 277 277 277 276 276 276 275 275 274 274 273 273 273 272 272 273 271 271 272 272 272 272
285 284 284 284 284 284 285 285 285 284 284 284 283 283 282 283 283 283 282 282 282 281 281 281 281 281 281 281 280 280 280 280 279 279 279 278 278 278 277 277 277 276 276 276 275 275 274 274 274 273 273 273 272 272 272 271 271 271 271 272 272 272
284 284 284 284 284 284 285 284 284 284 283 283 283 283 282 283 282 282 282 282 281 281 281 281 281 281 281 280 280 280 279 279 279 278 278 277 277 277 276 276 275 275 275 275 275 274 274 273 273 273 272 272 272 271 271 271 271 272 272 272 272 276
285 284 284 284 284 284 284 284 284 283 283 283 283 282 282 282 282 282 281 281 281 281 281 281 281 281 280 280 280 279 279 278 278 278 277 277 277 276 276 275 275 275 275 274 274 274 273 273 273 272 272 271 271 271 271 271 271 272 272 273 273 273
284 285 284 284 284 284 284 284 283 283 283 282 282 282 282 282 282 281 281 281 281 281 281 281 281 280 280 280 279 279 278 278 278 277 277 277 277 276 275 275 275 275 275 274 274 273 273 273 272 272 271 271 270 270 270 271 271 272 272 273 273 273
285 284 284 283 283 283 283 283 283 283 283 282 282 282 282 282 281 281 281 281 280 280 281 281 280 280 280 279 279 278 278 277 277 277 277 277 276 276 276 276 276 275 275 274 273 273 272 272 272 271 270 270 270 270 271 271 271 272 272 272 272 273
285 285 284 283 283 282 282 283 283 283 282 282 282 282 282 282 281 281 281 280 280 280 281 281 280 280 280 279 278 277 277 277 277 277 277 277 276 276 276 276 276 275 274 273 272 272 272 272 272 272 271 270 272 272 272 271 271 271 271 271 271 272
285 284 284 283 283 282 283 283 283 283 283 282 282 282 282 281 281 281 280 280 280 280 280 280 280 280 279 278 277 277 277 277 276 276 276 276 276 276 276 275 275 274 273 272 271 271 272 271 271 274 277 277 272 272 272 272 270 270 270 270 270 270
287 285 284 284 283 283 283 283 283 283 283 282 282 282 282 282 281 281 280 280 280 280 280 280 280 279 278 278 278 277 277 277 277 277 277 276 275 275 275 274 274 272 272 272 271 271 271 271 271 277 279 279 278 273 272 271 269 270 270 270 270 270
287 286 285 285 284 284 284 283 283 283 283 283 282 282 282 282 281 281 280 280 280 280 280 281 280 279 279 279 278 277 277 277 277 276 276 275 274 274 274 273 272 272 271 271 271 270 270 270 275 278 279 280 280 278 273 270 269 269 271 271 270 270
288 287 286 286 285 285 284 284 283 283 283 283 283 282 282 282 281 281 280 280 280 280 281 281 280 280 280 279 279 278 277 276 276 276 275 274 274 272 271 272 271 271 271 271 270 270 270 270 277 279 280 280 281 281 276 271 271 272 271 271 271 270
289 289 288 287 287 286 285 285 284 284 283 283 282 282 281 281 281 281 280 280 281 281 281 280 280 279 280 279 278 277 276 276 275 275 273 272 271 271 271 270 270 270 270 270 270 269 269 269 276 279 280 280 281 281 279 271 273 273 273 272 271 271
290 289 288 287 286 285 284 284 284 283 283 283 282 282 281 281 281 280 281 280 280 280 280 280 279 279 279 278 278 277 276 275 274 273 272 271 272 271 271 270 270 270 270 269 269 268 268 269 276 279 280 280 281 281 279 272 273 273 273 272 272 272
289 289 288 287 286 285 284 284 284 283 282 282 282 281 281 281 280 280 280 280 279 279 279 280 280 279 278 277 276 275 275 274 273 272 272 271 270 269 269 270 270 270 269 268 267 267 268 268 277 278 279 280 281 281 275 273 273 273 272 271 271 271
290 289 288 286 285 284 284 284 284 283 282 281 282 282 281 281 280 280 280 280 280 280 280 280 280 279 278 277 275 274 274 273 272 272 271 270 271 271 270 269 269 269 268 267 267 267 267 267 274 278 279 280 281 279 274 273 272 271 270 270 270 270
288 287 287 285 285 285 284 284 283 282 281 282 282 281 281 281 281 281 281 280 280 281 280 280 280 278 277 276 275 275 275 274 273 272 271 271 271 270 270 269 268 267 267 267 267 268 267 266 271 277 279 280 280 278 273 272 271 270 269 268 269 269
287 286 286 285 284 284 284 283 283 282 282 282 281 281 280 280 281 281 281 281 281 281 280 279 279 278 277 276 276 275 275 274 274 273 270 271 270 271 269 267 267 266 265 266 266 269 268 266 268 276 278 279 280 278 272 271 269 269 268 267 267 269
286 285 285 285 284 283 283 283 283 282 281 281 280 280 280 281 282 282 282 281 280 279 279 279 279 279 278 277 276 275 275 274 272 270 270 270 270 269 267 267 267 266 266 265 265 266 268 266 265 269 278 279 280 280 273 271 269 268 267 267 267 267
285 285 285 285 284 284 283 283 283 282 281 280 280 280 281 282 281 280 280 279 279 279 279 279 279 278 278 277 277 276 274 273 273 271 270 269 268 266 266 266 266 265 265 264 265 264 265 266 265 266 275 278 279 280 278 271 270 269 267 266 266 266
283 282 282 282 284 283 283 283 283 281 280 279 279 281 282 280 280 279 278 278 278 278 278 278 278 278 278 277 275 274 273 272 272 271 270 269 267 267 267 265 265 265 265 263 263 263 264 265 268 264 271 277 279 279 280 273 270 270 267 266 266 267
282 282 282 281 281 282 283 283 281 280 279 279 281 281 279 279 278 278 278 277 277 277 277 277 277 277 277 275 275 274 273 271 270 269 268 268 267 267 267 266 265 264 264 263 263 263 263 263 264 271 267 273 277 279 280 279 275 275 271 268 267 267
280 279 278 278 279 280 282 283 281 280 279 281 282 278 276 276 276 276 276 276 276 276 276 276 276 276 275 275 274 274 273 270 270 268 268 267 267 267 267 266 265 264 264 264 265 264 264 263 263 267 272 270 274 277 279 280 280 278 274 271 269 269
279 278 277 277 277 277 279 280 281 279 280 280 277 277 276 275 274 276 276 276 275 275 275 274 275 275 274 274 274 273 272 269 268 268 266 266 267 267 267 267 265 265 265 265 265 266 265 264 263 263 267 273 274 276 278 279 280 280 279 274 272 272
276 277 277 275 275 276 276 277 279 279 279 275 276 273 275 274 274 275 276 275 274 275 273 273 272 272 273 272 273 274 274 272 269 270 268 266 267 267 267 267 265 265 265 265 266 266 266 264 263 263 263 267 271 274 276 278 279 279 279 278 276 276
277 276 275 276 273 273 273 273 276 276 272 271 273 273 272 274 275 275 273 274 274 271 272 274 273 271 270 269 270 271 271 271 270 269 268 267 267 267 267 267 266 266 265 265 266 267 266 264 264 264 263 264 265 268 271 274 275 278 278 277 276 277
277 275 274 276 275 273 273 273 274 272 268 268 270 270 271 272 273 273 272 270 268 270 269 272 270 270 269 268 269 270 269 269 269 269 269 268 268 268 267 267 267 267 267 267 267 266 263 264 263 264 264 264 264 266 268 270 271 272 274 274 275 275
275 275 275 275 272 271 270 270 270 269 270 267 266 269 272 271 270 269 267 266 267 268 267 267 266 268 268 267 265 267 267 269 268 269 270 266 265 267 268 268 268 268 267 265 265 264 264 264 264 265 268 267 269 267 266 267 268 269 270 273 275 273
273 273 272 272 269 269 268 268 268 268 269 266 265 268 270 269 268 266 266 266 266 266 266 265 266 264 266 266 266 265 264 267 272 270 267 266 271 274 274 273 268 265 263 265 266 266 266 267 267 271 273 274 274 274 274 272 272 273 271 272 275 274
270 270 271 271 269 268 268 268 267 267 267 269 267 268 269 268 269 267 268 267 267 268 267 266 265 265 265 265 265 264 265 264 266 273 275 274 272 273 275 276 276 276 275 269 266 268 274 274 275 274 274 275 276 276 276 276 275 275 275 275 272 272
271 271 271 270 269 268 268 268 268 266 266 266 266 266 267 267 270 270 269 268 266 268 267 265 266 264 264 263 263 263 263 263 264 265 271 274 275 276 275 275 276 276 277 277 274 269 266 273 275 276 275 276 276 276 277 277 277 277 277 277 277 271
271 269 268 268 268 267 267 267 264 263 263 263 265 265 266 265 267 268 266 267 266 265 266 265 264 264 264 263 263 262 262 263 263 264 263 266 273 275 276 276 277 277 276 277 277 277 273 272 274 275 276 276 276 277 277 277 278 278 278 278 275 272
269 268 268 267 266 267 265 263 259 259 260 260 262 264 265 264 265 265 265 264 264 264 264 265 264 264 264 263 263 263 263 263 263 262 262 261 260 265 270 274 276 276 276 277 277 277 277 276 275 275 275 276 276 276 277 277 276 278 279 277 274 273
269 267 266 267 266 265 262 259 257 257 258 259 259 262 262 262 263 262 264 266 264 262 263 263 263 264 261 262 262 261 261 262 260 262 261 260 261 261 262 261 266 272 276 274 275 276 277 277 277 277 276 276 276 277 277 278 275 273 274 274 274 273
266 264 263 263 262 261 259 257 257 257 257 257 256 259 259 260 261 260 261 262 262 260 260 260 261 261 262 260 261 259 259 260 260 260 259 260 260 259 259 259 260 262 268 271 272 272 273 274 275 275 276 276 277 277 277 273 272 272 271 271 271 270

ECMWFFLT1_sfc_thetae_054.txt.gz
Theta_e
289 289 289 289 289 289 289 290 290 291 290 290 290 288 287 286 286 285 285 285 285 285 284 283 282 282 282 282 282 281 281 280 280 280 280 280 280 280 280 279 279 279 279 279 279 278 278 278 278 278 277 277 276 276 276 275 276 276 275 275 276 276
288 288 288 288 288 288 288 287 288 289 290 289 289 288 287 285 285 285 284 284 285 284 283 283 283 282 282 282 281 281 281 280 280 280 280 280 280 280 280 279 279 279 278 278 278 278 277 277 277 277 276 276 276 275 275 275 274 274 274 273 275 276
287 287 287 288 287 288 287 286 287 288 288 288 288 287 285 285 284 285 284 284 284 283 283 282 282 282 282 281 281 281 281 281 281 280 280 280 279 279 279 279 279 278 278 278 278 277 277 276 276 276 276 275 275 275 274 273 273 273 273 273 273 274
286 286 286 286 286 286 286 286 286 286 286 287 287 286 285 284 284 285 284 284 284 283 283 282 282 282 281 281 280 280 280 280 280 280 280 279 279 279 279 279 279 278 278 277 277 276 276 276 276 275 275 275 275 274 275 273 273 272 272 272 272 272
287 286 286 286 286 286 286 285 286 286 285 286 286 285 285 285 284 284 284 283 283 283 282 282 282 281 281 280 280 280 280 280 280 280 280 279 279 279 279 279 278 278 277 277 276 276 275 275 275 275 274 274 275 274 273 273 272 272 271 272 272 272
285 285 285 285 285 285 286 286 286 286 285 285 285 284 284 283 284 283 283 283 282 282 282 282 281 281 280 280 280 280 280 280 279 280 280 279 279 278 278 278 278 277 277 276 276 275 275 275 275 274 274 274 273 273 273 272 272 271 271 271 271 271
285 285 285 285 285 286 286 286 286 286 285 285 284 284 284 284 283 283 283 282 282 281 281 281 281 280 280 280 280 279 279 279 279 279 279 278 278 278 278 278 277 276 276 276 275 275 276 276 275 274 273 273 272 272 272 272 271 271 271 271 271 274
285 285 285 285 285 286 286 286 285 285 285 284 284 284 283 283 283 283 282 282 282 281 281 281 280 280 280 280 279 279 279 279 279 279 279 279 279 278 279 278 277 276 276 276 276 276 276 275 275 274 273 272 271 271 271 271 271 271 271 271 272 272
285 285 285 285 285 285 286 285 285 285 285 284 284 284 283 283 282 282 282 282 282 281 281 281 281 281 280 280 280 280 279 279 279 279 279 279 279 278 278 277 277 277 276 276 276 276 276 275 274 273 272 271 271 271 271 271 271 271 271 271 271 271
285 285 285 285 285 285 285 285 285 285 284 283 283 283 283 283 282 282 282 282 281 281 282 282 281 281 281 280 280 279 279 279 279 279 279 279 278 278 278 277 277 277 276 276 276 276 275 275 274 273 272 271 271 271 270 271 271 271 271 271 271 271
285 285 284 284 284 284 284 284 284 284 283 283 283 282 283 283 282 282 282 281 281 282 282 281 281 281 280 280 279 279 279 280 280 279 279 278 278 278 278 277 277 276 276 276 275 275 274 274 274 273 272 271 271 271 271 271 271 272 272 271 271 271
285 285 284 284 284 284 284 284 284 284 283 283 282 282 282 282 282 282 281 281 281 281 281 281 281 280 280 280 279 279 280 280 279 279 278 278 278 278 277 277 277 276 276 275 275 274 274 274 273 275 278 276 272 271 272 272 271 272 272 271 271 270
285 284 284 284 284 284 284 284 284 283 283 283 282 282 282 282 282 282 281 281 281 281 281 281 280 280 280 280 280 280 280 279 279 278 278 278 277 277 277 276 276 276 276 275 275 274 274 274 273 278 280 280 279 273 272 272 271 271 271 271 271 270
285 285 285 284 284 284 284 284 284 283 283 283 282 282 282 282 282 281 281 281 281 281 280 280 280 279 280 280 280 280 280 279 278 278 278 277 277 276 276 276 276 276 275 275 274 274 273 272 276 280 281 281 281 278 272 271 271 271 271 271 270 270
286 286 286 285 285 285 285 285 284 283 284 283 283 282 282 282 282 282 282 282 281 281 280 280 279 279 279 279 279 279 279 279 278 278 277 277 277 276 275 276 276 275 274 274 273 273 272 271 277 281 282 282 282 281 276 270 271 270 270 271 271 270
287 287 287 287 286 286 286 286 285 285 284 284 283 282 282 282 282 282 282 281 281 280 280 280 280 279 279 280 280 279 278 278 278 278 278 277 276 276 276 275 275 275 274 273 273 272 271 270 276 281 282 283 283 283 279 270 271 271 270 271 271 271
288 287 287 287 287 286 285 285 285 285 284 284 283 283 282 282 282 282 282 281 281 280 280 280 280 279 279 280 279 279 278 278 278 278 277 277 276 276 275 275 274 274 273 272 271 270 270 270 276 281 283 283 284 284 282 271 271 271 271 271 271 271
289 288 288 288 287 286 286 285 285 284 284 284 283 283 283 282 282 282 281 281 280 280 280 280 280 280 279 279 279 278 278 278 278 277 277 276 276 275 275 274 274 273 271 271 269 269 269 270 277 280 283 283 284 284 279 272 272 271 270 270 271 271
289 289 288 287 287 286 285 285 285 284 283 283 283 282 282 282 282 281 281 281 280 280 280 280 280 280 279 279 278 278 278 278 277 277 276 275 275 274 273 273 272 271 270 269 269 269 270 269 275 280 282 283 284 283 275 272 272 271 270 270 270 271
289 288 288 286 286 286 285 285 284 284 283 283 283 282 282 282 282 282 281 281 281 280 281 281 280 280 280 279 279 279 279 279 278 277 275 275 274 274 273 272 270 269 269 269 269 269 269 269 272 279 282 283 284 282 275 273 272 271 271 271 271 270
288 287 287 286 285 285 284 284 284 283 283 283 282 282 282 281 282 282 281 281 281 281 281 281 281 281 280 280 280 279 279 278 277 277 274 274 273 273 270 269 269 268 267 268 269 271 270 269 271 278 281 283 283 282 274 272 271 270 270 270 269 269
286 286 286 285 285 284 284 284 284 283 282 282 282 281 281 282 282 283 282 281 281 281 281 281 281 281 280 280 280 279 278 277 275 274 273 271 271 270 269 268 268 268 268 267 266 267 269 269 268 271 280 282 283 283 275 272 271 270 269 268 268 266
286 286 286 285 284 284 284 284 283 283 282 282 281 281 282 283 282 282 281 281 280 280 280 280 281 281 280 280 279 279 277 275 275 272 271 271 270 268 267 267 267 268 268 266 266 266 267 268 268 268 277 281 283 283 281 272 271 271 270 268 267 267
285 284 284 283 284 284 284 284 283 282 281 281 281 282 282 281 281 281 280 280 280 280 280 280 280 280 280 279 277 276 275 273 273 272 271 270 269 269 269 267 266 267 267 266 265 265 266 267 270 267 272 278 281 283 284 275 272 272 269 267 266 266
284 283 283 282 282 283 283 283 282 281 281 281 282 281 280 280 280 280 279 279 279 279 279 279 278 278 278 277 276 275 274 272 271 270 270 269 268 269 268 268 267 266 267 267 266 266 266 266 266 272 269 274 278 281 283 283 277 278 272 268 268 267
282 281 280 281 282 282 283 283 281 280 280 281 279 279 278 278 278 278 278 278 278 278 278 277 277 277 276 276 275 274 274 272 271 270 270 269 269 268 268 268 267 266 267 267 268 267 267 266 265 268 273 272 275 279 281 283 283 281 274 270 269 268
280 280 279 279 279 280 281 282 281 280 280 280 279 278 278 277 276 277 277 277 277 277 276 274 275 275 274 274 274 274 274 272 270 270 268 268 268 268 269 269 268 267 268 268 269 270 269 267 265 265 268 273 275 276 278 280 282 283 282 276 272 271
279 280 278 276 276 278 278 279 281 280 279 276 277 277 277 276 276 276 276 275 275 274 273 273 272 273 274 274 274 275 275 274 271 272 270 268 269 269 269 270 269 268 268 268 269 270 270 267 265 265 264 267 270 273 276 278 279 280 281 281 277 276
279 278 278 278 275 275 275 274 274 274 273 274 275 274 275 275 276 275 272 273 272 269 271 273 273 272 271 270 272 272 273 273 272 271 270 269 269 269 269 270 269 269 268 268 269 270 269 266 264 264 263 263 264 265 268 270 272 276 279 278 279 279
278 276 275 277 274 272 271 272 272 269 270 270 271 271 273 273 273 274 271 269 269 269 269 271 270 271 270 270 271 272 271 271 271 271 271 270 270 270 270 269 269 269 269 269 269 268 264 267 264 264 263 262 263 264 266 267 269 271 273 275 275 276
275 274 273 273 271 271 271 270 269 267 269 269 267 270 272 271 269 268 266 266 268 269 267 269 270 270 271 269 268 270 271 272 271 271 271 268 265 269 270 270 270 270 268 266 267 266 267 267 267 266 269 266 269 266 265 266 267 269 271 274 276 275
272 272 272 271 270 270 269 268 269 268 267 265 266 269 271 269 269 267 267 267 269 268 267 268 268 266 268 269 269 268 265 268 274 272 269 268 272 275 276 275 269 265 263 266 267 266 268 268 267 273 275 275 275 275 275 274 273 273 272 273 276 276
270 270 270 269 267 267 267 267 266 266 265 266 265 267 268 268 269 268 267 265 267 268 267 266 266 264 264 264 265 263 265 265 266 275 276 275 274 274 276 277 277 277 275 270 267 268 275 275 276 277 277 277 277 277 277 277 277 276 276 276 273 273
270 271 271 268 268 267 267 266 263 262 262 262 262 264 264 266 269 268 268 266 265 266 266 264 265 263 263 263 262 262 263 263 264 266 272 275 276 277 277 277 277 277 278 278 276 271 265 273 276 277 277 278 278 277 277 278 278 278 278 277 277 271
271 270 270 269 269 268 265 263 260 259 259 259 261 262 264 264 266 266 264 263 263 264 265 263 263 262 262 262 261 261 261 262 263 265 265 265 272 274 275 277 278 278 278 278 278 279 278 275 274 276 277 277 277 278 277 278 278 279 279 278 275 272
270 269 269 267 266 264 262 259 258 258 257 258 259 260 262 261 262 262 263 262 262 262 262 262 262 262 261 261 261 261 261 262 262 262 261 260 261 264 268 273 275 276 277 277 278 278 278 278 278 278 277 276 276 277 277 277 276 278 279 278 274 273
268 267 266 265 263 261 259 257 257 256 256 257 257 259 260 261 261 259 262 264 262 261 261 261 262 261 260 260 260 260 261 261 260 262 260 259 259 260 261 260 261 268 273 273 274 275 276 276 276 277 277 277 277 277 277 278 275 273 274 275 275 274
263 262 262 261 260 259 258 256 256 256 256 256 256 258 259 260 260 259 261 261 260 259 259 259 259 260 260 259 259 258 259 259 259 260 258 259 259 258 257 256 256 259 266 271 271 272 273 273 274 274 275 275 275 275 275 272 272 272 272 272 273 273

ECMWFFLT1_sfc_thetae_057.txt.gz
Theta_e
290 290 291 291 292 293 295 296 295 295 294 293 292 290 290 288 287 286 285 285 285 284 283 282 281 281 280 280 281 280 280 280 280 280 280 280 280 280 280 279 279 279 279 279 279 279 278 278 278 278 278 278 277 277 277 277 277 277 276 276 276 276
289 290 290 290 290 290 292 294 294 294 293 292 292 291 289 287 286 285 283 283 284 284 283 281 281 281 280 280 280 280 280 280 280 280 280 280 280 280 279 279 279 279 279 278 278 278 278 278 277 277 277 277 277 277 276 276 276 276 275 275 276 276
288 289 289 290 289 289 290 292 293 293 292 291 291 290 288 287 286 284 283 283 283 282 281 281 280 280 280 280 280 280 280 280 281 280 280 280 279 279 279 279 279 279 279 278 278 278 278 277 277 276 276 276 276 275 275 275 275 275 274 275 274 274
288 287 287 287 287 288 288 288 290 291 291 291 290 289 288 287 286 285 284 283 283 282 281 281 280 280 280 280 280 280 280 280 280 279 279 279 279 279 279 279 279 278 278 278 278 277 277 277 277 276 276 276 275 274 275 274 274 273 273 273 273 273
287 287 287 287 287 288 288 287 288 290 290 290 289 289 288 287 287 286 285 284 283 282 281 281 280 280 280 280 280 280 279 279 279 279 279 279 279 278 278 278 278 278 278 278 277 277 276 277 276 276 275 275 275 275 274 274 273 273 273 273 273 273
286 286 286 286 286 287 287 287 287 288 289 290 289 288 288 287 286 286 285 284 283 282 281 281 281 280 280 280 280 279 279 279 279 279 279 279 278 278 278 278 278 278 278 277 277 276 276 276 276 276 276 276 276 275 274 273 273 272 272 273 272 272
285 286 286 286 287 287 287 287 287 287 287 288 289 289 288 287 286 285 285 284 283 282 281 281 280 280 280 279 279 279 279 279 279 279 278 278 278 278 278 278 278 278 278 278 277 277 277 276 276 276 276 276 276 275 274 273 272 272 272 272 272 274
286 286 286 286 287 287 287 287 287 286 286 287 288 288 287 287 286 285 285 284 283 282 281 281 280 280 280 279 279 279 279 279 278 279 279 279 279 278 278 278 278 278 278 278 278 277 277 277 276 276 276 275 275 275 274 273 272 272 272 271 272 272
285 285 286 286 286 287 287 287 286 286 286 286 286 287 287 286 286 285 285 284 283 282 281 281 281 280 280 280 279 279 279 279 279 279 279 280 279 279 278 278 278 278 278 277 277 277 277 277 276 276 275 275 274 274 273 272 271 271 271 271 272 272
285 285 285 285 286 286 286 287 287 286 286 286 285 286 286 286 285 285 284 284 283 282 282 281 281 280 280 280 279 279 279 279 279 280 280 280 279 279 279 279 278 278 278 277 277 277 277 276 276 276 275 275 274 274 273 272 272 271 271 271 271 271
285 285 285 285 285 285 286 286 286 286 286 285 285 284 285 285 284 284 284 283 283 283 282 282 281 281 280 280 279 279 279 280 280 280 280 280 279 280 279 279 278 278 277 277 277 276 276 276 276 275 275 275 274 274 273 272 272 272 272 271 271 271
285 285 285 285 285 285 285 285 286 286 285 285 284 284 284 284 284 284 284 283 283 283 282 282 282 281 280 279 279 280 280 280 280 280 280 280 280 279 279 278 278 278 277 276 276 276 275 275 275 277 279 278 275 274 273 272 272 272 272 272 271 271
285 285 285 285 285 285 285 286 286 285 285 285 284 283 283 284 284 284 283 283 283 282 281 281 281 281 280 280 280 281 280 280 280 280 280 279 279 279 278 278 277 277 277 276 276 275 275 275 275 279 281 281 280 275 273 273 273 272 272 272 271 271
285 285 285 285 285 285 285 285 285 285 285 285 283 283 282 283 284 284 283 283 283 282 281 281 281 280 281 281 281 281 281 280 280 280 280 279 279 278 278 277 277 277 277 276 276 275 275 275 278 281 282 283 282 279 274 273 273 272 272 272 271 271
286 286 286 286 285 285 285 285 285 284 285 284 283 282 282 283 283 284 283 283 283 282 282 281 281 281 281 281 281 281 281 280 280 280 279 278 279 278 277 277 277 276 276 276 275 275 275 275 279 281 283 284 283 282 277 273 272 272 271 272 272 271
287 287 286 286 286 285 285 285 285 285 284 283 281 281 281 281 282 283 283 283 283 282 281 281 281 281 281 281 281 280 280 280 279 279 279 279 278 277 277 277 277 277 276 276 275 275 275 275 279 282 283 284 284 284 280 272 272 272 271 272 271 271
286 286 285 285 284 284 284 284 284 283 282 282 281 282 281 281 282 281 282 282 282 282 281 281 281 280 281 281 281 280 280 279 279 279 279 278 278 277 277 277 276 276 276 276 276 275 275 275 279 282 283 284 285 285 283 272 272 271 271 271 271 271
286 286 285 285 285 285 285 285 284 283 283 282 282 281 281 281 281 281 281 281 282 281 281 281 280 281 281 280 280 280 279 279 279 279 279 278 278 278 277 277 277 276 276 276 275 274 274 274 279 281 283 284 285 285 281 273 272 271 271 270 271 271
287 286 285 285 285 285 285 285 284 284 283 282 282 281 281 281 281 281 281 282 282 281 280 281 281 281 281 280 280 279 279 279 279 279 279 278 278 278 277 276 276 277 276 275 274 274 274 274 277 281 282 284 285 284 279 274 272 271 270 270 271 271
285 285 286 284 284 284 284 284 284 283 282 282 282 281 281 281 281 282 282 282 282 281 281 281 281 281 280 280 279 279 279 279 279 279 278 278 277 277 277 277 276 275 275 275 274 274 274 274 275 280 282 283 285 284 279 275 273 272 272 271 271 271
285 285 285 285 284 283 283 284 284 283 282 282 282 282 282 282 282 282 282 282 282 281 281 281 281 281 281 280 280 280 279 279 279 279 278 277 277 277 277 275 275 275 274 274 274 275 273 273 274 278 281 283 284 284 279 275 273 273 272 271 271 271
284 284 284 284 284 283 283 283 283 283 282 283 283 282 282 282 283 283 283 283 282 281 281 281 281 281 281 281 280 280 280 280 279 278 277 277 277 277 276 274 274 274 274 272 271 271 272 271 271 273 279 281 283 285 280 274 273 273 273 272 271 270
284 284 283 283 283 283 284 284 284 283 283 283 282 282 283 284 284 283 283 282 281 281 281 281 281 281 281 281 281 281 280 279 279 278 276 276 275 274 273 273 272 272 272 271 270 269 269 269 269 270 277 279 282 284 284 276 275 275 274 272 271 270
282 282 282 282 284 284 284 284 284 283 283 282 282 283 284 283 283 282 282 281 281 281 281 281 281 281 281 281 281 280 279 279 278 277 276 275 274 273 273 272 271 271 271 270 269 268 268 269 271 268 273 277 280 282 284 280 276 276 273 272 270 270
282 282 282 282 283 284 284 285 283 283 282 282 283 283 282 282 282 281 281 281 281 280 281 281 281 281 281 280 280 280 279 277 276 275 274 273 273 273 272 272 271 270 270 270 269 268 268 268 268 273 271 275 278 280 282 284 282 281 275 272 271 272
282 281 282 282 283 284 285 285 283 282 282 282 281 281 281 281 281 281 281 280 281 280 280 280 280 280 280 280 279 278 277 275 275 274 273 273 273 272 271 271 270 269 269 269 270 270 269 268 267 270 274 273 276 278 280 281 283 284 278 274 273 273
281 281 281 281 282 283 284 284 283 281 282 280 280 280 280 280 280 280 280 280 280 280 279 279 279 278 278 278 278 277 277 275 274 273 272 271 271 271 271 271 270 269 270 270 270 271 272 270 267 266 269 274 275 277 278 279 280 281 283 280 277 275
281 281 280 279 279 280 281 281 282 281 280 278 278 278 278 278 278 278 278 277 277 277 277 277 276 277 277 277 277 277 277 276 273 274 272 271 271 271 271 270 269 269 269 269 270 271 271 266 265 266 264 269 272 274 276 278 278 279 279 279 279 281
281 280 279 277 276 277 277 276 276 276 276 275 275 276 276 277 277 276 275 275 275 273 275 276 275 275 274 274 274 275 275 275 273 273 272 270 270 270 270 270 270 269 269 269 270 270 268 268 265 264 263 262 264 266 268 270 272 276 277 276 276 277
280 279 278 277 275 275 275 275 273 272 272 271 272 273 275 275 275 275 274 273 272 272 273 275 272 273 273 273 274 274 273 272 272 272 272 271 270 270 270 269 269 270 270 269 270 268 266 268 267 264 263 262 262 263 264 265 266 266 268 270 271 273
277 277 276 274 273 273 273 271 270 268 269 269 269 272 274 273 271 271 270 269 270 270 269 270 271 271 271 270 268 268 268 269 270 271 270 268 266 270 271 270 270 269 266 267 268 267 268 268 268 266 271 267 270 266 264 263 264 266 267 270 274 273
275 274 272 271 271 272 271 269 268 267 267 268 268 270 273 271 271 270 268 268 268 266 266 266 266 264 266 267 266 267 265 269 276 271 268 266 273 276 277 276 270 265 265 267 267 267 269 269 267 275 276 276 276 276 276 274 273 273 270 272 275 274
272 272 271 270 270 270 267 264 263 263 263 263 266 268 269 270 270 268 266 266 266 266 265 264 264 263 263 263 263 262 265 264 265 276 277 276 275 276 277 278 278 278 276 270 266 268 276 276 277 277 278 278 279 279 279 279 279 278 278 278 275 272
273 272 270 269 269 267 264 262 261 261 261 262 264 266 268 268 270 268 266 265 264 266 265 264 264 263 264 261 262 263 264 264 265 266 273 275 276 277 278 278 278 278 278 279 277 272 268 274 277 278 279 279 279 279 279 279 279 279 279 279 279 274
272 271 270 269 266 264 262 261 260 260 260 261 262 265 267 267 268 267 265 265 265 265 265 264 264 263 264 262 262 261 262 262 263 265 264 265 272 274 274 275 277 278 278 279 279 279 278 278 278 278 279 279 278 278 278 278 279 279 279 279 276 274
270 269 267 264 262 261 261 260 259 259 259 259 261 265 266 266 266 266 265 265 265 265 264 264 263 263 262 261 261 259 260 260 260 259 260 260 262 263 267 272 273 274 275 276 276 277 277 277 277 277 277 278 277 278 278 278 277 278 279 278 274 274
267 266 264 263 261 261 260 259 258 258 258 259 260 264 265 265 264 264 263 263 263 263 263 262 262 261 260 260 259 259 259 259 259 260 258 258 259 259 259 258 260 267 272 270 272 274 274 275 275 275 276 276 276 276 276 276 274 273 273 274 273 273
264 263 262 261 261 260 259 258 258 258 257 257 259 263 263 263 263 263 263 261 261 261 261 260 260 260 260 259 258 257 258 258 259 259 257 258 258 256 255 255 254 258 265 271 270 271 271 272 273 273 274 273 274 273 272 267 267 266 267 267 268 268

ECMWFFLT1_sfc_thetae_060.txt.gz
Theta_e
289 290 290 291 293 295 296 298 297 297 295 294 294 292 291 290 290 289 289 289 288 287 287 287 286 286 285 284 284 283 283 282 281 280 280 280 280 280 280 279 279 279 279 279 279 279 279 279 278 278 278 278 278 278 277 277 277 277 276 276 277 276
288 289 290 290 292 293 294 295 296 296 296 294 293 292 290 289 289 289 288 287 287 287 287 286 286 285 284 283 283 282 282 282 281 280 279 280 280 280 280 279 279 279 278 279 279 279 278 278 277 278 277 277 277 277 277 277 277 277 276 276 276 276
287 288 289 290 289 290 291 294 295 296 296 294 293 292 290 289 289 288 288 287 285 285 285 284 284 283 283 283 282 282 281 281 280 280 280 280 280 279 279 279 279 279 279 279 279 278 278 277 277 277 277 277 277 278 278 277 277 276 275 275 275 275
287 287 287 287 288 289 290 291 293 294 294 295 293 292 290 288 288 288 287 286 285 285 284 284 283 283 282 282 281 281 280 280 280 280 279 279 279 279 279 279 279 279 279 278 278 277 277 277 277 277 277 278 278 277 277 277 276 275 275 275 274 274
287 287 287 288 288 289 289 290 292 293 293 293 293 292 290 289 288 287 287 285 284 284 284 283 282 282 281 282 281 280 280 279 279 279 279 279 279 279 280 280 279 278 278 277 277 277 277 278 278 278 277 278 278 277 277 276 276 275 274 274 274 273
285 286 286 287 287 288 289 290 290 291 292 291 291 290 290 289 288 287 286 285 284 284 283 282 281 280 281 281 281 280 279 279 279 280 280 280 280 279 279 279 279 278 278 278 278 278 278 278 277 277 277 278 278 277 276 276 275 275 275 274 274 273
285 286 287 287 287 288 288 289 289 290 290 290 290 290 290 289 288 286 285 285 284 283 283 282 281 280 280 280 280 280 279 279 279 279 280 279 279 279 278 278 278 279 279 279 278 278 278 278 277 277 277 277 277 277 276 276 275 275 274 274 274 275
285 286 286 287 287 288 288 288 289 289 289 289 290 290 289 289 288 287 285 285 284 283 282 282 281 281 280 280 280 279 279 279 279 280 280 279 279 278 278 279 279 279 279 279 279 278 278 278 277 277 277 277 276 276 276 275 275 275 274 274 274 275
285 285 286 287 287 287 288 288 288 288 288 288 288 289 289 288 287 287 285 285 284 283 282 282 281 281 281 280 279 279 279 279 279 279 279 279 279 278 278 279 279 279 279 279 278 278 278 278 277 277 277 276 276 276 275 275 275 274 274 274 274 274
285 285 285 286 286 287 287 288 288 288 288 288 287 287 288 288 287 286 285 285 284 284 283 282 282 281 281 280 280 279 279 280 280 280 279 279 279 279 279 279 279 279 278 278 278 278 278 277 277 277 276 276 275 275 275 275 275 274 274 273 273 274
285 285 285 285 285 286 286 287 287 287 287 287 287 287 287 287 287 286 285 285 284 284 283 283 282 282 281 281 280 279 279 280 280 280 279 279 279 280 279 279 279 278 278 277 277 277 277 277 277 277 276 276 275 275 275 275 275 274 274 273 273 273
285 285 285 285 285 286 286 286 287 287 287 287 286 286 286 285 285 286 285 285 285 284 283 283 282 282 281 281 280 279 279 279 280 280 280 280 280 279 279 279 279 278 278 277 277 277 277 277 277 278 280 279 276 276 275 275 275 274 274 274 273 273
285 284 285 285 285 286 286 287 287 287 287 287 286 286 285 284 285 285 285 285 285 284 283 282 282 281 281 281 280 280 280 280 280 280 280 280 280 279 279 279 278 278 278 277 277 276 276 276 276 280 282 282 281 277 275 275 275 275 274 274 274 273
285 285 285 286 286 286 286 286 286 286 286 286 286 285 284 284 284 284 285 285 285 284 283 283 282 281 281 281 281 281 280 280 280 280 280 279 279 279 279 278 278 278 278 277 277 276 276 276 279 281 282 283 283 280 276 276 275 275 275 274 274 274
287 287 287 286 286 286 286 286 286 286 286 286 285 284 283 283 283 283 283 284 284 283 283 283 282 281 281 281 281 281 280 280 280 280 279 279 279 279 278 278 278 278 277 277 276 276 276 276 280 282 283 284 284 283 278 276 276 275 275 274 274 274
288 288 287 287 286 286 285 286 286 285 285 285 283 283 282 282 282 283 283 283 283 283 283 282 282 282 281 281 281 281 280 280 280 280 280 280 279 279 278 278 278 278 277 277 276 276 276 276 279 282 283 284 285 284 281 275 276 275 275 275 274 274
289 286 285 285 285 284 285 285 285 284 284 283 282 282 282 282 282 282 282 282 283 283 283 282 282 282 282 282 281 281 280 280 280 280 280 279 279 279 278 278 278 277 277 277 276 276 276 275 280 282 284 285 285 286 284 276 275 275 275 274 274 274
288 286 285 285 285 284 285 284 284 284 283 282 282 281 282 282 282 282 282 282 282 282 282 282 282 282 282 281 281 280 280 280 280 279 279 279 279 279 278 278 278 278 277 277 276 276 275 276 281 282 284 285 286 286 284 278 275 274 274 273 274 274
286 286 284 284 284 283 283 283 283 283 282 281 281 281 281 282 282 282 282 282 282 281 282 282 282 282 281 281 281 280 280 280 279 279 279 279 279 278 278 278 278 278 277 277 276 276 276 276 279 282 283 285 286 286 283 280 276 275 273 273 273 273
283 283 284 283 283 283 283 283 283 282 281 281 281 281 281 281 282 282 281 281 282 281 281 282 282 282 281 281 280 280 281 280 280 279 279 279 278 278 278 278 277 277 277 277 276 276 276 276 278 282 283 284 285 285 283 281 278 276 274 273 273 272
283 283 283 283 282 282 282 283 283 282 281 281 281 282 282 282 282 282 282 282 282 281 281 281 281 282 281 280 281 281 280 280 280 280 279 279 279 279 278 277 277 276 276 276 276 278 277 276 278 281 282 284 284 284 283 280 277 276 276 274 274 273
282 282 282 282 281 282 282 282 282 282 281 281 281 281 281 281 282 282 282 282 281 281 281 281 281 281 281 281 281 281 281 280 279 279 279 279 279 278 278 277 277 277 276 276 275 275 276 276 275 277 281 282 284 284 283 280 277 277 277 276 275 274
282 282 282 281 281 281 282 282 282 281 281 280 280 280 281 281 281 282 282 282 281 281 281 282 282 282 282 282 281 281 280 280 280 279 279 278 278 278 277 276 276 276 276 276 275 274 274 274 274 275 279 281 282 283 283 281 279 278 277 276 275 274
280 280 279 280 281 281 282 282 282 281 280 280 280 280 282 282 282 282 282 282 281 281 281 282 282 282 282 282 281 280 280 280 280 279 279 278 277 277 276 276 275 275 275 275 274 273 273 273 274 272 276 279 280 282 283 281 280 278 276 275 274 274
279 279 279 279 280 281 282 282 281 280 280 280 279 281 282 283 283 282 282 282 281 281 281 281 281 281 282 281 281 280 280 279 279 278 278 277 276 276 276 275 274 274 274 273 273 272 272 271 271 275 273 276 279 280 281 282 282 283 278 275 275 275
279 279 279 280 280 281 282 282 280 280 280 280 281 282 282 282 282 282 282 282 281 281 281 281 281 281 281 281 281 280 279 278 278 277 277 276 276 275 274 274 273 273 272 273 273 273 272 271 269 272 275 274 277 278 280 281 282 282 280 276 276 276
279 279 279 279 280 282 283 283 282 282 281 281 281 282 282 282 282 282 281 281 281 281 280 280 280 280 280 280 280 279 279 277 276 275 274 274 274 274 274 274 273 272 272 272 272 272 271 270 269 268 271 276 276 278 279 280 280 281 282 279 278 278
279 278 278 278 278 279 281 282 283 282 281 280 281 281 281 281 281 281 280 280 280 279 279 279 278 278 278 278 279 279 278 277 276 276 274 273 273 273 273 272 270 270 270 271 271 271 271 268 267 268 267 271 274 276 278 279 280 280 280 280 279 280
279 279 278 277 276 276 276 276 277 278 278 278 279 280 280 280 280 278 278 277 277 276 277 277 276 276 276 275 275 275 275 275 274 274 273 272 271 270 270 270 270 270 270 270 270 269 269 267 266 265 264 264 265 267 269 272 273 277 278 277 276 277
278 278 278 277 276 275 273 272 272 273 274 275 276 277 278 278 277 276 274 272 272 273 274 275 272 273 273 272 273 273 272 271 272 273 272 271 271 271 270 270 270 270 270 270 270 268 267 268 266 264 265 265 264 265 265 265 265 265 266 268 269 270
277 276 276 275 275 272 270 269 269 269 271 273 274 277 277 275 273 273 272 272 272 272 271 272 272 272 272 270 268 267 268 270 270 271 269 268 270 271 271 270 271 270 268 269 268 267 268 267 267 268 272 269 271 267 264 263 264 264 264 268 273 271
277 276 275 273 272 269 268 267 267 266 267 269 271 275 275 273 273 272 271 271 270 270 270 270 269 268 270 270 270 269 268 272 275 272 272 269 272 276 277 276 270 268 267 267 267 268 269 269 267 275 277 277 277 278 277 274 273 273 270 271 275 275
275 274 272 269 267 266 266 265 265 266 266 268 271 274 274 273 272 271 269 269 269 269 269 268 267 267 267 268 268 269 269 267 270 277 277 276 277 277 278 278 279 278 276 270 265 268 276 276 277 278 278 279 279 280 280 280 280 279 279 278 275 273
274 272 269 268 266 265 265 264 263 263 264 265 268 272 273 273 273 271 269 268 267 268 268 268 267 267 266 265 265 266 267 268 267 269 276 277 277 278 278 278 278 279 279 279 276 271 268 274 278 279 279 279 279 279 280 280 280 280 280 280 280 276
271 270 268 266 265 264 265 264 263 262 263 263 266 270 271 271 271 269 268 267 267 267 267 267 267 266 266 265 265 264 265 267 267 267 265 267 274 276 276 277 277 277 277 278 278 278 278 277 278 278 278 278 278 278 278 279 279 280 280 280 277 275
269 267 265 265 264 264 264 263 261 260 260 260 264 268 269 269 269 268 268 267 267 267 266 266 266 266 264 264 264 264 264 262 263 261 262 261 262 265 269 273 274 274 275 276 276 276 276 276 276 276 277 276 276 276 277 276 275 277 277 275 272 271
266 264 264 263 263 264 263 261 260 258 259 260 264 267 267 267 267 266 265 265 265 266 266 265 265 264 262 262 262 262 261 261 259 261 260 259 260 259 259 257 259 267 273 271 271 272 273 274 274 275 275 275 274 274 274 273 269 267 267 268 268 267
264 263 263 263 263 262 261 259 258 258 257 259 262 265 266 265 265 265 264 263 263 263 263 262 262 262 262 261 260 260 260 260 260 261 258 258 257 256 255 256 255 257 265 269 269 271 271 272 272 272 272 272 272 271 271 264 263 264 265 265 265 264

ECMWFFLT1_sfc_thetae_063.txt.gz
Theta_e
289 290 291 292 294 296 298 299 299 300 300 299 300 299 298 296 296 295 295 295 293 293 292 292 291 291 290 289 289 288 287 287 286 286 286 285 284 284 284 283 283 283 283 283 282 282 282 282 282 283 283 283 282 282 281 281 281 281 281 280 280 280
289 290 291 291 293 294 296 297 298 298 298 297 297 298 296 295 294 294 293 293 293 292 292 291 291 290 289 288 287 286 286 286 286 285 284 284 283 284 283 283 283 283 282 282 282 282 282 282 281 282 281 282 281 281 280 280 280 280 280 280 280 279
288 289 290 291 291 293 294 296 297 297 297 296 296 295 294 293 293 293 293 292 291 290 290 289 289 288 288 287 287 286 286 286 285 285 285 284 283 283 283 282 282 282 282 282 282 281 281 281 281 281 281 281 280 280 280 280 280 280 280 279 279 279
287 288 288 289 289 290 292 294 296 296 296 296 295 295 293 293 292 292 292 290 290 289 289 289 289 288 287 286 285 285 285 284 284 284 284 283 283 282 282 282 282 282 281 281 281 281 281 281 280 280 280 280 280 280 279 279 280 280 279 279 278 278
287 287 288 289 289 290 291 292 294 296 296 295 294 294 293 293 292 291 290 289 289 288 288 288 287 287 286 285 284 284 283 283 283 283 282 283 282 282 282 282 282 281 281 281 281 280 280 280 279 279 280 280 280 279 279 279 279 279 279 278 278 277
286 287 287 288 288 289 290 292 293 294 295 295 294 293 292 291 291 290 289 288 288 288 287 287 286 285 285 284 284 283 283 283 283 283 282 282 282 281 281 281 281 281 281 280 280 280 280 279 279 279 280 280 280 279 279 279 279 279 279 278 277 277
286 287 287 288 288 289 289 290 291 293 294 294 294 294 292 291 290 289 288 287 287 286 286 286 285 284 284 284 284 283 283 283 282 282 282 281 281 281 281 281 281 280 280 280 280 280 279 279 279 279 279 279 279 279 279 278 278 279 279 278 277 277
286 286 287 288 288 289 289 290 291 292 293 293 294 293 292 291 290 289 288 287 286 286 285 285 284 284 283 283 283 283 282 282 282 281 281 281 281 280 280 280 280 280 280 280 280 280 280 279 279 279 279 278 279 279 278 278 278 278 278 277 277 277
286 286 287 287 288 288 289 289 290 291 292 292 292 292 291 290 289 289 288 287 287 285 285 284 284 284 283 283 283 282 282 281 281 281 280 281 281 280 280 280 280 280 280 280 280 279 279 279 278 278 278 278 278 278 278 278 277 277 277 276 277 277
287 286 286 286 287 288 288 289 290 290 291 291 291 291 290 289 288 288 288 287 286 286 285 284 284 283 283 283 283 282 282 281 281 281 281 281 281 281 280 280 280 280 280 280 280 279 279 279 278 278 278 278 277 277 278 278 277 276 276 276 277 277
287 287 286 286 287 287 287 288 289 289 290 291 290 289 290 289 288 288 287 287 286 286 285 285 284 283 283 282 282 281 281 281 281 281 280 281 281 281 281 281 281 280 279 279 279 279 279 278 278 278 278 277 277 277 277 277 277 276 276 276 275 276
287 287 286 286 286 287 287 288 288 289 289 290 290 289 289 288 288 288 287 287 287 286 285 284 284 283 282 282 281 281 281 281 281 280 280 280 280 280 280 280 280 280 279 279 278 278 278 278 278 279 281 280 278 277 277 277 277 277 276 276 275 275
287 286 286 286 286 287 287 288 288 288 289 289 289 289 288 288 288 287 287 286 287 286 285 284 283 282 282 282 282 281 281 281 281 280 280 280 280 280 280 280 279 279 279 279 278 278 278 278 278 282 283 282 281 278 277 277 277 276 276 276 275 275
287 287 287 287 287 287 287 287 288 288 288 289 288 288 287 287 287 287 287 286 286 285 284 284 283 282 282 282 282 281 281 281 281 280 280 280 280 280 280 279 279 279 279 279 279 278 278 278 281 283 284 284 283 281 278 277 277 277 276 276 276 276
290 289 288 288 288 287 287 288 287 287 288 288 288 287 286 286 287 286 286 286 285 284 284 284 283 282 282 282 282 282 281 281 281 281 280 280 280 280 279 279 279 279 279 279 278 278 278 277 282 284 285 285 285 283 279 277 277 277 277 276 276 276
291 290 290 289 289 288 287 287 288 288 288 288 287 287 286 286 286 286 285 285 284 284 284 283 283 283 282 282 282 282 281 281 281 281 281 281 281 280 280 279 279 279 278 278 278 278 277 277 282 285 285 285 285 285 281 277 278 278 277 277 276 276
292 291 289 288 287 286 286 286 287 286 286 286 286 286 285 285 285 285 284 284 284 283 283 283 283 283 282 282 282 282 281 281 281 281 281 281 281 280 279 279 279 279 278 278 278 277 277 276 283 285 285 285 285 286 284 278 278 278 277 277 276 276
291 290 290 286 286 285 286 286 286 286 285 285 285 284 284 284 284 284 283 283 283 283 283 283 283 283 282 282 281 281 281 281 281 281 281 281 280 280 280 280 279 278 278 278 277 277 276 277 282 284 285 285 286 286 284 280 278 277 277 276 277 277
288 288 286 284 285 285 285 285 285 285 284 283 283 283 283 283 283 283 283 283 282 282 282 282 282 282 282 282 281 281 281 281 281 281 281 280 281 280 279 279 279 279 278 277 277 276 276 277 282 284 285 285 286 286 284 283 279 277 276 276 277 277
285 284 284 284 283 284 284 284 284 283 283 282 282 282 282 282 282 282 282 282 282 282 282 282 282 281 281 282 281 281 281 281 282 281 281 281 280 279 279 279 278 278 278 277 277 277 277 277 280 283 284 285 286 285 283 283 281 279 278 277 278 277
282 282 282 283 282 282 283 283 283 283 282 281 281 281 281 281 282 282 282 282 281 281 282 283 283 283 282 282 282 282 282 281 282 282 281 281 280 279 279 278 278 277 277 277 277 279 278 277 279 282 284 284 285 285 284 283 282 280 280 279 279 279
282 282 282 282 281 282 282 283 283 282 281 280 281 281 281 281 282 282 282 282 281 281 281 282 283 283 282 282 282 282 282 281 280 280 280 280 280 279 278 278 278 277 277 277 277 278 278 277 277 279 283 284 284 285 284 283 281 280 280 280 280 280
282 282 281 281 281 282 282 282 282 280 280 280 280 280 281 281 281 281 281 281 280 280 281 282 282 282 282 282 282 282 281 281 280 280 279 279 279 279 278 278 278 278 278 277 277 277 277 277 277 278 282 283 284 284 284 282 281 281 281 280 280 280
280 279 279 280 281 282 282 282 281 280 280 280 280 280 280 281 281 281 280 280 280 280 280 280 281 282 282 282 282 281 280 281 280 280 279 279 279 278 278 278 277 278 278 278 277 277 277 277 278 277 280 282 283 284 284 283 282 282 280 280 279 279
279 279 279 279 280 281 282 281 280 279 279 280 279 280 281 281 281 280 280 279 279 280 280 280 281 281 282 282 282 281 280 280 280 280 279 279 278 278 278 277 277 277 277 276 276 275 275 274 275 278 276 279 281 282 283 283 283 283 282 280 279 279
279 279 278 279 279 280 281 281 279 279 279 279 280 280 280 281 281 281 280 280 280 280 280 281 281 282 282 282 282 281 280 280 280 279 279 279 278 277 277 277 276 276 275 275 275 274 273 273 272 275 277 276 279 280 281 282 283 283 281 280 279 279
279 279 278 278 278 279 279 280 280 279 279 279 280 281 281 281 281 281 281 280 280 280 280 280 280 281 281 281 282 281 280 279 279 278 278 278 277 277 276 276 275 275 275 274 274 274 274 272 272 271 274 277 278 279 280 281 281 282 282 280 280 280
278 278 277 276 276 278 277 278 281 280 279 280 281 281 281 280 280 280 280 280 280 280 280 280 280 281 281 281 282 281 280 279 278 278 276 277 276 276 276 275 274 274 273 273 273 273 273 271 271 271 270 273 276 277 279 280 280 280 281 280 280 281
278 277 276 275 273 274 275 275 276 278 279 280 281 282 282 281 281 280 280 280 280 279 280 280 279 279 279 279 279 279 278 278 278 277 275 276 275 275 275 274 273 273 272 272 272 272 271 270 269 269 268 268 269 270 272 273 274 276 276 276 276 276
277 276 275 273 273 273 273 273 273 274 276 277 279 279 280 281 280 279 278 278 278 278 278 278 274 275 276 276 276 276 275 275 276 276 275 274 274 274 273 273 272 272 272 272 272 271 269 270 269 269 269 268 267 267 268 267 268 268 269 269 270 270
276 275 273 272 271 271 270 270 270 270 274 276 278 279 278 277 276 276 275 276 276 276 275 276 276 276 275 274 273 273 274 275 275 275 273 272 274 275 274 273 273 272 271 272 271 270 269 268 269 270 273 270 273 269 267 266 267 268 267 270 274 272
275 273 272 271 270 270 270 269 269 270 271 275 278 278 276 275 275 275 274 274 274 273 274 274 274 273 273 273 272 272 272 274 277 275 273 271 274 277 278 277 272 271 270 270 270 270 270 270 270 276 277 277 278 278 277 275 275 275 272 274 277 277
273 271 270 269 270 270 269 269 269 270 271 274 276 277 276 275 274 273 272 272 272 272 272 272 271 271 272 272 272 272 272 273 275 279 278 277 277 278 279 278 278 277 275 272 267 269 277 276 277 278 278 279 279 279 280 280 280 280 279 279 277 275
271 270 269 269 269 269 269 268 267 267 268 271 274 275 275 274 274 273 272 271 271 271 271 271 270 270 270 270 270 271 271 272 272 273 278 278 278 279 279 279 279 279 278 278 275 272 272 276 278 279 279 279 279 279 279 279 279 280 280 280 280 277
271 270 269 269 269 269 268 267 266 265 267 268 271 274 274 274 274 272 270 270 269 269 269 269 269 269 269 269 268 268 270 271 271 269 270 274 279 279 279 279 279 279 279 279 279 279 278 278 279 278 278 278 278 278 278 278 278 278 277 277 274 272
269 268 268 268 268 268 267 266 264 263 263 264 268 272 273 272 272 271 270 270 269 269 268 269 269 268 268 268 269 269 269 269 269 269 270 269 269 268 271 275 277 277 278 278 277 277 277 277 276 276 276 276 276 276 276 275 274 276 276 273 269 269
267 267 267 267 267 267 266 263 261 260 261 263 267 269 269 269 268 268 267 266 267 269 268 267 267 266 265 265 265 266 266 265 264 266 267 268 267 265 264 262 265 271 274 272 273 274 275 275 275 275 274 274 273 273 274 272 266 265 265 265 265 265
266 265 265 266 265 265 263 261 260 259 258 260 264 267 267 266 266 266 266 265 265 265 265 264 264 264 264 264 263 262 263 263 264 264 262 262 262 262 261 258 259 261 268 271 271 273 273 273 273 272 272 271 271 271 271 262 261 261 262 262 262 262

ECMWFFLT1_sfc_thetae_066.txt.gz
Theta_e
299 299 299 300 302 303 305 306 307 307 307 308 308 307 307 306 306 305 305 305 304 302 301 299 298 298 298 298 297 297 297 296 295 296 298 297 293 290 289 288 288 287 287 287 288 289 289 290 290 290 290 290 290 290 289 289 290 289 289 288 288 287
299 299 299 299 300 301 303 305 306 306 306 306 307 307 307 306 305 304 304 304 304 303 302 300 298 297 297 297 296 294 294 295 295 295 294 293 290 289 289 289 288 287 286 286 287 288 289 288 289 289 289 289 289 288 287 287 289 288 287 286 287 286
298 298 299 299 300 301 302 304 304 305 306 306 306 306 306 305 305 304 303 303 302 300 298 298 298 297 298 297 295 294 293 293 293 293 292 289 289 289 287 287 287 287 286 286 287 288 288 288 287 287 288 288 287 287 286 286 287 286 286 286 284 285
297 297 297 298 298 299 300 302 303 304 304 305 305 305 305 305 304 302 302 302 300 299 299 297 296 296 295 293 292 292 292 291 291 291 290 289 289 287 286 286 287 287 286 286 287 287 288 287 287 287 287 286 286 286 286 286 286 286 285 285 284 284
297 297 296 297 297 298 299 300 302 303 304 304 305 304 304 305 304 303 303 302 300 299 298 297 294 293 293 292 291 290 290 290 290 290 288 289 288 287 287 286 287 287 286 286 287 287 287 287 286 286 286 286 286 285 285 286 286 285 285 284 284 284
296 295 295 296 297 297 298 299 301 302 303 304 304 303 303 303 304 303 302 301 300 299 298 296 294 293 292 291 291 289 289 288 288 288 287 288 288 286 286 286 286 286 285 286 286 286 286 285 285 285 286 286 286 285 284 285 285 285 285 284 284 283
294 296 297 297 297 297 298 298 299 301 302 303 302 302 303 302 302 301 300 300 298 297 296 295 294 293 292 291 290 288 288 287 287 287 287 287 285 285 285 285 285 284 284 285 286 285 285 285 285 285 285 285 285 285 284 284 284 284 284 284 283 283
296 296 296 297 297 297 297 298 298 299 301 302 302 302 301 301 300 299 298 297 296 295 294 293 292 292 291 290 288 287 287 286 286 287 288 287 284 284 284 284 284 284 284 285 286 285 285 285 284 284 285 285 285 284 284 284 284 284 284 284 283 282
297 297 297 296 296 297 297 297 297 298 299 300 301 301 301 300 298 297 296 296 295 294 293 292 291 291 290 289 288 288 287 286 286 286 286 285 283 283 282 283 283 284 284 284 285 284 284 284 284 284 283 283 283 283 283 283 283 283 282 281 280 280
301 298 297 295 295 296 296 296 297 297 298 298 300 300 300 299 297 296 295 295 294 294 293 292 292 291 291 290 288 287 286 285 285 285 285 284 283 283 282 282 282 282 283 283 283 284 284 283 283 282 282 283 283 283 282 281 280 279 279 280 280 280
301 300 297 295 295 295 295 295 296 296 297 298 299 299 299 299 296 295 295 294 293 293 293 292 291 291 291 289 288 287 285 285 284 284 284 284 284 284 283 282 282 282 282 282 282 282 282 281 282 282 282 281 280 280 280 280 280 280 280 280 279 279
299 299 297 295 294 294 294 295 295 295 296 296 297 298 299 298 296 295 294 293 293 293 292 291 289 289 289 288 287 286 285 284 283 284 284 283 283 283 283 283 283 282 281 281 281 282 282 282 282 281 283 282 281 281 282 281 281 281 280 279 278 277
298 297 296 295 295 295 295 295 295 295 295 296 296 297 297 298 296 294 294 293 293 293 292 290 289 288 287 288 287 286 285 284 283 283 284 283 283 283 282 282 282 282 281 281 281 281 280 280 280 283 284 285 284 282 282 282 281 280 279 278 277 276
299 297 296 297 296 295 295 294 294 294 294 295 295 296 296 296 295 295 294 294 293 292 291 289 288 287 286 286 286 285 285 284 284 284 284 283 282 283 283 282 282 282 281 281 281 280 280 280 282 284 285 285 285 284 283 282 281 280 279 278 278 278
305 303 301 300 298 296 296 295 294 293 294 294 295 295 294 294 295 295 294 294 293 292 290 289 287 287 286 286 285 285 284 284 284 284 283 282 283 283 282 282 282 281 281 281 280 280 280 280 283 285 286 286 285 284 282 282 281 280 279 278 278 277
306 304 303 302 301 298 297 295 294 295 295 294 294 294 294 293 293 294 294 293 291 290 289 288 287 286 286 286 285 284 284 284 284 284 284 283 283 282 282 282 282 282 281 281 280 280 280 280 283 286 286 286 286 285 283 282 281 280 280 278 278 278
305 304 301 300 298 297 295 294 294 294 294 293 293 293 292 292 293 293 293 292 291 290 289 288 287 286 286 285 285 284 284 284 284 283 283 283 283 282 281 281 281 281 282 281 281 280 280 279 284 286 286 286 286 285 282 281 280 280 279 279 278 278
304 303 302 299 297 295 295 294 294 293 292 293 292 291 292 291 291 292 291 290 289 289 288 287 287 286 285 285 284 284 284 283 283 283 283 283 283 283 283 282 282 281 281 281 281 280 278 279 284 286 286 287 286 285 281 280 280 279 279 279 279 278
300 299 298 296 295 294 293 293 292 292 291 290 291 290 290 290 290 290 290 289 289 288 288 287 287 286 285 285 284 283 284 283 283 283 283 283 283 282 281 281 281 282 281 280 279 279 279 280 284 286 286 286 287 285 282 281 280 280 279 279 279 279
293 292 294 293 292 292 292 291 291 290 289 289 289 289 289 289 289 289 289 288 288 288 287 287 287 285 285 284 284 284 284 284 284 283 283 283 282 282 282 280 280 280 280 279 279 279 278 279 283 285 286 286 287 286 284 283 282 281 280 279 279 279
292 291 290 291 290 289 290 290 289 289 288 288 288 288 288 288 289 288 288 288 288 287 287 287 286 285 285 285 284 284 283 283 284 283 283 283 282 281 281 280 280 279 279 279 279 280 279 279 282 285 285 286 287 286 285 284 283 282 281 281 280 280
289 289 289 289 289 288 289 289 289 287 287 287 288 287 287 288 288 289 289 288 286 286 286 286 285 285 285 284 284 284 284 284 283 282 283 282 282 280 280 280 280 279 279 279 279 279 279 279 280 283 285 286 286 286 285 285 284 283 283 283 283 282
290 290 289 288 287 287 288 288 287 286 286 286 286 286 287 288 288 288 287 287 286 286 286 286 285 285 285 285 284 284 284 283 282 282 281 281 281 280 280 279 280 279 278 279 279 279 279 279 279 281 284 285 285 286 285 284 284 284 283 283 283 283
286 286 286 286 287 287 287 287 286 286 286 286 286 287 287 287 287 287 286 285 285 285 285 285 285 285 285 284 284 283 283 283 282 282 281 281 281 279 279 279 279 278 278 278 278 279 279 280 280 279 283 284 285 285 286 284 284 284 284 283 283 283
285 285 285 286 286 287 287 286 285 284 285 285 285 286 286 286 286 286 285 285 284 284 284 284 284 284 284 284 284 283 282 282 282 282 281 280 280 279 278 279 279 279 278 278 278 278 278 279 279 280 280 283 284 285 285 286 285 285 284 283 282 282
285 284 284 285 286 286 286 285 284 284 284 285 285 285 285 285 285 285 284 283 283 283 283 283 283 284 284 284 283 283 282 281 281 281 281 280 280 279 278 278 279 279 278 278 278 278 278 278 278 280 281 281 283 284 285 285 286 285 284 283 282 282
284 284 284 284 284 285 285 285 284 283 283 284 285 284 284 284 283 283 283 283 283 283 283 284 284 284 284 284 283 282 281 281 281 280 280 280 280 280 279 279 278 278 278 278 278 277 276 276 276 277 279 280 280 283 284 284 284 284 285 282 282 283
283 283 283 283 284 284 284 284 284 283 283 284 284 284 284 283 283 283 282 282 283 283 283 283 283 283 283 284 284 283 282 281 281 281 281 281 281 280 280 279 279 279 279 278 277 277 276 275 275 275 276 278 279 280 281 282 282 282 282 282 281 282
282 282 282 281 281 282 283 283 284 284 284 283 284 284 283 283 283 282 282 282 282 282 283 282 283 283 283 283 284 283 283 283 283 282 281 282 281 281 280 279 278 278 278 278 278 277 276 275 275 276 275 276 277 278 278 279 279 279 278 279 279 279
282 281 280 279 279 280 280 281 282 283 283 283 284 283 283 283 282 282 282 282 282 282 283 282 278 281 282 283 283 282 282 282 282 281 280 280 280 279 278 278 277 278 278 278 278 277 276 276 276 276 275 274 275 275 276 276 275 276 277 276 277 277
280 279 278 277 277 277 277 277 279 281 282 283 283 283 283 282 281 281 281 282 282 282 281 281 281 282 281 281 280 280 281 281 281 280 279 278 281 281 280 279 279 279 279 279 278 276 276 276 275 276 277 276 276 275 275 274 274 275 275 276 277 276
278 276 275 275 275 276 276 276 277 279 281 282 283 282 281 280 280 280 280 280 280 280 280 280 280 280 279 278 277 277 277 277 280 280 279 277 278 279 279 280 279 279 278 278 278 278 277 277 277 278 278 277 277 277 277 276 277 277 277 278 279 279
276 275 274 274 275 275 274 275 275 276 278 280 281 281 280 280 280 279 279 279 279 279 279 279 279 278 278 278 278 278 277 277 278 279 279 279 279 279 279 279 278 278 278 277 275 277 278 278 278 279 279 279 279 279 279 279 279 280 280 280 279 277
275 274 274 274 273 273 273 273 273 273 275 278 280 280 280 280 279 278 278 278 277 277 278 278 277 277 277 277 278 277 277 277 276 277 279 280 280 280 280 279 279 279 279 278 277 277 278 279 279 279 279 279 280 280 280 280 280 280 279 279 280 278
275 274 273 273 273 273 272 272 271 271 273 276 278 279 279 279 279 278 277 276 276 276 276 276 276 276 276 275 276 276 277 277 276 275 276 278 280 280 280 280 280 280 280 279 279 279 279 279 280 280 280 279 279 279 279 279 278 278 278 277 277 276
273 273 273 273 273 272 271 269 268 268 268 271 276 278 278 278 277 277 276 276 276 275 275 276 276 276 276 276 276 276 276 276 277 276 275 274 274 275 277 279 280 280 280 280 280 280 279 279 278 278 277 277 277 277 277 276 276 276 276 275 273 273
272 272 272 271 271 270 269 267 265 265 265 271 275 276 276 275 274 274 271 270 272 275 275 275 275 275 275 275 275 275 275 275 274 274 274 273 272 272 271 271 273 276 277 276 277 277 277 277 277 276 275 275 275 274 275 274 272 272 271 270 270 270
271 271 270 270 269 268 266 265 264 264 264 270 273 274 273 273 273 273 273 272 272 273 274 274 273 274 274 274 273 273 272 272 272 273 273 272 271 269 268 267 267 268 272 274 275 276 276 275 275 274 273 273 272 272 273 269 270 269 269 267 267 267

ECMWFFLT1_sfc_thetae_069.txt.gz
Theta_e
308 307 306 307 307 307 308 309 309 310 309 310 310 309 310 310 310 309 308 308 307 307 307 307 308 307 305 304 305 303 303 303 303 302 304 303 301 297 294 293 291 290 290 290 291 291 291 292 292 293 293 294 294 295 294 293 293 292 291 291 291 290
307 306 305 305 305 306 307 308 309 309 309 309 309 310 310 310 309 308 307 307 307 307 306 306 306 305 304 303 302 301 301 302 302 302 301 302 297 296 293 291 290 289 289 289 290 290 290 290 291 292 292 292 292 293 292 291 292 291 290 289 289 289
306 305 305 305 305 306 307 307 308 308 309 309 309 309 309 309 309 308 307 307 306 306 305 305 304 302 302 303 302 302 301 300 301 300 299 297 294 293 292 291 290 289 288 288 288 289 289 289 289 290 291 291 291 291 291 290 290 289 288 287 287 288
305 304 303 304 304 304 305 306 307 308 308 308 308 308 309 309 308 308 307 306 306 305 304 304 303 302 301 300 300 299 299 299 299 297 294 293 292 291 291 290 290 289 288 288 288 288 288 288 289 289 290 290 290 289 290 289 288 287 286 285 285 285
304 303 302 302 302 303 304 305 306 307 307 307 308 308 308 309 308 308 307 306 305 305 304 303 301 301 300 299 300 298 297 296 296 294 294 293 291 290 290 289 290 289 288 287 287 288 288 288 288 288 288 288 288 288 288 288 287 286 285 284 284 284
303 301 301 301 302 302 302 304 305 306 306 307 307 307 307 308 308 308 307 305 304 304 303 301 300 299 299 298 298 298 297 295 294 293 293 292 290 289 289 289 288 288 287 286 286 286 286 286 286 287 287 288 287 287 287 286 286 286 285 285 284 284
301 301 302 302 302 302 302 303 303 304 305 306 306 307 307 307 308 307 306 304 303 302 301 300 298 298 297 297 296 297 297 294 292 291 291 291 289 289 288 288 287 287 287 286 286 286 286 286 285 286 286 286 286 286 286 286 285 285 285 285 284 284
304 303 302 303 302 302 302 302 303 303 304 305 306 306 306 306 306 306 304 303 302 302 301 300 298 297 296 295 295 295 295 292 291 290 290 289 289 288 287 287 287 287 286 286 286 286 286 286 285 285 286 286 285 285 285 285 285 285 284 284 284 283
304 304 303 303 302 302 302 302 302 302 303 304 305 306 306 305 305 304 303 302 302 301 300 300 298 298 297 296 294 294 293 291 290 289 289 289 288 287 287 286 286 286 286 286 286 285 285 285 285 285 285 285 285 285 284 284 284 284 284 283 283 283
306 305 304 303 302 302 301 302 302 302 302 302 304 304 304 304 303 302 301 301 300 300 299 299 298 297 297 295 295 294 292 291 289 289 289 288 287 286 286 285 285 285 286 286 286 286 286 285 285 285 285 285 285 284 284 284 283 283 283 282 282 282
307 307 306 304 302 301 300 300 300 301 302 302 303 303 303 303 302 300 300 299 299 299 299 298 297 296 295 294 293 292 291 289 288 288 287 287 286 286 286 285 285 285 285 285 285 284 285 285 285 285 284 284 283 284 284 283 283 282 281 280 280 280
308 307 308 306 303 301 300 300 300 300 300 300 301 301 302 302 300 299 299 298 298 298 298 297 296 294 294 293 291 290 289 288 287 286 286 286 285 285 285 284 284 284 283 283 283 283 284 284 285 285 286 286 284 284 284 283 282 281 281 280 280 279
309 308 307 307 305 304 302 302 301 300 299 299 300 300 301 301 300 299 298 298 298 298 297 296 294 293 292 292 291 289 288 286 286 285 285 285 285 284 284 284 283 283 283 283 283 282 282 283 284 286 288 289 288 284 282 282 282 281 281 280 279 278
308 308 307 306 305 303 302 302 301 299 298 299 299 299 300 300 299 298 298 297 297 297 295 294 293 292 291 290 289 288 287 286 285 285 285 285 284 284 284 283 283 283 283 283 283 282 282 282 284 287 288 288 288 285 282 282 282 282 281 280 279 279
308 309 309 307 305 304 303 303 299 298 298 298 298 299 299 299 298 298 297 296 296 295 294 294 292 291 290 289 288 287 287 286 285 285 285 284 285 284 284 284 283 283 283 283 282 281 282 282 286 286 287 287 287 286 284 283 283 282 281 280 279 279
309 309 310 309 308 305 304 301 300 299 299 298 298 297 297 297 297 297 296 295 295 294 294 292 290 289 289 288 287 287 286 285 285 285 285 285 284 284 283 284 283 283 283 282 281 281 281 280 284 286 287 287 287 287 286 283 282 281 280 279 279 279
308 309 308 309 307 304 301 300 299 298 297 297 296 296 296 296 296 295 296 295 294 293 292 291 290 289 288 287 286 286 286 285 285 285 285 284 284 283 283 283 283 284 283 283 282 281 281 280 285 286 287 287 287 287 285 283 282 282 280 279 279 279
308 308 308 309 303 301 300 299 298 297 296 296 295 295 295 295 294 294 295 294 294 292 291 290 290 289 288 287 286 285 285 285 285 284 285 284 284 284 284 284 284 283 283 283 282 282 281 281 285 286 286 287 287 286 282 282 281 280 280 279 279 279
308 308 305 301 301 299 298 298 296 295 295 294 294 293 293 293 293 293 293 293 292 291 290 290 289 287 286 286 285 285 285 284 284 284 285 284 284 284 283 283 283 283 282 282 282 281 280 281 284 286 287 287 287 283 281 281 281 280 279 279 279 279
300 299 302 299 297 298 297 296 295 294 293 292 292 292 292 291 291 293 293 292 291 291 290 289 288 287 286 285 285 284 285 285 285 285 285 284 283 283 283 283 283 283 282 281 281 280 280 281 284 286 286 286 285 283 281 281 280 280 279 279 279 279
299 296 296 297 295 294 294 293 293 292 291 291 291 291 291 290 291 292 291 290 291 290 288 288 287 287 286 285 285 285 284 284 284 284 284 284 283 282 283 282 282 281 281 280 280 282 280 281 284 286 286 286 285 283 282 282 281 280 279 279 279 279
294 293 293 293 294 292 292 292 291 289 291 290 291 290 290 290 291 292 291 290 289 288 288 287 286 286 285 285 285 285 285 285 284 284 284 283 283 282 281 281 281 280 280 280 280 280 280 281 283 285 287 287 286 285 284 283 282 281 281 281 281 281
294 294 293 292 291 290 290 290 290 289 290 289 289 288 289 290 291 290 290 289 288 287 287 287 286 285 285 285 285 285 285 285 284 283 283 282 282 281 280 280 280 280 279 279 280 280 280 281 283 285 287 287 287 286 285 284 283 284 283 283 283 283
290 289 289 289 289 289 289 289 288 288 288 288 287 289 290 290 290 289 288 288 287 286 286 286 285 285 285 285 285 284 284 284 284 283 282 282 281 280 280 280 279 279 278 279 279 279 279 281 282 282 286 287 287 286 286 285 285 285 285 284 284 284
289 289 288 288 288 288 288 288 287 286 287 287 288 289 289 289 288 288 287 286 286 285 285 285 285 284 284 284 284 284 283 283 283 282 282 281 280 280 279 279 279 278 278 278 278 279 279 280 280 282 283 286 286 286 286 286 285 286 285 284 283 284
288 287 287 287 287 287 287 287 286 286 286 286 288 287 287 287 286 286 285 285 285 285 284 284 284 284 284 284 284 284 282 282 282 282 281 281 280 279 279 279 278 278 277 277 277 278 279 279 280 281 282 283 285 286 286 286 286 286 284 284 284 283
287 286 286 286 286 287 286 286 285 285 285 286 286 286 286 286 285 285 284 284 284 284 284 284 284 284 284 284 283 282 282 282 282 281 281 280 280 279 279 278 279 278 278 278 277 278 278 278 279 279 281 282 283 285 285 286 286 286 286 284 284 284
286 285 285 285 286 286 286 286 286 285 285 286 286 285 285 284 284 284 283 283 284 284 284 283 283 284 283 283 283 283 282 282 281 280 280 280 280 280 279 279 279 279 279 278 279 278 278 278 278 278 279 281 281 282 284 285 285 285 285 284 282 282
285 285 284 284 285 285 285 285 286 285 285 285 285 285 284 284 283 283 283 283 283 283 283 283 283 283 283 283 283 283 282 282 282 281 281 281 280 280 280 279 279 279 279 279 280 279 278 277 277 277 278 279 280 280 280 281 281 281 280 281 280 280
284 284 283 283 283 284 284 284 284 285 285 284 284 284 284 283 283 283 282 282 283 283 284 283 280 282 283 283 283 282 282 283 283 282 282 281 281 281 280 280 279 280 280 280 279 278 277 277 277 277 276 277 278 278 278 278 278 277 278 278 277 276
283 283 282 281 281 282 282 283 283 284 284 283 284 284 283 283 283 282 282 283 283 283 283 283 283 283 283 283 282 282 283 283 283 283 281 281 284 284 282 281 281 281 281 280 279 278 277 277 277 277 278 277 278 277 276 275 276 276 276 277 278 275
282 281 280 279 279 280 280 281 282 283 283 284 284 284 283 283 283 282 282 283 282 282 282 283 283 282 281 280 279 279 278 279 282 282 280 279 280 281 283 283 282 281 281 280 279 279 278 277 277 280 279 279 279 279 278 278 278 278 278 279 280 278
280 279 278 278 278 278 279 280 281 282 283 283 284 283 283 282 282 282 282 282 282 282 282 282 281 281 280 280 279 279 278 278 279 281 281 281 280 281 281 281 282 282 281 278 277 279 281 281 281 280 279 279 279 279 279 279 280 280 280 280 279 278
278 278 277 277 277 278 278 278 279 280 281 282 282 282 282 282 282 281 281 281 281 281 281 281 280 280 279 279 279 279 278 277 277 277 280 281 281 281 281 281 281 281 281 280 279 278 278 280 280 280 280 280 280 280 280 280 280 281 281 281 281 277
279 278 278 277 277 277 277 277 276 277 279 281 281 282 282 282 282 281 281 280 280 280 280 279 279 279 279 279 278 278 278 277 277 276 276 279 281 281 281 281 281 281 281 281 280 280 280 280 280 280 280 280 280 280 280 281 281 280 280 280 278 277
277 276 276 276 276 276 275 274 274 274 276 279 281 281 281 281 281 281 280 279 279 279 279 279 279 279 279 279 279 278 278 278 277 277 276 276 276 278 279 281 281 280 280 280 281 281 281 281 281 280 280 280 280 280 279 279 277 278 278 277 273 274
276 276 275 275 275 274 273 272 270 270 271 277 280 280 280 280 280 279 275 274 276 279 278 278 278 278 278 278 278 278 277 277 277 276 276 275 275 274 274 274 276 279 280 279 280 280 280 279 279 279 278 278 278 278 277 277 275 273 271 271 270 271
275 274 274 274 273 272 270 269 268 268 269 276 279 279 279 278 278 277 277 277 277 278 278 278 278 278 278 278 278 277 276 275 275 275 275 274 274 273 271 271 271 273 277 278 278 278 278 278 277 276 276 276 276 276 276 271 271 270 269 268 268 268

ECMWFFLT1_sfc_thetae_072.txt.gz
Theta_e
301 301 301 301 301 302 303 304 305 305 304 305 305 305 305 305 306 304 304 303 303 303 302 302 302 303 302 302 305 305 304 303 303 302 302 302 301 298 296 296 293 292 292 292 292 293 293 294 294 294 295 295 296 293 294 293 293 293 291 290 291 289
300 300 300 300 301 301 301 302 303 304 304 304 304 304 304 304 304 304 303 303 303 302 302 302 302 303 303 303 304 304 304 304 303 303 302 301 298 297 295 294 293 291 291 291 291 291 291 292 292 292 293 293 293 292 292 291 292 291 290 289 289 289
300 299 299 298 299 299 299 301 303 303 303 303 303 304 303 304 304 303 303 302 302 300 300 300 300 301 302 302 304 304 303 302 302 301 300 297 296 295 294 293 292 291 291 290 290 290 290 290 291 291 292 292 291 290 290 290 291 290 289 288 288 288
298 298 298 297 296 297 298 300 300 302 303 303 303 303 303 303 304 304 302 301 302 299 300 299 298 298 297 297 298 300 301 299 299 298 296 296 295 294 293 292 291 290 290 289 289 289 289 290 290 290 291 291 291 290 290 290 289 289 288 287 286 286
298 296 296 296 296 297 296 298 301 302 302 302 302 302 302 303 303 303 302 301 300 299 298 298 297 296 294 294 294 295 296 297 297 296 296 295 292 292 293 292 290 290 289 288 288 288 288 289 289 289 290 290 291 290 289 290 289 288 287 286 285 284
297 296 295 295 295 295 298 299 299 301 301 301 301 301 301 301 302 302 301 300 299 298 296 296 295 293 293 294 294 293 293 294 294 293 295 294 291 290 290 290 290 289 288 288 287 287 287 288 288 288 289 290 290 289 289 289 288 287 287 286 284 283
295 295 294 294 294 294 296 297 299 299 299 300 301 301 301 301 301 301 300 298 297 295 295 294 293 294 293 293 293 292 293 293 293 292 293 292 291 290 289 288 288 288 287 287 287 286 287 287 287 287 288 288 288 288 288 288 287 286 286 285 283 283
296 295 295 296 296 296 296 296 297 298 298 300 299 300 300 301 300 300 299 298 296 295 294 294 293 293 293 293 292 292 291 291 290 290 290 291 290 289 288 288 287 287 287 287 286 286 286 286 287 287 287 287 287 287 287 287 286 285 284 283 282 282
298 298 297 297 297 296 297 296 297 297 297 298 298 300 300 300 299 299 298 296 296 295 294 293 293 293 293 292 292 291 291 290 288 288 289 289 289 288 287 287 287 286 286 286 286 286 286 286 286 286 286 286 286 286 286 285 284 283 283 282 281 281
297 297 297 297 297 297 297 297 297 297 297 298 297 297 298 300 298 296 296 294 294 295 294 293 292 292 292 291 291 290 290 289 288 287 287 287 288 287 287 287 286 286 286 286 286 285 285 285 284 285 285 285 285 286 285 284 283 282 282 282 281 280
299 298 298 298 297 297 297 297 296 296 296 297 297 297 298 296 296 295 295 294 295 295 294 292 293 292 292 291 291 290 289 288 287 287 287 287 287 287 287 287 286 285 285 285 285 285 285 285 284 285 284 284 284 285 284 284 283 282 281 281 280 280
299 298 299 298 297 297 296 295 296 296 296 296 296 296 296 294 295 295 295 295 295 294 293 292 292 291 291 290 290 289 289 287 286 286 286 287 287 286 286 285 285 285 285 284 284 284 285 285 285 285 287 287 285 284 284 284 283 282 281 280 279 278
300 299 298 299 299 298 297 297 296 296 295 296 296 296 296 295 295 295 294 295 294 293 292 292 291 290 290 289 289 288 287 286 285 285 286 285 285 285 284 284 284 284 284 284 284 284 284 284 285 286 289 289 288 284 283 283 282 281 280 280 279 278
299 300 300 300 299 299 298 297 296 295 295 295 295 295 294 294 295 294 294 294 292 292 292 291 290 289 289 288 287 287 286 285 284 284 284 284 284 284 284 284 284 284 283 283 283 283 283 283 286 289 289 289 289 287 283 282 282 281 280 279 279 278
300 300 300 300 301 300 300 300 296 295 295 294 295 293 293 295 294 294 293 292 292 291 291 290 289 289 288 288 287 285 284 284 284 284 284 284 284 283 283 283 283 283 283 283 282 282 282 281 287 289 289 289 289 288 284 282 281 281 280 279 278 278
301 300 300 300 300 300 300 298 298 297 296 294 291 292 293 293 293 293 293 291 291 291 290 290 288 288 287 287 286 285 284 283 283 284 285 285 284 284 283 283 283 283 283 282 282 282 281 281 287 289 289 289 289 288 285 282 282 281 280 279 279 278
301 300 298 299 299 296 294 293 295 292 291 292 292 292 292 292 292 292 291 291 290 289 289 289 288 287 286 285 285 284 283 283 283 283 284 284 284 284 283 283 283 283 283 283 283 282 282 281 287 288 289 289 289 287 285 282 282 281 280 279 279 278
301 299 299 296 296 294 292 292 289 290 290 289 291 290 290 290 290 290 290 290 289 289 289 288 287 287 285 285 284 284 283 283 284 284 284 284 284 284 284 284 284 283 283 283 282 282 280 282 287 288 288 288 288 286 282 282 281 280 279 279 278 279
298 296 294 293 294 292 291 289 288 289 287 289 288 289 289 289 290 290 290 289 289 289 288 288 287 286 285 284 284 283 283 283 284 284 285 284 284 283 283 283 283 283 282 282 282 281 280 282 286 287 288 288 287 284 282 281 280 279 278 278 279 279
292 291 293 293 291 290 288 287 288 287 287 288 287 288 288 288 289 288 288 288 288 288 287 287 286 285 284 284 283 283 283 284 285 284 285 284 283 283 283 283 282 282 282 282 281 281 280 282 285 287 288 287 286 283 281 280 279 279 278 278 279 279
288 288 289 290 290 288 287 287 287 287 287 285 285 286 287 288 287 287 288 287 286 286 286 286 286 285 284 283 283 283 282 283 284 284 284 284 283 282 282 282 282 281 281 281 281 282 281 282 284 287 287 287 285 283 281 280 279 278 278 278 278 278
288 289 289 288 288 286 286 285 286 285 285 285 284 286 286 286 286 285 285 285 285 285 285 286 285 284 284 283 282 282 282 283 284 284 284 283 283 282 282 281 281 280 280 280 280 281 281 282 284 286 287 286 285 284 281 280 279 278 278 279 279 278
287 287 286 285 285 285 285 285 285 285 284 285 285 286 285 285 285 285 285 284 284 284 285 285 284 284 283 283 282 282 282 283 283 283 283 282 281 281 280 280 280 279 279 279 280 280 281 283 283 285 286 286 285 285 283 280 280 280 280 280 280 279
285 284 284 283 284 284 284 284 284 283 283 283 285 284 283 285 285 285 284 284 284 283 283 283 283 283 283 282 282 282 282 283 283 283 282 281 280 280 279 279 279 278 278 279 279 279 280 282 284 284 286 286 285 285 284 281 281 282 281 281 281 281
285 285 283 283 284 284 284 283 283 282 282 283 283 283 283 284 284 284 284 283 283 283 282 282 282 282 282 282 282 281 281 282 282 282 281 280 280 279 278 278 278 277 277 278 278 279 279 280 282 285 285 286 285 285 284 284 284 285 283 283 282 282
283 283 283 282 283 283 283 282 282 281 282 282 282 282 283 283 282 283 283 282 282 281 282 282 282 282 282 281 281 281 281 281 281 281 280 280 279 278 278 278 277 277 277 277 277 277 278 279 280 283 285 285 286 286 287 287 287 286 284 284 283 282
283 282 282 282 282 282 282 281 283 281 281 281 281 282 283 282 282 282 281 281 281 281 281 281 281 281 281 280 281 281 281 281 281 280 280 280 279 278 278 278 277 277 277 277 276 277 277 278 278 279 283 285 286 286 286 286 286 286 286 283 282 282
281 281 281 281 281 281 282 281 281 282 280 280 280 280 282 282 282 281 280 280 280 280 280 280 279 279 280 280 281 282 282 281 280 280 279 279 279 279 278 278 278 277 277 277 277 277 277 277 277 278 279 281 283 285 286 286 286 286 285 284 283 283
282 282 281 280 279 279 280 280 280 280 280 281 280 281 281 281 281 281 280 280 280 280 280 280 279 280 280 280 281 281 281 281 281 280 280 279 279 279 278 278 278 278 278 277 277 277 277 276 277 277 278 278 279 280 282 283 283 283 283 282 281 281
282 281 281 280 279 278 278 278 279 280 280 280 281 281 281 281 281 280 280 280 281 281 281 280 280 280 280 280 280 280 281 281 281 280 280 279 279 279 278 278 278 278 278 278 278 277 276 276 276 276 277 277 277 277 278 279 279 279 279 278 277 276
281 281 281 280 277 277 277 277 278 280 280 280 281 282 282 282 282 281 281 282 282 282 282 282 282 281 281 281 280 281 281 281 281 281 281 281 280 280 279 278 278 278 277 278 277 275 274 274 275 276 279 278 279 277 277 277 277 277 276 277 278 274
281 280 280 278 275 276 277 277 279 280 281 281 282 283 282 282 282 282 282 282 282 281 282 282 282 281 280 279 279 279 279 281 282 281 280 279 282 284 283 282 278 278 278 277 276 276 276 275 276 280 281 281 281 281 280 279 279 279 277 280 280 276
279 279 278 276 275 275 276 278 280 281 282 283 283 283 283 283 282 282 282 282 281 282 282 282 281 280 279 279 279 278 278 278 280 282 282 282 283 283 284 284 284 282 281 278 276 279 281 281 281 282 282 281 281 281 280 280 280 281 281 281 277 275
279 278 278 276 276 277 279 280 281 281 282 282 283 283 283 283 282 282 282 282 282 282 281 281 280 279 278 278 278 277 277 277 277 278 281 282 282 283 283 283 283 282 282 281 280 279 279 281 282 282 281 281 281 281 281 281 281 281 282 281 280 275
279 278 275 275 276 277 278 279 279 280 280 281 283 283 283 282 282 282 282 281 281 281 280 279 279 278 278 277 277 277 277 277 276 276 276 279 282 282 282 282 282 282 282 282 281 281 280 280 281 281 281 281 281 281 281 282 282 282 282 281 278 275
278 278 276 276 276 277 277 277 278 279 281 282 283 283 283 283 282 282 281 281 281 280 279 279 278 278 278 278 278 277 277 277 276 276 276 276 276 278 280 282 282 282 282 282 282 281 281 281 281 281 281 281 281 281 282 281 280 282 282 280 275 275
277 276 276 276 275 275 276 276 275 275 276 281 282 282 282 282 281 281 277 277 277 279 279 279 279 279 278 278 277 277 276 276 276 276 276 275 275 274 274 275 278 280 281 280 281 281 281 281 281 281 281 281 282 282 282 281 277 275 271 269 265 267
276 275 275 275 276 276 276 275 273 272 273 279 282 282 281 281 280 279 278 278 278 278 278 279 279 279 278 278 277 277 276 276 276 276 275 275 275 274 274 274 276 278 280 281 281 281 281 281 281 281 281 281 281 280 279 272 269 267 265 264 263 263

ECMWFFLT1_sfc_thetae_075.txt.gz
Theta_e
297 298 299 299 298 299 300 300 301 301 301 301 302 303 303 303 303 302 302 303 304 303 302 302 302 303 303 302 302 302 302 302 302 302 304 303 303 301 300 300 298 297 295 295 295 295 296 296 297 298 299 299 300 298 297 296 296 296 294 293 293 291
297 297 298 298 298 298 298 298 299 300 301 301 301 300 300 300 301 301 302 302 302 302 301 301 302 302 302 302 302 302 302 302 301 300 301 303 303 302 300 299 297 296 295 294 294 293 293 293 293 293 294 294 295 295 295 293 294 294 293 291 290 291
294 294 294 294 294 294 295 298 299 300 299 300 301 301 301 301 302 301 302 301 301 300 300 300 299 299 300 299 300 302 301 301 300 300 301 299 299 299 298 297 296 295 295 294 293 293 293 293 292 292 292 293 293 292 293 292 293 293 291 290 289 288
293 293 293 292 293 293 294 297 297 297 299 301 300 300 301 301 301 302 302 301 301 299 299 298 297 298 297 297 297 298 298 297 298 298 298 295 296 296 296 295 295 294 294 293 292 292 291 292 292 291 291 291 291 291 293 292 292 292 290 290 289 288
294 293 293 293 294 294 292 293 296 298 298 298 298 299 299 300 301 301 300 300 299 298 297 296 295 296 294 295 294 293 293 293 292 295 297 297 295 295 296 295 294 293 292 292 291 291 290 291 290 290 291 291 292 291 291 291 291 291 290 289 289 288
292 293 294 292 292 291 294 296 295 296 297 297 297 298 298 297 298 298 298 298 297 296 294 295 294 293 293 293 293 293 292 291 291 291 294 295 295 294 293 294 293 292 291 291 290 290 290 290 290 290 291 291 292 291 291 290 291 291 290 290 289 287
292 294 293 292 292 292 293 295 296 296 296 296 297 298 297 297 296 296 297 295 295 293 293 292 292 292 292 292 291 291 291 290 291 290 292 293 294 293 292 291 291 291 290 290 290 289 289 290 290 290 290 291 291 291 290 290 290 290 289 289 288 286
293 292 291 292 292 293 294 294 295 296 297 297 297 298 297 297 294 296 296 295 294 294 292 292 291 292 292 292 290 290 290 290 290 290 290 293 293 291 291 291 290 290 290 290 289 289 289 289 289 289 290 290 290 290 290 289 289 289 288 288 287 286
296 298 294 293 293 293 294 294 295 295 296 297 297 298 297 296 295 296 296 294 293 294 293 292 293 292 292 291 291 290 289 289 289 290 290 291 292 291 290 289 289 289 289 289 288 288 288 288 288 289 289 289 289 289 289 288 288 288 287 287 286 285
297 293 295 295 295 294 294 294 295 295 295 296 296 296 296 297 296 296 295 294 294 294 294 294 292 291 291 291 290 290 290 289 289 289 289 288 290 290 290 289 289 288 288 288 288 287 287 287 287 287 288 288 288 288 288 288 287 286 286 285 284 284
294 294 295 296 295 294 294 294 294 293 294 295 295 295 296 295 295 296 296 295 295 296 296 293 291 290 290 290 290 290 290 289 289 288 287 287 288 289 289 288 288 287 287 286 286 286 286 286 286 287 287 287 287 287 287 286 286 285 284 283 282 282
295 295 295 293 294 295 295 294 294 294 295 295 294 294 295 293 295 296 295 296 297 297 295 292 291 291 289 290 290 290 289 289 288 287 286 286 287 287 287 287 287 287 286 286 285 285 285 285 286 286 288 288 287 286 286 286 285 284 283 282 281 280
295 294 294 294 294 295 296 297 296 295 294 294 294 294 294 293 294 294 294 295 296 295 292 291 291 290 290 290 289 289 288 288 287 286 286 286 286 286 286 287 286 286 286 286 285 285 285 285 285 286 289 290 289 287 286 285 284 284 283 282 280 279
294 294 295 296 296 295 294 296 297 294 294 295 294 294 291 291 293 295 295 295 295 293 292 291 291 290 290 289 289 288 288 287 286 286 285 285 284 284 285 286 286 286 285 285 285 285 285 285 286 288 289 290 289 288 285 285 284 283 282 281 280 279
296 295 295 294 295 296 296 295 294 294 296 295 295 290 290 292 293 294 294 294 293 292 290 289 290 290 289 288 288 288 287 287 286 285 284 284 284 283 284 285 285 285 285 285 284 284 284 284 287 289 289 290 290 289 286 284 283 283 282 280 280 279
296 296 294 294 295 295 295 293 295 297 296 294 290 290 291 291 292 292 293 292 291 290 289 289 289 289 289 287 287 287 286 286 286 285 284 284 283 283 284 285 285 284 284 284 284 284 283 283 286 289 289 289 289 289 287 283 283 282 281 280 280 280
294 294 295 295 295 293 291 293 292 292 291 291 290 290 291 291 291 291 291 291 290 289 289 289 289 289 288 287 287 286 286 286 285 283 283 283 283 284 284 284 284 284 284 284 283 282 282 282 287 289 289 290 290 289 286 283 282 282 281 280 280 280
294 293 294 293 291 292 290 293 290 289 291 288 289 288 289 289 289 290 289 290 289 289 289 289 288 288 286 286 285 285 284 284 283 283 282 282 283 284 285 284 285 284 284 284 283 282 281 283 288 289 289 290 290 289 284 282 282 281 280 279 279 280
291 291 289 290 289 290 292 290 286 288 287 287 288 286 287 287 289 289 289 289 289 289 288 288 288 287 286 286 285 284 283 283 282 282 282 282 283 284 284 284 284 284 283 283 283 282 281 283 287 288 289 290 290 287 282 282 281 280 279 279 279 280
289 289 288 288 290 289 288 286 286 287 287 286 285 285 286 286 288 289 288 288 288 288 287 287 287 287 285 284 285 284 283 282 282 282 283 283 283 283 284 284 283 283 283 282 282 282 281 283 285 288 289 289 288 284 282 281 280 279 279 278 279 279
287 287 288 288 289 289 286 285 285 286 288 286 285 284 286 287 288 287 287 287 286 286 287 287 287 286 285 284 284 284 283 282 282 282 283 284 285 284 284 283 283 282 282 282 282 282 282 283 285 287 288 288 287 284 282 281 279 279 278 278 278 279
285 287 288 288 288 285 284 283 285 285 287 286 283 285 287 288 287 286 285 284 285 285 285 286 286 285 285 284 283 283 283 282 281 282 283 284 284 283 283 282 282 281 281 281 281 282 282 283 284 286 288 288 286 284 281 280 279 278 278 278 278 279
285 286 286 287 285 283 282 283 284 286 285 284 283 286 287 286 284 283 284 284 284 283 284 284 285 284 283 284 283 282 281 282 282 282 283 283 283 282 281 281 281 280 280 280 281 281 282 283 284 285 288 287 286 285 282 280 280 279 279 279 279 279
286 286 286 284 282 282 282 282 284 285 285 284 285 287 284 282 282 282 282 282 282 282 282 282 281 283 283 281 281 281 280 281 282 283 283 282 282 281 280 280 279 279 279 279 279 280 281 283 284 285 286 286 285 285 284 281 280 281 280 279 279 280
287 287 286 285 281 281 281 281 283 284 283 284 286 284 281 281 281 281 280 280 280 280 280 280 281 281 281 281 281 281 280 281 282 283 282 281 281 280 279 279 278 278 278 278 279 280 281 282 284 285 285 285 286 285 284 283 282 284 282 281 280 281
287 287 286 285 283 280 280 281 283 284 283 284 283 280 281 281 280 280 279 279 278 279 279 279 279 280 280 280 280 280 280 281 282 282 281 281 280 279 278 278 278 277 277 277 277 279 280 282 283 284 284 285 285 285 285 285 285 285 283 283 283 283
286 286 286 286 283 282 281 280 282 282 283 282 280 279 279 279 278 279 278 277 277 278 277 278 279 279 279 279 280 280 281 281 281 280 281 280 280 279 278 278 278 277 277 277 277 277 279 280 282 283 284 284 285 285 285 285 285 285 286 284 283 283
284 284 285 286 284 282 281 281 281 282 284 280 280 278 279 279 278 278 277 276 277 277 278 278 277 277 278 279 281 282 282 281 281 280 280 280 279 279 278 277 277 277 277 276 277 277 278 279 281 282 283 284 284 284 285 285 285 285 285 283 283 283
285 285 285 285 286 280 280 279 280 282 281 279 279 278 278 278 278 278 277 277 277 276 277 278 277 277 277 278 280 281 282 282 281 280 280 279 279 278 278 278 277 277 277 276 276 277 277 278 279 281 282 282 283 284 285 285 284 284 284 283 283 284
285 285 285 285 285 281 280 279 280 280 279 277 277 277 278 279 279 278 277 277 277 277 278 278 279 278 277 278 280 280 281 281 281 280 280 279 279 278 278 278 277 277 277 276 276 276 277 277 278 279 281 282 282 282 283 283 282 281 281 280 280 280
285 285 284 284 284 280 279 278 278 276 277 278 276 278 279 279 279 278 277 277 278 278 279 279 279 279 279 279 279 280 281 281 281 281 281 281 281 280 279 279 279 279 279 278 276 276 276 276 277 278 282 280 283 281 282 281 280 280 279 279 280 277
282 282 283 283 282 279 278 277 277 276 276 277 278 279 280 279 279 278 278 279 279 279 279 279 280 280 280 280 280 280 280 282 283 282 281 280 282 283 283 282 280 280 279 278 277 277 276 276 278 281 283 283 284 284 283 283 282 281 280 281 281 278
282 281 281 282 281 278 277 277 277 276 277 277 279 280 280 279 279 279 279 280 279 280 280 280 280 280 280 280 280 280 279 279 281 283 283 283 283 283 283 283 282 282 281 279 276 278 281 280 281 283 283 284 284 284 283 283 283 282 282 282 278 275
282 281 281 282 279 278 276 276 277 277 277 278 279 279 280 280 280 279 280 280 280 281 281 280 280 280 279 279 279 279 279 279 278 280 283 284 283 283 283 283 283 283 282 281 280 278 279 281 282 283 283 283 284 284 284 284 284 284 283 282 280 274
283 282 281 279 278 277 276 276 277 277 277 278 278 278 279 280 280 280 281 281 282 282 281 280 279 279 279 278 278 278 279 278 278 278 278 282 284 284 284 284 284 283 283 282 282 282 281 281 283 283 283 283 283 284 284 284 284 284 284 282 276 272
281 280 279 278 277 276 276 276 277 276 277 277 279 279 280 281 282 283 282 282 282 281 281 280 280 279 279 279 279 278 278 278 278 278 278 278 279 280 282 283 283 283 283 283 282 282 282 283 283 283 283 283 283 283 283 283 282 283 283 279 273 273
280 279 278 277 276 275 276 277 277 275 274 278 280 281 281 282 282 283 280 279 279 281 280 280 279 279 279 278 278 277 277 277 277 277 277 277 277 277 277 277 279 282 282 281 282 283 283 283 283 283 282 282 282 282 282 282 279 278 278 276 271 271
279 278 276 274 274 274 275 275 274 272 271 274 280 282 282 282 282 281 280 280 280 280 279 279 279 279 278 277 277 276 276 276 276 276 276 276 276 276 276 276 277 278 281 282 282 282 282 282 282 282 282 282 282 282 282 278 277 276 275 273 272 272

ECMWFFLT1_sfc_thetae_078.txt.gz
Theta_e
294 294 295 296 296 295 296 296 297 298 298 299 300 301 302 302 301 300 301 302 304 304 303 302 302 302 302 301 301 300 301 301 301 301 302 300 299 299 299 300 299 299 299 300 300 301 302 302 302 302 303 303 304 303 303 302 301 301 300 299 298 299
293 294 294 295 296 296 296 295 295 297 298 298 299 299 298 298 298 299 300 301 301 302 300 300 301 301 301 300 300 300 301 301 301 300 299 300 299 299 299 299 299 298 297 296 296 297 297 297 298 298 299 298 300 298 297 296 297 297 297 296 294 295
294 293 292 293 292 292 292 294 297 298 297 298 298 299 299 298 299 299 300 299 300 298 299 299 298 298 299 298 299 300 300 300 299 299 299 295 298 297 297 297 297 298 297 296 295 296 296 295 296 295 295 296 296 295 296 295 295 296 295 294 292 292
294 292 290 288 288 291 291 295 294 295 296 298 298 298 299 299 299 299 300 298 299 298 298 297 294 297 297 297 297 298 299 298 297 297 293 295 295 295 296 296 297 297 296 295 295 295 295 295 296 295 294 295 295 295 295 295 294 294 294 293 293 291
292 290 290 292 292 292 291 291 295 296 296 295 295 297 298 299 300 299 297 297 297 297 295 294 295 295 294 295 296 295 296 295 293 292 294 293 291 291 294 295 296 296 296 295 294 294 293 294 294 293 293 294 295 295 294 294 294 294 293 292 292 291
289 288 291 292 291 289 292 293 293 294 294 295 294 296 297 296 297 296 296 295 295 294 293 294 294 292 293 293 294 294 293 292 292 290 292 292 290 291 291 293 295 295 295 295 294 294 293 293 292 292 292 294 294 295 295 293 293 293 294 293 292 291
294 294 294 292 288 289 290 291 292 293 294 293 295 296 296 296 295 295 295 295 295 293 294 293 292 292 292 293 293 293 291 291 290 289 292 291 291 291 290 291 292 293 294 294 294 293 293 293 292 292 291 292 292 293 294 293 293 293 293 293 292 290
295 295 295 294 293 291 291 290 291 292 292 294 294 296 295 295 293 295 296 295 295 295 293 293 292 292 293 293 292 292 291 290 290 291 290 291 292 290 290 292 291 293 293 293 293 293 293 292 292 292 292 292 291 291 292 292 291 292 292 291 291 290
297 296 295 295 294 293 292 291 292 291 291 292 293 294 295 295 294 295 295 295 294 296 294 294 294 294 294 293 292 291 290 291 290 290 291 289 291 291 291 290 291 291 293 293 292 292 292 291 291 291 291 291 291 291 291 290 290 290 290 290 290 289
296 294 295 295 296 295 293 292 292 292 292 293 293 292 293 294 293 294 295 295 295 295 296 295 295 294 294 294 292 291 291 290 290 290 290 289 290 290 291 290 290 290 291 292 292 291 291 290 290 290 290 290 290 290 290 290 290 289 289 288 288 288
295 295 294 295 293 293 293 294 294 291 291 291 292 290 292 293 292 293 294 294 294 296 297 297 294 293 292 290 290 290 290 290 289 288 289 289 290 290 290 290 290 290 290 290 290 290 289 289 289 289 289 289 289 290 290 290 289 289 288 287 287 286
293 293 293 292 292 293 293 294 294 294 293 294 293 291 292 289 291 293 294 294 295 297 297 294 291 290 289 289 290 289 288 288 288 288 288 289 289 289 288 288 288 289 290 289 289 288 288 288 288 288 289 290 289 289 289 289 289 288 288 286 285 285
293 292 292 293 293 293 294 294 294 294 293 293 292 292 291 288 290 291 292 294 295 296 294 292 291 289 289 289 287 287 288 288 288 288 288 288 288 288 287 287 287 287 288 289 289 287 287 287 288 288 290 291 291 289 288 288 287 287 287 286 285 283
292 292 292 293 293 293 293 294 294 293 293 294 293 292 289 288 290 291 292 293 294 294 293 292 290 290 290 289 289 289 289 288 288 288 288 288 287 287 286 286 287 287 287 288 288 287 287 287 287 289 290 291 291 289 288 287 287 286 286 285 284 283
292 292 292 292 293 294 294 293 292 293 294 294 294 289 288 288 289 290 291 292 292 292 291 290 290 290 289 289 289 288 288 288 288 288 287 287 287 285 285 286 286 286 286 287 287 286 286 286 288 289 290 290 291 291 288 286 286 285 285 284 283 282
292 292 291 291 291 292 292 290 290 292 292 291 291 290 290 288 289 289 290 291 291 291 290 289 289 290 290 288 287 287 287 287 288 288 287 286 284 285 285 284 285 285 285 286 286 286 286 286 287 289 290 290 290 291 289 286 285 285 284 283 283 282
290 290 291 291 291 290 289 290 291 290 290 291 291 290 289 288 288 288 289 289 290 289 289 289 289 289 288 287 287 287 287 287 287 286 285 285 285 285 285 285 284 284 284 285 286 286 286 285 287 289 289 290 290 291 289 285 285 284 284 283 282 281
290 289 290 289 288 289 288 289 289 288 290 289 289 289 288 287 287 288 288 288 288 288 288 288 288 288 288 287 286 286 287 286 286 286 284 284 283 284 283 283 284 284 284 284 284 285 284 284 287 288 289 290 290 291 287 285 284 283 282 282 281 281
288 289 287 287 287 287 288 288 287 287 288 289 290 288 288 287 288 288 288 288 288 288 287 287 288 288 287 286 286 286 286 286 285 284 283 283 283 283 283 283 283 284 285 285 284 284 284 284 286 288 289 289 290 290 285 284 283 282 281 281 280 281
288 288 286 286 287 288 287 285 285 285 286 287 288 287 288 287 288 288 288 288 288 287 286 286 287 287 287 286 286 287 286 285 284 284 283 284 283 282 282 282 282 283 284 284 284 284 283 283 284 287 289 289 290 288 284 283 282 281 280 280 280 281
288 286 286 287 287 289 287 285 284 285 286 287 287 286 286 287 288 288 288 288 288 286 286 286 286 287 287 287 287 286 285 284 284 283 282 283 283 283 281 282 282 281 283 284 284 284 283 283 284 287 288 289 290 287 284 283 281 280 279 279 279 281
285 286 287 287 288 288 286 284 284 285 286 286 285 285 286 287 288 288 287 286 286 286 286 286 286 286 287 287 286 284 284 283 281 281 281 281 282 281 281 281 282 282 282 283 283 283 283 283 283 286 289 289 289 288 283 282 281 279 279 279 279 280
286 286 287 287 287 286 285 284 284 286 286 286 285 286 287 287 286 286 286 285 285 285 285 285 285 286 286 285 285 283 281 281 281 280 281 280 280 280 279 280 281 282 282 282 282 282 282 283 283 285 288 289 289 287 284 281 281 280 279 279 279 280
286 286 287 286 285 284 283 282 283 285 285 285 285 286 287 286 285 285 284 284 284 284 283 283 283 283 284 280 280 280 280 278 280 281 281 280 280 280 280 280 281 281 280 280 281 281 281 283 284 284 286 288 288 287 285 282 281 281 279 279 279 280
287 287 287 288 285 283 282 280 283 285 285 285 286 286 285 284 284 283 283 283 282 282 281 281 280 282 279 279 280 280 279 278 279 279 280 279 279 279 280 280 280 280 279 279 280 280 281 282 283 284 285 287 287 286 285 284 282 283 281 279 279 280
287 287 287 287 287 284 281 280 283 284 284 285 286 285 284 283 282 281 281 281 280 279 278 277 276 277 277 278 279 279 279 279 279 279 279 280 279 279 279 280 279 279 278 278 278 280 280 282 283 284 285 285 286 286 285 285 284 284 281 281 280 281
286 286 286 287 287 287 285 280 282 282 283 285 284 284 283 282 281 279 280 280 278 276 274 275 275 275 275 276 279 279 279 278 279 279 278 279 280 280 279 279 279 278 278 278 278 279 280 281 283 283 284 284 285 285 285 285 285 284 283 281 281 282
285 285 285 286 286 286 286 283 279 282 285 285 283 282 281 280 279 279 280 278 275 275 273 274 274 274 274 276 278 280 280 280 280 279 279 279 280 280 279 278 278 278 278 278 278 278 279 281 282 283 283 284 284 284 285 285 284 284 283 282 283 284
285 285 285 285 286 285 285 284 283 282 283 283 283 281 279 278 278 279 279 277 275 273 273 274 275 274 274 274 276 277 279 280 280 280 280 280 280 279 279 279 278 278 278 277 278 278 279 280 281 282 282 283 283 283 284 284 283 284 284 283 283 284
284 284 283 284 285 284 284 283 283 282 282 281 280 278 277 278 279 279 279 277 274 275 274 275 277 276 275 276 278 278 278 278 280 281 281 280 280 279 279 278 278 278 278 277 278 278 279 280 281 281 281 282 282 282 283 283 283 283 283 282 283 284
283 283 283 283 284 283 283 283 283 282 280 280 279 277 277 279 279 279 277 275 274 275 276 275 275 275 276 276 277 277 279 279 280 281 281 282 282 282 281 279 279 279 279 279 278 278 278 279 280 281 284 283 283 283 282 282 282 282 282 283 284 282
282 282 282 283 283 282 282 282 282 281 280 278 277 276 277 278 279 277 278 276 276 275 275 275 275 275 275 275 276 276 276 282 283 282 281 281 283 283 284 283 281 281 280 279 279 280 279 279 281 284 285 284 285 285 284 284 284 283 282 284 284 281
282 281 281 282 283 282 282 282 281 280 278 277 277 276 277 277 278 278 278 277 277 277 277 276 276 276 275 276 276 276 277 277 281 283 283 283 283 283 283 283 283 282 282 280 278 280 282 283 284 285 285 285 285 285 285 284 284 284 284 284 281 278
281 281 281 282 282 281 281 281 281 279 277 276 276 276 277 277 278 279 279 278 277 278 278 276 276 277 277 276 276 278 278 278 278 279 283 283 283 283 283 283 283 283 282 282 280 279 280 283 285 285 285 285 285 285 284 284 285 285 285 283 281 275
280 280 280 280 280 280 280 280 280 279 277 276 275 275 276 277 278 278 278 278 278 278 278 278 277 278 277 277 276 277 278 279 279 278 279 281 283 283 283 283 283 283 283 282 281 281 281 283 284 285 285 285 285 284 284 284 285 285 284 283 278 275
279 279 279 279 279 279 279 278 279 279 277 275 275 275 276 277 278 278 279 278 278 278 278 278 277 278 278 278 277 277 277 279 280 280 279 279 279 281 282 283 283 283 283 283 282 282 282 283 284 285 285 284 284 284 284 284 283 284 284 281 276 274
277 278 278 278 278 278 277 277 278 278 276 275 275 275 276 277 278 278 278 278 278 279 278 278 277 278 279 279 278 278 278 278 279 279 279 279 278 278 278 279 281 283 283 281 282 282 282 283 284 285 285 285 284 284 284 285 282 281 280 278 275 274
275 276 277 277 276 276 276 276 277 275 275 274 274 275 276 278 278 279 279 279 279 279 278 278 278 279 279 279 279 279 279 278 278 278 279 279 278 278 278 278 279 280 282 282 282 282 283 283 284 284 284 284 284 284 284 281 280 279 278 275 274 274

ECMWFFLT1_sfc_thetae_081.txt.gz
Theta_e
292 291 292 292 291 292 292 293 293 293 293 295 295 298 298 298 297 296 297 298 300 301 300 300 301 301 301 301 300 299 300 301 300 300 301 299 297 298 297 297 297 297 298 299 299 299 300 301 302 303 304 304 305 305 305 305 304 304 303 303 303 303
291 292 293 294 294 293 292 293 292 293 295 294 295 296 296 295 296 295 297 297 298 299 297 297 299 300 300 300 300 300 300 301 300 300 298 299 298 298 297 297 297 296 296 296 297 298 299 300 301 301 302 302 303 303 301 300 301 302 301 300 299 301
293 293 291 290 289 289 290 291 293 294 293 294 294 295 296 296 297 296 298 296 297 296 297 298 297 298 298 298 298 299 300 300 298 298 298 293 297 295 296 296 297 297 296 296 296 297 298 298 299 297 298 298 299 298 298 297 297 297 297 296 295 295
293 293 293 290 289 293 293 294 291 293 294 295 294 294 296 296 297 296 297 296 297 296 297 296 295 297 296 296 297 297 298 297 296 296 292 295 296 294 296 296 296 294 294 295 295 295 295 297 299 296 294 295 295 296 298 298 296 296 296 295 295 294
291 291 291 291 289 290 290 291 293 294 294 293 292 292 296 296 297 296 295 295 295 295 294 293 294 294 293 294 295 295 295 295 292 292 294 295 293 291 294 294 293 294 293 294 293 294 294 295 295 294 293 294 295 295 295 296 295 296 296 295 295 295
289 287 290 291 290 288 291 292 291 292 292 292 291 292 294 294 295 293 293 293 293 292 291 293 293 291 292 293 295 294 294 294 293 292 293 294 292 292 291 291 293 293 293 293 293 292 293 293 293 293 293 294 294 294 295 295 294 294 295 295 295 294
290 292 292 291 290 288 288 289 290 289 290 290 291 293 293 293 292 291 292 291 293 292 292 292 291 291 292 293 293 293 294 293 293 292 293 293 292 292 290 290 290 292 292 293 293 293 292 292 293 293 293 292 292 294 294 295 294 294 294 294 295 293
295 296 295 295 294 293 292 291 289 289 289 290 290 291 292 292 289 290 291 291 291 293 291 292 291 292 293 293 293 293 292 291 290 291 291 292 293 292 290 291 290 291 292 292 292 292 292 292 292 293 293 293 291 292 293 293 293 293 293 293 293 293
294 293 294 294 293 292 292 291 291 290 289 290 290 289 290 290 288 289 290 291 290 293 293 293 293 293 292 292 292 290 290 290 289 290 291 289 290 291 291 290 290 289 290 291 291 291 291 291 292 292 293 292 291 292 292 292 292 292 292 292 292 292
292 293 293 292 293 292 293 292 291 290 290 291 291 289 288 289 288 289 290 289 291 292 294 294 292 291 292 291 290 290 290 289 289 289 288 287 289 290 291 291 291 290 289 290 290 290 290 290 291 292 292 291 290 290 291 291 291 291 291 290 291 290
292 292 292 292 291 292 292 292 293 293 293 292 292 290 290 288 288 289 289 289 290 293 294 294 291 290 289 289 290 290 290 289 289 288 288 289 289 290 290 291 290 290 290 289 289 289 289 290 291 292 292 291 291 291 291 291 291 290 290 290 290 289
290 290 290 291 291 291 292 292 293 293 292 292 292 292 291 288 288 288 289 289 291 292 292 291 290 290 289 289 290 290 289 289 288 287 288 289 289 289 289 289 289 290 290 290 289 289 289 290 291 290 291 292 291 291 291 291 290 290 289 289 288 288
288 289 290 291 291 291 291 292 292 291 291 292 292 292 291 289 289 288 288 290 291 290 290 290 290 289 290 290 289 288 288 288 287 287 288 288 288 288 288 288 288 288 289 289 289 288 288 289 289 290 292 293 293 291 290 290 290 289 289 289 288 288
289 290 290 290 290 290 290 290 290 289 290 291 291 291 289 289 288 289 289 289 289 289 290 289 289 289 289 288 289 288 288 287 286 287 287 287 287 287 287 287 288 288 288 288 288 288 288 288 289 291 292 292 293 292 289 289 289 288 289 289 288 288
289 288 289 289 290 289 289 288 287 288 289 289 289 288 288 289 288 288 289 289 288 289 288 288 288 289 288 289 288 288 287 287 287 287 287 287 288 285 286 287 287 288 287 287 288 288 288 288 290 291 292 292 292 293 291 289 288 288 288 288 288 287
289 289 288 288 288 287 287 286 287 288 288 287 287 287 288 288 289 288 288 288 288 288 288 287 287 288 288 288 287 286 286 286 287 288 287 287 286 287 287 286 287 287 287 287 287 288 287 287 289 291 291 291 291 292 292 288 287 287 287 287 287 286
288 288 289 289 288 287 287 288 287 287 287 287 287 287 287 287 287 287 287 287 287 287 287 287 287 287 288 287 287 286 287 287 287 287 287 287 287 287 287 287 286 287 286 286 286 286 286 287 289 290 291 291 291 292 291 288 287 286 286 286 286 285
287 287 288 288 287 287 287 287 287 286 286 286 286 287 287 287 287 288 288 288 288 287 287 286 287 287 287 287 286 286 287 287 287 287 287 286 286 286 285 286 285 286 286 285 285 285 285 286 289 290 290 291 291 291 289 287 286 286 285 285 284 284
286 287 286 286 286 286 287 287 286 285 285 286 287 286 287 287 287 287 288 287 288 287 287 286 286 287 287 286 286 287 287 287 287 287 285 285 286 285 285 285 285 285 285 284 284 284 285 284 287 289 289 290 291 290 288 286 286 285 285 284 283 283
286 286 284 285 286 286 286 285 285 284 285 286 286 286 286 286 287 287 287 287 287 287 287 286 286 286 287 286 286 287 287 287 286 286 285 286 286 285 285 284 284 283 283 284 284 284 284 284 285 288 289 290 290 289 287 286 285 284 284 283 282 282
286 286 286 286 287 288 287 285 284 284 285 285 286 285 285 286 287 287 287 287 287 286 286 285 285 285 285 286 287 287 287 287 287 285 281 284 284 285 283 282 283 282 281 282 283 284 284 283 284 287 288 289 290 289 286 286 285 283 282 281 281 281
285 287 287 287 287 287 286 285 285 284 284 285 285 285 286 286 287 287 286 286 286 285 285 285 285 285 285 286 286 286 286 285 283 283 282 282 282 283 281 280 281 281 281 280 281 282 283 282 283 285 288 289 289 290 287 285 283 282 281 280 280 280
284 285 285 286 286 286 285 284 284 284 285 284 284 285 286 286 286 285 285 285 285 285 285 285 284 284 285 284 285 285 284 282 283 281 280 281 280 279 279 279 280 280 280 279 279 279 280 282 283 285 287 288 289 290 288 284 283 283 281 280 280 280
283 284 284 285 286 285 284 282 282 283 283 283 284 285 286 285 285 285 284 284 284 284 284 284 284 282 283 283 282 282 283 279 279 280 280 278 277 279 279 277 278 279 279 277 277 278 280 283 284 284 285 287 288 289 289 284 283 282 281 280 280 280
284 284 285 285 284 284 283 280 281 283 283 283 284 285 285 284 284 283 283 283 283 283 283 283 282 282 281 281 280 280 281 278 276 276 277 277 277 278 278 277 277 276 277 275 276 277 280 282 283 284 284 286 288 289 288 287 284 284 282 280 279 280
283 283 284 284 284 284 283 281 282 283 282 283 285 285 285 284 283 282 282 281 281 282 282 281 280 279 278 278 279 277 279 278 275 275 277 277 278 278 278 277 277 276 276 276 276 278 279 281 282 283 284 285 287 289 288 287 285 285 281 281 280 281
283 283 283 283 284 284 283 280 281 281 281 283 283 283 283 283 282 281 281 281 281 281 280 279 278 277 277 276 276 278 278 277 274 277 276 277 277 278 278 277 277 277 277 277 277 278 279 280 282 282 284 285 286 288 288 287 286 285 284 281 281 282
281 280 281 282 280 283 283 281 278 280 282 282 282 282 281 280 279 279 280 280 281 280 279 277 278 277 276 275 275 277 278 279 278 279 277 277 278 278 278 277 277 277 277 277 278 279 280 280 281 282 283 284 285 286 286 286 285 284 284 282 282 283
281 281 281 281 281 279 282 282 282 281 282 282 282 281 280 279 278 278 279 280 280 280 278 277 278 278 277 274 275 276 277 278 278 278 279 278 278 277 277 278 277 278 278 279 279 279 279 280 281 281 282 283 284 284 284 284 284 284 283 282 282 283
279 279 280 280 281 281 281 281 281 281 281 281 281 280 278 278 278 278 279 279 279 279 278 277 278 278 278 276 276 277 277 277 278 278 279 279 279 278 278 278 278 279 279 280 280 279 279 279 280 281 282 283 283 283 283 283 282 282 281 281 282 283
278 278 279 279 280 280 280 280 280 281 281 281 280 279 277 278 278 278 278 279 278 278 277 277 277 277 277 277 276 276 278 279 278 279 279 279 280 281 281 280 281 281 281 281 280 279 279 279 280 281 284 283 284 283 282 281 281 281 281 282 283 283
277 277 278 278 279 279 279 279 279 279 279 279 279 277 276 277 277 277 278 279 279 278 278 277 277 276 276 276 276 276 276 279 281 280 279 279 282 283 284 284 282 282 282 281 281 281 280 280 281 284 285 284 284 284 284 283 283 283 282 283 285 283
276 276 275 276 277 277 277 278 278 278 279 279 278 276 276 275 276 277 278 278 278 279 278 278 277 277 276 275 275 275 276 276 278 283 284 283 282 283 284 284 285 284 283 282 280 282 283 283 284 285 285 285 285 285 284 284 284 284 284 285 283 282
272 272 272 273 274 274 276 276 277 277 278 278 277 276 276 275 275 276 277 278 278 279 278 278 277 277 276 276 275 275 276 276 277 277 282 284 284 284 284 284 284 284 284 283 282 281 281 283 284 285 285 285 285 284 284 284 285 284 285 285 285 280
269 270 270 271 271 273 274 275 276 276 276 277 277 276 275 275 275 275 276 277 278 278 278 278 277 277 276 276 276 275 276 276 276 277 277 279 283 284 284 284 284 284 283 283 283 283 282 283 284 285 285 285 284 284 284 284 285 285 285 285 282 279
267 268 268 269 271 273 274 274 275 276 276 276 276 275 274 274 275 275 276 277 277 278 278 278 278 278 278 278 277 277 277 277 278 277 278 278 279 280 282 284 284 284 284 284 283 283 283 283 284 285 285 284 284 284 284 284 284 285 286 284 280 279
266 267 269 271 272 274 274 274 274 275 275 275 275 274 273 274 274 275 275 276 277 278 278 279 280 279 279 279 278 278 278 278 278 279 279 279 279 278 278 279 281 283 284 282 283 283 283 283 284 285 285 285 285 285 285 284 283 282 282 281 279 278
266 268 270 272 273 273 271 271 273 274 274 274 273 272 272 273 273 274 275 276 277 279 279 280 280 280 280 280 280 279 279 279 279 279 279 280 280 279 279 279 280 281 282 283 282 283 283 283 284 285 285 285 285 285 285 281 280 280 279 278 277 276

ECMWFFLT1_sfc_thetae_084.txt.gz
Theta_e
292 291 292 292 291 291 290 292 292 292 292 292 292 294 294 294 293 292 293 294 297 298 298 298 298 298 299 300 299 298 300 300 300 300 301 298 297 297 297 297 296 296 296 297 298 298 299 299 299 299 302 304 305 305 305 306 305 305 305 305 305 305
291 290 291 292 293 293 293 292 292 294 293 293 293 293 292 292 292 292 294 294 294 296 295 295 296 298 298 299 298 299 299 300 300 299 297 299 298 298 296 296 296 295 295 295 296 297 296 297 297 297 299 301 303 303 303 303 303 304 304 304 303 303
291 291 289 289 289 288 289 290 292 292 292 293 292 293 294 294 293 292 294 293 294 293 294 295 294 295 296 296 297 298 299 299 298 299 299 293 296 295 295 295 296 296 296 295 295 296 297 297 297 297 298 299 301 301 302 300 300 300 300 299 298 298
292 293 291 289 289 292 292 292 292 293 294 293 292 292 293 293 294 292 293 292 293 293 294 294 291 294 292 294 295 295 296 296 295 295 291 294 296 294 296 296 296 295 295 294 295 295 295 295 297 296 297 298 298 298 299 299 296 296 296 295 296 296
289 288 288 289 288 289 288 289 291 292 292 292 291 291 293 293 293 293 291 292 291 292 291 290 290 289 289 291 293 293 294 294 291 290 293 294 292 289 292 293 292 292 292 293 293 294 294 295 294 294 295 296 296 296 296 297 296 296 296 295 296 296
286 290 291 292 292 291 291 290 290 290 290 290 290 290 291 292 292 291 291 290 290 289 288 289 289 288 288 289 291 291 291 291 290 288 290 292 289 290 289 289 291 290 291 292 293 293 294 294 293 293 294 296 295 295 295 295 295 295 295 295 296 295
287 289 289 290 289 289 289 289 289 289 289 288 289 289 289 290 289 289 290 288 290 290 289 289 287 287 288 289 289 290 290 289 289 288 290 289 290 290 289 289 289 290 291 293 293 294 294 294 294 294 294 293 293 294 295 294 294 294 294 294 295 293
289 288 288 289 288 288 288 288 288 288 287 288 287 288 289 290 288 288 288 288 288 290 289 289 288 288 288 289 289 290 289 289 288 289 288 288 291 290 289 290 289 290 292 293 294 294 294 294 293 294 294 293 292 292 292 292 293 293 294 293 293 294
289 289 289 289 289 288 288 288 288 287 288 289 289 288 288 288 288 289 288 288 287 289 290 289 289 289 288 288 289 289 289 289 288 288 289 288 289 289 290 289 290 289 290 292 293 293 294 294 293 293 292 292 292 292 291 291 291 292 292 293 293 293
290 289 288 288 289 289 290 289 289 288 288 289 289 289 288 289 288 289 289 288 288 289 290 290 289 289 289 289 288 288 288 288 288 288 288 287 288 289 289 290 290 290 289 290 291 292 291 292 292 292 292 291 291 291 290 290 290 291 291 291 292 292
288 289 289 289 289 289 289 290 290 290 289 289 289 288 288 287 287 288 288 288 288 289 289 289 289 289 288 288 288 288 288 288 288 287 287 287 287 288 288 289 289 289 290 290 289 290 289 290 291 291 291 290 290 290 290 289 289 290 290 291 291 290
287 287 288 288 288 288 288 289 289 288 288 288 288 288 288 287 287 287 288 288 289 288 288 288 287 288 287 288 288 289 288 288 287 287 287 287 287 287 287 287 288 288 289 290 290 290 290 290 291 290 292 292 290 289 289 289 289 289 290 290 290 290
287 287 288 288 287 287 288 288 287 287 287 288 288 287 287 286 287 287 287 288 288 287 287 287 287 287 288 288 287 287 288 288 287 287 287 287 287 287 287 286 288 288 289 290 290 290 290 290 290 291 293 294 294 291 289 289 289 289 289 289 289 289
286 286 286 286 287 287 287 287 287 287 288 287 287 287 286 286 286 287 287 287 287 287 287 287 287 287 287 287 287 287 287 286 286 286 287 286 286 286 285 286 288 289 289 289 289 289 290 290 290 292 293 294 294 293 289 288 289 289 289 290 290 290
284 285 285 285 286 286 286 285 285 287 287 286 287 286 286 286 286 286 287 287 287 287 286 286 286 286 286 287 287 286 286 286 286 286 286 287 287 284 286 287 287 288 288 288 289 289 290 290 291 293 293 293 294 294 292 289 289 289 289 289 289 289
285 285 284 284 285 285 285 284 284 286 286 285 285 285 286 286 286 286 286 286 287 286 286 286 286 286 286 286 286 286 286 286 286 286 285 286 285 285 286 285 286 287 287 287 288 288 289 289 290 292 293 293 293 293 293 290 289 288 289 289 289 289
284 285 286 286 285 284 284 284 284 285 284 284 285 285 285 285 285 286 286 286 286 286 286 286 286 286 286 286 286 286 286 286 286 286 286 286 286 286 287 287 287 287 286 286 286 287 288 288 290 291 292 292 293 293 293 289 288 288 288 288 288 288
285 285 285 285 284 285 284 285 285 285 285 284 284 285 285 285 285 286 286 286 286 286 285 285 285 285 285 285 285 285 286 286 286 286 287 286 286 285 284 285 285 286 286 286 286 286 287 287 290 290 291 292 293 293 290 288 288 287 287 287 287 287
284 285 284 285 284 284 285 285 284 284 284 285 285 285 285 285 285 286 286 286 286 285 285 285 284 284 284 284 285 285 285 286 286 286 285 285 286 286 286 286 286 286 286 285 285 285 286 286 287 290 290 291 292 291 288 287 287 287 287 287 286 286
283 283 283 284 284 284 284 284 284 283 284 284 284 284 284 285 285 285 285 285 285 285 284 284 284 284 284 284 284 285 285 285 285 285 285 285 286 286 286 286 285 285 284 284 285 285 285 286 285 288 289 290 291 290 287 287 287 286 286 286 286 285
283 283 283 283 284 285 283 282 282 283 283 284 284 283 284 284 285 285 284 284 284 284 284 283 283 283 283 283 284 284 284 285 285 285 284 284 284 284 284 284 284 284 283 283 283 284 284 284 285 287 289 290 290 289 286 286 286 286 286 285 284 284
284 285 285 285 285 285 284 283 283 283 283 284 283 283 284 284 284 284 284 284 284 284 283 283 282 283 282 282 283 283 284 284 283 284 284 284 283 283 283 281 282 282 283 282 281 281 282 283 283 283 288 289 289 290 287 286 286 286 285 285 284 282
282 283 283 284 284 284 284 284 283 283 283 283 283 283 284 284 284 284 284 283 283 283 283 283 282 282 282 282 282 282 282 282 282 283 282 282 282 281 281 280 281 281 281 281 280 280 280 281 281 282 286 288 289 290 289 286 286 286 286 284 283 283
282 282 283 284 285 284 284 283 282 282 282 282 282 283 283 283 283 283 283 282 282 282 282 282 282 281 281 281 280 280 281 281 280 280 280 280 279 280 280 280 279 280 280 280 278 278 279 280 281 281 284 287 288 289 290 287 286 286 286 284 283 282
282 282 282 283 283 283 282 279 279 281 281 281 282 283 283 282 282 282 281 281 280 280 281 281 281 281 281 280 280 279 279 280 280 280 278 277 278 279 279 280 279 278 279 279 278 277 277 278 280 283 282 285 287 288 289 289 288 288 286 284 282 282
280 281 281 281 280 279 279 277 278 279 279 280 282 282 282 281 281 280 280 279 279 280 280 280 280 280 279 278 278 278 278 279 280 279 278 277 278 278 279 280 278 278 278 279 279 278 276 277 278 280 283 283 285 287 288 289 289 289 285 284 283 282
279 279 279 279 279 279 277 276 276 277 277 280 280 280 280 280 280 279 278 278 279 279 280 280 280 279 279 278 276 277 279 279 279 279 280 275 277 277 278 279 279 278 279 279 279 279 277 277 277 277 280 283 284 286 287 288 289 289 288 284 282 282
274 274 276 277 277 278 276 276 275 277 279 279 279 279 279 279 278 278 278 278 278 279 279 278 279 279 279 278 276 276 277 277 278 278 279 278 277 277 277 278 279 278 278 278 278 278 278 277 277 278 280 282 283 284 285 287 288 287 286 284 282 283
275 275 275 275 276 277 277 276 277 277 278 278 278 278 278 277 276 277 277 277 278 278 278 278 278 279 279 278 277 276 276 276 277 277 278 278 278 278 278 278 278 278 278 278 279 278 278 278 278 279 281 282 283 283 284 285 286 286 285 283 282 283
273 274 274 274 275 276 275 275 275 276 276 277 277 277 277 276 276 276 276 276 276 277 277 278 278 278 278 279 278 278 278 277 276 276 278 279 279 279 279 279 279 279 279 279 279 279 279 279 279 279 280 282 283 283 284 285 284 284 283 281 282 282
272 272 272 272 273 273 272 272 273 274 275 276 276 276 275 275 276 276 275 275 276 276 277 277 277 278 278 278 278 278 278 277 278 278 279 280 279 279 280 280 280 281 279 279 279 280 281 282 281 281 284 283 284 284 283 283 283 283 282 282 283 282
270 269 269 270 270 270 270 270 271 273 274 275 276 275 275 275 275 274 274 275 275 276 276 277 277 277 277 277 277 277 278 279 281 280 279 279 281 282 283 284 281 281 279 280 281 282 282 282 283 285 285 285 285 285 285 285 284 284 282 283 284 283
268 267 267 267 268 267 268 269 271 273 275 276 276 275 274 274 274 274 274 275 274 275 275 276 276 277 277 277 277 277 277 278 279 283 284 283 282 283 284 284 285 285 285 284 282 283 285 285 285 285 285 285 285 285 285 285 285 285 284 284 283 281
265 265 265 266 266 267 268 270 272 274 275 275 274 274 274 274 273 273 273 273 274 274 275 275 276 276 277 277 278 278 278 278 278 279 282 284 284 284 284 285 285 285 285 285 285 283 282 283 284 284 285 285 285 285 285 285 285 285 284 285 285 280
264 264 264 265 265 267 269 271 273 274 273 272 273 274 273 273 273 272 272 273 273 274 274 275 275 276 277 277 278 278 279 278 278 278 279 281 284 285 284 285 285 285 285 285 285 285 285 284 283 284 284 285 285 285 285 285 285 285 285 285 282 280
262 263 263 264 266 268 270 271 270 269 270 272 273 273 273 273 272 272 272 272 272 272 273 274 275 276 277 278 278 279 279 279 279 279 279 279 280 281 283 285 285 284 284 285 285 285 285 284 284 284 284 285 285 285 285 285 284 285 285 284 281 280
261 262 264 266 268 269 267 266 267 269 271 272 272 272 272 271 271 271 271 272 272 272 273 274 275 276 277 278 278 279 279 279 280 280 279 279 279 279 279 280 281 283 284 283 283 284 284 284 284 284 284 285 285 285 285 285 283 281 282 282 281 280
262 263 265 267 265 263 263 264 267 269 270 270 271 271 270 269 269 269 269 269 270 271 272 273 273 274 275 276 277 278 279 280 280 279 279 280 280 280 279 280 281 281 282 284 284 284 284 284 284 284 284 284 285 285 285 281 280 280 280 280 280 279

ECMWFFLT1_sfc_thetae_087.txt.gz
Theta_e
294 293 294 294 294 294 293 293 294 294 294 294 294 296 295 295 295 295 295 295 297 298 299 299 299 300 301 302 302 302 303 304 304 304 305 305 304 303 303 303 303 302 302 303 304 305 306 307 307 307 307 308 309 309 309 309 308 308 308 309 308 308
292 292 292 293 293 293 293 293 295 295 294 294 294 295 295 295 295 295 296 296 296 297 296 296 297 298 299 300 300 301 301 302 303 303 302 303 303 302 302 301 301 301 301 301 301 302 302 302 304 304 304 305 306 306 306 307 306 306 306 307 307 307
292 292 291 291 291 292 293 293 293 294 294 294 293 294 294 295 295 294 295 295 295 294 295 296 296 296 297 297 298 299 300 301 301 301 302 298 300 299 299 300 300 300 300 300 300 300 300 301 301 301 301 302 302 303 304 304 303 304 305 304 304 304
291 291 292 291 293 293 292 292 293 293 293 293 293 293 294 294 294 294 293 293 293 293 294 294 294 294 294 295 296 296 297 297 298 298 295 297 299 297 299 299 299 299 299 299 299 299 299 299 300 300 299 300 300 301 302 302 302 301 301 300 300 300
290 290 290 290 290 290 290 291 292 292 292 292 292 292 292 293 293 293 292 292 292 292 291 291 291 291 291 292 294 294 295 295 295 294 295 297 297 295 296 298 297 297 296 296 297 297 297 298 298 298 298 299 299 300 300 301 300 300 299 298 298 299
290 291 291 291 290 290 290 291 291 291 291 291 291 291 291 291 291 291 291 291 291 291 290 291 290 290 290 290 292 292 293 293 293 292 293 295 294 294 294 293 294 294 294 294 295 295 296 296 296 295 296 298 298 298 299 298 298 299 299 298 298 298
290 290 290 289 289 289 290 290 290 290 290 290 290 290 290 290 290 290 290 290 290 291 291 291 291 291 291 291 291 291 291 291 291 291 291 292 292 293 293 293 292 292 293 294 295 295 295 295 295 295 295 296 296 297 297 297 297 297 297 297 297 294
289 289 289 290 289 289 289 289 289 289 289 289 289 289 289 290 289 289 290 290 290 291 291 291 291 291 291 291 291 291 291 291 291 291 291 290 292 292 291 292 292 292 292 293 294 294 295 295 295 295 295 295 295 294 294 295 295 296 296 296 296 296
289 289 288 288 288 288 289 289 289 289 289 289 289 289 288 289 288 289 289 289 289 290 291 291 291 290 290 290 290 290 290 290 290 290 291 291 290 290 291 291 291 292 291 292 292 293 294 294 294 294 294 295 295 294 294 294 294 294 295 295 295 295
288 286 286 287 288 288 288 289 289 289 288 288 288 288 288 288 288 289 289 289 290 290 290 290 290 290 290 290 290 290 290 290 290 290 290 289 290 290 290 291 291 292 291 291 292 292 292 292 293 293 294 294 294 294 293 293 293 293 293 294 294 294
287 287 287 287 287 287 288 288 288 288 288 288 288 288 288 287 287 288 288 289 289 289 289 289 290 290 289 289 290 290 290 290 290 289 289 289 289 289 290 290 290 290 291 291 291 291 291 292 292 293 293 293 293 293 293 293 293 293 293 293 293 293
287 287 287 287 287 287 287 287 287 287 287 287 287 287 288 287 287 287 288 288 289 289 289 289 289 289 289 289 289 289 289 289 289 289 289 289 289 289 289 289 289 289 290 290 290 291 291 291 293 291 291 292 293 293 293 293 292 292 292 292 292 292
286 287 287 287 287 286 286 287 286 287 287 287 287 287 287 286 287 287 287 288 288 288 288 288 288 288 288 288 288 288 288 288 288 288 288 288 289 289 289 288 289 289 289 289 290 290 291 292 292 291 293 294 294 293 292 292 292 291 291 291 291 291
287 287 286 286 286 286 286 286 286 287 287 286 286 286 286 286 286 287 287 287 287 287 287 287 287 287 287 287 287 287 287 287 287 287 288 288 288 289 288 288 289 289 289 290 290 290 290 291 290 292 293 293 294 293 293 292 292 292 292 291 291 292
286 286 286 286 286 286 286 285 285 286 286 286 286 285 285 286 286 286 287 287 287 287 287 286 286 286 286 287 286 286 286 286 286 287 287 287 287 287 287 288 288 288 289 289 289 289 290 290 291 292 293 293 293 294 293 293 292 292 291 291 291 291
286 286 286 286 286 285 285 285 285 286 285 285 285 285 286 285 286 286 286 286 286 286 286 286 286 286 286 286 286 286 286 285 286 286 287 286 287 287 287 287 287 288 288 288 288 289 289 289 290 291 292 292 293 293 293 293 293 292 292 292 292 292
286 285 285 286 285 285 285 285 285 285 285 285 285 285 285 285 285 286 286 286 286 286 286 285 285 285 285 285 285 285 285 286 286 286 286 287 287 286 287 287 287 288 287 288 288 288 288 289 290 291 291 292 292 293 293 293 291 291 291 291 291 291
286 286 286 285 284 284 284 285 285 284 284 284 284 284 284 284 285 285 285 285 285 285 285 285 284 284 285 285 284 284 285 285 285 285 286 286 286 286 286 286 286 286 286 287 287 287 287 289 290 290 291 291 292 293 291 290 290 290 290 290 290 290
285 285 285 284 284 284 285 284 284 283 283 284 284 284 284 284 285 284 284 284 284 284 284 284 284 283 283 283 283 283 284 284 284 285 285 285 286 286 286 286 286 286 286 286 286 286 286 287 288 289 290 291 291 291 290 289 289 289 289 290 290 290
284 284 284 284 284 284 284 283 283 283 283 283 283 283 283 284 284 284 284 284 284 284 284 283 283 282 282 282 282 282 283 284 284 284 284 284 284 284 285 285 285 286 285 285 285 285 285 286 286 288 289 290 290 290 288 289 288 288 288 288 289 289
284 284 283 284 283 284 283 283 283 283 283 283 283 283 283 283 283 283 283 283 283 283 283 282 282 281 281 281 282 282 282 282 282 283 283 283 283 283 284 284 284 284 284 284 284 284 284 285 285 287 288 289 290 289 288 288 288 287 287 288 288 288
284 284 283 283 283 283 283 283 283 282 283 282 283 282 282 283 282 283 283 283 282 282 282 281 281 281 280 280 281 281 281 282 281 282 282 282 283 283 283 283 282 282 283 283 282 283 283 283 284 284 286 288 289 289 288 288 287 286 287 287 287 288
283 282 282 282 283 282 282 282 282 282 282 281 281 281 282 282 282 282 282 282 281 281 281 281 280 280 280 280 280 280 280 280 281 281 281 281 281 281 281 281 281 281 282 283 282 281 281 281 282 283 285 286 287 289 289 287 287 287 287 287 287 287
282 282 282 282 282 281 281 280 280 281 281 280 280 281 281 281 281 281 281 280 280 280 279 279 279 279 279 280 279 279 279 280 279 279 279 280 280 279 279 280 281 281 282 283 282 281 280 281 281 281 283 285 286 287 288 287 286 287 287 286 286 287
281 281 281 281 280 280 280 277 277 278 278 278 279 280 280 280 280 280 279 279 278 278 278 278 278 279 279 279 279 278 278 279 279 279 279 278 279 279 279 280 280 280 281 282 283 282 281 280 280 282 282 283 285 286 287 288 287 288 287 286 286 286
279 279 280 279 279 278 277 276 276 276 276 277 279 279 279 278 278 278 277 277 277 277 277 278 278 278 278 278 278 277 277 278 278 279 279 278 278 279 279 280 281 280 280 281 282 283 282 280 280 281 282 282 284 285 286 287 288 288 287 287 286 287
277 277 276 277 276 276 275 274 274 274 273 276 277 276 276 276 276 276 276 276 276 276 276 277 277 277 277 277 277 277 278 278 278 278 279 278 278 278 279 280 280 280 280 280 281 282 283 282 280 280 281 282 282 284 286 286 287 287 288 287 287 287
272 272 273 274 274 274 273 272 272 271 272 274 275 275 275 275 275 275 275 275 275 275 275 275 276 277 277 277 278 277 277 277 277 278 278 279 279 278 278 279 280 280 280 280 281 281 282 282 281 280 280 281 282 282 284 285 285 285 286 286 286 286
271 270 270 270 271 271 271 269 270 270 271 272 274 275 276 276 275 274 274 274 275 275 275 275 275 276 277 277 277 278 278 278 277 277 277 278 278 278 279 279 279 280 280 280 281 281 282 282 282 281 280 280 281 282 283 283 284 284 284 285 285 286
268 268 268 268 269 269 268 268 268 269 271 272 274 275 276 274 274 273 273 273 274 275 275 275 275 275 275 276 276 276 277 278 278 277 277 278 278 278 278 279 279 280 280 280 281 281 281 281 282 282 281 281 281 282 283 283 284 284 285 285 285 285
266 266 266 266 267 267 266 266 267 269 271 273 275 275 273 272 272 273 273 273 274 274 275 274 274 274 275 275 275 276 277 277 278 278 279 279 280 279 279 279 279 280 280 280 280 280 280 281 281 282 284 283 284 283 283 283 284 284 285 285 286 284
264 264 264 265 266 265 265 266 268 270 272 274 273 271 270 271 272 272 272 273 273 273 273 273 273 274 274 274 274 275 276 278 280 280 280 279 281 283 283 283 281 282 282 281 282 282 281 281 282 285 286 286 286 286 286 286 286 286 285 285 286 284
263 262 262 263 264 264 265 267 269 271 272 270 269 269 270 272 271 271 271 272 272 272 272 272 272 272 273 273 274 274 275 276 278 281 282 282 282 283 283 284 284 285 285 284 283 284 285 285 286 286 286 286 286 286 286 286 286 286 286 286 285 283
261 261 261 262 262 263 265 267 269 270 267 267 268 270 271 272 271 270 271 271 271 271 271 271 271 271 272 272 273 274 274 274 275 276 280 281 282 283 283 284 284 285 285 285 285 284 284 285 286 286 286 286 286 285 285 286 286 286 286 286 286 281
261 261 261 262 263 264 267 268 266 265 265 266 268 269 269 269 270 270 270 270 270 270 270 270 270 270 271 271 271 272 272 273 273 274 275 278 281 282 283 283 284 284 285 285 286 286 285 285 286 286 286 286 286 286 285 285 286 286 286 286 284 281
260 260 261 261 264 266 264 262 262 263 265 267 267 267 267 269 269 269 268 268 268 268 269 269 269 269 270 270 271 272 272 273 273 274 275 275 276 278 280 283 284 284 284 285 285 286 286 286 286 285 285 285 285 285 285 285 285 286 286 286 283 282
259 259 261 264 263 261 260 260 262 263 264 265 265 266 267 267 266 266 267 268 268 267 267 268 268 269 269 270 270 271 271 272 273 274 275 275 275 276 276 277 280 282 284 283 284 285 285 285 285 286 285 285 285 285 285 285 283 282 283 284 283 282
259 259 261 261 260 259 259 260 262 263 263 263 265 266 265 264 264 264 264 264 265 265 265 266 266 267 268 269 269 271 272 273 273 273 274 275 276 276 277 278 279 281 282 283 284 284 285 285 285 285 285 285 285 285 285 282 281 281 281 281 282 281

ECMWFFLT1_sfc_thetae_090.txt.gz
Theta_e
302 302 301 301 301 301 301 302 302 303 302 302 303 302 302 302 303 303 304 304 305 305 305 305 306 307 307 308 309 309 309 310 311 311 312 312 312 312 312 312 312 312 312 312 312 312 313 313 313 314 314 314 313 313 313 314 315 314 313 314 314 313
300 300 300 300 300 300 301 302 302 301 302 301 302 302 303 302 302 302 302 303 303 304 305 305 305 305 305 306 307 307 308 309 309 310 310 311 311 310 310 310 310 310 310 311 311 310 310 309 310 310 310 310 310 310 310 311 311 310 310 311 312 312
300 299 299 300 301 301 301 301 301 301 301 300 301 301 301 301 301 301 301 302 302 303 303 303 304 304 304 305 305 305 306 307 307 307 307 307 307 308 308 308 308 309 309 309 309 309 309 309 308 308 308 307 307 308 308 308 308 308 308 308 308 310
299 300 300 300 300 300 299 300 300 300 299 299 300 300 299 299 299 299 300 301 302 301 301 301 302 302 303 303 304 304 304 304 304 304 304 304 305 306 305 306 306 306 307 306 307 307 308 307 307 307 306 305 305 305 306 306 306 305 306 306 306 306
298 298 298 299 298 299 299 299 299 299 298 298 299 298 298 298 298 299 299 300 300 300 300 300 300 300 300 301 302 302 302 302 302 303 302 303 304 304 304 304 304 304 304 304 304 304 305 305 305 305 304 304 303 303 303 304 304 303 303 303 303 304
299 299 299 299 299 298 298 298 298 298 298 298 298 297 297 297 297 298 298 299 299 299 299 299 299 299 299 299 300 299 300 300 300 300 300 301 302 301 302 302 302 301 301 301 301 301 301 300 300 301 301 301 302 301 301 302 302 302 302 302 302 302
298 298 298 297 297 298 297 297 297 297 297 297 296 297 297 297 297 297 298 298 298 298 298 298 298 297 297 297 298 298 298 298 298 299 299 299 300 301 300 301 300 299 299 298 299 299 299 299 299 299 299 300 300 300 300 300 300 300 300 301 301 297
297 297 297 297 296 296 297 297 297 296 297 296 296 295 296 296 297 297 297 298 298 298 297 297 297 297 297 296 296 296 297 297 297 297 298 298 298 298 299 299 299 299 298 298 298 298 297 298 297 297 297 297 298 298 298 298 298 298 298 298 298 299
296 296 296 296 295 295 295 295 296 296 296 295 295 295 295 295 296 296 296 297 297 297 296 296 296 296 296 296 296 296 296 296 296 296 296 296 296 296 297 298 298 298 298 298 298 297 297 297 297 298 298 298 298 297 296 296 296 296 297 297 297 298
296 296 295 295 295 295 295 294 294 294 294 294 294 294 294 295 295 295 296 296 296 296 295 295 295 295 295 295 296 296 296 296 296 296 296 295 296 296 296 296 296 297 297 297 297 297 297 296 296 296 296 296 297 296 295 296 295 295 295 295 296 296
296 295 294 294 294 294 293 294 294 294 295 294 294 294 293 294 294 295 295 295 294 294 294 294 294 295 294 294 295 294 294 295 295 295 295 295 296 296 296 296 295 295 296 296 296 296 296 295 294 295 295 295 295 296 295 295 295 295 294 295 295 295
295 294 294 293 293 293 293 293 293 293 293 293 293 293 293 293 294 294 294 294 293 293 293 293 293 293 294 293 293 293 293 293 293 293 294 294 294 295 295 295 295 295 295 295 296 296 295 295 296 292 291 292 293 294 294 294 294 294 294 294 294 294
294 293 293 293 292 292 293 293 293 293 293 293 293 292 292 293 293 293 293 293 293 293 293 293 292 292 292 292 292 292 291 292 292 292 292 292 293 293 294 294 294 295 295 295 295 295 295 295 295 291 293 293 293 293 294 293 293 294 293 293 293 292
293 292 293 292 292 292 292 292 292 293 292 292 292 291 292 292 292 292 292 292 292 292 291 291 291 291 291 291 290 290 290 290 290 290 291 291 291 292 292 292 293 294 294 295 295 294 295 295 292 292 292 292 292 292 293 293 293 293 293 293 293 294
293 293 292 292 292 292 291 292 292 291 291 291 291 291 291 291 291 291 291 291 291 291 291 290 290 290 290 290 289 289 288 289 289 289 289 289 290 290 291 292 292 292 293 293 293 293 294 294 293 292 292 292 292 292 292 293 293 293 293 293 293 293
292 292 292 292 292 291 291 291 290 291 290 290 291 291 291 291 291 291 290 290 290 290 290 289 288 289 289 289 288 289 288 288 288 289 289 289 289 289 290 290 290 291 292 292 292 292 293 293 292 292 292 292 292 292 292 293 293 293 293 293 293 293
292 292 291 291 290 291 291 291 290 290 290 290 290 290 290 290 290 289 289 289 289 289 288 288 288 288 288 288 287 287 287 287 287 287 288 288 288 288 288 289 289 289 289 290 290 291 291 292 291 291 291 291 292 292 292 293 293 292 293 293 293 294
292 291 290 290 290 290 290 290 290 290 289 290 289 289 289 289 289 288 288 288 288 288 288 287 287 287 287 286 286 286 286 286 286 286 287 287 288 288 289 289 289 288 288 288 288 289 289 291 291 290 290 291 291 291 291 292 292 292 292 292 293 293
291 290 290 289 289 289 289 289 289 289 289 288 288 288 288 288 287 287 287 286 287 286 286 286 286 285 285 285 285 285 285 285 285 286 287 286 286 287 287 287 287 288 288 287 287 287 288 289 290 289 290 290 290 290 290 290 290 290 291 291 292 293
290 289 289 288 288 287 288 288 288 288 287 287 287 287 287 286 285 286 285 285 286 286 286 285 285 284 284 284 284 284 284 285 285 285 286 285 285 285 286 287 287 287 287 287 286 287 287 287 287 288 289 289 289 289 288 289 289 288 289 289 291 292
288 288 287 287 286 286 287 287 287 287 286 286 286 286 285 284 284 284 284 284 285 285 284 284 284 283 283 283 283 283 283 283 284 285 285 285 285 285 286 286 286 286 286 287 286 285 286 286 286 287 288 288 288 288 288 288 288 288 288 289 289 291
287 286 285 284 284 285 285 285 286 285 284 284 285 284 283 283 283 284 284 284 284 284 283 283 283 282 282 281 282 282 283 283 284 284 284 284 284 285 285 286 285 284 285 286 286 286 287 286 286 286 287 287 288 288 288 288 288 287 287 288 288 288
285 284 284 284 284 284 284 284 284 283 283 283 283 282 281 282 283 283 283 283 283 282 282 282 282 281 281 281 281 282 282 283 283 283 283 283 284 284 284 283 284 284 285 286 286 286 286 286 285 286 287 287 287 288 287 287 287 287 287 288 288 288
284 283 282 282 282 282 281 281 281 281 281 281 281 280 280 281 281 281 281 281 281 281 280 280 280 280 280 280 281 280 281 282 282 282 282 283 283 282 282 283 284 284 285 286 286 286 286 287 286 286 286 286 287 287 287 287 286 287 287 287 287 287
282 281 281 280 280 279 278 278 277 278 279 278 279 278 279 279 280 280 279 279 279 279 278 279 279 278 279 279 280 280 280 281 282 282 282 282 282 282 282 282 283 284 285 286 287 287 287 288 288 286 285 285 286 287 287 287 287 287 287 286 286 286
281 280 279 279 278 277 276 275 274 275 275 276 277 277 278 278 278 278 277 277 277 277 277 277 277 278 278 279 279 279 279 280 280 281 282 282 282 282 282 283 284 284 284 284 286 287 288 288 289 287 286 285 286 286 287 287 287 288 287 287 287 287
279 278 277 277 276 275 274 273 272 272 273 274 275 276 277 277 277 276 276 275 275 276 276 277 277 277 278 278 278 278 278 279 280 279 281 281 281 282 282 283 283 283 284 284 284 285 287 287 288 288 288 285 285 286 286 286 287 287 287 286 286 287
276 276 275 274 274 273 272 271 271 270 272 273 274 276 277 276 274 274 274 274 274 275 275 275 276 277 277 277 278 278 278 278 278 279 279 280 281 281 281 282 282 283 283 283 284 285 285 286 287 287 287 286 285 285 285 285 286 285 285 285 285 285
273 273 272 272 272 271 270 270 270 271 272 273 275 276 274 272 272 273 273 273 274 274 275 275 275 275 275 276 276 277 277 277 278 278 278 279 280 280 281 281 281 282 282 282 283 284 285 285 285 286 286 287 287 287 286 286 286 285 285 285 286 286
270 270 270 270 270 269 268 269 270 271 273 274 273 271 271 271 272 272 273 273 273 274 275 274 274 274 274 275 275 275 275 276 277 277 277 278 279 279 279 280 280 280 281 281 282 282 283 283 284 285 285 286 286 286 286 286 286 286 286 285 286 286
268 268 268 268 269 267 267 268 270 272 273 270 270 270 269 270 271 272 272 273 273 273 274 274 273 273 273 273 274 274 275 275 275 276 277 278 279 279 279 279 279 280 281 282 282 281 281 282 282 284 286 285 285 285 284 284 285 285 285 286 286 286
266 266 265 267 267 267 267 268 270 271 269 268 268 269 269 270 270 271 271 272 273 273 273 272 272 273 273 272 272 273 273 276 277 277 276 276 279 280 281 281 280 281 282 281 282 283 282 281 283 285 285 285 285 286 286 286 286 287 286 286 287 286
265 264 264 265 266 266 267 269 269 267 267 267 268 268 268 268 268 269 271 271 271 271 271 271 271 271 272 272 272 272 272 272 274 277 278 278 278 279 279 281 281 282 282 282 281 282 284 284 285 285 285 285 286 286 286 286 287 287 287 287 286 284
263 263 263 264 265 266 267 266 265 265 265 266 267 267 267 267 268 268 269 269 269 269 269 270 270 270 270 270 271 271 271 271 271 272 276 277 278 279 279 280 280 281 282 282 282 282 282 283 284 285 285 285 286 286 286 286 286 287 287 287 287 284
263 263 264 265 265 265 264 263 263 264 265 265 265 265 265 266 267 266 266 266 267 268 268 268 269 269 269 269 269 269 270 270 270 270 270 273 276 277 278 279 280 280 281 282 283 283 283 283 284 284 285 285 285 285 285 285 286 287 287 287 284 283
263 263 264 264 263 262 262 261 262 263 263 264 264 265 265 265 264 264 265 265 266 266 266 267 267 267 268 268 268 268 268 269 269 269 270 270 271 273 276 278 279 280 280 281 282 282 283 283 283 283 283 284 284 284 285 285 285 287 287 286 283 283
262 262 263 262 261 261 260 260 261 263 263 263 264 263 262 261 262 262 263 264 264 265 265 265 266 266 266 266 266 267 267 268 268 269 269 269 270 270 271 272 274 277 280 279 280 281 282 282 282 283 283 283 284 284 285 286 284 283 283 284 284 283
261 261 261 260 260 259 259 260 262 262 263 263 262 260 260 260 261 261 262 262 263 263 263 264 264 264 264 265 265 266 267 268 268 268 269 269 270 270 271 272 273 275 277 279 280 281 281 281 282 283 283 283 284 284 285 282 282 282 282 282 283 283

ECMWFFLT1_sfc_thetae_093.txt.gz
Theta_e
304 304 304 304 304 305 305 306 306 306 306 306 306 305 305 306 307 307 307 307 308 308 308 308 308 309 310 310 310 311 311 311 312 312 312 313 313 313 313 313 312 312 312 312 311 312 312 312 312 313 313 314 313 313 313 314 315 314 313 314 314 314
303 304 304 304 304 304 305 305 305 305 305 305 305 305 305 305 305 306 306 306 307 307 308 307 308 308 308 308 309 309 309 310 309 309 310 310 310 310 310 310 310 310 310 310 310 310 311 310 310 310 310 310 310 310 310 311 311 310 309 310 312 312
302 303 303 303 304 304 305 305 304 304 304 304 304 304 304 303 304 305 305 305 305 305 305 305 306 306 307 307 307 307 307 307 307 307 307 306 307 308 308 308 308 308 308 308 308 308 308 309 309 309 309 308 307 308 308 308 308 307 307 307 308 309
302 303 303 304 304 303 303 304 303 303 303 303 303 303 303 302 302 303 304 304 304 303 303 303 303 304 305 305 305 304 304 304 305 304 305 305 306 306 306 306 306 306 306 306 306 306 306 307 307 307 307 306 306 305 306 306 305 305 305 305 304 305
303 303 303 302 302 302 302 302 302 302 302 302 302 301 301 301 302 303 303 303 303 302 302 302 302 302 302 302 302 301 301 302 302 302 302 303 303 304 304 304 304 304 304 304 304 304 303 304 303 304 303 303 303 302 303 303 303 303 302 302 303 303
302 303 302 302 302 301 301 301 301 301 301 301 301 300 300 300 301 301 302 302 301 302 301 301 301 300 300 300 300 299 300 300 300 300 301 301 302 302 302 303 303 302 302 302 302 302 302 301 301 301 301 301 301 300 300 300 300 301 301 301 301 301
302 302 302 301 301 301 301 300 300 300 299 299 299 299 299 300 300 301 301 301 300 300 300 300 300 299 299 299 299 299 299 299 299 299 299 299 300 300 300 301 301 301 301 301 301 301 301 300 300 300 299 299 299 299 298 298 299 299 299 299 299 296
301 301 300 300 300 300 300 299 299 299 298 298 298 298 298 299 299 300 300 300 299 299 298 298 298 298 298 298 298 298 298 298 298 298 298 298 298 298 299 299 299 299 299 299 300 300 300 299 299 298 298 298 299 299 298 298 298 298 298 297 297 297
300 300 299 299 298 298 298 298 298 298 298 297 297 297 298 298 299 299 299 299 298 297 297 297 297 297 297 297 297 297 297 297 297 297 296 297 297 297 297 297 297 298 298 298 299 299 299 299 299 298 298 298 298 297 297 296 296 296 296 296 296 296
299 299 298 298 298 298 297 297 297 297 297 296 296 296 296 298 298 298 298 297 296 296 296 296 296 296 296 296 296 296 295 295 295 295 295 295 296 296 296 296 296 296 296 297 297 298 298 297 297 297 297 297 297 296 296 295 294 294 294 294 294 295
299 298 297 297 297 296 297 297 297 297 296 296 296 295 295 296 297 297 296 296 295 294 295 295 295 295 295 294 294 293 293 293 293 293 294 294 294 295 295 295 295 295 296 296 297 297 297 297 297 297 297 296 295 295 294 294 294 293 293 293 293 294
298 297 297 296 296 296 296 296 295 295 295 295 295 295 295 296 295 295 295 294 294 294 294 294 294 294 294 293 292 292 292 292 292 292 292 292 293 293 294 294 294 294 295 295 295 296 297 297 298 295 292 293 293 293 293 293 293 293 293 293 292 293
297 296 296 295 295 295 295 295 295 295 294 294 294 294 294 295 294 294 293 293 293 293 293 293 292 292 292 292 291 291 290 290 291 291 291 291 292 292 292 292 293 294 294 294 294 294 295 296 297 293 294 294 293 293 293 292 292 292 292 292 292 292
296 295 295 294 294 295 294 294 294 294 293 293 292 293 293 293 293 293 292 292 292 292 292 291 291 291 291 290 290 290 290 290 290 289 290 290 290 290 291 291 292 292 293 293 293 293 294 294 292 294 294 293 293 292 292 292 292 292 292 293 293 293
296 295 294 294 294 293 293 294 293 293 293 292 292 292 292 292 292 292 291 291 291 291 291 291 290 290 290 290 289 289 289 288 288 288 288 288 290 290 290 290 290 291 291 292 292 291 292 292 292 293 293 293 292 292 291 291 291 291 291 292 292 293
295 294 294 294 293 293 293 293 292 292 292 292 292 292 292 292 292 291 290 290 290 290 290 289 289 289 289 288 288 288 288 287 288 287 288 288 288 289 288 289 289 290 290 290 290 290 291 291 291 292 292 292 292 292 292 291 291 291 291 291 292 292
294 293 292 292 292 292 292 292 292 292 291 292 291 291 291 291 290 290 289 289 289 289 288 288 288 287 287 287 287 286 286 287 286 287 287 287 287 287 287 288 287 288 288 289 289 289 289 290 291 291 291 292 292 292 291 290 290 290 290 291 292 292
293 292 292 292 292 292 292 291 291 291 290 291 290 290 290 290 289 288 288 288 288 287 287 287 286 286 286 286 286 285 285 286 286 285 286 287 287 287 287 287 287 287 287 287 287 287 287 289 290 290 290 291 291 291 289 289 289 289 290 290 291 291
293 292 291 291 291 290 290 290 291 290 290 289 289 289 288 288 287 287 287 287 287 286 286 286 285 285 285 285 284 284 284 284 284 285 286 285 286 286 286 286 286 287 287 286 286 286 287 287 288 289 289 290 290 289 287 287 287 288 288 289 290 291
291 291 290 289 288 289 289 289 290 289 288 288 288 287 287 286 285 286 285 286 286 285 285 285 284 283 283 283 283 283 283 284 284 285 285 285 284 284 285 286 286 286 287 286 285 286 285 286 286 288 289 289 290 289 287 287 287 287 287 288 289 290
290 289 289 288 286 287 287 288 288 288 287 287 286 286 285 284 284 284 284 284 285 284 284 284 283 282 282 281 281 282 281 282 283 284 285 285 284 284 285 286 286 285 285 285 285 285 285 286 286 288 289 289 289 289 287 287 286 286 286 287 288 289
287 287 286 286 285 285 285 286 286 285 285 285 284 283 282 282 283 283 283 283 283 283 282 282 281 281 280 279 280 280 281 282 283 282 283 283 284 284 285 285 284 283 284 285 285 286 286 286 286 287 288 289 289 289 287 287 286 285 285 286 286 286
286 285 284 284 283 283 283 285 285 284 284 283 281 280 280 281 282 281 281 281 281 281 280 280 280 279 279 279 279 280 280 281 281 281 281 282 283 283 283 282 282 283 284 285 285 285 285 286 286 286 288 289 289 290 288 286 286 286 286 286 286 286
283 283 282 281 280 280 281 282 282 282 282 280 278 278 279 280 280 280 279 279 278 278 278 278 278 278 278 279 279 278 278 280 280 281 281 281 282 281 281 281 283 284 284 285 285 285 286 286 286 286 287 288 289 289 289 287 286 286 286 285 285 285
282 281 280 279 278 278 278 279 279 279 279 276 276 277 278 279 278 278 278 277 277 276 276 277 277 277 278 278 278 277 277 279 279 279 280 281 281 281 281 281 282 282 283 284 285 285 285 286 286 286 286 287 288 289 289 289 288 288 286 285 284 285
280 279 278 277 277 276 275 276 276 276 276 275 276 277 278 278 276 276 275 276 276 276 276 276 276 277 278 278 277 277 277 278 278 279 280 280 280 281 281 282 282 282 282 282 283 284 285 285 286 286 286 286 287 288 289 289 289 289 286 286 285 286
279 277 276 275 275 274 273 274 274 274 273 274 276 276 275 274 273 274 274 274 275 275 275 276 276 277 277 276 277 276 277 277 277 277 278 279 279 280 280 280 281 281 281 282 282 282 283 284 285 285 286 286 286 287 288 288 289 288 288 286 285 286
278 277 275 273 273 272 272 272 273 272 273 275 275 273 272 272 272 273 273 274 274 274 275 275 275 276 276 276 276 276 276 276 276 277 277 278 278 279 279 279 280 280 280 280 281 281 282 283 283 284 284 285 285 286 287 287 287 286 286 285 285 285
276 275 274 272 271 271 271 271 272 273 274 273 272 271 271 271 272 273 273 273 273 274 275 274 275 275 275 275 275 275 276 276 276 276 276 277 277 277 277 277 278 278 278 279 279 280 280 281 282 282 283 284 285 285 285 286 285 285 285 285 285 285
274 273 273 271 270 270 271 271 272 272 271 270 270 270 270 271 272 272 272 273 273 274 274 274 274 274 273 274 274 274 274 275 275 275 275 275 275 275 275 275 276 276 277 277 277 278 278 279 280 281 281 282 283 283 284 284 284 284 284 284 285 285
271 271 270 270 269 269 270 271 271 270 269 269 269 269 269 269 270 271 271 272 273 273 274 273 272 272 272 272 272 273 274 273 273 274 274 275 276 276 275 275 276 276 277 277 277 276 276 277 278 279 282 282 283 282 282 282 283 283 284 284 285 285
269 269 269 269 269 269 270 270 269 268 268 268 268 268 267 267 268 270 271 272 272 271 271 270 271 271 271 271 271 271 272 275 276 275 274 274 277 278 279 279 276 277 277 277 277 278 277 277 278 282 282 283 283 283 284 284 284 285 285 285 286 285
267 267 267 268 268 268 269 268 267 266 266 267 267 267 266 267 268 269 270 270 269 269 269 269 270 270 270 270 271 271 271 271 272 275 276 277 276 277 278 279 279 280 280 278 277 278 281 281 282 282 282 282 283 283 283 284 284 284 285 285 284 282
266 266 266 267 266 267 267 265 266 265 265 266 265 266 266 267 268 267 267 267 267 268 269 269 269 269 269 269 270 269 269 269 269 269 273 275 275 276 276 277 277 278 278 279 279 278 277 279 281 281 281 281 282 282 282 283 283 284 284 284 284 281
267 266 266 266 266 265 265 264 264 265 264 264 265 266 265 265 265 264 264 265 266 267 267 267 267 268 268 267 267 267 268 267 267 266 267 269 273 274 275 275 276 277 277 278 278 278 278 279 279 280 280 280 280 281 282 282 283 283 284 284 282 281
266 266 265 265 264 263 263 262 263 263 263 264 264 264 262 262 261 262 263 264 264 264 265 266 266 266 266 266 266 266 266 266 266 266 266 266 267 268 271 273 274 275 276 276 277 277 277 278 278 278 279 279 280 281 281 282 281 283 283 282 280 280
264 264 264 264 263 262 262 261 262 263 263 263 262 261 260 260 261 262 263 264 264 264 264 265 265 265 264 264 264 265 265 265 266 266 266 266 265 266 266 267 269 272 274 273 274 275 276 277 277 278 278 279 279 280 281 281 278 277 278 279 280 281
263 263 263 262 262 261 261 260 262 262 262 261 260 259 259 260 261 261 262 263 263 263 263 263 263 263 263 263 264 264 264 265 265 265 265 266 266 266 266 267 268 269 270 272 273 274 275 275 276 276 277 278 279 279 280 275 274 275 276 278 280 280

ECMWFFLT1_sfc_thetae_096.txt.gz
Theta_e
298 298 298 299 299 300 300 300 300 300 300 300 300 300 300 300 301 300 302 302 303 303 302 301 302 302 302 302 301 302 303 303 303 303 303 303 303 303 303 302 301 300 299 300 299 300 301 301 303 305 307 306 306 306 306 307 308 307 306 307 307 308
297 297 298 298 299 299 299 299 299 300 300 300 299 299 299 299 300 300 300 300 301 301 301 301 301 301 301 301 301 302 301 301 301 301 300 300 300 299 298 297 297 297 297 297 297 297 297 298 299 300 300 301 302 304 304 304 304 303 303 304 305 306
297 297 298 298 298 298 299 299 299 299 299 299 298 298 298 298 299 299 299 299 299 299 298 299 299 299 300 300 299 300 299 299 299 299 298 295 297 296 296 295 295 295 295 295 297 296 297 297 298 298 298 298 298 299 300 302 301 301 301 301 302 302
297 297 297 296 297 297 298 299 298 298 298 298 298 297 297 297 298 298 298 298 298 297 297 297 297 297 297 297 296 296 296 295 296 295 294 294 294 294 294 294 294 294 295 295 294 295 294 294 296 294 296 296 296 297 300 300 299 299 299 299 299 300
295 295 296 296 297 297 297 297 297 297 296 296 296 296 296 297 297 298 298 297 297 296 295 295 294 294 294 294 294 293 293 293 292 291 291 292 292 293 294 294 294 294 293 292 293 293 292 292 291 291 292 293 294 296 297 297 297 297 297 296 297 297
295 296 296 297 296 296 296 296 295 295 295 295 294 294 294 295 296 296 296 295 295 294 294 294 293 293 293 293 292 291 290 290 290 290 292 292 292 293 293 292 292 291 291 290 290 290 290 290 289 289 290 291 291 293 295 295 296 296 295 295 296 296
296 297 296 296 295 295 295 295 294 293 293 293 293 293 293 293 293 294 294 293 293 292 292 292 291 291 291 291 290 290 290 290 291 291 290 291 291 290 290 291 289 289 290 292 290 291 290 290 290 290 289 289 289 290 292 294 295 295 295 295 295 293
296 295 295 295 295 294 294 293 293 292 292 292 292 292 291 292 292 293 293 291 291 291 291 290 290 290 290 290 290 290 290 290 289 289 289 288 289 287 288 288 288 288 289 288 289 289 289 289 288 288 288 288 288 288 289 290 291 292 293 293 293 294
295 295 294 294 293 292 292 292 292 291 291 291 290 290 291 291 291 291 291 291 290 290 290 290 290 290 289 289 289 289 289 288 287 286 287 286 286 286 287 287 286 287 287 288 288 289 290 290 288 289 289 288 287 287 288 288 289 289 290 291 291 292
294 293 293 292 292 292 291 291 291 291 290 290 290 290 290 292 291 291 291 290 290 290 289 289 288 288 289 287 287 287 287 286 285 285 285 285 286 286 285 286 287 287 286 288 288 290 290 289 289 289 288 287 287 288 287 287 288 288 288 288 289 289
293 293 292 292 291 291 291 291 291 291 290 290 289 288 289 289 290 290 290 289 289 288 287 288 288 288 287 286 286 285 285 285 284 284 284 284 285 287 285 286 286 287 288 288 288 289 289 290 291 291 291 290 289 288 288 288 288 287 287 287 287 288
293 292 292 291 291 291 291 290 290 290 289 289 288 288 288 289 289 289 289 288 288 287 286 287 286 286 285 285 285 285 284 284 284 284 284 285 285 285 286 286 286 286 287 287 288 288 289 290 291 290 292 292 290 288 287 287 286 286 286 286 286 287
293 292 291 291 291 290 291 290 290 289 289 288 287 288 287 287 287 287 287 287 286 286 285 285 286 285 285 285 284 284 284 285 285 285 285 285 285 285 285 285 286 286 286 286 286 287 288 289 290 290 293 293 294 290 287 286 286 285 285 285 286 286
292 292 291 290 290 290 290 289 289 288 288 287 286 286 286 285 286 286 286 285 285 285 285 285 284 284 284 284 284 284 284 284 284 284 284 284 284 285 284 284 284 284 285 285 284 285 286 287 289 291 292 293 293 292 288 286 286 286 285 285 285 286
292 291 290 290 290 290 289 289 288 287 287 287 285 285 286 285 285 285 285 284 284 283 284 283 284 283 283 283 283 283 283 283 283 283 283 283 283 282 283 283 283 283 284 284 283 284 284 284 288 290 291 291 292 292 290 287 286 285 285 285 285 285
291 290 290 289 289 288 288 287 287 287 286 286 285 286 286 285 285 285 284 284 283 283 283 283 283 283 282 282 282 282 282 282 282 281 282 282 282 281 282 281 282 282 282 283 283 283 283 283 286 290 290 291 291 291 291 286 286 285 285 285 285 285
290 289 288 288 288 287 287 287 286 286 285 285 285 285 286 285 284 284 284 283 282 282 282 282 282 282 281 281 281 281 281 280 280 280 281 281 280 281 282 282 282 282 282 282 282 282 283 284 288 289 290 290 291 291 290 286 285 284 284 284 284 285
289 288 287 288 288 287 286 287 286 285 285 285 285 285 284 284 284 283 282 282 281 281 281 281 281 280 280 280 280 279 279 279 279 279 280 280 280 279 280 280 279 281 281 281 281 282 282 282 287 288 289 289 290 291 287 284 283 283 283 284 284 284
288 287 287 287 286 286 286 286 286 285 285 285 284 284 283 283 282 281 281 281 281 281 280 280 280 279 279 278 278 277 277 278 278 278 279 279 279 279 280 280 280 281 281 281 281 281 281 282 284 287 288 289 290 289 284 283 283 283 283 283 284 284
287 287 286 285 285 285 285 285 285 284 284 284 283 283 282 281 281 280 280 280 280 280 279 279 278 277 277 275 275 276 276 277 277 277 279 278 279 279 279 280 281 281 280 281 281 280 280 282 284 286 288 289 289 288 285 284 283 283 283 283 284 284
286 285 284 284 283 283 283 284 284 284 283 282 281 281 280 279 279 279 279 279 279 279 279 278 277 276 275 275 275 275 275 275 276 278 278 278 277 278 279 280 280 280 279 278 280 281 281 281 283 286 287 288 289 287 284 283 282 282 283 283 283 284
284 283 282 282 281 281 282 282 283 282 281 280 279 279 278 278 278 279 279 279 280 280 279 277 275 274 274 273 273 274 274 275 276 276 276 276 277 277 278 278 278 278 279 279 279 280 281 281 282 283 287 288 288 288 286 284 283 282 282 283 283 283
283 282 280 280 280 280 281 282 282 281 280 279 278 276 277 277 278 279 279 279 279 278 276 275 274 273 273 272 273 274 274 274 274 275 274 275 276 275 276 276 277 278 278 280 279 280 280 281 281 282 286 287 287 288 287 284 283 283 283 282 283 283
279 278 277 277 278 278 280 281 281 279 278 277 275 276 277 278 278 278 278 278 277 275 273 273 273 273 273 273 273 271 272 272 272 273 274 273 274 275 275 275 277 277 278 279 279 279 280 281 281 281 284 285 286 287 287 284 283 284 284 283 283 283
278 276 276 276 276 276 277 279 279 277 276 275 276 277 278 278 277 276 276 275 274 273 272 272 272 272 272 271 272 270 271 272 272 272 273 274 274 274 274 275 276 276 277 277 278 278 279 279 280 282 281 283 284 285 285 286 285 286 285 283 282 282
276 275 275 274 274 274 275 278 277 276 275 275 277 277 277 274 273 272 272 272 271 271 271 272 271 271 271 271 271 271 271 271 271 270 272 273 273 273 274 274 275 275 275 275 276 277 278 278 279 280 281 281 283 283 284 284 285 285 283 282 282 282
275 274 273 273 273 273 274 276 276 275 274 275 276 274 272 271 271 271 270 270 270 270 270 269 270 271 270 270 270 271 271 271 271 271 272 272 272 272 272 273 274 273 274 274 274 275 276 277 277 277 279 281 281 282 283 283 283 283 283 281 281 281
274 273 272 271 272 272 272 273 273 272 273 273 272 271 270 269 268 269 269 269 269 269 268 269 269 270 270 269 270 270 269 270 271 270 271 270 270 270 271 271 272 272 272 273 273 274 274 275 276 276 277 278 279 279 280 281 282 282 282 282 281 282
273 272 271 270 271 271 272 272 273 272 272 270 270 270 269 269 270 270 269 268 269 268 268 269 270 269 269 267 267 268 268 269 268 268 269 269 269 269 270 270 271 271 271 272 272 273 273 274 274 275 276 276 277 277 279 280 280 281 281 281 282 282
274 272 271 270 270 271 272 271 270 270 269 269 269 268 268 268 268 267 266 267 267 269 268 268 271 269 267 268 268 268 268 267 267 267 268 268 268 269 269 270 270 270 271 271 272 272 272 273 273 274 274 275 277 278 279 279 279 279 279 280 280 281
273 271 270 269 270 270 271 269 268 267 267 268 268 267 266 266 267 267 265 267 268 267 269 267 265 266 266 266 267 266 267 268 267 268 267 268 268 267 269 270 271 272 272 272 272 272 271 272 272 274 278 278 280 278 278 277 277 278 278 279 281 280
270 269 268 268 269 269 269 267 267 266 266 266 266 265 264 265 266 265 265 267 266 265 265 264 264 264 265 265 265 266 265 272 273 272 270 268 274 276 277 276 273 273 273 273 273 273 272 272 274 279 280 279 279 280 280 280 280 280 279 280 281 280
268 267 267 267 268 269 267 266 265 264 264 264 265 265 265 266 265 265 266 266 263 265 264 264 264 264 263 265 265 265 266 265 266 271 273 274 274 274 275 275 276 277 277 275 273 274 277 278 278 278 278 278 278 279 279 279 280 280 280 281 279 277
267 266 266 267 268 267 265 264 263 263 262 263 264 265 264 263 264 263 263 263 262 264 265 264 264 263 264 264 264 264 264 263 263 264 269 272 271 272 273 274 275 275 275 276 275 273 272 274 276 277 277 277 277 277 278 278 279 279 280 280 280 275
266 266 266 266 266 265 264 263 262 262 262 263 263 263 261 261 261 260 259 261 263 263 264 264 263 263 263 262 262 262 262 262 262 262 262 265 269 270 271 272 273 273 273 274 274 274 274 274 275 276 276 276 276 277 277 277 278 279 279 278 274 273
266 265 265 265 264 263 262 261 261 261 261 261 260 259 258 258 258 258 259 261 261 261 261 261 261 261 261 261 261 260 261 261 262 261 262 262 263 265 267 270 270 271 272 272 273 273 274 274 274 275 275 275 275 276 276 277 275 277 277 275 272 272
265 264 264 263 263 262 261 260 260 260 260 259 258 258 257 257 259 257 261 264 264 261 260 261 261 260 260 260 259 259 260 260 261 262 262 262 262 262 262 263 265 268 270 269 270 272 273 273 274 274 274 274 275 275 276 276 271 269 270 271 272 272
263 263 263 262 261 260 260 259 260 260 258 257 257 256 256 257 258 258 259 260 261 260 260 259 259 260 259 259 258 259 260 261 261 261 262 262 262 262 262 262 263 264 267 269 270 271 272 273 273 273 274 274 274 274 275 269 267 268 269 270 270 271

ECMWFFLT1_sfc_thetae_099.txt.gz
Theta_e
294 295 295 295 295 295 296 297 298 298 297 297 298 298 298 298 300 300 300 300 301 300 299 299 299 299 299 298 299 299 298 297 297 297 296 298 297 298 297 296 295 293 292 293 293 294 295 295 295 295 296 295 296 296 296 299 301 300 300 301 301 302
294 295 295 295 296 296 296 296 297 297 297 297 297 297 297 298 298 298 298 298 298 298 297 297 297 297 298 297 297 297 296 296 296 296 296 295 295 295 294 292 292 290 290 290 290 291 290 291 291 291 291 290 291 290 291 293 296 296 297 297 298 299
294 294 294 294 293 293 295 296 296 295 296 296 296 297 296 296 296 296 296 296 296 296 295 295 295 295 295 295 295 295 294 294 293 293 292 292 292 291 290 291 289 289 289 289 289 289 289 290 289 288 289 288 288 289 291 294 295 295 295 295 295 296
294 293 293 291 294 294 294 294 295 295 295 295 295 295 295 295 295 295 295 295 295 294 294 293 293 294 293 293 293 292 291 291 291 289 290 290 288 289 289 289 288 287 287 287 288 289 288 289 290 288 288 289 289 289 292 290 292 293 293 293 293 293
293 293 293 293 293 293 293 293 294 294 293 293 293 295 294 295 295 295 295 294 294 293 292 292 291 291 291 291 290 290 289 289 288 287 289 288 288 287 288 288 288 287 286 287 287 288 288 288 287 287 288 288 287 288 287 287 289 290 291 292 292 292
291 293 293 293 293 292 292 292 292 293 292 293 293 293 294 294 294 294 293 292 291 291 291 290 290 290 290 289 289 288 287 287 287 286 287 286 286 288 287 286 286 287 286 287 288 288 288 288 287 287 285 286 286 287 287 286 286 287 288 289 289 289
292 293 292 293 292 291 292 292 292 292 291 291 292 292 292 292 292 291 290 290 290 289 289 288 288 288 288 288 287 287 286 286 286 286 286 286 287 286 287 287 286 287 287 288 287 287 287 286 285 286 285 285 284 285 285 286 286 285 286 286 287 288
293 292 291 292 291 292 291 291 290 290 290 290 289 291 291 290 290 289 289 289 289 288 288 287 287 287 287 286 286 286 285 286 285 285 285 285 286 286 286 286 286 285 286 285 284 284 284 284 284 285 285 285 285 284 284 284 284 284 285 286 286 286
293 293 292 292 290 289 290 290 290 290 290 289 289 289 290 289 289 288 288 288 288 287 286 286 286 286 286 285 285 285 285 285 284 285 285 284 284 285 285 284 284 284 283 284 284 285 285 285 285 285 285 285 284 284 285 284 284 285 284 285 286 286
292 292 291 290 290 289 289 289 289 289 289 289 288 289 289 289 288 288 288 287 287 287 286 286 285 285 285 285 284 284 284 284 284 284 283 283 284 284 283 283 283 283 283 284 284 285 285 284 284 284 284 284 284 285 284 284 285 285 285 285 285 285
292 291 290 290 289 289 289 289 288 288 288 288 288 288 287 287 288 287 287 287 287 286 285 285 284 284 284 284 284 284 284 284 283 283 283 282 283 284 283 283 284 283 283 283 284 284 284 285 286 285 285 286 286 285 285 286 285 284 284 285 285 285
292 291 290 289 289 289 288 288 288 288 288 288 287 287 286 287 286 286 286 286 285 285 284 284 284 284 284 284 284 284 283 283 283 282 282 282 282 283 283 283 283 283 283 284 284 283 284 285 285 286 289 290 287 286 285 285 284 284 284 284 284 284
291 290 289 289 289 289 289 288 288 287 287 287 287 287 286 286 286 286 286 285 284 284 284 284 284 283 283 283 283 282 282 282 282 281 281 281 282 282 282 282 281 281 281 282 282 283 284 284 285 288 290 291 291 288 285 284 284 284 283 283 283 283
291 290 290 289 289 288 288 288 287 287 287 286 287 286 286 286 285 285 285 284 284 284 284 283 283 282 282 282 281 281 280 280 280 280 280 280 280 281 280 281 280 280 280 281 281 281 283 283 286 289 290 290 291 290 287 285 284 284 283 283 283 283
291 291 290 289 289 289 288 288 287 287 287 287 286 286 285 285 284 284 284 283 283 283 282 282 282 281 281 280 279 279 279 277 278 278 279 280 280 279 280 279 280 280 280 280 281 281 282 281 286 288 290 290 290 291 289 285 284 283 283 283 283 282
291 290 290 290 289 289 288 287 287 286 286 286 285 285 284 284 283 283 283 282 282 282 281 281 280 280 279 279 279 278 278 278 277 277 277 278 278 279 279 279 279 280 280 280 280 280 281 281 284 288 289 289 289 290 289 284 284 283 283 282 282 282
290 289 288 288 288 287 286 285 286 285 285 285 285 284 284 283 283 282 282 282 281 280 280 280 279 279 279 278 278 277 277 277 276 276 277 278 279 279 279 279 279 280 278 279 279 279 280 281 285 287 288 289 289 290 289 283 283 282 282 282 282 281
290 289 288 287 286 286 286 286 286 286 285 284 284 283 283 283 282 281 281 281 280 280 279 279 279 279 278 278 276 276 276 276 276 277 278 278 278 278 277 277 276 277 278 278 278 278 278 279 285 286 287 288 288 288 284 282 281 281 281 281 281 281
289 288 286 286 286 286 286 285 285 285 284 284 283 283 282 282 281 281 280 280 279 279 279 278 278 278 277 276 276 275 276 275 276 276 277 278 278 278 277 276 276 277 277 277 277 277 278 278 282 285 286 286 287 286 282 282 281 281 281 281 281 281
287 286 287 286 285 286 285 285 285 284 284 282 282 282 281 281 280 280 279 279 279 278 278 278 277 276 276 274 274 275 275 275 274 274 277 277 277 276 275 276 276 275 275 275 275 277 277 277 280 284 285 285 286 285 281 281 280 280 280 280 281 281
287 286 286 285 285 285 285 285 284 284 282 282 281 281 280 279 279 279 278 278 278 277 277 277 276 276 274 274 273 274 274 274 274 276 277 276 273 274 274 275 275 274 274 273 274 278 277 276 277 282 283 284 284 283 281 280 279 279 279 279 280 281
285 285 285 285 285 284 284 284 284 282 281 281 280 280 279 278 278 278 277 277 277 276 276 276 275 274 273 272 273 273 274 275 276 275 274 273 272 272 273 272 272 271 273 273 273 275 275 276 276 279 282 283 283 283 281 279 278 278 278 279 279 279
286 286 285 285 284 284 284 283 282 281 280 279 279 278 277 277 277 277 277 276 276 275 275 275 273 272 272 273 274 275 275 274 274 273 270 270 271 270 271 271 271 272 272 271 272 272 273 274 275 277 281 281 282 282 282 278 278 278 278 278 278 278
282 281 281 281 282 283 283 282 281 279 278 278 276 276 276 276 276 276 276 275 274 274 273 272 272 273 273 274 274 273 271 271 270 270 269 268 268 269 271 271 272 272 273 273 272 272 273 274 277 276 279 280 281 281 282 279 278 279 279 278 278 278
280 280 279 279 280 281 281 280 279 277 277 276 275 276 276 275 275 275 275 274 273 272 272 273 273 273 273 272 272 270 268 268 267 268 269 269 269 270 270 271 271 271 271 272 272 271 273 274 275 278 276 279 280 281 281 281 280 282 280 279 278 278
278 277 276 276 277 279 280 279 277 276 275 274 276 274 273 273 273 274 273 273 273 273 273 273 272 271 270 269 269 267 268 267 267 267 268 268 269 269 269 270 270 270 270 270 271 272 273 274 274 275 277 277 279 280 281 281 281 281 279 279 278 278
276 275 274 274 274 275 276 276 276 274 274 275 275 273 272 272 272 272 273 273 273 272 270 269 268 269 268 267 267 267 267 266 266 267 267 268 268 268 268 268 269 269 269 270 270 271 272 273 273 274 275 277 278 279 280 280 280 280 280 277 277 278
274 274 273 272 272 273 273 274 275 274 274 274 272 271 271 272 272 272 272 271 270 269 269 269 269 268 266 265 265 266 266 266 266 267 266 266 265 265 265 267 268 268 268 269 269 270 271 272 272 272 273 275 276 277 278 278 279 278 278 278 277 279
273 272 272 271 271 272 272 272 272 272 272 271 271 271 270 270 271 272 271 271 270 270 269 268 268 267 265 264 264 264 265 266 264 264 265 264 263 263 264 265 267 267 268 268 269 270 270 270 271 272 272 274 275 275 276 276 276 277 277 277 277 277
272 271 271 271 271 271 271 270 270 270 270 270 270 270 270 271 271 270 270 270 270 269 268 267 270 267 263 264 263 264 264 264 263 263 264 264 264 264 263 264 265 267 267 268 269 269 270 270 270 271 272 273 274 275 275 275 275 275 275 275 276 277
271 271 271 270 271 270 269 268 268 268 268 268 268 268 268 268 269 268 267 268 267 267 267 264 263 263 263 262 262 263 263 263 264 263 263 264 263 263 265 265 266 266 265 267 268 269 269 269 269 270 275 275 277 275 275 274 274 275 275 276 279 277
271 270 270 270 270 269 268 267 267 266 267 266 266 266 267 268 267 265 265 266 264 263 263 262 262 262 262 261 262 262 263 268 271 269 266 263 273 274 275 275 268 268 268 267 267 269 269 269 271 276 277 277 277 277 278 277 278 278 277 278 278 276
270 269 269 269 270 268 267 266 265 265 265 265 265 265 266 267 266 265 264 265 263 264 262 262 263 263 261 262 261 261 261 260 263 271 273 273 272 273 274 275 275 274 274 272 268 269 274 274 275 276 276 276 277 277 277 277 278 278 278 278 274 271
268 268 268 269 269 267 266 264 264 264 264 264 264 264 264 265 266 264 263 263 263 265 264 262 262 261 261 261 261 260 260 258 258 260 269 271 270 272 273 273 273 273 273 274 273 271 269 273 275 275 275 276 276 276 277 277 277 277 277 276 276 269
269 268 268 269 268 266 265 263 263 263 263 263 263 262 262 263 263 262 262 262 263 263 264 263 262 261 261 259 259 258 258 258 258 258 257 263 269 270 270 271 271 271 272 272 273 273 273 273 274 275 275 275 275 276 276 276 276 275 275 274 270 267
268 268 268 268 266 265 263 262 262 262 262 261 261 260 260 260 260 260 261 261 262 263 263 262 261 260 260 259 260 259 258 259 258 257 259 258 258 261 266 268 269 270 270 271 272 272 273 273 273 274 274 274 275 275 275 275 271 273 273 271 267 267
266 266 267 266 265 263 262 261 261 261 260 259 258 258 258 258 260 259 263 264 263 262 261 261 261 260 258 259 258 258 259 258 259 260 259 258 258 258 258 258 259 265 269 268 269 270 272 272 272 273 273 273 273 273 274 272 266 265 265 266 267 267
265 265 265 264 263 262 261 260 260 260 259 258 258 258 258 259 260 260 261 263 263 261 260 259 259 259 258 257 256 257 259 260 260 260 258 259 259 258 258 259 259 260 265 268 268 269 270 271 272 272 272 272 272 272 272 264 264 264 264 265 265 266

ECMWFFLT1_sfc_thetae_102.txt.gz
Theta_e
292 292 293 295 295 294 297 299 303 304 305 305 307 306 305 305 304 303 303 304 304 302 300 299 298 298 298 297 297 297 297 296 296 296 294 294 293 294 293 292 291 289 289 290 289 291 291 291 291 290 291 290 291 290 292 294 294 294 294 296 296 296
291 292 293 294 294 295 297 299 300 301 300 301 300 300 301 301 301 301 301 299 298 297 296 296 296 296 296 295 296 295 295 294 294 293 293 292 291 291 290 289 289 288 288 287 287 287 286 287 286 286 287 286 287 285 287 288 289 289 290 291 291 292
291 291 290 291 291 290 292 295 296 296 298 298 298 299 299 299 297 296 295 295 295 295 295 294 294 293 294 293 293 293 292 291 291 291 290 289 289 287 287 287 287 287 286 287 285 285 286 286 285 284 285 285 285 285 286 285 287 288 288 288 287 287
290 289 289 289 291 291 292 292 293 293 294 294 294 295 295 295 294 294 294 294 294 293 292 292 292 292 292 291 291 290 289 288 288 287 287 287 284 286 286 287 285 285 286 286 286 285 285 286 287 284 284 285 285 284 285 285 285 285 285 285 285 284
291 290 290 290 290 290 290 290 292 293 292 292 292 294 292 293 293 293 293 293 292 291 290 290 289 289 288 288 288 287 287 286 286 285 287 286 285 284 285 285 285 285 285 285 285 285 285 285 284 283 283 284 284 284 284 283 284 284 285 285 285 285
288 289 289 290 289 290 290 290 290 291 291 291 292 292 291 292 292 292 292 291 289 289 288 288 287 287 287 287 286 286 285 285 285 285 285 284 285 285 284 285 285 285 285 285 285 285 285 285 284 284 282 284 284 284 284 283 283 283 284 284 284 284
288 290 290 290 289 288 289 290 290 290 290 290 291 291 290 290 290 290 289 289 288 287 287 286 286 286 286 286 285 285 285 285 285 284 284 284 285 284 284 284 284 284 285 285 285 285 285 284 284 284 284 283 282 283 283 283 283 283 283 283 283 285
290 289 289 290 289 290 290 289 289 288 289 289 288 290 289 288 288 288 288 288 287 286 286 286 285 285 285 285 285 284 284 284 284 284 283 283 284 283 283 284 284 284 284 284 284 282 284 283 283 283 284 284 283 282 283 282 282 282 283 283 284 284
291 292 291 291 289 288 289 289 289 288 288 288 288 288 288 288 288 287 287 287 286 286 285 285 285 285 285 284 284 284 284 284 283 284 283 282 283 284 284 283 283 283 283 282 283 284 284 284 283 282 282 283 282 283 283 283 283 283 283 283 284 284
291 291 290 289 289 288 288 287 288 289 289 288 287 287 287 287 287 287 286 286 286 286 285 284 284 284 284 284 284 284 283 283 283 283 282 282 283 283 283 283 283 282 282 282 282 282 281 282 282 282 282 282 282 283 283 283 283 283 283 283 283 283
292 291 290 289 288 288 287 287 287 286 286 287 287 287 287 287 287 286 286 286 286 285 284 284 284 284 283 283 283 283 283 282 282 282 282 282 283 283 282 282 282 282 282 282 282 282 282 283 283 282 283 284 284 282 283 283 283 282 282 282 282 283
292 291 290 288 288 288 288 288 287 287 287 287 287 286 286 286 286 286 286 285 285 284 284 284 283 283 283 282 282 282 282 281 281 281 282 282 282 281 281 281 281 281 281 281 282 281 282 282 282 284 289 289 286 284 283 282 282 282 282 282 282 282
291 290 289 289 288 288 288 288 288 288 287 287 286 286 286 286 286 286 285 285 284 284 283 283 282 282 282 281 281 281 281 281 281 281 281 281 280 280 280 280 281 280 280 281 281 281 281 282 282 287 289 289 290 285 282 282 282 282 281 281 281 281
290 290 290 289 289 289 289 288 288 287 287 286 286 286 286 286 286 285 285 284 283 283 282 282 281 281 281 281 280 280 279 280 280 280 279 280 279 279 279 280 280 280 280 280 280 280 281 281 285 288 288 288 288 288 284 281 281 281 280 280 280 280
292 292 291 290 289 289 289 289 288 287 287 286 286 285 285 285 285 284 284 283 283 282 282 281 281 280 280 279 279 279 279 278 278 278 278 278 278 278 279 279 279 279 279 279 279 279 280 279 284 287 287 287 288 288 286 282 280 280 279 279 279 279
293 292 292 291 290 289 289 288 288 287 287 286 285 285 285 284 284 284 283 282 282 281 281 280 280 280 279 279 278 278 278 278 277 276 276 276 278 278 278 278 278 278 278 279 278 279 279 279 283 286 286 286 287 287 285 279 279 279 278 278 278 278
293 291 290 290 289 288 287 287 287 286 285 285 285 284 284 284 283 283 282 281 281 280 280 280 279 279 278 278 277 277 277 277 276 277 276 277 277 277 277 276 276 278 277 278 278 278 278 279 284 285 285 286 286 286 283 279 279 278 277 278 278 278
292 291 291 290 288 288 287 287 286 286 285 285 284 284 283 283 282 282 281 280 280 280 280 279 279 278 278 277 277 276 276 276 276 276 276 276 276 276 276 276 276 276 276 276 275 276 277 278 282 283 284 285 285 284 279 278 278 277 277 277 277 277
294 292 290 289 288 287 287 286 286 285 284 284 283 283 282 282 281 281 280 280 280 279 279 279 278 277 276 276 276 275 275 275 275 275 275 275 275 275 276 277 276 275 275 275 275 276 278 277 280 282 283 284 284 282 278 277 277 277 277 277 277 277
289 288 289 287 286 286 286 286 286 285 284 283 282 282 281 281 281 280 280 279 279 279 278 278 277 276 276 275 275 275 275 274 273 274 274 274 274 275 277 277 277 276 274 274 276 277 276 274 277 281 282 283 283 282 277 276 276 275 276 276 277 277
289 287 287 286 286 285 286 285 285 284 283 282 282 281 281 280 280 280 279 278 278 278 277 277 276 276 275 274 274 273 273 272 272 273 273 274 274 276 276 276 275 274 274 275 275 276 273 271 275 279 281 282 282 281 276 275 274 274 275 276 277 277
286 286 286 286 286 286 285 285 285 284 283 282 281 281 280 280 280 279 278 278 277 276 276 276 275 274 274 273 272 272 273 272 272 273 273 274 274 274 274 273 273 272 273 272 270 271 271 272 272 276 280 281 282 282 278 274 275 275 276 277 277 276
288 287 287 287 286 285 285 285 284 283 282 281 281 280 280 279 278 278 277 277 276 275 275 274 274 273 273 273 273 273 273 272 273 274 274 273 273 272 271 271 271 270 269 268 268 269 270 271 272 273 279 280 281 281 280 276 277 277 277 276 276 276
286 286 285 285 285 285 285 284 283 282 281 281 280 279 278 278 277 277 276 275 274 274 274 273 273 272 272 272 272 272 272 272 272 273 272 271 270 270 270 269 268 268 268 269 270 269 269 270 274 271 276 279 280 280 280 278 277 278 277 276 275 276
285 285 284 284 284 284 284 284 282 280 280 279 278 277 276 276 276 275 275 274 273 273 273 272 272 271 271 271 271 271 271 272 271 271 271 271 269 268 267 267 267 267 267 268 268 269 269 269 270 276 274 277 279 279 279 279 278 279 277 276 274 275
284 283 281 282 282 282 282 282 280 279 278 277 276 275 275 275 275 274 273 273 273 272 272 271 270 270 270 270 270 271 272 271 270 270 270 270 268 266 266 266 266 266 267 266 267 267 269 269 270 273 275 275 277 278 279 279 279 279 277 276 275 275
281 279 279 279 279 279 279 280 279 277 276 275 275 274 274 274 273 273 272 272 272 271 270 270 270 270 268 269 271 271 271 271 270 269 268 267 266 266 265 265 265 265 265 266 267 267 268 269 268 268 273 276 276 277 278 278 278 278 278 275 275 276
278 278 277 276 276 277 277 277 278 277 276 275 274 273 273 273 272 272 271 271 271 271 271 271 271 270 270 270 270 270 270 269 269 268 266 264 263 263 263 265 265 264 264 265 265 266 267 267 267 267 270 274 275 276 277 277 277 277 277 277 276 278
277 277 276 275 273 275 275 275 275 275 274 273 273 273 273 272 272 272 272 271 271 271 271 271 270 270 270 269 269 268 268 267 266 266 266 263 261 262 263 264 265 264 265 264 264 265 266 265 266 269 271 273 274 275 275 275 275 276 277 276 276 276
277 276 276 275 273 273 273 273 273 273 272 272 272 272 272 272 272 272 271 270 270 270 270 270 270 269 268 268 267 267 266 266 265 262 263 262 262 261 263 263 263 264 264 263 263 264 265 266 267 269 272 273 274 274 275 275 275 275 275 274 275 275
276 276 276 274 272 272 272 271 271 271 271 271 271 272 272 271 271 271 270 270 270 269 270 269 269 267 267 266 265 265 265 264 262 262 261 262 260 261 262 261 263 264 262 262 263 264 266 268 268 270 276 275 276 275 274 274 274 275 274 275 277 274
275 274 274 273 271 271 271 270 270 270 270 270 270 271 271 270 270 270 269 269 269 269 268 267 266 265 265 264 264 263 263 269 271 267 261 263 272 275 276 274 265 265 265 265 264 265 268 268 271 275 276 276 276 277 277 276 277 277 275 275 276 272
272 272 272 272 270 270 269 268 268 268 268 269 269 270 270 270 269 268 267 267 267 267 266 266 265 264 263 263 262 262 263 262 265 274 274 273 273 274 275 274 274 274 274 271 266 268 274 274 275 275 275 275 276 276 276 276 276 275 275 275 271 266
271 272 272 271 270 269 268 267 266 267 267 267 267 268 269 269 269 268 267 267 267 267 266 265 264 263 263 262 261 262 263 263 262 262 270 271 271 273 274 273 272 272 273 273 273 270 268 272 274 275 275 275 275 275 275 275 274 273 274 273 271 265
272 272 271 271 270 268 267 267 266 265 265 265 266 267 267 267 268 267 267 266 266 266 265 264 263 262 262 261 261 261 262 262 263 262 259 263 270 271 271 271 271 271 271 272 272 273 272 272 273 274 274 274 274 274 273 273 271 272 272 270 264 263
271 270 270 270 268 268 267 266 265 264 264 264 265 265 266 265 265 266 266 265 265 264 264 263 263 262 262 262 262 262 261 261 260 258 259 257 257 259 264 268 269 269 270 271 271 271 272 272 273 273 273 273 273 273 272 270 267 270 270 268 262 262
269 269 269 269 267 266 266 265 264 263 263 263 263 263 264 263 263 263 264 265 264 264 263 263 263 262 262 263 262 262 261 260 259 259 257 256 257 256 256 255 258 264 269 267 267 269 271 271 272 272 272 272 272 271 270 267 262 261 261 262 262 262
268 267 267 267 266 265 264 264 263 262 261 261 261 262 262 262 262 263 263 264 264 263 263 262 262 262 262 262 261 261 260 260 260 260 257 258 258 256 255 256 255 256 264 267 267 268 269 270 271 271 270 270 270 270 268 259 259 259 260 260 261 261

ECMWFFLT1_sfc_thetae_105.txt.gz
Theta_e
291 292 294 294 296 300 303 304 305 307 307 307 309 308 308 307 307 306 304 305 305 304 303 302 302 302 301 300 300 300 300 298 297 295 293 292 292 292 292 291 290 289 288 289 288 288 288 288 288 288 289 289 290 291 292 292 290 290 290 292 292 291
290 291 293 296 297 299 301 303 304 305 305 306 305 305 305 305 305 305 304 303 302 300 299 298 298 298 299 298 299 298 296 294 294 293 292 291 290 290 290 289 288 287 287 286 286 286 286 287 286 286 286 286 286 285 285 285 285 286 287 285 284 286
290 290 290 290 291 295 299 302 303 303 303 303 304 304 304 304 303 303 301 301 300 300 299 297 297 296 297 296 295 294 292 292 291 291 289 288 288 287 287 287 287 287 286 286 286 286 286 285 285 283 283 284 285 285 285 284 284 284 283 282 283 283
289 288 287 287 289 294 298 298 300 301 301 302 302 303 302 300 300 300 299 299 298 297 295 294 294 294 293 292 291 290 289 289 288 287 287 287 284 286 287 286 285 285 286 286 286 285 284 285 285 282 284 285 285 285 283 283 283 283 283 282 283 283
288 288 288 288 289 292 295 295 298 299 299 298 299 300 298 299 298 297 297 296 295 294 292 290 289 289 289 289 287 287 287 286 285 285 287 286 285 284 285 285 285 285 285 285 284 284 284 284 284 283 284 282 283 283 282 282 282 282 282 283 283 283
286 286 287 287 287 289 293 294 295 295 296 297 297 297 295 295 295 295 295 293 291 289 288 288 287 288 288 287 287 286 285 285 285 285 286 285 285 285 284 284 285 284 284 284 284 284 285 285 284 284 284 283 283 282 282 281 283 283 283 283 283 283
287 288 287 287 287 286 288 291 292 293 293 293 294 294 293 293 292 292 291 289 288 287 288 287 287 287 287 286 286 285 285 285 285 285 285 285 285 284 284 283 283 284 284 284 284 284 284 284 284 284 283 283 282 281 280 280 282 282 282 282 282 283
287 286 286 287 287 288 288 287 288 287 288 289 289 290 290 289 289 289 289 288 288 287 287 286 286 286 286 286 285 285 285 285 285 284 284 285 284 283 283 283 282 283 283 283 283 284 283 283 283 283 282 282 282 282 282 282 282 282 282 282 282 282
288 289 288 289 287 287 288 287 287 286 287 287 287 288 288 288 288 288 288 287 287 286 286 286 286 286 285 285 285 284 284 284 284 284 283 283 283 283 283 282 283 283 283 283 283 283 283 283 283 282 282 282 282 282 282 282 282 282 282 282 282 282
290 289 290 289 289 288 287 286 287 288 288 288 287 286 287 287 287 287 286 286 286 286 285 285 285 285 285 284 284 284 284 283 283 283 282 282 282 282 282 282 282 282 282 282 282 282 282 282 282 282 282 282 282 282 282 282 282 281 281 282 281 281
291 291 290 289 288 288 287 287 287 287 287 287 287 286 286 286 286 286 286 286 286 285 285 284 284 284 284 284 284 283 283 282 282 282 282 282 282 282 281 282 282 282 281 281 281 281 282 282 282 282 283 283 283 282 282 282 281 281 281 281 281 281
292 291 291 289 288 288 288 288 287 288 287 287 286 286 286 286 286 286 286 286 285 285 284 284 284 284 283 283 283 282 282 282 281 281 281 281 281 281 281 281 281 281 281 280 280 280 281 281 282 285 288 288 284 283 282 281 281 280 280 280 279 279
292 291 290 289 289 288 289 289 288 288 287 287 287 287 286 286 286 286 286 285 285 284 284 284 283 283 283 282 282 281 281 281 281 281 281 280 280 280 280 280 280 280 280 280 280 279 280 280 282 287 288 288 289 284 282 281 280 280 279 279 278 278
292 291 291 290 289 289 289 289 288 288 288 287 287 286 286 286 286 286 285 285 284 284 283 283 282 282 282 281 281 281 281 281 281 280 280 280 279 279 279 279 279 279 279 279 279 279 279 279 285 287 287 287 288 287 281 279 279 279 278 278 278 278
293 293 292 291 290 290 290 290 289 288 288 287 287 286 286 286 286 285 284 283 283 283 282 282 282 281 281 281 280 280 280 280 280 279 279 279 279 279 279 278 278 278 278 278 278 278 278 277 285 286 286 286 287 286 282 278 277 277 277 277 276 276
293 293 292 292 291 291 290 290 289 289 288 287 286 286 285 285 284 284 283 283 282 282 281 281 281 281 280 280 280 280 280 279 279 278 278 278 278 278 278 278 278 277 277 277 277 277 277 277 283 285 285 285 286 284 281 277 277 276 276 276 276 276
293 292 291 291 290 290 289 288 288 287 286 286 285 285 285 284 284 283 283 282 282 281 281 281 281 280 280 279 279 279 279 278 278 278 277 278 277 277 277 277 277 277 276 277 277 277 276 278 283 284 284 285 285 284 281 276 277 276 275 276 276 276
294 293 292 291 289 288 288 288 287 286 285 285 285 284 284 284 283 283 282 282 281 281 281 280 280 279 279 279 278 278 278 277 277 277 277 276 276 276 276 276 276 276 276 276 276 276 276 277 281 283 283 284 284 283 276 276 276 275 275 275 275 275
295 293 291 289 289 288 288 287 286 286 284 284 284 284 283 283 283 282 282 281 281 280 280 280 279 279 278 278 278 277 277 276 276 276 275 276 276 276 276 276 275 275 275 275 275 275 276 276 279 282 283 283 284 280 274 274 273 274 276 277 277 276
290 288 290 288 288 288 287 286 286 285 284 284 284 283 283 283 283 282 281 281 280 280 280 279 279 278 278 277 277 276 276 275 275 275 274 276 275 275 275 275 275 275 275 274 274 276 275 275 277 280 282 282 283 281 275 275 275 275 276 277 277 277
291 289 288 288 287 286 286 286 286 285 285 284 283 283 282 282 282 281 281 280 280 279 279 278 278 278 277 276 276 276 275 275 275 274 274 274 274 274 274 274 274 273 273 274 275 276 275 275 275 278 281 281 281 280 277 276 275 275 276 276 275 276
287 287 288 288 288 287 286 286 286 285 285 284 283 282 282 282 282 281 280 279 279 278 277 277 277 276 276 275 275 275 275 274 273 273 273 272 273 273 273 273 273 273 274 275 275 274 274 274 273 275 280 280 280 281 278 276 275 275 275 275 275 274
290 289 289 289 287 286 286 286 286 285 284 283 283 282 283 282 280 279 279 278 277 276 276 276 276 275 275 275 275 274 273 273 273 272 272 272 272 272 272 271 272 273 273 274 273 273 273 273 272 273 278 279 279 280 279 276 276 276 276 275 275 274
287 287 286 287 286 286 286 286 286 285 284 283 283 283 281 280 279 278 277 276 276 275 275 274 274 274 274 273 273 273 272 271 271 272 271 271 271 271 271 272 272 273 273 273 273 273 272 273 274 272 275 278 278 279 279 277 276 277 276 275 274 274
286 286 285 285 286 286 286 286 285 284 283 283 282 280 279 279 278 277 276 275 274 274 273 273 272 273 272 272 272 272 271 271 271 271 271 271 271 271 271 272 272 272 272 272 272 272 272 272 272 275 273 276 277 278 279 279 278 279 277 275 274 274
284 284 283 284 285 285 285 286 285 283 282 282 279 278 277 277 276 276 275 274 274 273 272 272 271 272 272 272 272 271 271 270 270 270 271 271 271 270 270 271 271 271 270 270 270 271 271 270 269 272 274 275 277 277 278 278 278 278 277 276 275 274
283 281 281 281 282 283 284 285 284 281 281 279 277 277 276 276 275 274 274 273 273 272 271 271 271 270 270 271 271 271 271 270 270 270 270 270 271 271 270 270 270 269 269 269 269 268 266 267 267 270 273 275 276 277 277 277 278 278 278 275 275 276
280 280 280 279 279 281 281 281 282 281 280 276 276 276 276 275 274 274 273 272 272 271 270 270 270 270 270 270 271 271 272 271 271 270 270 270 270 270 269 269 268 268 268 267 267 265 265 266 267 269 272 274 275 275 276 277 277 276 277 276 275 277
279 279 279 279 277 279 279 278 278 279 276 276 276 275 275 274 274 273 272 272 271 270 270 270 270 270 270 270 270 271 271 271 271 270 270 270 269 269 268 268 268 267 266 265 264 264 264 264 267 270 272 274 274 274 275 275 275 276 276 274 274 275
280 279 279 279 277 277 277 277 276 275 275 275 275 274 274 273 273 273 272 271 271 271 271 271 271 270 270 270 270 270 269 270 270 270 270 269 269 269 268 267 267 267 265 262 261 261 263 265 267 270 272 273 274 274 274 274 274 274 273 272 273 272
279 278 278 278 275 275 275 275 274 274 275 274 274 274 274 273 273 272 271 271 271 270 271 270 270 270 270 269 269 269 269 269 269 270 269 269 267 269 269 268 267 265 263 262 263 264 265 267 268 271 275 275 276 275 274 273 273 273 273 274 274 269
275 276 276 275 273 273 273 272 272 273 274 273 273 274 273 272 272 271 271 271 270 270 270 269 269 269 268 268 267 267 268 270 272 270 270 269 272 274 273 272 265 266 263 263 263 266 267 267 270 275 275 275 275 275 276 275 275 275 274 273 272 268
273 273 273 273 272 272 271 271 270 271 271 272 273 273 273 272 272 271 271 270 270 270 269 268 268 267 267 267 267 268 269 270 272 274 274 274 275 276 276 275 275 274 273 269 264 268 274 273 274 275 275 274 274 275 274 274 274 274 273 272 266 261
272 274 274 272 271 270 269 269 268 269 269 270 272 272 272 272 272 271 270 270 270 269 268 268 267 267 266 266 267 268 269 269 268 269 273 275 276 276 275 275 275 275 274 274 272 269 268 272 274 274 274 273 273 273 273 272 272 272 272 270 268 259
272 271 270 270 269 268 268 268 267 267 268 268 269 270 271 271 271 271 270 269 269 268 267 267 266 266 266 265 266 267 269 269 268 267 268 270 274 275 274 273 273 273 273 274 274 273 272 272 273 273 273 273 273 272 271 270 271 271 271 268 260 256
271 270 270 270 269 268 267 267 266 266 266 266 267 268 269 269 269 269 269 268 268 268 267 266 266 266 266 266 267 267 268 268 269 268 267 266 265 266 269 271 271 271 272 273 272 271 272 272 272 272 272 272 272 271 270 268 266 269 269 266 257 257
270 269 269 269 268 267 267 267 265 265 265 265 266 267 268 268 268 267 267 267 267 268 267 267 266 266 265 265 266 266 266 266 266 266 266 266 265 264 262 261 260 266 271 266 268 270 271 271 272 272 271 271 270 269 268 266 257 257 257 258 257 258
269 268 268 268 267 267 266 266 265 264 263 264 265 266 267 266 267 266 267 267 267 267 267 266 266 265 265 265 265 265 265 264 264 264 264 264 263 263 262 259 257 256 263 268 269 269 270 270 271 270 270 269 269 268 266 255 255 255 256 257 256 256

ECMWFFLT1_sfc_thetae_111.txt.gz
Theta_e
290 292 293 295 296 297 298 299 299 300 302 305 308 310 312 312 313 314 315 316 316 317 316 317 317 318 317 316 314 312 311 308 307 306 305 302 301 299 299 298 296 295 295 294 294 294 293 293 293 293 292 292 291 291 290 291 291 290 289 289 289 287
288 291 293 295 296 297 299 300 300 301 303 304 306 308 309 309 310 311 313 314 314 314 314 315 316 315 314 312 311 310 309 307 306 303 301 300 300 300 299 297 295 293 292 292 291 290 290 290 290 291 291 290 289 288 287 288 288 287 286 285 285 285
289 291 292 295 297 300 301 301 302 302 304 305 306 307 307 308 309 310 311 311 311 310 311 311 311 311 311 310 310 310 307 306 304 303 301 298 298 296 295 294 293 292 291 290 289 288 288 288 288 289 288 287 286 286 286 286 286 286 286 286 285 285
289 289 288 289 296 299 301 302 303 303 303 305 306 306 307 307 307 308 308 308 309 309 309 308 309 309 308 308 307 306 304 303 302 299 297 297 294 295 294 292 291 291 291 290 289 288 288 287 287 287 287 286 286 285 285 285 285 285 286 286 285 286
290 288 289 292 296 298 300 300 302 303 303 303 304 305 305 306 306 306 306 306 306 306 306 305 304 305 304 304 302 301 300 299 297 295 296 294 292 292 292 291 291 290 290 290 288 287 287 286 286 287 287 286 285 285 285 285 286 286 286 285 285 285
288 288 289 291 293 296 298 300 301 302 302 302 303 304 303 303 304 304 304 304 303 302 301 301 301 301 301 300 299 297 295 294 294 294 293 292 292 291 290 291 290 290 290 289 288 287 286 286 286 286 286 285 285 285 285 285 286 286 285 285 285 285
288 290 290 292 293 295 297 298 300 301 301 301 301 302 301 300 301 301 301 300 299 298 299 298 299 299 298 297 295 293 292 293 292 292 291 291 290 290 290 289 289 289 289 288 287 286 286 285 285 285 285 285 285 285 285 286 285 285 285 285 284 284
289 289 289 290 291 294 296 297 298 298 298 299 297 298 296 297 297 298 298 297 297 296 295 296 296 296 295 294 293 292 292 292 291 291 290 291 289 289 289 289 289 289 288 287 286 286 286 286 286 285 285 285 285 286 285 285 285 284 284 284 284 283
289 290 290 290 290 291 294 295 296 295 295 294 294 295 295 294 295 295 296 295 295 294 293 294 294 294 293 293 292 291 291 291 290 290 290 289 289 288 288 287 287 287 286 286 285 285 285 285 285 285 285 285 285 285 285 284 284 284 283 283 283 283
290 289 289 288 289 289 291 292 293 294 294 293 292 292 293 293 293 293 293 293 293 293 293 292 292 292 292 291 291 290 290 290 289 289 288 288 288 288 287 286 285 285 285 285 285 285 285 285 285 285 285 285 285 285 284 284 283 283 282 282 282 282
291 290 289 288 288 288 290 290 290 291 291 292 292 292 291 291 292 292 292 292 292 291 291 290 290 290 289 289 289 289 289 288 288 287 287 287 287 286 286 285 284 284 283 284 284 285 285 285 285 285 285 284 284 284 283 283 283 282 282 281 281 281
291 291 290 289 289 288 288 289 290 291 291 291 290 291 290 291 291 292 292 292 291 290 289 289 289 289 289 289 288 288 287 286 286 286 286 285 285 284 284 284 283 283 283 283 284 285 285 285 285 285 285 284 284 283 283 283 282 282 281 281 280 280
292 291 290 290 290 289 289 290 290 290 291 291 291 291 290 291 291 291 292 291 290 289 289 288 288 288 288 288 287 286 286 285 285 285 284 283 283 283 283 283 282 283 283 284 284 285 286 286 286 286 286 285 284 283 282 282 281 281 281 280 279 279
292 292 292 291 291 290 290 289 290 290 291 291 291 291 290 291 291 292 291 290 288 288 288 288 287 287 287 286 286 285 285 284 284 283 283 283 282 282 282 282 282 282 282 283 284 285 286 286 287 287 286 286 284 283 282 281 281 280 280 280 279 279
293 293 293 292 292 291 291 291 290 290 291 290 291 290 289 290 291 291 290 288 288 288 287 287 287 286 286 285 285 284 283 283 283 282 282 282 282 282 281 281 281 281 282 283 284 284 285 286 287 286 286 285 284 283 281 280 280 279 279 279 279 278
294 293 293 293 293 292 291 290 291 291 290 290 289 289 289 290 290 290 289 288 287 287 287 286 286 285 285 284 283 283 283 283 282 282 282 281 281 281 280 280 280 281 282 283 283 284 285 286 286 286 285 285 284 283 281 280 279 279 279 278 278 278
293 292 291 292 292 290 289 289 289 289 288 288 288 289 289 290 289 289 287 287 287 286 286 286 286 285 284 283 283 283 282 282 282 281 281 281 281 280 280 280 280 280 281 282 283 283 284 285 286 285 285 284 284 283 281 279 279 279 278 278 278 278
293 293 293 291 290 290 290 290 289 289 288 287 287 287 288 288 288 288 287 287 286 286 286 285 285 283 283 283 282 282 282 281 281 281 280 280 280 280 279 279 279 279 280 281 282 283 283 285 286 285 284 284 283 282 279 279 278 278 278 278 278 277
293 293 290 290 291 290 289 289 289 288 287 287 287 287 287 287 287 287 287 286 285 285 285 285 284 283 283 282 282 282 281 281 280 280 280 279 279 279 278 278 278 279 279 279 281 281 282 284 285 284 284 283 282 279 278 278 278 278 277 277 277 277
290 289 291 289 289 289 289 288 289 288 287 287 286 286 286 287 287 287 286 286 285 285 285 284 284 283 282 282 282 282 281 281 281 280 280 279 278 278 278 277 277 277 277 278 279 280 281 282 284 284 283 282 281 279 278 278 278 277 277 276 276 276
289 288 288 289 289 288 288 288 288 288 287 287 286 287 286 286 287 286 286 286 285 285 285 284 284 283 282 282 282 282 281 280 280 279 279 279 278 277 276 276 275 275 275 276 277 279 280 281 283 284 283 282 281 279 278 278 277 276 275 276 276 276
287 287 288 288 289 288 288 288 288 287 287 286 286 286 286 287 287 287 286 286 285 285 284 284 283 283 282 282 282 281 280 279 278 278 278 277 277 276 275 275 274 274 274 274 275 276 278 279 281 282 283 282 281 280 278 278 276 275 275 275 275 274
289 290 290 290 288 288 288 288 288 287 287 287 286 286 287 288 288 286 286 285 284 284 283 283 283 282 282 282 281 280 278 278 278 277 277 275 275 274 274 273 273 272 272 273 273 274 275 277 279 281 283 282 281 281 279 277 276 276 275 275 274 274
287 286 286 286 287 287 287 288 287 287 287 286 286 287 287 287 286 285 284 284 283 283 282 282 282 281 281 279 279 277 277 277 277 276 276 275 274 273 272 272 272 272 272 272 273 274 275 277 279 280 282 282 282 281 280 277 277 276 275 274 274 274
285 285 284 284 285 286 286 287 287 286 286 286 286 285 286 285 284 284 283 282 282 281 281 280 280 279 278 278 278 277 276 275 275 275 274 274 273 272 272 272 272 272 272 272 273 274 274 275 277 280 280 282 282 281 280 280 279 279 276 274 273 273
283 283 282 283 284 285 286 287 286 286 286 286 284 284 283 283 282 282 281 280 280 279 279 278 278 277 277 277 277 276 275 274 274 274 274 274 273 273 272 272 272 272 272 271 272 272 273 274 276 278 279 280 281 281 281 281 280 279 276 275 274 274
283 282 281 282 283 284 285 286 287 285 285 284 282 283 282 281 281 281 280 279 278 278 277 277 276 276 276 276 276 275 274 273 273 273 273 273 274 274 273 273 273 272 272 272 271 272 272 273 274 276 278 279 280 281 281 280 280 279 278 275 274 275
281 281 281 280 280 282 283 284 285 285 284 281 281 281 281 280 280 279 278 278 277 276 275 275 275 275 275 275 275 275 275 274 274 274 273 274 274 274 274 273 273 273 272 272 272 271 271 272 273 273 275 277 278 279 279 279 279 278 277 275 275 276
281 280 280 281 279 280 281 281 281 282 279 279 279 279 279 279 279 278 276 276 275 274 274 275 274 274 273 274 274 274 274 274 274 274 273 274 274 274 274 273 273 273 273 272 271 271 271 271 272 272 274 275 275 276 277 277 276 277 276 274 275 273
280 279 279 280 279 278 279 279 277 277 278 278 278 278 278 278 278 277 276 275 274 274 274 274 273 273 273 273 273 273 273 273 274 274 274 274 274 274 274 274 273 273 273 272 271 270 270 270 271 272 273 274 274 274 274 274 274 274 272 272 272 269
278 278 278 277 276 276 276 275 275 276 277 278 277 278 278 277 276 276 274 274 273 273 273 273 273 273 273 272 272 272 273 273 273 274 275 276 277 277 276 275 275 274 275 273 271 270 270 270 271 272 275 274 276 274 273 273 273 273 272 273 271 265
275 276 275 275 274 274 274 273 273 274 276 276 276 277 277 276 275 274 273 273 273 272 272 272 272 272 272 272 272 271 270 274 276 275 275 275 276 277 277 278 276 275 275 274 273 273 272 272 272 276 277 277 278 278 277 275 276 275 273 275 274 266
272 273 273 273 273 272 272 272 272 273 273 275 276 277 276 275 275 274 273 272 272 272 272 272 272 271 271 271 271 271 271 272 274 276 276 276 276 277 277 278 277 277 277 274 272 274 275 275 276 278 278 278 279 278 278 277 277 276 276 276 268 263
271 273 272 272 271 271 271 271 270 271 272 272 274 275 275 275 275 274 273 273 272 272 272 272 271 271 271 271 271 271 271 272 272 273 276 276 276 277 277 277 277 277 277 276 274 273 274 277 278 279 279 279 279 279 278 278 278 277 277 275 271 261
271 271 270 270 269 269 269 270 269 269 270 271 272 273 274 274 275 274 273 272 272 271 271 271 271 271 271 270 270 270 271 272 272 272 273 275 277 278 278 278 278 277 277 276 276 277 277 278 279 280 279 279 278 278 277 277 277 277 276 275 266 261
270 270 270 269 268 268 268 267 267 268 268 269 270 271 272 273 272 272 273 272 272 271 271 271 271 271 271 271 271 271 272 273 274 274 274 273 273 275 276 278 278 277 277 277 277 277 278 279 279 279 279 278 278 277 277 276 275 276 275 269 262 261
269 269 269 268 267 267 266 266 265 265 265 266 268 268 269 269 270 269 270 269 270 271 271 271 271 271 270 271 271 272 272 273 273 274 274 273 273 273 272 273 275 277 277 276 277 277 278 278 279 279 278 278 277 277 276 276 271 269 265 263 258 259
268 267 267 267 267 266 266 265 264 264 264 265 266 268 268 268 269 269 270 270 270 270 270 270 270 270 270 270 270 271 271 272 272 272 273 274 274 273 272 271 273 273 276 277 276 277 278 278 278 278 278 277 277 276 276 267 265 264 263 262 260 259

ECMWFFLT1_sfc_thetae_114.txt.gz
Theta_e
303 303 303 303 302 303 304 306 307 309 311 314 316 318 319 321 322 322 322 323 324 324 324 325 325 327 327 327 327 326 325 324 323 320 319 316 312 312 310 308 307 306 306 306 304 303 302 303 303 304 305 303 300 298 297 297 297 296 296 296 296 295
302 301 301 301 301 302 302 303 305 305 307 310 312 316 318 318 319 319 320 322 322 322 323 324 325 325 325 325 325 323 323 322 320 318 315 312 310 310 309 307 305 303 301 300 300 300 300 300 301 302 299 298 297 296 295 295 296 295 294 293 293 293
300 299 299 299 300 301 301 302 303 304 306 307 309 311 313 315 317 318 319 320 320 320 321 321 322 323 324 324 323 322 322 320 316 316 312 310 309 309 308 306 305 303 300 299 298 298 297 299 298 297 296 295 294 294 295 294 294 293 292 291 291 292
301 300 297 297 299 301 301 302 303 304 305 307 308 310 312 313 314 315 317 318 319 318 319 320 320 321 322 322 321 321 319 316 314 313 311 309 307 307 306 304 303 301 299 299 297 296 297 297 295 295 294 293 293 293 293 293 293 292 291 291 290 291
301 301 299 298 299 302 302 303 304 305 305 306 308 309 310 312 313 314 314 315 316 316 317 318 317 317 317 317 316 316 313 311 310 308 307 306 303 302 302 301 300 298 297 296 296 297 296 295 294 294 293 293 292 291 292 293 292 292 291 290 290 290
297 296 297 297 299 301 302 304 305 305 305 306 307 307 309 309 310 311 311 312 312 314 313 313 313 313 313 313 312 311 309 307 305 304 305 303 302 299 296 297 298 297 297 296 295 295 294 293 293 293 293 292 292 291 291 292 292 292 291 290 289 289
297 298 299 299 300 301 302 303 304 305 305 305 305 306 307 308 309 308 308 308 308 308 309 309 308 309 309 309 307 306 303 302 301 301 300 299 299 299 296 295 296 298 297 295 294 294 293 293 292 292 292 292 292 291 291 291 291 290 290 289 289 287
299 299 299 300 299 300 302 303 304 304 305 305 305 305 305 305 305 306 307 306 305 304 305 305 305 306 306 304 302 300 298 297 297 297 297 298 297 295 296 296 297 297 296 295 294 293 293 292 292 291 291 291 291 291 291 290 290 289 288 288 287 287
298 299 300 300 300 299 300 301 302 302 303 303 303 303 303 302 303 303 303 304 304 303 303 302 303 303 302 300 298 296 296 296 295 295 296 297 297 295 294 296 296 295 295 294 293 292 291 291 291 291 290 290 290 290 289 288 288 287 287 287 286 287
301 300 300 300 299 300 299 299 301 301 301 301 299 298 298 298 299 300 300 300 300 300 299 299 297 297 297 296 295 295 295 294 294 295 295 295 295 295 295 296 295 293 293 292 291 291 291 290 290 290 290 290 290 289 288 288 286 286 285 285 285 285
301 301 300 300 299 298 298 297 297 298 298 297 296 297 298 297 297 297 297 297 298 298 297 296 295 294 294 293 293 292 293 293 293 293 293 295 294 294 295 294 291 290 290 290 290 290 290 290 290 290 289 289 288 288 287 287 286 285 285 284 284 284
301 301 301 300 298 298 298 298 297 297 296 296 294 295 294 295 296 296 295 296 295 293 294 294 293 292 292 293 293 292 291 291 292 292 291 293 294 292 290 289 289 290 289 289 288 289 289 289 289 287 288 288 288 287 287 286 286 285 284 283 283 283
301 301 300 300 299 298 298 298 298 297 296 296 294 294 294 294 294 295 295 295 293 292 292 292 291 291 292 292 292 291 290 290 290 290 290 290 289 288 288 288 288 288 288 288 288 287 288 288 287 286 288 288 288 287 286 286 285 285 284 283 282 282
301 300 300 300 299 298 297 298 298 297 296 296 294 294 294 294 294 294 294 294 292 291 291 291 290 291 291 290 289 290 290 289 288 288 288 288 287 287 287 287 287 288 288 288 287 287 287 287 286 288 288 288 287 287 286 286 285 284 284 283 282 282
302 302 302 300 300 299 298 298 298 297 297 296 296 294 292 294 294 294 293 291 291 290 291 290 290 289 289 289 288 288 288 288 287 287 286 286 286 286 286 286 286 286 287 287 287 287 286 286 287 288 288 287 287 287 286 285 285 284 283 282 282 281
303 302 302 301 301 300 299 298 298 298 298 297 295 293 292 293 293 294 292 291 290 290 290 290 289 289 288 288 287 287 287 287 287 287 287 286 285 285 285 285 285 286 286 287 287 287 286 286 287 288 287 287 286 286 285 284 284 283 282 282 281 281
303 302 300 300 300 300 298 297 297 297 297 296 294 294 293 294 293 293 292 291 291 290 290 289 289 288 287 287 287 286 287 287 286 286 285 285 285 285 284 284 285 285 286 287 287 287 286 286 287 287 287 287 286 285 284 283 283 282 281 281 281 281
302 302 302 301 300 298 297 296 296 296 295 294 293 293 293 293 293 293 292 291 291 290 290 289 289 289 288 287 286 286 286 286 285 285 285 285 285 284 284 284 285 285 286 286 286 286 285 286 287 287 287 286 286 285 283 282 282 281 281 280 280 280
301 302 302 299 299 297 296 296 295 295 294 293 293 292 292 293 293 293 292 291 290 290 290 290 289 288 288 287 286 286 286 285 285 285 285 284 284 284 283 284 284 285 285 286 286 286 285 285 286 286 286 286 285 283 282 282 281 280 280 280 280 280
301 299 300 298 297 297 296 295 294 294 293 292 292 291 292 292 293 294 292 292 291 290 290 290 289 287 286 286 286 286 286 286 286 285 285 284 283 283 283 283 284 284 285 285 286 286 285 284 285 285 286 285 284 283 282 281 280 280 279 279 279 279
298 297 296 297 295 295 295 294 293 293 292 292 292 291 291 291 293 294 293 292 291 290 290 289 288 287 287 286 286 286 286 285 284 284 284 284 284 283 283 283 283 283 284 285 285 285 285 284 284 285 285 284 283 282 282 281 280 279 278 278 278 278
294 294 295 295 296 294 294 293 293 291 292 291 292 291 291 291 293 295 294 293 291 290 289 288 287 287 286 286 286 286 285 285 284 283 283 283 283 282 282 282 282 281 282 283 284 284 285 284 284 284 284 284 283 282 282 281 280 278 278 278 277 277
297 297 296 296 294 292 292 292 292 291 291 291 290 290 291 292 293 294 293 293 290 289 288 287 287 286 286 286 286 285 284 284 283 283 282 281 281 281 280 280 280 279 279 280 282 283 284 284 283 283 284 284 283 283 281 280 280 279 278 278 277 277
294 293 293 293 292 291 292 292 291 291 291 290 290 291 292 292 292 292 292 291 290 288 287 286 286 286 286 286 285 284 283 283 283 282 281 281 280 279 278 278 278 278 278 279 279 281 282 283 283 283 283 283 283 283 282 280 280 279 278 277 276 276
293 293 292 291 291 291 291 290 289 290 289 289 290 291 291 291 290 290 289 288 287 286 286 285 285 285 285 284 284 283 282 281 281 280 280 279 278 278 277 277 277 277 277 277 278 279 280 282 283 283 282 283 283 283 282 281 280 280 278 277 276 276
292 291 289 290 290 290 290 289 288 288 288 289 291 290 289 288 287 287 286 285 285 285 285 284 284 284 283 283 283 282 281 280 280 279 279 279 278 277 276 276 276 277 276 276 277 278 279 281 282 283 282 282 283 283 282 281 281 281 278 277 277 277
290 289 288 289 288 289 288 289 288 287 287 289 288 287 287 287 286 286 285 284 284 284 283 283 283 283 283 282 282 281 280 279 279 278 278 278 278 277 277 276 276 277 277 277 277 277 278 279 281 282 282 282 282 283 283 282 281 281 279 276 277 277
287 287 287 287 288 289 288 289 288 287 288 287 287 287 286 285 285 284 284 283 283 283 282 282 281 281 281 281 282 281 280 279 278 278 278 278 278 278 277 276 276 277 277 277 277 277 277 277 278 279 280 282 282 282 282 282 282 281 279 277 277 277
286 286 286 286 286 286 287 287 288 287 286 285 286 285 285 284 284 283 283 282 282 281 281 281 280 280 280 280 281 281 280 280 279 279 278 278 278 278 278 277 277 277 277 277 277 276 276 275 276 277 278 280 281 281 281 281 281 280 279 276 276 277
286 285 285 286 286 285 286 285 284 284 284 284 284 284 284 283 283 283 282 281 280 280 280 280 277 278 279 279 280 280 279 279 280 279 278 278 278 278 278 277 277 277 277 277 276 275 274 274 275 275 276 278 279 280 280 280 279 279 277 275 276 276
284 284 284 284 284 283 283 282 281 282 283 283 283 283 283 283 281 282 280 280 280 280 279 280 279 279 279 279 279 280 280 279 279 279 279 280 281 281 280 279 279 279 278 277 276 274 273 274 274 275 278 278 280 278 278 278 277 278 276 276 276 272
283 283 282 281 281 281 280 279 279 280 281 282 282 283 283 281 281 280 279 279 279 279 279 279 279 279 279 278 278 278 278 277 279 280 280 279 280 280 280 280 280 280 279 278 278 277 276 274 275 278 279 280 280 280 280 279 279 279 276 277 276 271
280 281 280 280 279 279 278 278 277 278 279 280 281 282 281 280 281 280 279 278 279 278 278 278 278 278 278 278 278 277 277 277 277 278 278 279 280 280 279 280 281 280 280 278 277 277 278 277 277 279 280 280 281 281 280 280 279 279 278 278 273 269
280 280 279 279 277 276 276 276 276 276 277 278 279 280 281 281 281 280 279 278 278 276 277 278 277 277 277 277 277 277 277 277 276 276 278 278 278 279 279 279 280 280 281 280 279 277 277 278 279 280 280 280 281 281 280 279 279 279 278 278 274 268
280 278 277 277 276 275 275 275 274 275 275 276 277 278 279 279 280 280 278 278 277 276 276 276 276 276 276 276 275 275 276 276 277 276 276 277 278 278 279 279 279 279 280 280 279 279 278 278 279 280 281 280 281 280 280 279 280 279 279 278 271 268
277 276 275 274 274 274 274 273 272 273 273 274 275 276 277 277 278 278 278 277 276 276 276 276 276 276 276 276 276 276 276 276 277 277 278 276 276 276 278 279 279 279 280 280 279 279 279 279 280 281 281 281 281 281 280 280 278 280 280 276 270 269
274 274 273 272 272 273 272 271 270 269 270 272 274 275 275 275 276 277 274 272 274 277 276 277 276 276 276 276 275 275 275 276 276 277 277 277 277 276 276 276 277 279 280 278 279 279 279 280 281 281 281 281 281 281 281 280 277 276 276 275 271 268
273 272 272 271 272 271 271 270 269 269 269 270 272 274 274 274 275 276 277 275 274 276 277 276 276 276 276 275 275 276 276 276 276 276 276 277 277 277 276 276 277 277 278 278 278 279 280 281 281 281 281 281 281 281 281 276 274 274 274 272 270 267

ECMWFFLT1_sfc_thetae_117.txt.gz
Theta_e
308 309 309 309 308 307 307 308 308 309 311 313 315 316 319 321 324 326 326 327 327 327 327 327 327 328 329 329 330 330 328 328 328 329 328 327 326 323 321 321 319 316 314 314 314 312 313 314 313 312 309 309 307 307 305 302 302 300 299 299 299 298
308 309 310 309 308 307 308 308 308 308 309 310 312 315 317 320 322 324 324 326 326 326 326 326 326 327 327 328 328 328 328 327 328 328 326 325 323 322 320 317 315 312 311 310 309 308 310 311 311 310 307 307 307 304 300 300 299 298 297 297 297 297
308 307 306 306 306 306 306 306 306 307 308 309 310 311 314 317 320 321 322 324 324 324 325 326 326 326 327 327 328 328 327 326 326 327 325 321 321 319 316 313 313 311 310 308 306 306 306 307 307 307 306 304 300 298 298 298 297 296 294 294 294 295
306 306 304 303 303 304 303 304 305 306 306 307 308 309 311 314 317 319 321 321 322 323 324 324 325 326 326 326 327 326 325 325 324 323 320 319 317 316 313 312 310 308 306 306 305 304 304 306 306 301 300 298 297 297 297 296 295 293 293 292 292 292
305 306 304 303 302 303 304 304 304 306 306 307 308 309 309 312 314 317 318 318 319 321 322 322 322 322 322 323 324 323 322 322 321 319 318 316 313 313 312 310 308 306 304 304 302 302 300 301 299 298 298 297 296 295 295 295 293 292 291 291 291 291
304 303 302 302 302 303 304 304 305 306 307 308 308 309 310 312 313 314 315 317 318 319 319 319 319 319 319 319 320 318 318 317 317 316 315 313 311 310 309 309 308 305 303 302 300 299 298 296 296 296 296 296 295 294 294 293 293 292 291 290 290 290
302 302 304 304 303 303 304 305 306 307 307 308 308 308 310 311 312 312 312 311 311 312 313 315 315 316 316 317 317 315 312 312 311 310 310 307 307 307 306 304 303 303 303 301 301 300 297 296 295 295 294 294 294 293 293 292 292 291 290 290 290 289
304 305 304 305 305 304 305 305 306 307 307 307 308 307 308 309 309 309 308 306 307 308 309 310 311 313 314 314 313 311 309 307 307 306 304 305 305 301 301 301 299 300 301 301 300 299 297 295 295 294 293 293 292 292 292 291 291 290 290 289 289 289
303 304 305 305 305 305 305 305 306 306 306 306 306 306 306 306 306 306 306 305 305 306 306 307 307 308 308 308 307 304 304 303 301 301 301 299 300 299 298 296 297 297 298 298 297 296 295 295 294 293 292 292 291 291 290 290 289 288 288 288 288 288
305 304 305 305 305 305 305 305 305 305 304 304 305 305 304 304 304 304 304 304 305 305 304 303 302 302 302 300 299 299 297 297 297 298 297 297 297 297 297 297 297 296 296 295 295 295 294 293 293 292 291 291 290 290 289 288 288 287 287 286 287 287
306 306 306 305 305 304 304 303 303 303 303 304 304 303 304 304 303 303 303 302 303 302 301 299 297 297 296 295 295 294 294 294 294 294 294 295 296 296 296 296 297 296 295 294 293 293 293 292 292 291 290 290 289 289 288 287 287 286 285 285 285 285
307 307 307 306 305 304 304 303 303 301 301 301 301 302 302 301 301 300 299 300 300 299 297 296 295 294 293 293 293 293 293 293 293 293 293 294 293 294 294 294 294 295 294 293 291 291 291 291 291 289 290 290 289 288 288 287 286 285 285 284 284 284
307 307 306 306 306 305 304 304 304 303 302 301 301 300 300 299 299 299 298 299 296 294 294 294 293 293 293 293 293 292 292 292 292 292 293 292 293 293 293 292 293 292 292 292 291 290 290 290 289 289 291 291 290 288 287 286 285 285 284 284 283 282
308 307 306 306 307 305 305 304 304 303 302 301 300 300 298 298 298 298 297 295 292 292 293 292 292 292 292 292 292 292 291 291 291 291 291 291 291 291 291 291 291 291 291 291 290 290 289 288 288 290 291 290 290 288 286 286 285 285 284 283 283 282
308 309 309 308 307 306 305 305 304 303 303 301 300 298 296 295 296 296 294 292 292 291 291 291 291 291 290 291 291 290 290 290 290 290 289 290 290 290 290 290 290 290 290 290 289 288 288 287 289 290 291 290 290 289 287 286 285 284 283 283 282 282
310 309 309 309 308 306 306 304 304 304 303 301 299 296 295 295 295 295 293 292 291 291 290 290 290 290 290 290 289 289 289 289 290 290 290 289 289 289 289 289 289 289 289 289 288 287 286 286 288 290 290 290 290 289 288 285 285 284 283 282 282 282
307 309 307 306 306 305 304 302 303 302 301 299 297 297 295 296 295 295 293 292 291 291 290 290 290 290 289 289 289 289 289 289 289 288 288 288 288 288 288 288 288 287 287 287 287 286 285 286 289 290 289 289 289 289 287 285 284 283 282 282 282 282
306 306 307 307 305 304 303 301 301 300 299 299 297 296 295 295 295 295 294 292 291 291 291 290 290 289 289 288 288 288 288 288 288 288 288 288 288 288 288 288 287 287 286 286 286 285 285 286 289 289 289 289 289 288 285 284 283 282 281 281 281 281
307 308 308 306 304 303 302 301 299 299 298 297 296 295 295 295 294 294 294 292 292 291 291 291 290 289 288 288 287 287 288 287 287 287 287 287 287 287 287 286 286 286 286 286 286 285 285 286 288 288 288 288 288 286 284 283 283 281 281 280 280 280
305 304 305 302 301 301 300 299 298 298 296 295 295 294 294 294 294 295 293 293 293 292 292 291 291 289 288 287 287 287 287 287 287 287 287 287 286 286 286 286 286 286 286 286 285 285 285 285 286 288 288 288 287 285 283 283 282 281 280 280 280 280
303 301 300 300 299 299 299 297 297 296 295 295 294 294 294 294 295 295 294 294 294 293 291 291 290 289 288 287 287 287 287 287 287 287 287 287 286 286 286 286 286 286 286 286 285 285 285 285 285 287 287 287 286 284 283 283 282 280 280 279 279 279
298 298 298 298 299 298 297 296 296 294 295 294 294 293 293 294 295 296 296 295 294 293 291 291 288 288 287 287 287 287 287 287 286 286 286 286 286 285 285 285 286 285 285 285 285 285 285 284 285 286 287 287 286 285 283 283 281 280 280 279 279 278
298 298 298 299 299 297 296 295 295 293 294 294 293 293 293 294 295 296 296 295 293 291 290 288 288 287 287 287 287 287 287 287 286 285 285 285 285 284 284 285 285 285 284 285 285 285 284 284 284 285 287 286 286 285 284 282 282 281 280 279 279 278
297 297 297 297 296 295 294 294 293 293 293 293 292 293 294 294 295 295 294 292 291 289 288 287 287 287 287 287 287 286 285 286 285 285 285 284 283 283 283 283 284 283 283 283 284 284 284 284 284 284 286 286 285 285 285 282 282 282 280 279 278 278
295 295 294 294 294 294 294 292 290 291 291 291 291 293 293 294 293 294 292 289 288 287 287 286 286 286 286 286 286 285 284 284 284 284 284 283 283 282 282 282 282 281 281 281 282 283 283 283 283 284 284 285 285 285 285 284 283 283 281 279 278 278
295 293 292 293 293 293 292 290 289 289 289 291 293 292 292 292 291 291 289 287 287 286 286 286 286 286 286 286 285 285 284 283 283 283 283 282 282 281 281 281 281 280 280 280 280 281 282 283 283 283 284 284 285 285 284 284 284 283 280 280 280 279
292 291 291 291 291 292 290 289 289 288 288 291 290 289 289 288 288 287 287 286 286 286 286 286 286 285 285 285 285 284 283 283 282 281 282 282 281 281 280 280 280 280 280 280 279 280 281 282 283 282 283 283 284 285 284 283 283 283 282 279 279 279
289 289 289 290 290 290 289 290 288 287 289 290 289 289 288 287 286 286 286 285 285 285 285 285 285 285 285 285 285 285 284 283 282 281 280 281 281 280 280 279 279 279 280 280 280 280 280 281 281 282 282 282 283 283 284 283 283 282 281 279 279 279
288 288 288 287 288 289 289 288 289 288 288 288 288 287 286 286 286 285 285 285 285 284 284 284 284 284 283 284 284 284 283 283 283 282 280 280 280 280 280 279 279 279 279 279 279 279 279 280 280 281 281 282 282 282 283 282 282 282 280 278 278 279
288 287 287 287 287 288 287 286 286 286 287 287 287 286 286 285 285 285 284 284 284 284 283 284 280 281 282 282 282 282 282 282 282 281 280 280 280 279 279 279 279 279 279 279 280 279 278 279 279 280 281 281 281 281 282 282 281 280 278 277 277 278
287 287 287 287 287 286 285 284 284 285 285 285 285 285 285 285 284 284 283 283 283 282 283 283 281 282 282 281 282 282 282 281 281 281 281 282 282 282 281 280 280 280 281 281 280 279 278 278 278 279 282 282 282 281 281 280 280 280 278 278 279 277
286 286 285 285 285 285 283 282 282 283 283 284 284 285 285 284 283 282 282 282 282 282 282 282 281 282 281 281 281 281 280 280 282 282 281 281 283 283 283 283 281 281 281 281 281 281 279 278 279 281 282 282 283 283 283 282 282 282 279 279 280 276
284 284 284 284 284 282 281 280 281 281 281 282 283 284 284 283 283 282 281 281 281 281 282 281 281 281 281 281 281 280 280 279 279 280 280 282 283 282 282 281 282 281 282 282 280 281 282 281 281 281 282 282 283 283 283 282 282 282 280 281 277 273
283 283 283 283 281 280 279 278 279 280 280 281 282 283 283 283 284 283 282 282 281 280 281 281 280 280 280 280 280 280 279 279 278 278 279 279 280 281 281 281 281 282 282 282 282 281 280 280 281 282 282 282 283 283 283 283 283 282 281 281 278 273
284 284 282 281 279 279 278 277 277 277 277 278 280 281 282 282 283 282 281 281 280 279 280 280 279 279 279 278 278 278 279 279 278 278 277 278 279 279 280 280 281 281 281 282 282 282 281 281 280 281 282 282 282 283 283 283 283 282 282 281 275 272
281 281 281 279 277 278 277 275 275 275 275 277 278 279 280 280 280 281 281 280 279 279 279 279 279 279 279 279 279 278 278 279 279 279 279 277 276 276 278 279 280 280 281 282 282 282 282 281 281 281 281 282 282 283 283 282 281 282 282 280 274 273
279 278 277 276 276 276 275 273 271 271 272 274 276 277 277 277 278 279 275 274 277 280 279 279 279 278 278 278 278 278 278 278 278 279 279 278 277 276 276 276 277 280 280 280 281 281 282 281 281 281 282 282 282 282 283 283 279 278 278 278 275 273
276 275 275 275 275 274 273 271 271 271 271 273 275 276 276 276 277 278 278 277 277 278 279 279 278 279 278 278 278 277 277 278 277 278 278 278 278 278 277 277 278 278 280 280 280 281 281 281 281 281 282 282 282 282 282 278 276 276 276 276 276 274

ECMWFFLT1_sfc_thetae_120.txt.gz
Theta_e
300 299 299 299 299 300 300 301 302 304 305 308 311 313 315 317 319 320 322 322 323 324 323 323 324 324 324 324 324 323 324 324 324 324 325 323 322 323 323 324 324 324 321 320 318 318 317 316 315 315 313 310 308 307 306 306 306 305 302 300 300 298
301 302 302 301 301 302 302 302 302 302 303 304 306 308 310 312 315 317 319 321 321 322 320 321 322 322 322 322 322 322 323 324 323 323 322 323 321 322 322 322 321 320 317 313 314 314 313 313 312 311 309 308 307 306 303 302 302 300 298 296 297 296
300 299 298 298 298 298 299 300 300 301 302 302 303 304 306 308 310 313 315 316 318 317 318 319 320 320 321 320 321 321 321 322 321 323 321 318 320 321 319 319 320 318 316 312 310 311 311 311 309 308 307 305 304 302 301 300 299 297 294 293 293 292
299 297 296 296 297 297 297 299 300 300 300 300 301 302 303 304 307 309 311 312 315 316 317 318 318 319 319 319 319 320 319 320 320 320 315 316 316 318 318 318 318 314 313 311 310 309 309 310 308 306 306 304 301 298 299 298 296 294 292 291 291 290
299 297 296 295 295 296 296 296 298 299 299 300 300 301 301 302 303 306 308 309 310 311 312 312 313 314 314 315 315 315 315 317 316 316 315 314 313 314 316 315 313 312 311 309 308 309 307 307 305 305 305 302 300 298 297 296 295 293 291 290 289 289
297 296 296 295 295 295 296 296 297 299 300 301 301 301 301 302 303 304 306 306 308 308 308 308 308 308 308 310 310 310 307 312 315 315 315 314 312 313 312 313 311 309 308 306 306 306 306 304 302 301 300 300 298 296 296 294 293 291 290 289 289 288
295 297 296 297 296 295 297 298 299 299 300 299 300 300 300 300 301 302 304 303 302 304 304 304 304 306 307 309 307 308 307 309 311 312 314 312 311 311 309 307 307 307 306 305 304 304 303 301 300 299 297 296 295 295 294 293 291 289 289 288 288 287
296 296 296 298 298 298 298 299 300 300 300 301 299 299 298 298 300 301 302 302 301 301 303 305 306 309 310 311 310 309 308 308 309 310 310 311 311 308 307 306 304 304 304 303 303 302 300 298 297 296 296 294 294 293 292 291 289 288 287 287 287 286
297 298 298 299 298 297 299 299 300 298 298 298 297 297 297 298 300 301 302 302 302 303 304 304 306 308 309 309 309 307 308 308 306 308 308 307 308 306 304 302 303 302 303 302 301 300 298 296 296 295 294 293 293 292 290 288 287 287 286 286 286 285
296 296 297 297 298 297 297 296 296 296 295 295 295 296 298 299 300 301 300 301 300 300 301 301 301 301 303 304 304 305 304 304 303 303 301 300 304 303 303 301 301 299 300 301 300 299 297 296 295 294 293 293 292 291 289 288 287 286 285 285 285 285
297 297 297 298 296 297 296 296 296 295 294 295 297 299 300 300 299 298 298 299 299 299 299 299 298 298 298 297 298 298 298 298 297 295 295 296 297 299 299 300 300 297 297 296 295 296 296 295 295 294 293 291 290 289 288 287 286 285 284 284 284 284
298 298 298 297 298 297 297 297 296 296 297 299 299 299 299 299 299 298 298 298 299 298 297 295 294 293 293 294 294 293 292 292 292 292 293 294 293 294 294 295 295 296 296 296 294 293 294 295 295 291 291 291 290 288 287 286 285 285 284 283 283 283
299 298 298 298 298 298 298 298 297 296 296 298 299 299 299 298 298 297 297 298 297 296 294 293 291 290 291 292 291 290 291 292 292 292 292 292 293 293 293 294 295 294 294 294 295 294 294 294 293 290 292 292 291 288 286 285 284 284 283 283 283 282
299 299 299 298 298 298 298 297 297 296 296 296 297 298 297 297 297 297 296 296 293 292 292 290 291 291 290 290 291 291 290 290 290 290 291 291 291 292 292 293 294 294 293 292 291 291 291 291 290 292 292 292 291 289 286 285 284 283 283 282 282 281
299 300 299 297 299 299 298 298 297 297 296 295 296 296 295 296 296 296 295 292 291 291 290 290 290 290 290 290 290 289 289 289 290 290 290 291 290 290 292 292 292 291 291 292 292 291 290 289 290 292 292 291 291 290 286 284 284 283 282 282 281 281
299 299 299 299 299 299 298 298 298 296 295 294 292 293 295 295 294 295 293 291 291 290 290 289 290 290 289 289 288 288 289 289 290 289 289 289 289 290 290 289 290 290 290 290 290 290 289 289 289 292 291 291 290 290 287 284 283 282 282 281 281 281
299 298 296 297 297 295 295 294 293 293 293 292 292 292 294 294 293 293 292 291 290 289 289 289 289 289 288 288 288 288 288 289 289 289 289 289 290 290 290 290 289 290 289 289 289 288 287 288 290 291 291 291 290 290 286 283 283 282 281 281 281 280
298 297 298 296 295 295 295 294 293 293 291 290 291 292 293 293 292 292 291 291 290 290 289 289 289 289 288 288 287 287 288 288 288 288 288 288 288 288 288 288 289 288 288 288 288 287 286 287 290 290 290 290 290 289 284 283 282 281 280 280 280 280
297 296 295 295 296 295 294 293 293 292 291 291 291 292 292 292 292 292 291 291 290 290 290 289 289 288 288 287 287 287 287 287 287 287 287 288 288 288 288 288 288 288 287 287 287 286 286 286 289 290 290 290 290 286 283 282 281 280 280 280 280 280
295 294 297 294 293 294 293 292 292 291 291 291 291 292 292 292 292 292 292 291 291 290 290 290 289 288 287 287 287 287 287 287 287 287 287 288 287 287 287 287 287 286 286 286 286 286 286 286 287 289 289 289 289 285 282 282 281 280 279 279 279 279
294 292 291 292 292 292 291 291 291 291 291 290 291 291 291 291 292 292 291 291 291 290 290 289 289 288 287 287 287 287 287 287 287 286 286 287 287 286 286 286 286 286 286 286 286 285 286 286 286 288 289 289 288 285 282 282 280 279 278 278 278 279
291 289 291 292 292 290 290 290 291 290 289 288 289 290 291 291 291 292 292 291 291 290 289 289 288 287 287 287 287 287 287 286 286 286 286 286 286 286 286 286 286 286 285 285 285 285 286 285 286 287 289 288 288 286 282 281 280 279 278 279 278 277
292 292 291 290 289 290 289 290 289 288 286 287 289 289 290 291 292 292 292 291 290 290 289 288 288 287 287 287 287 286 286 286 286 286 286 285 286 286 285 285 285 285 285 285 285 285 285 285 285 286 288 288 288 286 284 281 281 280 279 278 277 277
288 288 288 287 289 289 289 289 289 287 287 287 288 288 290 291 292 292 292 291 290 288 288 287 287 287 287 286 286 286 286 286 286 286 285 285 285 285 285 285 285 285 284 284 284 284 284 285 285 285 287 287 288 287 285 281 281 280 279 278 277 277
287 285 285 285 287 288 288 289 288 287 287 288 287 287 289 290 292 291 290 289 288 287 287 287 287 287 287 286 286 286 285 285 285 285 285 284 284 284 284 284 284 284 283 283 283 284 284 284 284 285 285 286 287 287 286 284 282 284 280 278 277 277
285 286 284 285 286 287 288 289 288 287 287 287 286 287 288 289 290 289 288 287 287 287 287 286 286 286 287 286 286 286 285 285 285 285 284 284 284 284 283 283 283 283 282 282 282 282 282 283 282 284 284 285 286 287 286 286 285 284 279 278 277 277
287 285 284 284 284 285 286 286 288 286 286 285 286 287 287 287 287 288 287 287 286 286 286 286 286 286 286 286 286 286 285 284 284 284 284 284 284 283 283 283 283 283 282 282 281 281 281 281 281 281 283 284 285 286 286 286 286 285 283 279 278 279
285 285 284 283 283 284 284 284 286 287 286 285 286 286 286 286 287 287 287 286 286 286 286 285 285 285 285 285 286 286 285 284 284 284 283 283 283 283 283 282 282 282 282 282 281 281 281 280 279 280 280 282 283 284 285 285 285 284 283 280 279 280
285 284 284 284 282 283 283 283 283 284 284 285 285 285 285 285 285 284 284 285 285 285 285 285 285 285 285 285 285 285 284 284 284 283 282 282 282 282 282 282 281 281 281 281 281 280 280 279 278 278 279 280 280 281 282 282 282 283 282 280 280 281
285 284 284 284 283 282 282 282 282 282 283 283 284 284 284 284 284 283 281 281 282 283 284 285 282 283 284 284 284 284 283 283 284 283 282 282 282 281 281 281 281 281 281 281 281 279 278 278 278 278 279 279 279 280 280 280 280 280 279 278 279 279
285 284 283 282 282 282 281 279 279 280 282 282 283 283 283 283 281 281 279 279 279 279 280 281 282 282 282 282 283 283 283 283 283 283 283 283 283 284 283 282 282 281 282 281 281 279 277 276 278 279 282 280 282 280 280 281 280 280 279 279 280 278
284 284 282 281 280 280 279 277 277 278 278 281 281 283 282 281 280 279 278 278 278 278 278 278 277 277 278 278 278 278 278 280 283 282 280 279 282 283 284 284 280 279 278 278 278 279 279 278 278 283 284 283 283 283 283 283 282 282 279 280 281 278
282 282 281 280 279 278 278 277 276 277 277 278 279 281 281 280 280 278 278 278 277 277 278 277 276 277 276 276 275 275 274 273 277 282 283 282 281 282 283 284 284 284 283 279 277 278 284 283 284 284 284 284 284 284 284 283 283 283 281 282 279 275
281 281 280 279 278 277 276 276 275 275 275 276 278 280 280 280 280 278 277 277 277 278 277 276 276 276 276 274 274 276 274 273 273 273 280 281 282 283 284 284 283 284 284 284 282 277 276 282 284 284 284 284 284 284 284 284 284 283 282 282 280 274
281 279 279 278 277 276 275 275 273 272 273 275 277 279 280 279 279 278 277 277 277 276 277 276 276 276 275 274 275 274 275 274 272 272 271 274 280 281 281 282 282 283 283 284 284 284 281 281 283 284 284 284 284 284 284 284 284 283 283 283 278 274
280 279 278 277 276 275 274 273 271 270 271 273 276 278 278 277 277 277 277 277 277 276 276 276 276 275 274 275 274 273 274 273 274 272 272 272 271 272 276 279 281 281 282 283 283 284 284 283 283 283 284 284 284 284 284 284 283 284 284 282 277 275
278 277 277 276 275 274 272 270 267 268 270 272 275 276 276 276 276 276 275 274 275 275 275 275 274 274 275 274 274 273 273 274 273 273 273 272 272 271 271 271 272 278 281 278 281 282 283 283 283 283 283 283 284 284 284 284 281 280 280 281 279 276
277 276 275 275 274 272 270 268 267 268 269 271 274 275 275 275 275 275 274 274 275 275 274 274 275 274 274 273 273 274 273 273 273 273 272 273 272 272 271 270 270 271 278 280 281 282 282 283 283 283 283 283 283 284 284 280 279 278 279 279 279 277